<?xml version="1.0" encoding="UTF-8" standalone="no" ?>
<gpx xmlns="http://www.topografix.com/GPX/1/1" xmlns:xsi="http://www.w3.org/2001/XMLSchema-instance" xsi:schemaLocation="http://www.topografix.com/GPX/1/1 http://www.topografix.com/GPX/1/1/gpx.xsd" version="1.1" creator="VisuGPX - https://www.visugpx.com">
  <metadata>
    <name>[29/10/2017] Rando Club SpeedEure</name>
    <desc><![CDATA[Rando VTT du dimanche 29 octobre 2017 au départ d'Evreux]]></desc>
  </metadata>
  <trk>
    <name><![CDATA[2017-10-29-01]]></name>
    <trkseg>
      <trkpt lat="49.02211" lon="1.14087">
        <ele>115.2</ele>
        <time>2017-10-29T07:35:09Z</time>
      </trkpt>
      <trkpt lat="49.02221" lon="1.14083">
        <ele>115.1</ele>
        <time>2017-10-29T07:35:13Z</time>
      </trkpt>
      <trkpt lat="49.02231" lon="1.14079">
        <ele>114.9</ele>
        <time>2017-10-29T07:35:16Z</time>
      </trkpt>
      <trkpt lat="49.0224" lon="1.14075">
        <ele>115.1</ele>
        <time>2017-10-29T07:35:19Z</time>
      </trkpt>
      <trkpt lat="49.02251" lon="1.14072">
        <ele>115.1</ele>
        <time>2017-10-29T07:35:23Z</time>
      </trkpt>
      <trkpt lat="49.0226" lon="1.14067">
        <ele>115.1</ele>
        <time>2017-10-29T07:35:27Z</time>
      </trkpt>
      <trkpt lat="49.02266" lon="1.14056">
        <ele>115.1</ele>
        <time>2017-10-29T07:35:32Z</time>
      </trkpt>
      <trkpt lat="49.02266" lon="1.14042">
        <ele>115.1</ele>
        <time>2017-10-29T07:35:36Z</time>
      </trkpt>
      <trkpt lat="49.02262" lon="1.14026">
        <ele>115.2</ele>
        <time>2017-10-29T07:35:40Z</time>
      </trkpt>
      <trkpt lat="49.02257" lon="1.1401">
        <ele>115.5</ele>
        <time>2017-10-29T07:35:44Z</time>
      </trkpt>
      <trkpt lat="49.02252" lon="1.13998">
        <ele>115.4</ele>
        <time>2017-10-29T07:35:47Z</time>
      </trkpt>
      <trkpt lat="49.02247" lon="1.13984">
        <ele>115.4</ele>
        <time>2017-10-29T07:35:50Z</time>
      </trkpt>
      <trkpt lat="49.02243" lon="1.1397">
        <ele>115.6</ele>
        <time>2017-10-29T07:35:53Z</time>
      </trkpt>
      <trkpt lat="49.02237" lon="1.13955">
        <ele>115.5</ele>
        <time>2017-10-29T07:35:56Z</time>
      </trkpt>
      <trkpt lat="49.02232" lon="1.13939">
        <ele>115.4</ele>
        <time>2017-10-29T07:35:59Z</time>
      </trkpt>
      <trkpt lat="49.02226" lon="1.13924">
        <ele>115.3</ele>
        <time>2017-10-29T07:36:02Z</time>
      </trkpt>
      <trkpt lat="49.02221" lon="1.13908">
        <ele>115.3</ele>
        <time>2017-10-29T07:36:05Z</time>
      </trkpt>
      <trkpt lat="49.02216" lon="1.13891">
        <ele>115.3</ele>
        <time>2017-10-29T07:36:08Z</time>
      </trkpt>
      <trkpt lat="49.02211" lon="1.13873">
        <ele>115.4</ele>
        <time>2017-10-29T07:36:11Z</time>
      </trkpt>
      <trkpt lat="49.02205" lon="1.13855">
        <ele>115.6</ele>
        <time>2017-10-29T07:36:14Z</time>
      </trkpt>
      <trkpt lat="49.02199" lon="1.13838">
        <ele>115.5</ele>
        <time>2017-10-29T07:36:17Z</time>
      </trkpt>
      <trkpt lat="49.02193" lon="1.13824">
        <ele>115.2</ele>
        <time>2017-10-29T07:36:20Z</time>
      </trkpt>
      <trkpt lat="49.02188" lon="1.13811">
        <ele>114.7</ele>
        <time>2017-10-29T07:37:09Z</time>
      </trkpt>
      <trkpt lat="49.02181" lon="1.13802">
        <ele>114.8</ele>
        <time>2017-10-29T07:37:13Z</time>
      </trkpt>
      <trkpt lat="49.02178" lon="1.13789">
        <ele>114.9</ele>
        <time>2017-10-29T07:37:16Z</time>
      </trkpt>
      <trkpt lat="49.02177" lon="1.13775">
        <ele>114.8</ele>
        <time>2017-10-29T07:37:21Z</time>
      </trkpt>
      <trkpt lat="49.0218" lon="1.1376">
        <ele>115</ele>
        <time>2017-10-29T07:37:26Z</time>
      </trkpt>
      <trkpt lat="49.02184" lon="1.13743">
        <ele>115</ele>
        <time>2017-10-29T07:37:30Z</time>
      </trkpt>
      <trkpt lat="49.02182" lon="1.13728">
        <ele>114.9</ele>
        <time>2017-10-29T07:37:33Z</time>
      </trkpt>
      <trkpt lat="49.02178" lon="1.13715">
        <ele>114.7</ele>
        <time>2017-10-29T07:37:36Z</time>
      </trkpt>
      <trkpt lat="49.02172" lon="1.13699">
        <ele>114.6</ele>
        <time>2017-10-29T07:37:39Z</time>
      </trkpt>
      <trkpt lat="49.02167" lon="1.13685">
        <ele>114.4</ele>
        <time>2017-10-29T07:37:42Z</time>
      </trkpt>
      <trkpt lat="49.02162" lon="1.13671">
        <ele>114.4</ele>
        <time>2017-10-29T07:37:45Z</time>
      </trkpt>
      <trkpt lat="49.02158" lon="1.13655">
        <ele>114.5</ele>
        <time>2017-10-29T07:37:48Z</time>
      </trkpt>
      <trkpt lat="49.02157" lon="1.13641">
        <ele>114.6</ele>
        <time>2017-10-29T07:37:51Z</time>
      </trkpt>
      <trkpt lat="49.02155" lon="1.13626">
        <ele>114.6</ele>
        <time>2017-10-29T07:37:53Z</time>
      </trkpt>
      <trkpt lat="49.02154" lon="1.1361">
        <ele>114.7</ele>
        <time>2017-10-29T07:37:56Z</time>
      </trkpt>
      <trkpt lat="49.02153" lon="1.1359">
        <ele>114.7</ele>
        <time>2017-10-29T07:37:59Z</time>
      </trkpt>
      <trkpt lat="49.0215" lon="1.13572">
        <ele>114.7</ele>
        <time>2017-10-29T07:38:02Z</time>
      </trkpt>
      <trkpt lat="49.02147" lon="1.13556">
        <ele>114.7</ele>
        <time>2017-10-29T07:38:05Z</time>
      </trkpt>
      <trkpt lat="49.02145" lon="1.13542">
        <ele>114.6</ele>
        <time>2017-10-29T07:38:07Z</time>
      </trkpt>
      <trkpt lat="49.02141" lon="1.13524">
        <ele>114.6</ele>
        <time>2017-10-29T07:38:10Z</time>
      </trkpt>
      <trkpt lat="49.02138" lon="1.1351">
        <ele>114.8</ele>
        <time>2017-10-29T07:38:13Z</time>
      </trkpt>
      <trkpt lat="49.02133" lon="1.13495">
        <ele>114.8</ele>
        <time>2017-10-29T07:38:16Z</time>
      </trkpt>
      <trkpt lat="49.02127" lon="1.13475">
        <ele>114.7</ele>
        <time>2017-10-29T07:38:19Z</time>
      </trkpt>
      <trkpt lat="49.02123" lon="1.13457">
        <ele>115</ele>
        <time>2017-10-29T07:38:22Z</time>
      </trkpt>
      <trkpt lat="49.0212" lon="1.13442">
        <ele>115</ele>
        <time>2017-10-29T07:38:25Z</time>
      </trkpt>
      <trkpt lat="49.02116" lon="1.13426">
        <ele>114.7</ele>
        <time>2017-10-29T07:38:29Z</time>
      </trkpt>
      <trkpt lat="49.02112" lon="1.1341">
        <ele>114.5</ele>
        <time>2017-10-29T07:38:32Z</time>
      </trkpt>
      <trkpt lat="49.02109" lon="1.13393">
        <ele>114.6</ele>
        <time>2017-10-29T07:38:35Z</time>
      </trkpt>
      <trkpt lat="49.02105" lon="1.13376">
        <ele>114.8</ele>
        <time>2017-10-29T07:38:39Z</time>
      </trkpt>
      <trkpt lat="49.021" lon="1.13359">
        <ele>114.9</ele>
        <time>2017-10-29T07:38:43Z</time>
      </trkpt>
      <trkpt lat="49.02094" lon="1.13342">
        <ele>115</ele>
        <time>2017-10-29T07:38:46Z</time>
      </trkpt>
      <trkpt lat="49.02089" lon="1.13323">
        <ele>115.1</ele>
        <time>2017-10-29T07:38:49Z</time>
      </trkpt>
      <trkpt lat="49.02084" lon="1.13307">
        <ele>115</ele>
        <time>2017-10-29T07:38:52Z</time>
      </trkpt>
      <trkpt lat="49.02081" lon="1.13293">
        <ele>115.1</ele>
        <time>2017-10-29T07:38:55Z</time>
      </trkpt>
      <trkpt lat="49.02077" lon="1.13278">
        <ele>115.2</ele>
        <time>2017-10-29T07:38:59Z</time>
      </trkpt>
      <trkpt lat="49.02071" lon="1.13264">
        <ele>115.1</ele>
        <time>2017-10-29T07:39:06Z</time>
      </trkpt>
      <trkpt lat="49.02065" lon="1.13249">
        <ele>115</ele>
        <time>2017-10-29T07:39:10Z</time>
      </trkpt>
      <trkpt lat="49.02062" lon="1.13233">
        <ele>114.7</ele>
        <time>2017-10-29T07:39:18Z</time>
      </trkpt>
      <trkpt lat="49.02057" lon="1.13219">
        <ele>114.9</ele>
        <time>2017-10-29T07:39:22Z</time>
      </trkpt>
      <trkpt lat="49.02052" lon="1.13202">
        <ele>114.8</ele>
        <time>2017-10-29T07:39:26Z</time>
      </trkpt>
      <trkpt lat="49.02048" lon="1.13187">
        <ele>114.8</ele>
        <time>2017-10-29T07:39:29Z</time>
      </trkpt>
      <trkpt lat="49.02043" lon="1.13171">
        <ele>115</ele>
        <time>2017-10-29T07:39:32Z</time>
      </trkpt>
      <trkpt lat="49.02038" lon="1.13154">
        <ele>115</ele>
        <time>2017-10-29T07:39:35Z</time>
      </trkpt>
      <trkpt lat="49.02032" lon="1.13137">
        <ele>115</ele>
        <time>2017-10-29T07:39:38Z</time>
      </trkpt>
      <trkpt lat="49.02027" lon="1.13121">
        <ele>115</ele>
        <time>2017-10-29T07:39:41Z</time>
      </trkpt>
      <trkpt lat="49.02022" lon="1.13106">
        <ele>114.7</ele>
        <time>2017-10-29T07:39:44Z</time>
      </trkpt>
      <trkpt lat="49.02016" lon="1.13092">
        <ele>114.8</ele>
        <time>2017-10-29T07:39:47Z</time>
      </trkpt>
      <trkpt lat="49.0201" lon="1.13078">
        <ele>114.9</ele>
        <time>2017-10-29T07:39:50Z</time>
      </trkpt>
      <trkpt lat="49.02004" lon="1.13063">
        <ele>115</ele>
        <time>2017-10-29T07:39:53Z</time>
      </trkpt>
      <trkpt lat="49.01998" lon="1.13047">
        <ele>115.2</ele>
        <time>2017-10-29T07:39:56Z</time>
      </trkpt>
      <trkpt lat="49.01994" lon="1.13031">
        <ele>115.2</ele>
        <time>2017-10-29T07:39:59Z</time>
      </trkpt>
      <trkpt lat="49.0199" lon="1.13016">
        <ele>115.1</ele>
        <time>2017-10-29T07:40:02Z</time>
      </trkpt>
      <trkpt lat="49.01987" lon="1.13">
        <ele>115.3</ele>
        <time>2017-10-29T07:40:05Z</time>
      </trkpt>
      <trkpt lat="49.01984" lon="1.12984">
        <ele>115.4</ele>
        <time>2017-10-29T07:40:08Z</time>
      </trkpt>
      <trkpt lat="49.01981" lon="1.12967">
        <ele>115.3</ele>
        <time>2017-10-29T07:40:11Z</time>
      </trkpt>
      <trkpt lat="49.01979" lon="1.1295">
        <ele>115.2</ele>
        <time>2017-10-29T07:40:14Z</time>
      </trkpt>
      <trkpt lat="49.01979" lon="1.12936">
        <ele>115.3</ele>
        <time>2017-10-29T07:40:18Z</time>
      </trkpt>
      <trkpt lat="49.01984" lon="1.12922">
        <ele>115.4</ele>
        <time>2017-10-29T07:40:21Z</time>
      </trkpt>
      <trkpt lat="49.01993" lon="1.12914">
        <ele>115.3</ele>
        <time>2017-10-29T07:40:24Z</time>
      </trkpt>
      <trkpt lat="49.02" lon="1.12905">
        <ele>115.4</ele>
        <time>2017-10-29T07:40:27Z</time>
      </trkpt>
      <trkpt lat="49.02009" lon="1.12893">
        <ele>115.3</ele>
        <time>2017-10-29T07:40:31Z</time>
      </trkpt>
      <trkpt lat="49.02019" lon="1.12883">
        <ele>115.2</ele>
        <time>2017-10-29T07:40:34Z</time>
      </trkpt>
      <trkpt lat="49.02029" lon="1.12874">
        <ele>115.3</ele>
        <time>2017-10-29T07:40:37Z</time>
      </trkpt>
      <trkpt lat="49.02039" lon="1.12865">
        <ele>115.3</ele>
        <time>2017-10-29T07:40:40Z</time>
      </trkpt>
      <trkpt lat="49.02049" lon="1.12854">
        <ele>115.3</ele>
        <time>2017-10-29T07:40:43Z</time>
      </trkpt>
      <trkpt lat="49.02057" lon="1.12847">
        <ele>115.3</ele>
        <time>2017-10-29T07:40:45Z</time>
      </trkpt>
      <trkpt lat="49.02067" lon="1.12836">
        <ele>115.6</ele>
        <time>2017-10-29T07:40:48Z</time>
      </trkpt>
      <trkpt lat="49.02074" lon="1.12828">
        <ele>115.7</ele>
        <time>2017-10-29T07:40:50Z</time>
      </trkpt>
      <trkpt lat="49.02085" lon="1.12816">
        <ele>115.8</ele>
        <time>2017-10-29T07:40:53Z</time>
      </trkpt>
      <trkpt lat="49.02094" lon="1.12804">
        <ele>116</ele>
        <time>2017-10-29T07:40:56Z</time>
      </trkpt>
      <trkpt lat="49.02102" lon="1.12792">
        <ele>115.8</ele>
        <time>2017-10-29T07:40:59Z</time>
      </trkpt>
      <trkpt lat="49.02112" lon="1.1278">
        <ele>115.9</ele>
        <time>2017-10-29T07:41:02Z</time>
      </trkpt>
      <trkpt lat="49.02121" lon="1.12767">
        <ele>115.9</ele>
        <time>2017-10-29T07:41:05Z</time>
      </trkpt>
      <trkpt lat="49.02129" lon="1.1276">
        <ele>116</ele>
        <time>2017-10-29T07:41:07Z</time>
      </trkpt>
      <trkpt lat="49.02139" lon="1.12747">
        <ele>115.9</ele>
        <time>2017-10-29T07:41:10Z</time>
      </trkpt>
      <trkpt lat="49.02148" lon="1.12733">
        <ele>115.8</ele>
        <time>2017-10-29T07:41:13Z</time>
      </trkpt>
      <trkpt lat="49.02157" lon="1.12719">
        <ele>115.9</ele>
        <time>2017-10-29T07:41:16Z</time>
      </trkpt>
      <trkpt lat="49.02164" lon="1.12709">
        <ele>115.9</ele>
        <time>2017-10-29T07:41:18Z</time>
      </trkpt>
      <trkpt lat="49.02171" lon="1.12699">
        <ele>115.9</ele>
        <time>2017-10-29T07:41:20Z</time>
      </trkpt>
      <trkpt lat="49.02179" lon="1.12686">
        <ele>115.8</ele>
        <time>2017-10-29T07:41:23Z</time>
      </trkpt>
      <trkpt lat="49.02186" lon="1.12672">
        <ele>115.6</ele>
        <time>2017-10-29T07:41:26Z</time>
      </trkpt>
      <trkpt lat="49.02194" lon="1.12661">
        <ele>115.5</ele>
        <time>2017-10-29T07:41:29Z</time>
      </trkpt>
      <trkpt lat="49.02203" lon="1.12657">
        <ele>115.4</ele>
        <time>2017-10-29T07:41:32Z</time>
      </trkpt>
      <trkpt lat="49.02214" lon="1.12657">
        <ele>115.3</ele>
        <time>2017-10-29T07:41:36Z</time>
      </trkpt>
      <trkpt lat="49.02224" lon="1.12664">
        <ele>115.5</ele>
        <time>2017-10-29T07:41:39Z</time>
      </trkpt>
      <trkpt lat="49.02234" lon="1.12674">
        <ele>115.8</ele>
        <time>2017-10-29T07:41:42Z</time>
      </trkpt>
      <trkpt lat="49.02244" lon="1.12681">
        <ele>115.9</ele>
        <time>2017-10-29T07:41:45Z</time>
      </trkpt>
      <trkpt lat="49.02252" lon="1.12673">
        <ele>115.7</ele>
        <time>2017-10-29T07:41:48Z</time>
      </trkpt>
      <trkpt lat="49.02261" lon="1.12659">
        <ele>115.7</ele>
        <time>2017-10-29T07:41:51Z</time>
      </trkpt>
      <trkpt lat="49.02273" lon="1.12651">
        <ele>115.5</ele>
        <time>2017-10-29T07:41:54Z</time>
      </trkpt>
      <trkpt lat="49.02285" lon="1.12646">
        <ele>115.3</ele>
        <time>2017-10-29T07:41:57Z</time>
      </trkpt>
      <trkpt lat="49.02297" lon="1.12638">
        <ele>115.1</ele>
        <time>2017-10-29T07:42:00Z</time>
      </trkpt>
      <trkpt lat="49.02307" lon="1.12629">
        <ele>115.1</ele>
        <time>2017-10-29T07:42:03Z</time>
      </trkpt>
      <trkpt lat="49.02317" lon="1.12619">
        <ele>115</ele>
        <time>2017-10-29T07:42:06Z</time>
      </trkpt>
      <trkpt lat="49.02327" lon="1.12609">
        <ele>115</ele>
        <time>2017-10-29T07:42:09Z</time>
      </trkpt>
      <trkpt lat="49.02337" lon="1.12599">
        <ele>115.1</ele>
        <time>2017-10-29T07:42:12Z</time>
      </trkpt>
      <trkpt lat="49.02348" lon="1.1259">
        <ele>115.2</ele>
        <time>2017-10-29T07:42:15Z</time>
      </trkpt>
      <trkpt lat="49.02358" lon="1.12579">
        <ele>115.4</ele>
        <time>2017-10-29T07:42:18Z</time>
      </trkpt>
      <trkpt lat="49.02369" lon="1.12568">
        <ele>115.5</ele>
        <time>2017-10-29T07:42:21Z</time>
      </trkpt>
      <trkpt lat="49.02378" lon="1.12559">
        <ele>115.8</ele>
        <time>2017-10-29T07:42:24Z</time>
      </trkpt>
      <trkpt lat="49.02387" lon="1.12552">
        <ele>116.2</ele>
        <time>2017-10-29T07:42:28Z</time>
      </trkpt>
      <trkpt lat="49.02396" lon="1.12552">
        <ele>116.9</ele>
        <time>2017-10-29T07:43:00Z</time>
      </trkpt>
      <trkpt lat="49.02406" lon="1.12543">
        <ele>117</ele>
        <time>2017-10-29T07:43:04Z</time>
      </trkpt>
      <trkpt lat="49.02413" lon="1.1253">
        <ele>117.3</ele>
        <time>2017-10-29T07:43:07Z</time>
      </trkpt>
      <trkpt lat="49.02424" lon="1.1252">
        <ele>117.5</ele>
        <time>2017-10-29T07:43:10Z</time>
      </trkpt>
      <trkpt lat="49.02435" lon="1.12512">
        <ele>117.6</ele>
        <time>2017-10-29T07:43:13Z</time>
      </trkpt>
      <trkpt lat="49.02447" lon="1.12503">
        <ele>117.7</ele>
        <time>2017-10-29T07:43:16Z</time>
      </trkpt>
      <trkpt lat="49.02458" lon="1.12493">
        <ele>117.7</ele>
        <time>2017-10-29T07:43:19Z</time>
      </trkpt>
      <trkpt lat="49.02468" lon="1.12483">
        <ele>117.8</ele>
        <time>2017-10-29T07:43:22Z</time>
      </trkpt>
      <trkpt lat="49.02478" lon="1.12473">
        <ele>118.1</ele>
        <time>2017-10-29T07:43:25Z</time>
      </trkpt>
      <trkpt lat="49.02488" lon="1.12462">
        <ele>118.2</ele>
        <time>2017-10-29T07:43:28Z</time>
      </trkpt>
      <trkpt lat="49.02498" lon="1.12452">
        <ele>118.4</ele>
        <time>2017-10-29T07:43:31Z</time>
      </trkpt>
      <trkpt lat="49.02508" lon="1.12441">
        <ele>118.5</ele>
        <time>2017-10-29T07:43:34Z</time>
      </trkpt>
      <trkpt lat="49.02518" lon="1.12429">
        <ele>118.6</ele>
        <time>2017-10-29T07:43:37Z</time>
      </trkpt>
      <trkpt lat="49.02528" lon="1.12418">
        <ele>118.5</ele>
        <time>2017-10-29T07:43:40Z</time>
      </trkpt>
      <trkpt lat="49.0254" lon="1.12413">
        <ele>118.5</ele>
        <time>2017-10-29T07:43:43Z</time>
      </trkpt>
      <trkpt lat="49.02551" lon="1.12414">
        <ele>118.7</ele>
        <time>2017-10-29T07:43:46Z</time>
      </trkpt>
      <trkpt lat="49.02563" lon="1.12415">
        <ele>118.9</ele>
        <time>2017-10-29T07:43:49Z</time>
      </trkpt>
      <trkpt lat="49.02576" lon="1.12415">
        <ele>118.9</ele>
        <time>2017-10-29T07:43:52Z</time>
      </trkpt>
      <trkpt lat="49.02589" lon="1.12416">
        <ele>119.1</ele>
        <time>2017-10-29T07:43:55Z</time>
      </trkpt>
      <trkpt lat="49.02602" lon="1.12417">
        <ele>119.2</ele>
        <time>2017-10-29T07:43:58Z</time>
      </trkpt>
      <trkpt lat="49.02614" lon="1.12419">
        <ele>119.3</ele>
        <time>2017-10-29T07:44:01Z</time>
      </trkpt>
      <trkpt lat="49.02626" lon="1.1242">
        <ele>119.5</ele>
        <time>2017-10-29T07:44:04Z</time>
      </trkpt>
      <trkpt lat="49.02637" lon="1.12422">
        <ele>119.8</ele>
        <time>2017-10-29T07:44:07Z</time>
      </trkpt>
      <trkpt lat="49.02647" lon="1.12423">
        <ele>120.2</ele>
        <time>2017-10-29T07:44:10Z</time>
      </trkpt>
      <trkpt lat="49.02658" lon="1.12427">
        <ele>120.8</ele>
        <time>2017-10-29T07:44:13Z</time>
      </trkpt>
      <trkpt lat="49.02668" lon="1.12431">
        <ele>121.5</ele>
        <time>2017-10-29T07:44:16Z</time>
      </trkpt>
      <trkpt lat="49.02678" lon="1.12436">
        <ele>122.3</ele>
        <time>2017-10-29T07:44:19Z</time>
      </trkpt>
      <trkpt lat="49.02687" lon="1.12441">
        <ele>122.9</ele>
        <time>2017-10-29T07:44:22Z</time>
      </trkpt>
      <trkpt lat="49.02698" lon="1.12447">
        <ele>123.4</ele>
        <time>2017-10-29T07:44:25Z</time>
      </trkpt>
      <trkpt lat="49.02708" lon="1.12456">
        <ele>123.9</ele>
        <time>2017-10-29T07:44:28Z</time>
      </trkpt>
      <trkpt lat="49.02718" lon="1.12465">
        <ele>124</ele>
        <time>2017-10-29T07:44:31Z</time>
      </trkpt>
      <trkpt lat="49.02728" lon="1.12476">
        <ele>124.2</ele>
        <time>2017-10-29T07:44:34Z</time>
      </trkpt>
      <trkpt lat="49.02737" lon="1.1249">
        <ele>124.1</ele>
        <time>2017-10-29T07:44:37Z</time>
      </trkpt>
      <trkpt lat="49.02744" lon="1.12504">
        <ele>124</ele>
        <time>2017-10-29T07:44:40Z</time>
      </trkpt>
      <trkpt lat="49.02752" lon="1.12519">
        <ele>123.9</ele>
        <time>2017-10-29T07:44:43Z</time>
      </trkpt>
      <trkpt lat="49.0276" lon="1.12535">
        <ele>124</ele>
        <time>2017-10-29T07:44:46Z</time>
      </trkpt>
      <trkpt lat="49.02769" lon="1.12548">
        <ele>123.8</ele>
        <time>2017-10-29T07:44:49Z</time>
      </trkpt>
      <trkpt lat="49.02778" lon="1.1256">
        <ele>123.6</ele>
        <time>2017-10-29T07:44:52Z</time>
      </trkpt>
      <trkpt lat="49.02787" lon="1.1257">
        <ele>123.6</ele>
        <time>2017-10-29T07:44:55Z</time>
      </trkpt>
      <trkpt lat="49.02798" lon="1.12577">
        <ele>123.7</ele>
        <time>2017-10-29T07:44:58Z</time>
      </trkpt>
      <trkpt lat="49.0281" lon="1.12583">
        <ele>123.8</ele>
        <time>2017-10-29T07:45:01Z</time>
      </trkpt>
      <trkpt lat="49.02822" lon="1.12588">
        <ele>123.5</ele>
        <time>2017-10-29T07:45:04Z</time>
      </trkpt>
      <trkpt lat="49.02835" lon="1.12591">
        <ele>123.7</ele>
        <time>2017-10-29T07:45:07Z</time>
      </trkpt>
      <trkpt lat="49.02848" lon="1.12593">
        <ele>124</ele>
        <time>2017-10-29T07:45:10Z</time>
      </trkpt>
      <trkpt lat="49.0286" lon="1.12592">
        <ele>124.3</ele>
        <time>2017-10-29T07:45:13Z</time>
      </trkpt>
      <trkpt lat="49.02871" lon="1.12591">
        <ele>124.9</ele>
        <time>2017-10-29T07:45:16Z</time>
      </trkpt>
      <trkpt lat="49.02882" lon="1.12587">
        <ele>125.3</ele>
        <time>2017-10-29T07:45:19Z</time>
      </trkpt>
      <trkpt lat="49.02892" lon="1.12582">
        <ele>125.7</ele>
        <time>2017-10-29T07:45:22Z</time>
      </trkpt>
      <trkpt lat="49.02905" lon="1.12578">
        <ele>126.2</ele>
        <time>2017-10-29T07:45:25Z</time>
      </trkpt>
      <trkpt lat="49.02917" lon="1.12576">
        <ele>126.4</ele>
        <time>2017-10-29T07:45:28Z</time>
      </trkpt>
      <trkpt lat="49.0293" lon="1.12574">
        <ele>126.4</ele>
        <time>2017-10-29T07:45:31Z</time>
      </trkpt>
      <trkpt lat="49.02939" lon="1.12574">
        <ele>126.4</ele>
        <time>2017-10-29T07:45:33Z</time>
      </trkpt>
      <trkpt lat="49.02952" lon="1.12574">
        <ele>126.5</ele>
        <time>2017-10-29T07:45:36Z</time>
      </trkpt>
      <trkpt lat="49.02961" lon="1.12576">
        <ele>126.6</ele>
        <time>2017-10-29T07:45:38Z</time>
      </trkpt>
      <trkpt lat="49.02975" lon="1.1258">
        <ele>126.5</ele>
        <time>2017-10-29T07:45:41Z</time>
      </trkpt>
      <trkpt lat="49.02987" lon="1.12583">
        <ele>126.4</ele>
        <time>2017-10-29T07:45:44Z</time>
      </trkpt>
      <trkpt lat="49.03" lon="1.12586">
        <ele>126.4</ele>
        <time>2017-10-29T07:45:47Z</time>
      </trkpt>
      <trkpt lat="49.03012" lon="1.1259">
        <ele>126.4</ele>
        <time>2017-10-29T07:45:50Z</time>
      </trkpt>
      <trkpt lat="49.03024" lon="1.12591">
        <ele>126.6</ele>
        <time>2017-10-29T07:45:53Z</time>
      </trkpt>
      <trkpt lat="49.03036" lon="1.12589">
        <ele>126.7</ele>
        <time>2017-10-29T07:45:56Z</time>
      </trkpt>
      <trkpt lat="49.03048" lon="1.12587">
        <ele>126.9</ele>
        <time>2017-10-29T07:45:59Z</time>
      </trkpt>
      <trkpt lat="49.03061" lon="1.1258">
        <ele>127</ele>
        <time>2017-10-29T07:46:02Z</time>
      </trkpt>
      <trkpt lat="49.0307" lon="1.12574">
        <ele>127.1</ele>
        <time>2017-10-29T07:46:04Z</time>
      </trkpt>
      <trkpt lat="49.03079" lon="1.12568">
        <ele>127.2</ele>
        <time>2017-10-29T07:46:06Z</time>
      </trkpt>
      <trkpt lat="49.03088" lon="1.12561">
        <ele>127.3</ele>
        <time>2017-10-29T07:46:08Z</time>
      </trkpt>
      <trkpt lat="49.03096" lon="1.12555">
        <ele>127.3</ele>
        <time>2017-10-29T07:46:10Z</time>
      </trkpt>
      <trkpt lat="49.03104" lon="1.1255">
        <ele>127.3</ele>
        <time>2017-10-29T07:46:12Z</time>
      </trkpt>
      <trkpt lat="49.03117" lon="1.12545">
        <ele>127.5</ele>
        <time>2017-10-29T07:46:15Z</time>
      </trkpt>
      <trkpt lat="49.03127" lon="1.12543">
        <ele>127.6</ele>
        <time>2017-10-29T07:46:17Z</time>
      </trkpt>
      <trkpt lat="49.03139" lon="1.12539">
        <ele>127.6</ele>
        <time>2017-10-29T07:46:20Z</time>
      </trkpt>
      <trkpt lat="49.0315" lon="1.12534">
        <ele>127.9</ele>
        <time>2017-10-29T07:46:23Z</time>
      </trkpt>
      <trkpt lat="49.03161" lon="1.12527">
        <ele>128.3</ele>
        <time>2017-10-29T07:46:26Z</time>
      </trkpt>
      <trkpt lat="49.03174" lon="1.1252">
        <ele>128.6</ele>
        <time>2017-10-29T07:46:29Z</time>
      </trkpt>
      <trkpt lat="49.03182" lon="1.12516">
        <ele>128.6</ele>
        <time>2017-10-29T07:46:31Z</time>
      </trkpt>
      <trkpt lat="49.03194" lon="1.12509">
        <ele>129.1</ele>
        <time>2017-10-29T07:46:34Z</time>
      </trkpt>
      <trkpt lat="49.03208" lon="1.12505">
        <ele>129.5</ele>
        <time>2017-10-29T07:46:37Z</time>
      </trkpt>
      <trkpt lat="49.0322" lon="1.12501">
        <ele>130</ele>
        <time>2017-10-29T07:46:40Z</time>
      </trkpt>
      <trkpt lat="49.03232" lon="1.12498">
        <ele>130.4</ele>
        <time>2017-10-29T07:46:43Z</time>
      </trkpt>
      <trkpt lat="49.03245" lon="1.12497">
        <ele>131</ele>
        <time>2017-10-29T07:46:46Z</time>
      </trkpt>
      <trkpt lat="49.03259" lon="1.12497">
        <ele>131.2</ele>
        <time>2017-10-29T07:46:49Z</time>
      </trkpt>
      <trkpt lat="49.03268" lon="1.12497">
        <ele>131.3</ele>
        <time>2017-10-29T07:46:51Z</time>
      </trkpt>
      <trkpt lat="49.03281" lon="1.12496">
        <ele>131.2</ele>
        <time>2017-10-29T07:46:54Z</time>
      </trkpt>
      <trkpt lat="49.03291" lon="1.12493">
        <ele>131.1</ele>
        <time>2017-10-29T07:46:56Z</time>
      </trkpt>
      <trkpt lat="49.03303" lon="1.12487">
        <ele>131.1</ele>
        <time>2017-10-29T07:46:59Z</time>
      </trkpt>
      <trkpt lat="49.03312" lon="1.12481">
        <ele>130.9</ele>
        <time>2017-10-29T07:47:01Z</time>
      </trkpt>
      <trkpt lat="49.03319" lon="1.12471">
        <ele>130.9</ele>
        <time>2017-10-29T07:47:03Z</time>
      </trkpt>
      <trkpt lat="49.03324" lon="1.12457">
        <ele>130.9</ele>
        <time>2017-10-29T07:47:05Z</time>
      </trkpt>
      <trkpt lat="49.03326" lon="1.12441">
        <ele>130.6</ele>
        <time>2017-10-29T07:47:07Z</time>
      </trkpt>
      <trkpt lat="49.03326" lon="1.12425">
        <ele>130.4</ele>
        <time>2017-10-29T07:47:09Z</time>
      </trkpt>
      <trkpt lat="49.03328" lon="1.12412">
        <ele>130.3</ele>
        <time>2017-10-29T07:47:11Z</time>
      </trkpt>
      <trkpt lat="49.0333" lon="1.12393">
        <ele>130.2</ele>
        <time>2017-10-29T07:47:14Z</time>
      </trkpt>
      <trkpt lat="49.03331" lon="1.12375">
        <ele>130.1</ele>
        <time>2017-10-29T07:47:17Z</time>
      </trkpt>
      <trkpt lat="49.03331" lon="1.12351">
        <ele>130</ele>
        <time>2017-10-29T07:47:20Z</time>
      </trkpt>
      <trkpt lat="49.03334" lon="1.12332">
        <ele>130.3</ele>
        <time>2017-10-29T07:47:23Z</time>
      </trkpt>
      <trkpt lat="49.03337" lon="1.12318">
        <ele>130.5</ele>
        <time>2017-10-29T07:47:25Z</time>
      </trkpt>
      <trkpt lat="49.03344" lon="1.12302">
        <ele>130.8</ele>
        <time>2017-10-29T07:47:28Z</time>
      </trkpt>
      <trkpt lat="49.03349" lon="1.12285">
        <ele>131.1</ele>
        <time>2017-10-29T07:47:31Z</time>
      </trkpt>
      <trkpt lat="49.03358" lon="1.12271">
        <ele>131.4</ele>
        <time>2017-10-29T07:47:34Z</time>
      </trkpt>
      <trkpt lat="49.03366" lon="1.12259">
        <ele>131.8</ele>
        <time>2017-10-29T07:47:37Z</time>
      </trkpt>
      <trkpt lat="49.03372" lon="1.12248">
        <ele>132.2</ele>
        <time>2017-10-29T07:47:40Z</time>
      </trkpt>
      <trkpt lat="49.03379" lon="1.12239">
        <ele>132.6</ele>
        <time>2017-10-29T07:47:46Z</time>
      </trkpt>
      <trkpt lat="49.0339" lon="1.12238">
        <ele>133</ele>
        <time>2017-10-29T07:47:52Z</time>
      </trkpt>
      <trkpt lat="49.03397" lon="1.12247">
        <ele>133.5</ele>
        <time>2017-10-29T07:47:57Z</time>
      </trkpt>
      <trkpt lat="49.03405" lon="1.12259">
        <ele>133.6</ele>
        <time>2017-10-29T07:48:01Z</time>
      </trkpt>
      <trkpt lat="49.03413" lon="1.1227">
        <ele>133.6</ele>
        <time>2017-10-29T07:48:04Z</time>
      </trkpt>
      <trkpt lat="49.0342" lon="1.12284">
        <ele>133.3</ele>
        <time>2017-10-29T07:48:09Z</time>
      </trkpt>
      <trkpt lat="49.03426" lon="1.12298">
        <ele>133.2</ele>
        <time>2017-10-29T07:48:13Z</time>
      </trkpt>
      <trkpt lat="49.03431" lon="1.1231">
        <ele>133.3</ele>
        <time>2017-10-29T07:48:16Z</time>
      </trkpt>
      <trkpt lat="49.03434" lon="1.12323">
        <ele>133.4</ele>
        <time>2017-10-29T07:48:19Z</time>
      </trkpt>
      <trkpt lat="49.0344" lon="1.12337">
        <ele>133.4</ele>
        <time>2017-10-29T07:48:22Z</time>
      </trkpt>
      <trkpt lat="49.03447" lon="1.12347">
        <ele>133.6</ele>
        <time>2017-10-29T07:48:25Z</time>
      </trkpt>
      <trkpt lat="49.03453" lon="1.12358">
        <ele>133.5</ele>
        <time>2017-10-29T07:48:27Z</time>
      </trkpt>
      <trkpt lat="49.0346" lon="1.12371">
        <ele>133.6</ele>
        <time>2017-10-29T07:48:31Z</time>
      </trkpt>
      <trkpt lat="49.03468" lon="1.12378">
        <ele>133.6</ele>
        <time>2017-10-29T07:48:35Z</time>
      </trkpt>
      <trkpt lat="49.03478" lon="1.12383">
        <ele>133.7</ele>
        <time>2017-10-29T07:48:38Z</time>
      </trkpt>
      <trkpt lat="49.03491" lon="1.1238">
        <ele>133.8</ele>
        <time>2017-10-29T07:48:43Z</time>
      </trkpt>
      <trkpt lat="49.03502" lon="1.12372">
        <ele>133.8</ele>
        <time>2017-10-29T07:48:46Z</time>
      </trkpt>
      <trkpt lat="49.03513" lon="1.1237">
        <ele>134.3</ele>
        <time>2017-10-29T07:48:48Z</time>
      </trkpt>
      <trkpt lat="49.03522" lon="1.12361">
        <ele>134.8</ele>
        <time>2017-10-29T07:48:51Z</time>
      </trkpt>
      <trkpt lat="49.03527" lon="1.12347">
        <ele>135.1</ele>
        <time>2017-10-29T07:48:54Z</time>
      </trkpt>
      <trkpt lat="49.03536" lon="1.12333">
        <ele>135.3</ele>
        <time>2017-10-29T07:48:57Z</time>
      </trkpt>
      <trkpt lat="49.03543" lon="1.12319">
        <ele>135.2</ele>
        <time>2017-10-29T07:49:00Z</time>
      </trkpt>
      <trkpt lat="49.0355" lon="1.12304">
        <ele>135.3</ele>
        <time>2017-10-29T07:49:03Z</time>
      </trkpt>
      <trkpt lat="49.03555" lon="1.12289">
        <ele>135.2</ele>
        <time>2017-10-29T07:49:06Z</time>
      </trkpt>
      <trkpt lat="49.0356" lon="1.12271">
        <ele>135.4</ele>
        <time>2017-10-29T07:49:09Z</time>
      </trkpt>
      <trkpt lat="49.03564" lon="1.12253">
        <ele>135.7</ele>
        <time>2017-10-29T07:49:12Z</time>
      </trkpt>
      <trkpt lat="49.03567" lon="1.12238">
        <ele>135.7</ele>
        <time>2017-10-29T07:49:15Z</time>
      </trkpt>
      <trkpt lat="49.03571" lon="1.12222">
        <ele>136</ele>
        <time>2017-10-29T07:49:18Z</time>
      </trkpt>
      <trkpt lat="49.03572" lon="1.12207">
        <ele>136.5</ele>
        <time>2017-10-29T07:49:21Z</time>
      </trkpt>
      <trkpt lat="49.03574" lon="1.1219">
        <ele>136.6</ele>
        <time>2017-10-29T07:49:24Z</time>
      </trkpt>
      <trkpt lat="49.03575" lon="1.12171">
        <ele>136.7</ele>
        <time>2017-10-29T07:49:27Z</time>
      </trkpt>
      <trkpt lat="49.03574" lon="1.12156">
        <ele>136.8</ele>
        <time>2017-10-29T07:49:30Z</time>
      </trkpt>
      <trkpt lat="49.03572" lon="1.12142">
        <ele>137.1</ele>
        <time>2017-10-29T07:49:33Z</time>
      </trkpt>
      <trkpt lat="49.03569" lon="1.12126">
        <ele>137.3</ele>
        <time>2017-10-29T07:49:36Z</time>
      </trkpt>
      <trkpt lat="49.03568" lon="1.12112">
        <ele>137.7</ele>
        <time>2017-10-29T07:49:39Z</time>
      </trkpt>
      <trkpt lat="49.03567" lon="1.12095">
        <ele>137.7</ele>
        <time>2017-10-29T07:49:42Z</time>
      </trkpt>
      <trkpt lat="49.03567" lon="1.12076">
        <ele>137.7</ele>
        <time>2017-10-29T07:49:45Z</time>
      </trkpt>
      <trkpt lat="49.03568" lon="1.12058">
        <ele>137.9</ele>
        <time>2017-10-29T07:49:48Z</time>
      </trkpt>
      <trkpt lat="49.03566" lon="1.12042">
        <ele>138</ele>
        <time>2017-10-29T07:49:51Z</time>
      </trkpt>
      <trkpt lat="49.03566" lon="1.12023">
        <ele>138.1</ele>
        <time>2017-10-29T07:49:54Z</time>
      </trkpt>
      <trkpt lat="49.03566" lon="1.12006">
        <ele>138.3</ele>
        <time>2017-10-29T07:49:56Z</time>
      </trkpt>
      <trkpt lat="49.03566" lon="1.11988">
        <ele>138.5</ele>
        <time>2017-10-29T07:49:59Z</time>
      </trkpt>
      <trkpt lat="49.03567" lon="1.1197">
        <ele>138.5</ele>
        <time>2017-10-29T07:50:02Z</time>
      </trkpt>
      <trkpt lat="49.03568" lon="1.11952">
        <ele>138.6</ele>
        <time>2017-10-29T07:50:05Z</time>
      </trkpt>
      <trkpt lat="49.03572" lon="1.11938">
        <ele>138.8</ele>
        <time>2017-10-29T07:50:08Z</time>
      </trkpt>
      <trkpt lat="49.03578" lon="1.11925">
        <ele>139.1</ele>
        <time>2017-10-29T07:50:11Z</time>
      </trkpt>
      <trkpt lat="49.03581" lon="1.11912">
        <ele>139.9</ele>
        <time>2017-10-29T07:50:14Z</time>
      </trkpt>
      <trkpt lat="49.03585" lon="1.11899">
        <ele>140.7</ele>
        <time>2017-10-29T07:50:17Z</time>
      </trkpt>
      <trkpt lat="49.0359" lon="1.11887">
        <ele>141.8</ele>
        <time>2017-10-29T07:50:20Z</time>
      </trkpt>
      <trkpt lat="49.03594" lon="1.11875">
        <ele>143.3</ele>
        <time>2017-10-29T07:50:23Z</time>
      </trkpt>
      <trkpt lat="49.036" lon="1.11858">
        <ele>145.1</ele>
        <time>2017-10-29T07:50:27Z</time>
      </trkpt>
      <trkpt lat="49.03605" lon="1.11844">
        <ele>146</ele>
        <time>2017-10-29T07:50:30Z</time>
      </trkpt>
      <trkpt lat="49.03611" lon="1.11831">
        <ele>146</ele>
        <time>2017-10-29T07:50:33Z</time>
      </trkpt>
      <trkpt lat="49.03621" lon="1.11826">
        <ele>145.3</ele>
        <time>2017-10-29T07:50:35Z</time>
      </trkpt>
      <trkpt lat="49.0363" lon="1.1182">
        <ele>144.5</ele>
        <time>2017-10-29T07:50:37Z</time>
      </trkpt>
      <trkpt lat="49.03641" lon="1.11816">
        <ele>143.5</ele>
        <time>2017-10-29T07:50:40Z</time>
      </trkpt>
      <trkpt lat="49.03654" lon="1.11817">
        <ele>142.8</ele>
        <time>2017-10-29T07:50:44Z</time>
      </trkpt>
      <trkpt lat="49.03663" lon="1.1182">
        <ele>142.6</ele>
        <time>2017-10-29T07:50:46Z</time>
      </trkpt>
      <trkpt lat="49.03673" lon="1.11825">
        <ele>142.2</ele>
        <time>2017-10-29T07:50:49Z</time>
      </trkpt>
      <trkpt lat="49.03682" lon="1.11829">
        <ele>142.2</ele>
        <time>2017-10-29T07:50:52Z</time>
      </trkpt>
      <trkpt lat="49.03694" lon="1.11831">
        <ele>142.2</ele>
        <time>2017-10-29T07:50:55Z</time>
      </trkpt>
      <trkpt lat="49.03704" lon="1.1183">
        <ele>142.1</ele>
        <time>2017-10-29T07:50:58Z</time>
      </trkpt>
      <trkpt lat="49.03716" lon="1.11831">
        <ele>141.9</ele>
        <time>2017-10-29T07:51:01Z</time>
      </trkpt>
      <trkpt lat="49.03726" lon="1.11827">
        <ele>142.1</ele>
        <time>2017-10-29T07:51:04Z</time>
      </trkpt>
      <trkpt lat="49.03738" lon="1.11828">
        <ele>142.2</ele>
        <time>2017-10-29T07:51:07Z</time>
      </trkpt>
      <trkpt lat="49.03747" lon="1.11825">
        <ele>142.4</ele>
        <time>2017-10-29T07:51:11Z</time>
      </trkpt>
      <trkpt lat="49.03758" lon="1.11822">
        <ele>142.4</ele>
        <time>2017-10-29T07:51:14Z</time>
      </trkpt>
      <trkpt lat="49.03769" lon="1.11818">
        <ele>142.5</ele>
        <time>2017-10-29T07:51:17Z</time>
      </trkpt>
      <trkpt lat="49.03779" lon="1.11814">
        <ele>142.7</ele>
        <time>2017-10-29T07:51:20Z</time>
      </trkpt>
      <trkpt lat="49.03788" lon="1.11806">
        <ele>143.3</ele>
        <time>2017-10-29T07:51:23Z</time>
      </trkpt>
      <trkpt lat="49.03798" lon="1.11802">
        <ele>143.7</ele>
        <time>2017-10-29T07:51:25Z</time>
      </trkpt>
      <trkpt lat="49.03807" lon="1.11793">
        <ele>143.9</ele>
        <time>2017-10-29T07:51:27Z</time>
      </trkpt>
      <trkpt lat="49.03817" lon="1.11782">
        <ele>144.3</ele>
        <time>2017-10-29T07:51:30Z</time>
      </trkpt>
      <trkpt lat="49.03827" lon="1.11776">
        <ele>144.4</ele>
        <time>2017-10-29T07:51:32Z</time>
      </trkpt>
      <trkpt lat="49.03838" lon="1.11765">
        <ele>144.6</ele>
        <time>2017-10-29T07:51:34Z</time>
      </trkpt>
      <trkpt lat="49.03843" lon="1.11753">
        <ele>144.8</ele>
        <time>2017-10-29T07:51:37Z</time>
      </trkpt>
      <trkpt lat="49.03847" lon="1.11733">
        <ele>145.1</ele>
        <time>2017-10-29T07:51:40Z</time>
      </trkpt>
      <trkpt lat="49.03849" lon="1.11719">
        <ele>145.2</ele>
        <time>2017-10-29T07:51:42Z</time>
      </trkpt>
      <trkpt lat="49.0385" lon="1.11701">
        <ele>145.1</ele>
        <time>2017-10-29T07:51:45Z</time>
      </trkpt>
      <trkpt lat="49.0385" lon="1.11686">
        <ele>145.2</ele>
        <time>2017-10-29T07:51:47Z</time>
      </trkpt>
      <trkpt lat="49.03848" lon="1.1167">
        <ele>145.3</ele>
        <time>2017-10-29T07:51:50Z</time>
      </trkpt>
      <trkpt lat="49.03844" lon="1.11654">
        <ele>145.3</ele>
        <time>2017-10-29T07:51:53Z</time>
      </trkpt>
      <trkpt lat="49.03843" lon="1.1164">
        <ele>145.3</ele>
        <time>2017-10-29T07:51:55Z</time>
      </trkpt>
      <trkpt lat="49.03839" lon="1.11622">
        <ele>145.4</ele>
        <time>2017-10-29T07:51:58Z</time>
      </trkpt>
      <trkpt lat="49.03835" lon="1.11604">
        <ele>145.7</ele>
        <time>2017-10-29T07:52:01Z</time>
      </trkpt>
      <trkpt lat="49.03832" lon="1.1159">
        <ele>145.9</ele>
        <time>2017-10-29T07:52:03Z</time>
      </trkpt>
      <trkpt lat="49.03826" lon="1.11577">
        <ele>145.9</ele>
        <time>2017-10-29T07:52:05Z</time>
      </trkpt>
      <trkpt lat="49.03824" lon="1.11564">
        <ele>146.2</ele>
        <time>2017-10-29T07:52:07Z</time>
      </trkpt>
      <trkpt lat="49.03822" lon="1.11549">
        <ele>146.2</ele>
        <time>2017-10-29T07:52:09Z</time>
      </trkpt>
      <trkpt lat="49.03818" lon="1.11532">
        <ele>146.4</ele>
        <time>2017-10-29T07:52:12Z</time>
      </trkpt>
      <trkpt lat="49.03813" lon="1.11513">
        <ele>146.6</ele>
        <time>2017-10-29T07:52:15Z</time>
      </trkpt>
      <trkpt lat="49.03807" lon="1.11494">
        <ele>146.9</ele>
        <time>2017-10-29T07:52:18Z</time>
      </trkpt>
      <trkpt lat="49.03802" lon="1.11479">
        <ele>147.1</ele>
        <time>2017-10-29T07:52:20Z</time>
      </trkpt>
      <trkpt lat="49.03799" lon="1.11464">
        <ele>147.2</ele>
        <time>2017-10-29T07:52:22Z</time>
      </trkpt>
      <trkpt lat="49.03796" lon="1.1145">
        <ele>147.3</ele>
        <time>2017-10-29T07:52:24Z</time>
      </trkpt>
      <trkpt lat="49.03792" lon="1.11432">
        <ele>147.4</ele>
        <time>2017-10-29T07:52:27Z</time>
      </trkpt>
      <trkpt lat="49.0379" lon="1.11414">
        <ele>147.5</ele>
        <time>2017-10-29T07:52:30Z</time>
      </trkpt>
      <trkpt lat="49.0379" lon="1.11399">
        <ele>147.6</ele>
        <time>2017-10-29T07:52:32Z</time>
      </trkpt>
      <trkpt lat="49.03788" lon="1.11384">
        <ele>147.8</ele>
        <time>2017-10-29T07:52:34Z</time>
      </trkpt>
      <trkpt lat="49.0379" lon="1.11366">
        <ele>148</ele>
        <time>2017-10-29T07:52:36Z</time>
      </trkpt>
      <trkpt lat="49.03792" lon="1.11352">
        <ele>148.3</ele>
        <time>2017-10-29T07:52:38Z</time>
      </trkpt>
      <trkpt lat="49.03795" lon="1.11338">
        <ele>148.6</ele>
        <time>2017-10-29T07:52:40Z</time>
      </trkpt>
      <trkpt lat="49.03799" lon="1.11324">
        <ele>148.8</ele>
        <time>2017-10-29T07:52:42Z</time>
      </trkpt>
      <trkpt lat="49.038" lon="1.11308">
        <ele>149.1</ele>
        <time>2017-10-29T07:52:44Z</time>
      </trkpt>
      <trkpt lat="49.03801" lon="1.11294">
        <ele>149.2</ele>
        <time>2017-10-29T07:52:46Z</time>
      </trkpt>
      <trkpt lat="49.03803" lon="1.1128">
        <ele>149.3</ele>
        <time>2017-10-29T07:52:48Z</time>
      </trkpt>
      <trkpt lat="49.03807" lon="1.11266">
        <ele>149.5</ele>
        <time>2017-10-29T07:52:50Z</time>
      </trkpt>
      <trkpt lat="49.0381" lon="1.11251">
        <ele>149.7</ele>
        <time>2017-10-29T07:52:52Z</time>
      </trkpt>
      <trkpt lat="49.03815" lon="1.11237">
        <ele>150</ele>
        <time>2017-10-29T07:52:54Z</time>
      </trkpt>
      <trkpt lat="49.03819" lon="1.11222">
        <ele>150.2</ele>
        <time>2017-10-29T07:52:56Z</time>
      </trkpt>
      <trkpt lat="49.03823" lon="1.11209">
        <ele>150.6</ele>
        <time>2017-10-29T07:52:58Z</time>
      </trkpt>
      <trkpt lat="49.03828" lon="1.11194">
        <ele>151.1</ele>
        <time>2017-10-29T07:53:00Z</time>
      </trkpt>
      <trkpt lat="49.03833" lon="1.1118">
        <ele>151.3</ele>
        <time>2017-10-29T07:53:02Z</time>
      </trkpt>
      <trkpt lat="49.0384" lon="1.11163">
        <ele>151.6</ele>
        <time>2017-10-29T07:53:05Z</time>
      </trkpt>
      <trkpt lat="49.03845" lon="1.1115">
        <ele>151.9</ele>
        <time>2017-10-29T07:53:07Z</time>
      </trkpt>
      <trkpt lat="49.03851" lon="1.11138">
        <ele>152.1</ele>
        <time>2017-10-29T07:53:09Z</time>
      </trkpt>
      <trkpt lat="49.03858" lon="1.11119">
        <ele>152.1</ele>
        <time>2017-10-29T07:53:12Z</time>
      </trkpt>
      <trkpt lat="49.03864" lon="1.11108">
        <ele>152.2</ele>
        <time>2017-10-29T07:53:14Z</time>
      </trkpt>
      <trkpt lat="49.03873" lon="1.11104">
        <ele>152.2</ele>
        <time>2017-10-29T07:53:16Z</time>
      </trkpt>
      <trkpt lat="49.03884" lon="1.11102">
        <ele>152</ele>
        <time>2017-10-29T07:53:19Z</time>
      </trkpt>
      <trkpt lat="49.03894" lon="1.11097">
        <ele>152</ele>
        <time>2017-10-29T07:53:22Z</time>
      </trkpt>
      <trkpt lat="49.03906" lon="1.11094">
        <ele>152</ele>
        <time>2017-10-29T07:53:25Z</time>
      </trkpt>
      <trkpt lat="49.03917" lon="1.11093">
        <ele>152.1</ele>
        <time>2017-10-29T07:53:27Z</time>
      </trkpt>
      <trkpt lat="49.03931" lon="1.1109">
        <ele>151.9</ele>
        <time>2017-10-29T07:53:30Z</time>
      </trkpt>
      <trkpt lat="49.03941" lon="1.11086">
        <ele>152.1</ele>
        <time>2017-10-29T07:53:33Z</time>
      </trkpt>
      <trkpt lat="49.03949" lon="1.11079">
        <ele>152.2</ele>
        <time>2017-10-29T07:53:36Z</time>
      </trkpt>
      <trkpt lat="49.0396" lon="1.11079">
        <ele>152.2</ele>
        <time>2017-10-29T07:53:38Z</time>
      </trkpt>
      <trkpt lat="49.03971" lon="1.11076">
        <ele>152.2</ele>
        <time>2017-10-29T07:53:41Z</time>
      </trkpt>
      <trkpt lat="49.03981" lon="1.11074">
        <ele>152.1</ele>
        <time>2017-10-29T07:53:43Z</time>
      </trkpt>
      <trkpt lat="49.03993" lon="1.11071">
        <ele>152.1</ele>
        <time>2017-10-29T07:53:46Z</time>
      </trkpt>
      <trkpt lat="49.04007" lon="1.11067">
        <ele>152.2</ele>
        <time>2017-10-29T07:53:49Z</time>
      </trkpt>
      <trkpt lat="49.04018" lon="1.11062">
        <ele>152.6</ele>
        <time>2017-10-29T07:53:52Z</time>
      </trkpt>
      <trkpt lat="49.0403" lon="1.1106">
        <ele>153.1</ele>
        <time>2017-10-29T07:53:55Z</time>
      </trkpt>
      <trkpt lat="49.04039" lon="1.11054">
        <ele>153.3</ele>
        <time>2017-10-29T07:53:58Z</time>
      </trkpt>
      <trkpt lat="49.0405" lon="1.11051">
        <ele>153.3</ele>
        <time>2017-10-29T07:54:01Z</time>
      </trkpt>
      <trkpt lat="49.04062" lon="1.11047">
        <ele>153.2</ele>
        <time>2017-10-29T07:54:04Z</time>
      </trkpt>
      <trkpt lat="49.04073" lon="1.11041">
        <ele>153.2</ele>
        <time>2017-10-29T07:54:07Z</time>
      </trkpt>
      <trkpt lat="49.04084" lon="1.11037">
        <ele>153.4</ele>
        <time>2017-10-29T07:54:10Z</time>
      </trkpt>
      <trkpt lat="49.04097" lon="1.11033">
        <ele>153.7</ele>
        <time>2017-10-29T07:54:12Z</time>
      </trkpt>
      <trkpt lat="49.04106" lon="1.11027">
        <ele>153.9</ele>
        <time>2017-10-29T07:54:14Z</time>
      </trkpt>
      <trkpt lat="49.04115" lon="1.11023">
        <ele>154.1</ele>
        <time>2017-10-29T07:54:16Z</time>
      </trkpt>
      <trkpt lat="49.04128" lon="1.11015">
        <ele>154.2</ele>
        <time>2017-10-29T07:54:19Z</time>
      </trkpt>
      <trkpt lat="49.04141" lon="1.11014">
        <ele>154.2</ele>
        <time>2017-10-29T07:54:21Z</time>
      </trkpt>
      <trkpt lat="49.04152" lon="1.11009">
        <ele>154.3</ele>
        <time>2017-10-29T07:54:23Z</time>
      </trkpt>
      <trkpt lat="49.04162" lon="1.11002">
        <ele>154.4</ele>
        <time>2017-10-29T07:54:25Z</time>
      </trkpt>
      <trkpt lat="49.04174" lon="1.10995">
        <ele>154.6</ele>
        <time>2017-10-29T07:54:27Z</time>
      </trkpt>
      <trkpt lat="49.04189" lon="1.10985">
        <ele>154.8</ele>
        <time>2017-10-29T07:54:29Z</time>
      </trkpt>
      <trkpt lat="49.04203" lon="1.10977">
        <ele>155</ele>
        <time>2017-10-29T07:54:31Z</time>
      </trkpt>
      <trkpt lat="49.04213" lon="1.10966">
        <ele>155.2</ele>
        <time>2017-10-29T07:54:33Z</time>
      </trkpt>
      <trkpt lat="49.0422" lon="1.10955">
        <ele>155.3</ele>
        <time>2017-10-29T07:54:35Z</time>
      </trkpt>
      <trkpt lat="49.04226" lon="1.10944">
        <ele>155.4</ele>
        <time>2017-10-29T07:54:37Z</time>
      </trkpt>
      <trkpt lat="49.04236" lon="1.10938">
        <ele>155.6</ele>
        <time>2017-10-29T07:54:39Z</time>
      </trkpt>
      <trkpt lat="49.04246" lon="1.1093">
        <ele>156</ele>
        <time>2017-10-29T07:54:42Z</time>
      </trkpt>
      <trkpt lat="49.04254" lon="1.10924">
        <ele>156.6</ele>
        <time>2017-10-29T07:54:45Z</time>
      </trkpt>
      <trkpt lat="49.04263" lon="1.10926">
        <ele>157</ele>
        <time>2017-10-29T07:54:48Z</time>
      </trkpt>
      <trkpt lat="49.04276" lon="1.10928">
        <ele>157.6</ele>
        <time>2017-10-29T07:54:51Z</time>
      </trkpt>
      <trkpt lat="49.04287" lon="1.10918">
        <ele>158.2</ele>
        <time>2017-10-29T07:54:54Z</time>
      </trkpt>
      <trkpt lat="49.04296" lon="1.10909">
        <ele>158.5</ele>
        <time>2017-10-29T07:54:56Z</time>
      </trkpt>
      <trkpt lat="49.04299" lon="1.10896">
        <ele>158.9</ele>
        <time>2017-10-29T07:54:58Z</time>
      </trkpt>
      <trkpt lat="49.04296" lon="1.10879">
        <ele>159.6</ele>
        <time>2017-10-29T07:55:01Z</time>
      </trkpt>
      <trkpt lat="49.0429" lon="1.10864">
        <ele>160.4</ele>
        <time>2017-10-29T07:55:04Z</time>
      </trkpt>
      <trkpt lat="49.04285" lon="1.10851">
        <ele>160.9</ele>
        <time>2017-10-29T07:55:07Z</time>
      </trkpt>
      <trkpt lat="49.04279" lon="1.10838">
        <ele>161.5</ele>
        <time>2017-10-29T07:55:10Z</time>
      </trkpt>
      <trkpt lat="49.04275" lon="1.10826">
        <ele>162.2</ele>
        <time>2017-10-29T07:55:13Z</time>
      </trkpt>
      <trkpt lat="49.04271" lon="1.10811">
        <ele>163.2</ele>
        <time>2017-10-29T07:55:17Z</time>
      </trkpt>
      <trkpt lat="49.04265" lon="1.10798">
        <ele>164.1</ele>
        <time>2017-10-29T07:55:20Z</time>
      </trkpt>
      <trkpt lat="49.04257" lon="1.10783">
        <ele>164.7</ele>
        <time>2017-10-29T07:55:23Z</time>
      </trkpt>
      <trkpt lat="49.04254" lon="1.10771">
        <ele>165</ele>
        <time>2017-10-29T07:55:25Z</time>
      </trkpt>
      <trkpt lat="49.04249" lon="1.10751">
        <ele>165.3</ele>
        <time>2017-10-29T07:55:28Z</time>
      </trkpt>
      <trkpt lat="49.04248" lon="1.10737">
        <ele>165.8</ele>
        <time>2017-10-29T07:55:30Z</time>
      </trkpt>
      <trkpt lat="49.04245" lon="1.10716">
        <ele>166.3</ele>
        <time>2017-10-29T07:55:33Z</time>
      </trkpt>
      <trkpt lat="49.04243" lon="1.10702">
        <ele>166.4</ele>
        <time>2017-10-29T07:55:35Z</time>
      </trkpt>
      <trkpt lat="49.04242" lon="1.10685">
        <ele>166.4</ele>
        <time>2017-10-29T07:55:37Z</time>
      </trkpt>
      <trkpt lat="49.0424" lon="1.10668">
        <ele>166.3</ele>
        <time>2017-10-29T07:55:39Z</time>
      </trkpt>
      <trkpt lat="49.04238" lon="1.10652">
        <ele>166.4</ele>
        <time>2017-10-29T07:55:41Z</time>
      </trkpt>
      <trkpt lat="49.04235" lon="1.10636">
        <ele>166.4</ele>
        <time>2017-10-29T07:55:43Z</time>
      </trkpt>
      <trkpt lat="49.04229" lon="1.10621">
        <ele>166.3</ele>
        <time>2017-10-29T07:55:45Z</time>
      </trkpt>
      <trkpt lat="49.04222" lon="1.10607">
        <ele>166</ele>
        <time>2017-10-29T07:55:47Z</time>
      </trkpt>
      <trkpt lat="49.04214" lon="1.10592">
        <ele>165.7</ele>
        <time>2017-10-29T07:55:49Z</time>
      </trkpt>
      <trkpt lat="49.04208" lon="1.1058">
        <ele>165.7</ele>
        <time>2017-10-29T07:55:51Z</time>
      </trkpt>
      <trkpt lat="49.04201" lon="1.10567">
        <ele>165.4</ele>
        <time>2017-10-29T07:55:53Z</time>
      </trkpt>
      <trkpt lat="49.04195" lon="1.10555">
        <ele>165.1</ele>
        <time>2017-10-29T07:55:55Z</time>
      </trkpt>
      <trkpt lat="49.04188" lon="1.10543">
        <ele>164.9</ele>
        <time>2017-10-29T07:55:57Z</time>
      </trkpt>
      <trkpt lat="49.04182" lon="1.10532">
        <ele>164.7</ele>
        <time>2017-10-29T07:55:59Z</time>
      </trkpt>
      <trkpt lat="49.04176" lon="1.10522">
        <ele>164.4</ele>
        <time>2017-10-29T07:56:01Z</time>
      </trkpt>
      <trkpt lat="49.04169" lon="1.10512">
        <ele>164.2</ele>
        <time>2017-10-29T07:56:03Z</time>
      </trkpt>
      <trkpt lat="49.04163" lon="1.10502">
        <ele>163.9</ele>
        <time>2017-10-29T07:56:05Z</time>
      </trkpt>
      <trkpt lat="49.04153" lon="1.10487">
        <ele>163.5</ele>
        <time>2017-10-29T07:56:08Z</time>
      </trkpt>
      <trkpt lat="49.04145" lon="1.10473">
        <ele>163.2</ele>
        <time>2017-10-29T07:56:10Z</time>
      </trkpt>
      <trkpt lat="49.04138" lon="1.10459">
        <ele>162.7</ele>
        <time>2017-10-29T07:56:12Z</time>
      </trkpt>
      <trkpt lat="49.04134" lon="1.1044">
        <ele>162.3</ele>
        <time>2017-10-29T07:56:14Z</time>
      </trkpt>
      <trkpt lat="49.04131" lon="1.10419">
        <ele>161.7</ele>
        <time>2017-10-29T07:56:16Z</time>
      </trkpt>
      <trkpt lat="49.04132" lon="1.10397">
        <ele>161.2</ele>
        <time>2017-10-29T07:56:18Z</time>
      </trkpt>
      <trkpt lat="49.04135" lon="1.10376">
        <ele>160.4</ele>
        <time>2017-10-29T07:56:20Z</time>
      </trkpt>
      <trkpt lat="49.04139" lon="1.10356">
        <ele>159.8</ele>
        <time>2017-10-29T07:56:22Z</time>
      </trkpt>
      <trkpt lat="49.04139" lon="1.10336">
        <ele>159.4</ele>
        <time>2017-10-29T07:56:24Z</time>
      </trkpt>
      <trkpt lat="49.04144" lon="1.10319">
        <ele>159.2</ele>
        <time>2017-10-29T07:56:26Z</time>
      </trkpt>
      <trkpt lat="49.04147" lon="1.10302">
        <ele>159</ele>
        <time>2017-10-29T07:56:28Z</time>
      </trkpt>
      <trkpt lat="49.0415" lon="1.10285">
        <ele>158.9</ele>
        <time>2017-10-29T07:56:30Z</time>
      </trkpt>
      <trkpt lat="49.04154" lon="1.1027">
        <ele>159.1</ele>
        <time>2017-10-29T07:56:32Z</time>
      </trkpt>
      <trkpt lat="49.04157" lon="1.10253">
        <ele>158.9</ele>
        <time>2017-10-29T07:56:34Z</time>
      </trkpt>
      <trkpt lat="49.04161" lon="1.10239">
        <ele>158.9</ele>
        <time>2017-10-29T07:56:36Z</time>
      </trkpt>
      <trkpt lat="49.04165" lon="1.10224">
        <ele>159.1</ele>
        <time>2017-10-29T07:56:38Z</time>
      </trkpt>
      <trkpt lat="49.04171" lon="1.10211">
        <ele>159.3</ele>
        <time>2017-10-29T07:56:40Z</time>
      </trkpt>
      <trkpt lat="49.04174" lon="1.10197">
        <ele>159.4</ele>
        <time>2017-10-29T07:56:42Z</time>
      </trkpt>
      <trkpt lat="49.04181" lon="1.10182">
        <ele>159.6</ele>
        <time>2017-10-29T07:56:44Z</time>
      </trkpt>
      <trkpt lat="49.04185" lon="1.10167">
        <ele>159.7</ele>
        <time>2017-10-29T07:56:46Z</time>
      </trkpt>
      <trkpt lat="49.04187" lon="1.10149">
        <ele>159.7</ele>
        <time>2017-10-29T07:56:48Z</time>
      </trkpt>
      <trkpt lat="49.04194" lon="1.10136">
        <ele>159.8</ele>
        <time>2017-10-29T07:56:50Z</time>
      </trkpt>
      <trkpt lat="49.04198" lon="1.10121">
        <ele>159.8</ele>
        <time>2017-10-29T07:56:52Z</time>
      </trkpt>
      <trkpt lat="49.04202" lon="1.10105">
        <ele>159.9</ele>
        <time>2017-10-29T07:56:54Z</time>
      </trkpt>
      <trkpt lat="49.04206" lon="1.10088">
        <ele>160.1</ele>
        <time>2017-10-29T07:56:56Z</time>
      </trkpt>
      <trkpt lat="49.0421" lon="1.10071">
        <ele>160.2</ele>
        <time>2017-10-29T07:56:58Z</time>
      </trkpt>
      <trkpt lat="49.04214" lon="1.10055">
        <ele>160.3</ele>
        <time>2017-10-29T07:57:00Z</time>
      </trkpt>
      <trkpt lat="49.04217" lon="1.1004">
        <ele>160.4</ele>
        <time>2017-10-29T07:57:02Z</time>
      </trkpt>
      <trkpt lat="49.04221" lon="1.10024">
        <ele>160.5</ele>
        <time>2017-10-29T07:57:04Z</time>
      </trkpt>
      <trkpt lat="49.04226" lon="1.10011">
        <ele>160.6</ele>
        <time>2017-10-29T07:57:06Z</time>
      </trkpt>
      <trkpt lat="49.04231" lon="1.09998">
        <ele>160.7</ele>
        <time>2017-10-29T07:57:08Z</time>
      </trkpt>
      <trkpt lat="49.04235" lon="1.09978">
        <ele>160.8</ele>
        <time>2017-10-29T07:57:11Z</time>
      </trkpt>
      <trkpt lat="49.04242" lon="1.09963">
        <ele>160.9</ele>
        <time>2017-10-29T07:57:13Z</time>
      </trkpt>
      <trkpt lat="49.04249" lon="1.09951">
        <ele>160.9</ele>
        <time>2017-10-29T07:57:15Z</time>
      </trkpt>
      <trkpt lat="49.04255" lon="1.09937">
        <ele>160.9</ele>
        <time>2017-10-29T07:57:17Z</time>
      </trkpt>
      <trkpt lat="49.04261" lon="1.09922">
        <ele>161.1</ele>
        <time>2017-10-29T07:57:19Z</time>
      </trkpt>
      <trkpt lat="49.04268" lon="1.09907">
        <ele>161.3</ele>
        <time>2017-10-29T07:57:21Z</time>
      </trkpt>
      <trkpt lat="49.04272" lon="1.0989">
        <ele>161.2</ele>
        <time>2017-10-29T07:57:23Z</time>
      </trkpt>
      <trkpt lat="49.04278" lon="1.09876">
        <ele>161.3</ele>
        <time>2017-10-29T07:57:25Z</time>
      </trkpt>
      <trkpt lat="49.04283" lon="1.09862">
        <ele>161.4</ele>
        <time>2017-10-29T07:57:27Z</time>
      </trkpt>
      <trkpt lat="49.04285" lon="1.09845">
        <ele>161.6</ele>
        <time>2017-10-29T07:57:29Z</time>
      </trkpt>
      <trkpt lat="49.0429" lon="1.0983">
        <ele>161.7</ele>
        <time>2017-10-29T07:57:31Z</time>
      </trkpt>
      <trkpt lat="49.04298" lon="1.09817">
        <ele>161.9</ele>
        <time>2017-10-29T07:57:33Z</time>
      </trkpt>
      <trkpt lat="49.04302" lon="1.09803">
        <ele>162.2</ele>
        <time>2017-10-29T07:57:35Z</time>
      </trkpt>
      <trkpt lat="49.04308" lon="1.09788">
        <ele>162.3</ele>
        <time>2017-10-29T07:57:37Z</time>
      </trkpt>
      <trkpt lat="49.04313" lon="1.09772">
        <ele>162.5</ele>
        <time>2017-10-29T07:57:39Z</time>
      </trkpt>
      <trkpt lat="49.04318" lon="1.09757">
        <ele>162.7</ele>
        <time>2017-10-29T07:57:41Z</time>
      </trkpt>
      <trkpt lat="49.04321" lon="1.0974">
        <ele>162.8</ele>
        <time>2017-10-29T07:57:43Z</time>
      </trkpt>
      <trkpt lat="49.04322" lon="1.09721">
        <ele>163</ele>
        <time>2017-10-29T07:57:45Z</time>
      </trkpt>
      <trkpt lat="49.04324" lon="1.09703">
        <ele>162.9</ele>
        <time>2017-10-29T07:57:47Z</time>
      </trkpt>
      <trkpt lat="49.04326" lon="1.09684">
        <ele>163</ele>
        <time>2017-10-29T07:57:49Z</time>
      </trkpt>
      <trkpt lat="49.0433" lon="1.09669">
        <ele>163.1</ele>
        <time>2017-10-29T07:57:51Z</time>
      </trkpt>
      <trkpt lat="49.04335" lon="1.09654">
        <ele>163.2</ele>
        <time>2017-10-29T07:57:53Z</time>
      </trkpt>
      <trkpt lat="49.04343" lon="1.09642">
        <ele>163.3</ele>
        <time>2017-10-29T07:57:55Z</time>
      </trkpt>
      <trkpt lat="49.04352" lon="1.0963">
        <ele>163.4</ele>
        <time>2017-10-29T07:57:57Z</time>
      </trkpt>
      <trkpt lat="49.0436" lon="1.09618">
        <ele>163.4</ele>
        <time>2017-10-29T07:57:59Z</time>
      </trkpt>
      <trkpt lat="49.04364" lon="1.09603">
        <ele>163.5</ele>
        <time>2017-10-29T07:58:01Z</time>
      </trkpt>
      <trkpt lat="49.04369" lon="1.09589">
        <ele>163.6</ele>
        <time>2017-10-29T07:58:03Z</time>
      </trkpt>
      <trkpt lat="49.04372" lon="1.09576">
        <ele>163.9</ele>
        <time>2017-10-29T07:58:05Z</time>
      </trkpt>
      <trkpt lat="49.04375" lon="1.09562">
        <ele>164.1</ele>
        <time>2017-10-29T07:58:07Z</time>
      </trkpt>
      <trkpt lat="49.04376" lon="1.09547">
        <ele>164.2</ele>
        <time>2017-10-29T07:58:09Z</time>
      </trkpt>
      <trkpt lat="49.04378" lon="1.09532">
        <ele>164.3</ele>
        <time>2017-10-29T07:58:11Z</time>
      </trkpt>
      <trkpt lat="49.04382" lon="1.09513">
        <ele>164.5</ele>
        <time>2017-10-29T07:58:14Z</time>
      </trkpt>
      <trkpt lat="49.04385" lon="1.095">
        <ele>164.6</ele>
        <time>2017-10-29T07:58:16Z</time>
      </trkpt>
      <trkpt lat="49.04387" lon="1.09483">
        <ele>164.7</ele>
        <time>2017-10-29T07:58:18Z</time>
      </trkpt>
      <trkpt lat="49.04387" lon="1.09466">
        <ele>164.7</ele>
        <time>2017-10-29T07:58:20Z</time>
      </trkpt>
      <trkpt lat="49.04388" lon="1.09451">
        <ele>164.9</ele>
        <time>2017-10-29T07:58:22Z</time>
      </trkpt>
      <trkpt lat="49.04388" lon="1.09433">
        <ele>165.1</ele>
        <time>2017-10-29T07:58:24Z</time>
      </trkpt>
      <trkpt lat="49.0439" lon="1.09418">
        <ele>165.2</ele>
        <time>2017-10-29T07:58:26Z</time>
      </trkpt>
      <trkpt lat="49.04391" lon="1.09401">
        <ele>165.4</ele>
        <time>2017-10-29T07:58:28Z</time>
      </trkpt>
      <trkpt lat="49.04392" lon="1.09387">
        <ele>165.5</ele>
        <time>2017-10-29T07:58:30Z</time>
      </trkpt>
      <trkpt lat="49.04391" lon="1.09369">
        <ele>165.7</ele>
        <time>2017-10-29T07:58:32Z</time>
      </trkpt>
      <trkpt lat="49.04391" lon="1.09353">
        <ele>165.9</ele>
        <time>2017-10-29T07:58:34Z</time>
      </trkpt>
      <trkpt lat="49.04391" lon="1.09337">
        <ele>165.9</ele>
        <time>2017-10-29T07:58:36Z</time>
      </trkpt>
      <trkpt lat="49.04393" lon="1.09322">
        <ele>165.9</ele>
        <time>2017-10-29T07:58:38Z</time>
      </trkpt>
      <trkpt lat="49.04394" lon="1.09301">
        <ele>166.1</ele>
        <time>2017-10-29T07:58:40Z</time>
      </trkpt>
      <trkpt lat="49.04396" lon="1.09284">
        <ele>166.3</ele>
        <time>2017-10-29T07:58:42Z</time>
      </trkpt>
      <trkpt lat="49.04399" lon="1.09268">
        <ele>166.5</ele>
        <time>2017-10-29T07:58:44Z</time>
      </trkpt>
      <trkpt lat="49.04399" lon="1.09253">
        <ele>166.6</ele>
        <time>2017-10-29T07:58:46Z</time>
      </trkpt>
      <trkpt lat="49.04399" lon="1.09238">
        <ele>166.7</ele>
        <time>2017-10-29T07:58:48Z</time>
      </trkpt>
      <trkpt lat="49.04401" lon="1.09223">
        <ele>166.8</ele>
        <time>2017-10-29T07:58:50Z</time>
      </trkpt>
      <trkpt lat="49.04405" lon="1.09207">
        <ele>166.9</ele>
        <time>2017-10-29T07:58:52Z</time>
      </trkpt>
      <trkpt lat="49.04404" lon="1.09191">
        <ele>167.1</ele>
        <time>2017-10-29T07:58:54Z</time>
      </trkpt>
      <trkpt lat="49.04404" lon="1.09175">
        <ele>167.2</ele>
        <time>2017-10-29T07:58:56Z</time>
      </trkpt>
      <trkpt lat="49.04405" lon="1.09159">
        <ele>167.3</ele>
        <time>2017-10-29T07:58:58Z</time>
      </trkpt>
      <trkpt lat="49.0441" lon="1.09144">
        <ele>167.4</ele>
        <time>2017-10-29T07:59:00Z</time>
      </trkpt>
      <trkpt lat="49.04412" lon="1.09128">
        <ele>167.6</ele>
        <time>2017-10-29T07:59:02Z</time>
      </trkpt>
      <trkpt lat="49.04413" lon="1.09112">
        <ele>167.6</ele>
        <time>2017-10-29T07:59:04Z</time>
      </trkpt>
      <trkpt lat="49.04415" lon="1.09093">
        <ele>167.7</ele>
        <time>2017-10-29T07:59:06Z</time>
      </trkpt>
      <trkpt lat="49.04417" lon="1.09078">
        <ele>167.8</ele>
        <time>2017-10-29T07:59:08Z</time>
      </trkpt>
      <trkpt lat="49.04422" lon="1.09063">
        <ele>167.9</ele>
        <time>2017-10-29T07:59:10Z</time>
      </trkpt>
      <trkpt lat="49.04427" lon="1.09049">
        <ele>168.1</ele>
        <time>2017-10-29T07:59:12Z</time>
      </trkpt>
      <trkpt lat="49.04432" lon="1.09034">
        <ele>168.3</ele>
        <time>2017-10-29T07:59:14Z</time>
      </trkpt>
      <trkpt lat="49.04434" lon="1.09019">
        <ele>168.4</ele>
        <time>2017-10-29T07:59:16Z</time>
      </trkpt>
      <trkpt lat="49.04438" lon="1.09004">
        <ele>168.5</ele>
        <time>2017-10-29T07:59:18Z</time>
      </trkpt>
      <trkpt lat="49.04444" lon="1.08988">
        <ele>168.7</ele>
        <time>2017-10-29T07:59:20Z</time>
      </trkpt>
      <trkpt lat="49.04449" lon="1.08974">
        <ele>168.9</ele>
        <time>2017-10-29T07:59:22Z</time>
      </trkpt>
      <trkpt lat="49.04453" lon="1.08958">
        <ele>169.1</ele>
        <time>2017-10-29T07:59:24Z</time>
      </trkpt>
      <trkpt lat="49.04455" lon="1.08937">
        <ele>169.2</ele>
        <time>2017-10-29T07:59:27Z</time>
      </trkpt>
      <trkpt lat="49.0446" lon="1.08921">
        <ele>169.4</ele>
        <time>2017-10-29T07:59:29Z</time>
      </trkpt>
      <trkpt lat="49.04464" lon="1.08903">
        <ele>169.5</ele>
        <time>2017-10-29T07:59:31Z</time>
      </trkpt>
      <trkpt lat="49.04468" lon="1.08885">
        <ele>169.5</ele>
        <time>2017-10-29T07:59:33Z</time>
      </trkpt>
      <trkpt lat="49.04473" lon="1.08867">
        <ele>169.7</ele>
        <time>2017-10-29T07:59:35Z</time>
      </trkpt>
      <trkpt lat="49.04477" lon="1.08852">
        <ele>169.7</ele>
        <time>2017-10-29T07:59:37Z</time>
      </trkpt>
      <trkpt lat="49.04482" lon="1.08837">
        <ele>169.8</ele>
        <time>2017-10-29T07:59:39Z</time>
      </trkpt>
      <trkpt lat="49.04488" lon="1.08825">
        <ele>169.8</ele>
        <time>2017-10-29T07:59:41Z</time>
      </trkpt>
      <trkpt lat="49.04489" lon="1.08811">
        <ele>170</ele>
        <time>2017-10-29T07:59:43Z</time>
      </trkpt>
      <trkpt lat="49.04494" lon="1.08793">
        <ele>170.2</ele>
        <time>2017-10-29T07:59:45Z</time>
      </trkpt>
      <trkpt lat="49.04499" lon="1.08776">
        <ele>170.3</ele>
        <time>2017-10-29T07:59:47Z</time>
      </trkpt>
      <trkpt lat="49.04501" lon="1.08758">
        <ele>170.5</ele>
        <time>2017-10-29T07:59:49Z</time>
      </trkpt>
      <trkpt lat="49.04505" lon="1.08741">
        <ele>170.5</ele>
        <time>2017-10-29T07:59:51Z</time>
      </trkpt>
      <trkpt lat="49.04509" lon="1.08727">
        <ele>170.5</ele>
        <time>2017-10-29T07:59:53Z</time>
      </trkpt>
      <trkpt lat="49.04514" lon="1.08709">
        <ele>170.7</ele>
        <time>2017-10-29T07:59:55Z</time>
      </trkpt>
      <trkpt lat="49.04518" lon="1.08692">
        <ele>170.8</ele>
        <time>2017-10-29T07:59:57Z</time>
      </trkpt>
      <trkpt lat="49.04521" lon="1.08678">
        <ele>170.9</ele>
        <time>2017-10-29T07:59:59Z</time>
      </trkpt>
      <trkpt lat="49.04526" lon="1.08662">
        <ele>171.1</ele>
        <time>2017-10-29T08:00:01Z</time>
      </trkpt>
      <trkpt lat="49.04533" lon="1.08646">
        <ele>171.4</ele>
        <time>2017-10-29T08:00:03Z</time>
      </trkpt>
      <trkpt lat="49.04539" lon="1.0863">
        <ele>171.5</ele>
        <time>2017-10-29T08:00:05Z</time>
      </trkpt>
      <trkpt lat="49.04545" lon="1.08616">
        <ele>171.5</ele>
        <time>2017-10-29T08:00:07Z</time>
      </trkpt>
      <trkpt lat="49.04551" lon="1.08601">
        <ele>171.6</ele>
        <time>2017-10-29T08:00:09Z</time>
      </trkpt>
      <trkpt lat="49.04555" lon="1.08585">
        <ele>171.8</ele>
        <time>2017-10-29T08:00:11Z</time>
      </trkpt>
      <trkpt lat="49.0456" lon="1.08572">
        <ele>171.9</ele>
        <time>2017-10-29T08:00:13Z</time>
      </trkpt>
      <trkpt lat="49.04564" lon="1.0856">
        <ele>172</ele>
        <time>2017-10-29T08:00:15Z</time>
      </trkpt>
      <trkpt lat="49.04566" lon="1.08546">
        <ele>172.1</ele>
        <time>2017-10-29T08:00:17Z</time>
      </trkpt>
      <trkpt lat="49.0457" lon="1.08531">
        <ele>172.2</ele>
        <time>2017-10-29T08:00:19Z</time>
      </trkpt>
      <trkpt lat="49.04575" lon="1.08517">
        <ele>172.4</ele>
        <time>2017-10-29T08:00:21Z</time>
      </trkpt>
      <trkpt lat="49.0458" lon="1.08505">
        <ele>172.6</ele>
        <time>2017-10-29T08:00:23Z</time>
      </trkpt>
      <trkpt lat="49.04586" lon="1.08493">
        <ele>172.8</ele>
        <time>2017-10-29T08:00:25Z</time>
      </trkpt>
      <trkpt lat="49.04589" lon="1.0848">
        <ele>173.1</ele>
        <time>2017-10-29T08:00:27Z</time>
      </trkpt>
      <trkpt lat="49.04596" lon="1.08465">
        <ele>173.3</ele>
        <time>2017-10-29T08:00:30Z</time>
      </trkpt>
      <trkpt lat="49.04603" lon="1.08451">
        <ele>173.3</ele>
        <time>2017-10-29T08:00:32Z</time>
      </trkpt>
      <trkpt lat="49.04608" lon="1.08434">
        <ele>173.4</ele>
        <time>2017-10-29T08:00:34Z</time>
      </trkpt>
      <trkpt lat="49.04615" lon="1.0842">
        <ele>173.5</ele>
        <time>2017-10-29T08:00:36Z</time>
      </trkpt>
      <trkpt lat="49.04621" lon="1.08403">
        <ele>173.8</ele>
        <time>2017-10-29T08:00:39Z</time>
      </trkpt>
      <trkpt lat="49.04626" lon="1.08386">
        <ele>173.9</ele>
        <time>2017-10-29T08:00:42Z</time>
      </trkpt>
      <trkpt lat="49.04633" lon="1.08369">
        <ele>174.2</ele>
        <time>2017-10-29T08:00:45Z</time>
      </trkpt>
      <trkpt lat="49.0464" lon="1.08352">
        <ele>174.2</ele>
        <time>2017-10-29T08:00:48Z</time>
      </trkpt>
      <trkpt lat="49.04645" lon="1.08338">
        <ele>174.2</ele>
        <time>2017-10-29T08:00:51Z</time>
      </trkpt>
      <trkpt lat="49.0465" lon="1.08325">
        <ele>174.2</ele>
        <time>2017-10-29T08:00:53Z</time>
      </trkpt>
      <trkpt lat="49.04657" lon="1.08309">
        <ele>174.3</ele>
        <time>2017-10-29T08:00:56Z</time>
      </trkpt>
      <trkpt lat="49.04665" lon="1.08295">
        <ele>174.6</ele>
        <time>2017-10-29T08:00:59Z</time>
      </trkpt>
      <trkpt lat="49.04671" lon="1.08285">
        <ele>174.7</ele>
        <time>2017-10-29T08:01:01Z</time>
      </trkpt>
      <trkpt lat="49.04678" lon="1.08268">
        <ele>174.8</ele>
        <time>2017-10-29T08:01:04Z</time>
      </trkpt>
      <trkpt lat="49.04684" lon="1.08256">
        <ele>174.9</ele>
        <time>2017-10-29T08:01:06Z</time>
      </trkpt>
      <trkpt lat="49.04689" lon="1.08245">
        <ele>174.9</ele>
        <time>2017-10-29T08:01:08Z</time>
      </trkpt>
      <trkpt lat="49.04696" lon="1.08231">
        <ele>175</ele>
        <time>2017-10-29T08:01:11Z</time>
      </trkpt>
      <trkpt lat="49.04703" lon="1.08216">
        <ele>175.3</ele>
        <time>2017-10-29T08:01:14Z</time>
      </trkpt>
      <trkpt lat="49.04709" lon="1.08206">
        <ele>175.6</ele>
        <time>2017-10-29T08:01:16Z</time>
      </trkpt>
      <trkpt lat="49.04718" lon="1.08195">
        <ele>175.8</ele>
        <time>2017-10-29T08:01:18Z</time>
      </trkpt>
      <trkpt lat="49.04725" lon="1.08184">
        <ele>175.9</ele>
        <time>2017-10-29T08:01:20Z</time>
      </trkpt>
      <trkpt lat="49.04733" lon="1.08171">
        <ele>175.8</ele>
        <time>2017-10-29T08:01:22Z</time>
      </trkpt>
      <trkpt lat="49.04741" lon="1.0816">
        <ele>175.8</ele>
        <time>2017-10-29T08:01:24Z</time>
      </trkpt>
      <trkpt lat="49.04749" lon="1.08149">
        <ele>175.9</ele>
        <time>2017-10-29T08:01:26Z</time>
      </trkpt>
      <trkpt lat="49.04759" lon="1.08141">
        <ele>175.9</ele>
        <time>2017-10-29T08:01:28Z</time>
      </trkpt>
      <trkpt lat="49.04767" lon="1.08134">
        <ele>175.9</ele>
        <time>2017-10-29T08:01:31Z</time>
      </trkpt>
      <trkpt lat="49.04773" lon="1.08123">
        <ele>176</ele>
        <time>2017-10-29T08:01:36Z</time>
      </trkpt>
      <trkpt lat="49.04763" lon="1.08121">
        <ele>176.5</ele>
        <time>2017-10-29T08:01:46Z</time>
      </trkpt>
      <trkpt lat="49.04754" lon="1.08127">
        <ele>177.3</ele>
        <time>2017-10-29T08:01:51Z</time>
      </trkpt>
      <trkpt lat="49.04744" lon="1.08129">
        <ele>179.6</ele>
        <time>2017-10-29T08:01:58Z</time>
      </trkpt>
      <trkpt lat="49.04749" lon="1.08116">
        <ele>180.5</ele>
        <time>2017-10-29T08:02:03Z</time>
      </trkpt>
      <trkpt lat="49.04759" lon="1.08108">
        <ele>180.9</ele>
        <time>2017-10-29T08:02:07Z</time>
      </trkpt>
      <trkpt lat="49.04766" lon="1.08098">
        <ele>181.1</ele>
        <time>2017-10-29T08:02:12Z</time>
      </trkpt>
      <trkpt lat="49.04772" lon="1.08085">
        <ele>181.6</ele>
        <time>2017-10-29T08:02:18Z</time>
      </trkpt>
      <trkpt lat="49.0478" lon="1.08076">
        <ele>182.4</ele>
        <time>2017-10-29T08:02:24Z</time>
      </trkpt>
      <trkpt lat="49.04787" lon="1.08065">
        <ele>182.7</ele>
        <time>2017-10-29T08:02:29Z</time>
      </trkpt>
      <trkpt lat="49.04795" lon="1.08057">
        <ele>183.1</ele>
        <time>2017-10-29T08:02:33Z</time>
      </trkpt>
      <trkpt lat="49.04802" lon="1.08047">
        <ele>183.4</ele>
        <time>2017-10-29T08:02:37Z</time>
      </trkpt>
      <trkpt lat="49.04809" lon="1.08037">
        <ele>183.9</ele>
        <time>2017-10-29T08:02:41Z</time>
      </trkpt>
      <trkpt lat="49.04817" lon="1.08029">
        <ele>184.1</ele>
        <time>2017-10-29T08:02:44Z</time>
      </trkpt>
      <trkpt lat="49.04825" lon="1.08021">
        <ele>184.4</ele>
        <time>2017-10-29T08:02:47Z</time>
      </trkpt>
      <trkpt lat="49.04834" lon="1.08013">
        <ele>184.6</ele>
        <time>2017-10-29T08:02:50Z</time>
      </trkpt>
      <trkpt lat="49.04842" lon="1.08004">
        <ele>184.7</ele>
        <time>2017-10-29T08:02:53Z</time>
      </trkpt>
      <trkpt lat="49.0485" lon="1.07996">
        <ele>184.8</ele>
        <time>2017-10-29T08:02:56Z</time>
      </trkpt>
      <trkpt lat="49.0486" lon="1.07989">
        <ele>184.9</ele>
        <time>2017-10-29T08:02:59Z</time>
      </trkpt>
      <trkpt lat="49.0487" lon="1.07982">
        <ele>185</ele>
        <time>2017-10-29T08:03:02Z</time>
      </trkpt>
      <trkpt lat="49.04879" lon="1.07976">
        <ele>185.3</ele>
        <time>2017-10-29T08:03:05Z</time>
      </trkpt>
      <trkpt lat="49.04888" lon="1.07969">
        <ele>185.6</ele>
        <time>2017-10-29T08:03:08Z</time>
      </trkpt>
      <trkpt lat="49.04898" lon="1.07961">
        <ele>185.8</ele>
        <time>2017-10-29T08:03:11Z</time>
      </trkpt>
      <trkpt lat="49.04908" lon="1.07955">
        <ele>186</ele>
        <time>2017-10-29T08:03:14Z</time>
      </trkpt>
      <trkpt lat="49.04917" lon="1.07948">
        <ele>186</ele>
        <time>2017-10-29T08:03:17Z</time>
      </trkpt>
      <trkpt lat="49.04927" lon="1.07942">
        <ele>186.3</ele>
        <time>2017-10-29T08:03:20Z</time>
      </trkpt>
      <trkpt lat="49.04937" lon="1.07935">
        <ele>186.5</ele>
        <time>2017-10-29T08:03:23Z</time>
      </trkpt>
      <trkpt lat="49.04948" lon="1.07928">
        <ele>186.7</ele>
        <time>2017-10-29T08:03:26Z</time>
      </trkpt>
      <trkpt lat="49.04959" lon="1.07921">
        <ele>186.7</ele>
        <time>2017-10-29T08:03:29Z</time>
      </trkpt>
      <trkpt lat="49.04971" lon="1.07914">
        <ele>187.1</ele>
        <time>2017-10-29T08:03:32Z</time>
      </trkpt>
      <trkpt lat="49.04983" lon="1.07906">
        <ele>187.1</ele>
        <time>2017-10-29T08:03:35Z</time>
      </trkpt>
      <trkpt lat="49.04995" lon="1.07898">
        <ele>187.2</ele>
        <time>2017-10-29T08:03:38Z</time>
      </trkpt>
      <trkpt lat="49.05007" lon="1.0789">
        <ele>187.3</ele>
        <time>2017-10-29T08:03:41Z</time>
      </trkpt>
      <trkpt lat="49.05019" lon="1.07883">
        <ele>187.6</ele>
        <time>2017-10-29T08:03:44Z</time>
      </trkpt>
      <trkpt lat="49.05031" lon="1.07876">
        <ele>187.5</ele>
        <time>2017-10-29T08:03:47Z</time>
      </trkpt>
      <trkpt lat="49.05042" lon="1.07869">
        <ele>187.7</ele>
        <time>2017-10-29T08:03:50Z</time>
      </trkpt>
      <trkpt lat="49.05053" lon="1.07861">
        <ele>187.8</ele>
        <time>2017-10-29T08:03:53Z</time>
      </trkpt>
      <trkpt lat="49.05065" lon="1.07854">
        <ele>187.7</ele>
        <time>2017-10-29T08:03:56Z</time>
      </trkpt>
      <trkpt lat="49.05076" lon="1.07846">
        <ele>187.6</ele>
        <time>2017-10-29T08:03:59Z</time>
      </trkpt>
      <trkpt lat="49.05088" lon="1.07839">
        <ele>187.6</ele>
        <time>2017-10-29T08:04:02Z</time>
      </trkpt>
      <trkpt lat="49.051" lon="1.07832">
        <ele>187.8</ele>
        <time>2017-10-29T08:04:05Z</time>
      </trkpt>
      <trkpt lat="49.05111" lon="1.07825">
        <ele>187.9</ele>
        <time>2017-10-29T08:04:08Z</time>
      </trkpt>
      <trkpt lat="49.05123" lon="1.07818">
        <ele>187.9</ele>
        <time>2017-10-29T08:04:11Z</time>
      </trkpt>
      <trkpt lat="49.05135" lon="1.07811">
        <ele>187.8</ele>
        <time>2017-10-29T08:04:14Z</time>
      </trkpt>
      <trkpt lat="49.05148" lon="1.07803">
        <ele>187.8</ele>
        <time>2017-10-29T08:04:17Z</time>
      </trkpt>
      <trkpt lat="49.0516" lon="1.07795">
        <ele>187.8</ele>
        <time>2017-10-29T08:04:20Z</time>
      </trkpt>
      <trkpt lat="49.05172" lon="1.07787">
        <ele>187.8</ele>
        <time>2017-10-29T08:04:23Z</time>
      </trkpt>
      <trkpt lat="49.0518" lon="1.07782">
        <ele>188.1</ele>
        <time>2017-10-29T08:04:25Z</time>
      </trkpt>
      <trkpt lat="49.05189" lon="1.07776">
        <ele>188.2</ele>
        <time>2017-10-29T08:04:27Z</time>
      </trkpt>
      <trkpt lat="49.05197" lon="1.0777">
        <ele>188</ele>
        <time>2017-10-29T08:04:29Z</time>
      </trkpt>
      <trkpt lat="49.05206" lon="1.07765">
        <ele>187.9</ele>
        <time>2017-10-29T08:04:31Z</time>
      </trkpt>
      <trkpt lat="49.05215" lon="1.0776">
        <ele>187.8</ele>
        <time>2017-10-29T08:04:33Z</time>
      </trkpt>
      <trkpt lat="49.05223" lon="1.07754">
        <ele>187.7</ele>
        <time>2017-10-29T08:04:35Z</time>
      </trkpt>
      <trkpt lat="49.05231" lon="1.07749">
        <ele>187.6</ele>
        <time>2017-10-29T08:04:37Z</time>
      </trkpt>
      <trkpt lat="49.05244" lon="1.07742">
        <ele>187.4</ele>
        <time>2017-10-29T08:04:40Z</time>
      </trkpt>
      <trkpt lat="49.05253" lon="1.07737">
        <ele>187</ele>
        <time>2017-10-29T08:04:42Z</time>
      </trkpt>
      <trkpt lat="49.05262" lon="1.07731">
        <ele>186.9</ele>
        <time>2017-10-29T08:04:44Z</time>
      </trkpt>
      <trkpt lat="49.05272" lon="1.07725">
        <ele>186.5</ele>
        <time>2017-10-29T08:04:46Z</time>
      </trkpt>
      <trkpt lat="49.05281" lon="1.07721">
        <ele>185.9</ele>
        <time>2017-10-29T08:04:49Z</time>
      </trkpt>
      <trkpt lat="49.0529" lon="1.07715">
        <ele>185</ele>
        <time>2017-10-29T08:04:52Z</time>
      </trkpt>
      <trkpt lat="49.05299" lon="1.07705">
        <ele>184.4</ele>
        <time>2017-10-29T08:04:55Z</time>
      </trkpt>
      <trkpt lat="49.0531" lon="1.07696">
        <ele>184</ele>
        <time>2017-10-29T08:04:59Z</time>
      </trkpt>
      <trkpt lat="49.05318" lon="1.07688">
        <ele>184.1</ele>
        <time>2017-10-29T08:05:02Z</time>
      </trkpt>
      <trkpt lat="49.05325" lon="1.0768">
        <ele>184.5</ele>
        <time>2017-10-29T08:05:05Z</time>
      </trkpt>
      <trkpt lat="49.05334" lon="1.07672">
        <ele>185.1</ele>
        <time>2017-10-29T08:05:08Z</time>
      </trkpt>
      <trkpt lat="49.05343" lon="1.07666">
        <ele>185.5</ele>
        <time>2017-10-29T08:05:11Z</time>
      </trkpt>
      <trkpt lat="49.05355" lon="1.07661">
        <ele>185.8</ele>
        <time>2017-10-29T08:05:14Z</time>
      </trkpt>
      <trkpt lat="49.05365" lon="1.07654">
        <ele>186</ele>
        <time>2017-10-29T08:05:17Z</time>
      </trkpt>
      <trkpt lat="49.05375" lon="1.07645">
        <ele>186</ele>
        <time>2017-10-29T08:05:20Z</time>
      </trkpt>
      <trkpt lat="49.05387" lon="1.07638">
        <ele>186</ele>
        <time>2017-10-29T08:05:23Z</time>
      </trkpt>
      <trkpt lat="49.05397" lon="1.0763">
        <ele>185.8</ele>
        <time>2017-10-29T08:05:26Z</time>
      </trkpt>
      <trkpt lat="49.05406" lon="1.07625">
        <ele>185.8</ele>
        <time>2017-10-29T08:05:28Z</time>
      </trkpt>
      <trkpt lat="49.05419" lon="1.07616">
        <ele>185.8</ele>
        <time>2017-10-29T08:05:31Z</time>
      </trkpt>
      <trkpt lat="49.05428" lon="1.07611">
        <ele>185.8</ele>
        <time>2017-10-29T08:05:33Z</time>
      </trkpt>
      <trkpt lat="49.0544" lon="1.07603">
        <ele>186</ele>
        <time>2017-10-29T08:05:36Z</time>
      </trkpt>
      <trkpt lat="49.05451" lon="1.07598">
        <ele>186.1</ele>
        <time>2017-10-29T08:05:38Z</time>
      </trkpt>
      <trkpt lat="49.05459" lon="1.07593">
        <ele>186.1</ele>
        <time>2017-10-29T08:05:40Z</time>
      </trkpt>
      <trkpt lat="49.0547" lon="1.07583">
        <ele>186.3</ele>
        <time>2017-10-29T08:05:43Z</time>
      </trkpt>
      <trkpt lat="49.0548" lon="1.07579">
        <ele>186.2</ele>
        <time>2017-10-29T08:05:45Z</time>
      </trkpt>
      <trkpt lat="49.0549" lon="1.07575">
        <ele>186.2</ele>
        <time>2017-10-29T08:05:47Z</time>
      </trkpt>
      <trkpt lat="49.05501" lon="1.07567">
        <ele>186.5</ele>
        <time>2017-10-29T08:05:50Z</time>
      </trkpt>
      <trkpt lat="49.05513" lon="1.0756">
        <ele>186.3</ele>
        <time>2017-10-29T08:05:53Z</time>
      </trkpt>
      <trkpt lat="49.05526" lon="1.07552">
        <ele>186.6</ele>
        <time>2017-10-29T08:05:56Z</time>
      </trkpt>
      <trkpt lat="49.05537" lon="1.07545">
        <ele>187</ele>
        <time>2017-10-29T08:05:59Z</time>
      </trkpt>
      <trkpt lat="49.05548" lon="1.07538">
        <ele>187.1</ele>
        <time>2017-10-29T08:06:02Z</time>
      </trkpt>
      <trkpt lat="49.05559" lon="1.07532">
        <ele>186.9</ele>
        <time>2017-10-29T08:06:05Z</time>
      </trkpt>
      <trkpt lat="49.05569" lon="1.07528">
        <ele>187.1</ele>
        <time>2017-10-29T08:06:07Z</time>
      </trkpt>
      <trkpt lat="49.05579" lon="1.07523">
        <ele>187.2</ele>
        <time>2017-10-29T08:06:09Z</time>
      </trkpt>
      <trkpt lat="49.05588" lon="1.07518">
        <ele>187.5</ele>
        <time>2017-10-29T08:06:11Z</time>
      </trkpt>
      <trkpt lat="49.05597" lon="1.07513">
        <ele>187.7</ele>
        <time>2017-10-29T08:06:13Z</time>
      </trkpt>
      <trkpt lat="49.05605" lon="1.07506">
        <ele>187.8</ele>
        <time>2017-10-29T08:06:15Z</time>
      </trkpt>
      <trkpt lat="49.05614" lon="1.07501">
        <ele>188.1</ele>
        <time>2017-10-29T08:06:17Z</time>
      </trkpt>
      <trkpt lat="49.05623" lon="1.07495">
        <ele>188.1</ele>
        <time>2017-10-29T08:06:19Z</time>
      </trkpt>
      <trkpt lat="49.05635" lon="1.07487">
        <ele>188.3</ele>
        <time>2017-10-29T08:06:22Z</time>
      </trkpt>
      <trkpt lat="49.05647" lon="1.07479">
        <ele>188.5</ele>
        <time>2017-10-29T08:06:25Z</time>
      </trkpt>
      <trkpt lat="49.05658" lon="1.07471">
        <ele>188.5</ele>
        <time>2017-10-29T08:06:28Z</time>
      </trkpt>
      <trkpt lat="49.0567" lon="1.07462">
        <ele>188.7</ele>
        <time>2017-10-29T08:06:31Z</time>
      </trkpt>
      <trkpt lat="49.0568" lon="1.07454">
        <ele>188.7</ele>
        <time>2017-10-29T08:06:34Z</time>
      </trkpt>
      <trkpt lat="49.05691" lon="1.07445">
        <ele>189</ele>
        <time>2017-10-29T08:06:37Z</time>
      </trkpt>
      <trkpt lat="49.05702" lon="1.07436">
        <ele>188.9</ele>
        <time>2017-10-29T08:06:40Z</time>
      </trkpt>
      <trkpt lat="49.05713" lon="1.07428">
        <ele>189</ele>
        <time>2017-10-29T08:06:43Z</time>
      </trkpt>
      <trkpt lat="49.05724" lon="1.07419">
        <ele>189.1</ele>
        <time>2017-10-29T08:06:46Z</time>
      </trkpt>
      <trkpt lat="49.05735" lon="1.07411">
        <ele>189</ele>
        <time>2017-10-29T08:06:49Z</time>
      </trkpt>
      <trkpt lat="49.05746" lon="1.07402">
        <ele>189.4</ele>
        <time>2017-10-29T08:06:52Z</time>
      </trkpt>
      <trkpt lat="49.05757" lon="1.07393">
        <ele>189.5</ele>
        <time>2017-10-29T08:06:55Z</time>
      </trkpt>
      <trkpt lat="49.05768" lon="1.07384">
        <ele>189.4</ele>
        <time>2017-10-29T08:06:58Z</time>
      </trkpt>
      <trkpt lat="49.05779" lon="1.07375">
        <ele>189.3</ele>
        <time>2017-10-29T08:07:01Z</time>
      </trkpt>
      <trkpt lat="49.05791" lon="1.07366">
        <ele>189.4</ele>
        <time>2017-10-29T08:07:04Z</time>
      </trkpt>
      <trkpt lat="49.05803" lon="1.07357">
        <ele>189.5</ele>
        <time>2017-10-29T08:07:07Z</time>
      </trkpt>
      <trkpt lat="49.05813" lon="1.07348">
        <ele>189.5</ele>
        <time>2017-10-29T08:07:10Z</time>
      </trkpt>
      <trkpt lat="49.05824" lon="1.0734">
        <ele>189.6</ele>
        <time>2017-10-29T08:07:13Z</time>
      </trkpt>
      <trkpt lat="49.05835" lon="1.07331">
        <ele>189.5</ele>
        <time>2017-10-29T08:07:16Z</time>
      </trkpt>
      <trkpt lat="49.05845" lon="1.07322">
        <ele>189.7</ele>
        <time>2017-10-29T08:07:19Z</time>
      </trkpt>
      <trkpt lat="49.05856" lon="1.07314">
        <ele>189.8</ele>
        <time>2017-10-29T08:07:22Z</time>
      </trkpt>
      <trkpt lat="49.05867" lon="1.07305">
        <ele>189.6</ele>
        <time>2017-10-29T08:07:25Z</time>
      </trkpt>
      <trkpt lat="49.05878" lon="1.07296">
        <ele>189.8</ele>
        <time>2017-10-29T08:07:28Z</time>
      </trkpt>
      <trkpt lat="49.05889" lon="1.07288">
        <ele>189.8</ele>
        <time>2017-10-29T08:07:31Z</time>
      </trkpt>
      <trkpt lat="49.059" lon="1.07279">
        <ele>189.9</ele>
        <time>2017-10-29T08:07:34Z</time>
      </trkpt>
      <trkpt lat="49.0591" lon="1.07271">
        <ele>189.9</ele>
        <time>2017-10-29T08:07:37Z</time>
      </trkpt>
      <trkpt lat="49.05922" lon="1.07262">
        <ele>189.5</ele>
        <time>2017-10-29T08:07:40Z</time>
      </trkpt>
      <trkpt lat="49.05933" lon="1.07254">
        <ele>189.4</ele>
        <time>2017-10-29T08:07:43Z</time>
      </trkpt>
      <trkpt lat="49.05944" lon="1.07245">
        <ele>189.5</ele>
        <time>2017-10-29T08:07:46Z</time>
      </trkpt>
      <trkpt lat="49.05955" lon="1.07235">
        <ele>189.3</ele>
        <time>2017-10-29T08:07:49Z</time>
      </trkpt>
      <trkpt lat="49.05967" lon="1.07227">
        <ele>189.3</ele>
        <time>2017-10-29T08:07:52Z</time>
      </trkpt>
      <trkpt lat="49.05979" lon="1.07217">
        <ele>189.3</ele>
        <time>2017-10-29T08:07:55Z</time>
      </trkpt>
      <trkpt lat="49.05987" lon="1.07211">
        <ele>189.3</ele>
        <time>2017-10-29T08:07:57Z</time>
      </trkpt>
      <trkpt lat="49.05998" lon="1.07202">
        <ele>189.3</ele>
        <time>2017-10-29T08:08:00Z</time>
      </trkpt>
      <trkpt lat="49.0601" lon="1.07193">
        <ele>188.8</ele>
        <time>2017-10-29T08:08:03Z</time>
      </trkpt>
      <trkpt lat="49.06022" lon="1.07184">
        <ele>188.7</ele>
        <time>2017-10-29T08:08:06Z</time>
      </trkpt>
      <trkpt lat="49.06033" lon="1.07175">
        <ele>188.5</ele>
        <time>2017-10-29T08:08:09Z</time>
      </trkpt>
      <trkpt lat="49.06044" lon="1.07166">
        <ele>188.6</ele>
        <time>2017-10-29T08:08:12Z</time>
      </trkpt>
      <trkpt lat="49.06054" lon="1.07158">
        <ele>188.6</ele>
        <time>2017-10-29T08:08:15Z</time>
      </trkpt>
      <trkpt lat="49.06065" lon="1.07149">
        <ele>188.7</ele>
        <time>2017-10-29T08:08:18Z</time>
      </trkpt>
      <trkpt lat="49.06075" lon="1.0714">
        <ele>188.5</ele>
        <time>2017-10-29T08:08:21Z</time>
      </trkpt>
      <trkpt lat="49.06084" lon="1.07131">
        <ele>188.4</ele>
        <time>2017-10-29T08:08:24Z</time>
      </trkpt>
      <trkpt lat="49.06094" lon="1.07123">
        <ele>188.4</ele>
        <time>2017-10-29T08:08:27Z</time>
      </trkpt>
      <trkpt lat="49.06103" lon="1.07114">
        <ele>188.5</ele>
        <time>2017-10-29T08:08:30Z</time>
      </trkpt>
      <trkpt lat="49.06114" lon="1.07105">
        <ele>188.6</ele>
        <time>2017-10-29T08:08:33Z</time>
      </trkpt>
      <trkpt lat="49.06124" lon="1.07096">
        <ele>188.9</ele>
        <time>2017-10-29T08:08:36Z</time>
      </trkpt>
      <trkpt lat="49.06135" lon="1.07087">
        <ele>189.1</ele>
        <time>2017-10-29T08:08:39Z</time>
      </trkpt>
      <trkpt lat="49.06146" lon="1.07079">
        <ele>189.2</ele>
        <time>2017-10-29T08:08:42Z</time>
      </trkpt>
      <trkpt lat="49.06158" lon="1.07071">
        <ele>189</ele>
        <time>2017-10-29T08:08:45Z</time>
      </trkpt>
      <trkpt lat="49.06169" lon="1.07062">
        <ele>188.9</ele>
        <time>2017-10-29T08:08:48Z</time>
      </trkpt>
      <trkpt lat="49.0618" lon="1.07054">
        <ele>189</ele>
        <time>2017-10-29T08:08:51Z</time>
      </trkpt>
      <trkpt lat="49.06191" lon="1.07045">
        <ele>189.1</ele>
        <time>2017-10-29T08:08:54Z</time>
      </trkpt>
      <trkpt lat="49.06201" lon="1.07036">
        <ele>188.9</ele>
        <time>2017-10-29T08:08:57Z</time>
      </trkpt>
      <trkpt lat="49.06212" lon="1.07026">
        <ele>189.1</ele>
        <time>2017-10-29T08:09:00Z</time>
      </trkpt>
      <trkpt lat="49.06222" lon="1.07018">
        <ele>189.1</ele>
        <time>2017-10-29T08:09:03Z</time>
      </trkpt>
      <trkpt lat="49.06231" lon="1.07009">
        <ele>189.2</ele>
        <time>2017-10-29T08:09:06Z</time>
      </trkpt>
      <trkpt lat="49.06241" lon="1.07001">
        <ele>189.1</ele>
        <time>2017-10-29T08:09:09Z</time>
      </trkpt>
      <trkpt lat="49.06251" lon="1.06993">
        <ele>189.3</ele>
        <time>2017-10-29T08:09:12Z</time>
      </trkpt>
      <trkpt lat="49.06262" lon="1.06985">
        <ele>189.3</ele>
        <time>2017-10-29T08:09:15Z</time>
      </trkpt>
      <trkpt lat="49.06273" lon="1.06977">
        <ele>189.3</ele>
        <time>2017-10-29T08:09:18Z</time>
      </trkpt>
      <trkpt lat="49.06284" lon="1.06968">
        <ele>189.4</ele>
        <time>2017-10-29T08:09:21Z</time>
      </trkpt>
      <trkpt lat="49.06294" lon="1.0696">
        <ele>189.5</ele>
        <time>2017-10-29T08:09:24Z</time>
      </trkpt>
      <trkpt lat="49.06305" lon="1.06951">
        <ele>189.7</ele>
        <time>2017-10-29T08:09:27Z</time>
      </trkpt>
      <trkpt lat="49.06315" lon="1.06941">
        <ele>189.8</ele>
        <time>2017-10-29T08:09:30Z</time>
      </trkpt>
      <trkpt lat="49.06323" lon="1.06931">
        <ele>190</ele>
        <time>2017-10-29T08:09:33Z</time>
      </trkpt>
      <trkpt lat="49.06333" lon="1.06924">
        <ele>190</ele>
        <time>2017-10-29T08:09:37Z</time>
      </trkpt>
      <trkpt lat="49.06341" lon="1.0693">
        <ele>190.9</ele>
        <time>2017-10-29T08:09:44Z</time>
      </trkpt>
      <trkpt lat="49.06351" lon="1.0693">
        <ele>191.5</ele>
        <time>2017-10-29T08:11:12Z</time>
      </trkpt>
      <trkpt lat="49.06362" lon="1.06923">
        <ele>191.3</ele>
        <time>2017-10-29T08:11:16Z</time>
      </trkpt>
      <trkpt lat="49.06372" lon="1.06916">
        <ele>191.3</ele>
        <time>2017-10-29T08:11:19Z</time>
      </trkpt>
      <trkpt lat="49.06382" lon="1.06908">
        <ele>191.3</ele>
        <time>2017-10-29T08:11:22Z</time>
      </trkpt>
      <trkpt lat="49.06393" lon="1.069">
        <ele>191.2</ele>
        <time>2017-10-29T08:11:25Z</time>
      </trkpt>
      <trkpt lat="49.06404" lon="1.06892">
        <ele>191.3</ele>
        <time>2017-10-29T08:11:28Z</time>
      </trkpt>
      <trkpt lat="49.06415" lon="1.06883">
        <ele>191.4</ele>
        <time>2017-10-29T08:11:31Z</time>
      </trkpt>
      <trkpt lat="49.06426" lon="1.06874">
        <ele>191.4</ele>
        <time>2017-10-29T08:11:34Z</time>
      </trkpt>
      <trkpt lat="49.06437" lon="1.06865">
        <ele>191.5</ele>
        <time>2017-10-29T08:11:37Z</time>
      </trkpt>
      <trkpt lat="49.06445" lon="1.06858">
        <ele>191.4</ele>
        <time>2017-10-29T08:11:39Z</time>
      </trkpt>
      <trkpt lat="49.06453" lon="1.06851">
        <ele>191.4</ele>
        <time>2017-10-29T08:11:41Z</time>
      </trkpt>
      <trkpt lat="49.06462" lon="1.06845">
        <ele>191.4</ele>
        <time>2017-10-29T08:11:43Z</time>
      </trkpt>
      <trkpt lat="49.0647" lon="1.06838">
        <ele>191.4</ele>
        <time>2017-10-29T08:11:45Z</time>
      </trkpt>
      <trkpt lat="49.06478" lon="1.06831">
        <ele>191.5</ele>
        <time>2017-10-29T08:11:47Z</time>
      </trkpt>
      <trkpt lat="49.06486" lon="1.06824">
        <ele>191.5</ele>
        <time>2017-10-29T08:11:49Z</time>
      </trkpt>
      <trkpt lat="49.06495" lon="1.06817">
        <ele>191.5</ele>
        <time>2017-10-29T08:11:51Z</time>
      </trkpt>
      <trkpt lat="49.06504" lon="1.0681">
        <ele>191.5</ele>
        <time>2017-10-29T08:11:53Z</time>
      </trkpt>
      <trkpt lat="49.06513" lon="1.06803">
        <ele>191.6</ele>
        <time>2017-10-29T08:11:55Z</time>
      </trkpt>
      <trkpt lat="49.06522" lon="1.06796">
        <ele>191.7</ele>
        <time>2017-10-29T08:11:57Z</time>
      </trkpt>
      <trkpt lat="49.06531" lon="1.06789">
        <ele>191.8</ele>
        <time>2017-10-29T08:11:59Z</time>
      </trkpt>
      <trkpt lat="49.0654" lon="1.06782">
        <ele>191.8</ele>
        <time>2017-10-29T08:12:01Z</time>
      </trkpt>
      <trkpt lat="49.06549" lon="1.06775">
        <ele>191.8</ele>
        <time>2017-10-29T08:12:03Z</time>
      </trkpt>
      <trkpt lat="49.06558" lon="1.06767">
        <ele>191.8</ele>
        <time>2017-10-29T08:12:05Z</time>
      </trkpt>
      <trkpt lat="49.06566" lon="1.06759">
        <ele>191.8</ele>
        <time>2017-10-29T08:12:07Z</time>
      </trkpt>
      <trkpt lat="49.06575" lon="1.06752">
        <ele>191.8</ele>
        <time>2017-10-29T08:12:09Z</time>
      </trkpt>
      <trkpt lat="49.06585" lon="1.06746">
        <ele>191.7</ele>
        <time>2017-10-29T08:12:11Z</time>
      </trkpt>
      <trkpt lat="49.06593" lon="1.06738">
        <ele>191.7</ele>
        <time>2017-10-29T08:12:13Z</time>
      </trkpt>
      <trkpt lat="49.06602" lon="1.06731">
        <ele>191.6</ele>
        <time>2017-10-29T08:12:15Z</time>
      </trkpt>
      <trkpt lat="49.0661" lon="1.06724">
        <ele>191.6</ele>
        <time>2017-10-29T08:12:17Z</time>
      </trkpt>
      <trkpt lat="49.06618" lon="1.06717">
        <ele>191.6</ele>
        <time>2017-10-29T08:12:19Z</time>
      </trkpt>
      <trkpt lat="49.06627" lon="1.06711">
        <ele>191.7</ele>
        <time>2017-10-29T08:12:21Z</time>
      </trkpt>
      <trkpt lat="49.06637" lon="1.06704">
        <ele>191.7</ele>
        <time>2017-10-29T08:12:23Z</time>
      </trkpt>
      <trkpt lat="49.06646" lon="1.06696">
        <ele>191.8</ele>
        <time>2017-10-29T08:12:25Z</time>
      </trkpt>
      <trkpt lat="49.06655" lon="1.06688">
        <ele>191.8</ele>
        <time>2017-10-29T08:12:27Z</time>
      </trkpt>
      <trkpt lat="49.06665" lon="1.0668">
        <ele>191.9</ele>
        <time>2017-10-29T08:12:29Z</time>
      </trkpt>
      <trkpt lat="49.06674" lon="1.06672">
        <ele>191.9</ele>
        <time>2017-10-29T08:12:31Z</time>
      </trkpt>
      <trkpt lat="49.06684" lon="1.06664">
        <ele>192.1</ele>
        <time>2017-10-29T08:12:33Z</time>
      </trkpt>
      <trkpt lat="49.06694" lon="1.06656">
        <ele>192.1</ele>
        <time>2017-10-29T08:12:35Z</time>
      </trkpt>
      <trkpt lat="49.06704" lon="1.06647">
        <ele>192.2</ele>
        <time>2017-10-29T08:12:37Z</time>
      </trkpt>
      <trkpt lat="49.06714" lon="1.06639">
        <ele>192.2</ele>
        <time>2017-10-29T08:12:39Z</time>
      </trkpt>
      <trkpt lat="49.06724" lon="1.0663">
        <ele>192.3</ele>
        <time>2017-10-29T08:12:41Z</time>
      </trkpt>
      <trkpt lat="49.06734" lon="1.06622">
        <ele>192.4</ele>
        <time>2017-10-29T08:12:43Z</time>
      </trkpt>
      <trkpt lat="49.06745" lon="1.06613">
        <ele>192.5</ele>
        <time>2017-10-29T08:12:45Z</time>
      </trkpt>
      <trkpt lat="49.06756" lon="1.06605">
        <ele>192.5</ele>
        <time>2017-10-29T08:12:47Z</time>
      </trkpt>
      <trkpt lat="49.06766" lon="1.06597">
        <ele>192.5</ele>
        <time>2017-10-29T08:12:49Z</time>
      </trkpt>
      <trkpt lat="49.06777" lon="1.06588">
        <ele>192.6</ele>
        <time>2017-10-29T08:12:51Z</time>
      </trkpt>
      <trkpt lat="49.06787" lon="1.06579">
        <ele>192.7</ele>
        <time>2017-10-29T08:12:53Z</time>
      </trkpt>
      <trkpt lat="49.06797" lon="1.06571">
        <ele>192.8</ele>
        <time>2017-10-29T08:12:55Z</time>
      </trkpt>
      <trkpt lat="49.06807" lon="1.06563">
        <ele>192.9</ele>
        <time>2017-10-29T08:12:57Z</time>
      </trkpt>
      <trkpt lat="49.06817" lon="1.06555">
        <ele>192.9</ele>
        <time>2017-10-29T08:12:59Z</time>
      </trkpt>
      <trkpt lat="49.06827" lon="1.06547">
        <ele>193</ele>
        <time>2017-10-29T08:13:01Z</time>
      </trkpt>
      <trkpt lat="49.06836" lon="1.06539">
        <ele>193.1</ele>
        <time>2017-10-29T08:13:03Z</time>
      </trkpt>
      <trkpt lat="49.06845" lon="1.0653">
        <ele>193.1</ele>
        <time>2017-10-29T08:13:05Z</time>
      </trkpt>
      <trkpt lat="49.06854" lon="1.06521">
        <ele>193.1</ele>
        <time>2017-10-29T08:13:07Z</time>
      </trkpt>
      <trkpt lat="49.06863" lon="1.06513">
        <ele>193.2</ele>
        <time>2017-10-29T08:13:09Z</time>
      </trkpt>
      <trkpt lat="49.06873" lon="1.06506">
        <ele>193.3</ele>
        <time>2017-10-29T08:13:11Z</time>
      </trkpt>
      <trkpt lat="49.06883" lon="1.06499">
        <ele>193.5</ele>
        <time>2017-10-29T08:13:13Z</time>
      </trkpt>
      <trkpt lat="49.06892" lon="1.06491">
        <ele>193.4</ele>
        <time>2017-10-29T08:13:15Z</time>
      </trkpt>
      <trkpt lat="49.06901" lon="1.06485">
        <ele>193.3</ele>
        <time>2017-10-29T08:13:17Z</time>
      </trkpt>
      <trkpt lat="49.06909" lon="1.06478">
        <ele>193.4</ele>
        <time>2017-10-29T08:13:19Z</time>
      </trkpt>
      <trkpt lat="49.06917" lon="1.06471">
        <ele>193.4</ele>
        <time>2017-10-29T08:13:21Z</time>
      </trkpt>
      <trkpt lat="49.06925" lon="1.06465">
        <ele>193.4</ele>
        <time>2017-10-29T08:13:23Z</time>
      </trkpt>
      <trkpt lat="49.06936" lon="1.06455">
        <ele>193.4</ele>
        <time>2017-10-29T08:13:26Z</time>
      </trkpt>
      <trkpt lat="49.06947" lon="1.06447">
        <ele>193.3</ele>
        <time>2017-10-29T08:13:29Z</time>
      </trkpt>
      <trkpt lat="49.06957" lon="1.06438">
        <ele>193.3</ele>
        <time>2017-10-29T08:13:32Z</time>
      </trkpt>
      <trkpt lat="49.06966" lon="1.06431">
        <ele>193.4</ele>
        <time>2017-10-29T08:13:35Z</time>
      </trkpt>
      <trkpt lat="49.06975" lon="1.06423">
        <ele>193.4</ele>
        <time>2017-10-29T08:13:56Z</time>
      </trkpt>
      <trkpt lat="49.06985" lon="1.06414">
        <ele>193.5</ele>
        <time>2017-10-29T08:13:59Z</time>
      </trkpt>
      <trkpt lat="49.06996" lon="1.06405">
        <ele>193.7</ele>
        <time>2017-10-29T08:14:02Z</time>
      </trkpt>
      <trkpt lat="49.07005" lon="1.06397">
        <ele>193.7</ele>
        <time>2017-10-29T08:14:04Z</time>
      </trkpt>
      <trkpt lat="49.07015" lon="1.06389">
        <ele>193.8</ele>
        <time>2017-10-29T08:14:06Z</time>
      </trkpt>
      <trkpt lat="49.07025" lon="1.06381">
        <ele>193.9</ele>
        <time>2017-10-29T08:14:08Z</time>
      </trkpt>
      <trkpt lat="49.07036" lon="1.06372">
        <ele>194</ele>
        <time>2017-10-29T08:14:10Z</time>
      </trkpt>
      <trkpt lat="49.07047" lon="1.06364">
        <ele>194</ele>
        <time>2017-10-29T08:14:12Z</time>
      </trkpt>
      <trkpt lat="49.07058" lon="1.06355">
        <ele>193.9</ele>
        <time>2017-10-29T08:14:14Z</time>
      </trkpt>
      <trkpt lat="49.07068" lon="1.06346">
        <ele>194.1</ele>
        <time>2017-10-29T08:14:16Z</time>
      </trkpt>
      <trkpt lat="49.07078" lon="1.06337">
        <ele>194.1</ele>
        <time>2017-10-29T08:14:18Z</time>
      </trkpt>
      <trkpt lat="49.0709" lon="1.06328">
        <ele>194.2</ele>
        <time>2017-10-29T08:14:20Z</time>
      </trkpt>
      <trkpt lat="49.07099" lon="1.06319">
        <ele>194.2</ele>
        <time>2017-10-29T08:14:22Z</time>
      </trkpt>
      <trkpt lat="49.0711" lon="1.0631">
        <ele>194.1</ele>
        <time>2017-10-29T08:14:24Z</time>
      </trkpt>
      <trkpt lat="49.07122" lon="1.063">
        <ele>194.1</ele>
        <time>2017-10-29T08:14:26Z</time>
      </trkpt>
      <trkpt lat="49.07135" lon="1.06292">
        <ele>194</ele>
        <time>2017-10-29T08:14:28Z</time>
      </trkpt>
      <trkpt lat="49.07147" lon="1.06283">
        <ele>194.1</ele>
        <time>2017-10-29T08:14:30Z</time>
      </trkpt>
      <trkpt lat="49.07158" lon="1.06273">
        <ele>194.1</ele>
        <time>2017-10-29T08:14:32Z</time>
      </trkpt>
      <trkpt lat="49.0717" lon="1.06264">
        <ele>194.2</ele>
        <time>2017-10-29T08:14:34Z</time>
      </trkpt>
      <trkpt lat="49.07181" lon="1.06254">
        <ele>194.2</ele>
        <time>2017-10-29T08:14:36Z</time>
      </trkpt>
      <trkpt lat="49.07192" lon="1.06244">
        <ele>194.2</ele>
        <time>2017-10-29T08:14:38Z</time>
      </trkpt>
      <trkpt lat="49.07204" lon="1.06235">
        <ele>194.2</ele>
        <time>2017-10-29T08:14:40Z</time>
      </trkpt>
      <trkpt lat="49.07215" lon="1.06226">
        <ele>194.6</ele>
        <time>2017-10-29T08:14:42Z</time>
      </trkpt>
      <trkpt lat="49.07226" lon="1.06216">
        <ele>195</ele>
        <time>2017-10-29T08:14:44Z</time>
      </trkpt>
      <trkpt lat="49.07238" lon="1.06207">
        <ele>195.2</ele>
        <time>2017-10-29T08:14:46Z</time>
      </trkpt>
      <trkpt lat="49.0725" lon="1.06198">
        <ele>195.2</ele>
        <time>2017-10-29T08:14:48Z</time>
      </trkpt>
      <trkpt lat="49.07261" lon="1.06189">
        <ele>195.2</ele>
        <time>2017-10-29T08:14:50Z</time>
      </trkpt>
      <trkpt lat="49.07272" lon="1.06179">
        <ele>195.3</ele>
        <time>2017-10-29T08:14:52Z</time>
      </trkpt>
      <trkpt lat="49.07284" lon="1.06169">
        <ele>195.3</ele>
        <time>2017-10-29T08:14:54Z</time>
      </trkpt>
      <trkpt lat="49.07295" lon="1.06159">
        <ele>195.4</ele>
        <time>2017-10-29T08:14:56Z</time>
      </trkpt>
      <trkpt lat="49.07307" lon="1.0615">
        <ele>195.6</ele>
        <time>2017-10-29T08:14:58Z</time>
      </trkpt>
      <trkpt lat="49.07319" lon="1.0614">
        <ele>195.6</ele>
        <time>2017-10-29T08:15:00Z</time>
      </trkpt>
      <trkpt lat="49.0733" lon="1.0613">
        <ele>195.6</ele>
        <time>2017-10-29T08:15:02Z</time>
      </trkpt>
      <trkpt lat="49.07342" lon="1.0612">
        <ele>195.5</ele>
        <time>2017-10-29T08:15:04Z</time>
      </trkpt>
      <trkpt lat="49.07354" lon="1.0611">
        <ele>195.5</ele>
        <time>2017-10-29T08:15:06Z</time>
      </trkpt>
      <trkpt lat="49.07364" lon="1.06101">
        <ele>195.5</ele>
        <time>2017-10-29T08:15:08Z</time>
      </trkpt>
      <trkpt lat="49.07374" lon="1.06092">
        <ele>195.4</ele>
        <time>2017-10-29T08:15:10Z</time>
      </trkpt>
      <trkpt lat="49.07384" lon="1.06083">
        <ele>195.5</ele>
        <time>2017-10-29T08:15:12Z</time>
      </trkpt>
      <trkpt lat="49.07393" lon="1.06073">
        <ele>195.6</ele>
        <time>2017-10-29T08:15:14Z</time>
      </trkpt>
      <trkpt lat="49.07402" lon="1.06065">
        <ele>195.7</ele>
        <time>2017-10-29T08:15:16Z</time>
      </trkpt>
      <trkpt lat="49.07411" lon="1.06056">
        <ele>195.7</ele>
        <time>2017-10-29T08:15:18Z</time>
      </trkpt>
      <trkpt lat="49.07419" lon="1.06048">
        <ele>195.8</ele>
        <time>2017-10-29T08:15:20Z</time>
      </trkpt>
      <trkpt lat="49.07428" lon="1.06039">
        <ele>195.9</ele>
        <time>2017-10-29T08:15:22Z</time>
      </trkpt>
      <trkpt lat="49.07436" lon="1.0603">
        <ele>195.9</ele>
        <time>2017-10-29T08:15:24Z</time>
      </trkpt>
      <trkpt lat="49.07444" lon="1.06022">
        <ele>196</ele>
        <time>2017-10-29T08:15:26Z</time>
      </trkpt>
      <trkpt lat="49.07452" lon="1.06013">
        <ele>196.1</ele>
        <time>2017-10-29T08:15:28Z</time>
      </trkpt>
      <trkpt lat="49.0746" lon="1.06004">
        <ele>196.2</ele>
        <time>2017-10-29T08:15:30Z</time>
      </trkpt>
      <trkpt lat="49.07468" lon="1.05996">
        <ele>196.2</ele>
        <time>2017-10-29T08:15:32Z</time>
      </trkpt>
      <trkpt lat="49.07477" lon="1.05983">
        <ele>196.2</ele>
        <time>2017-10-29T08:15:35Z</time>
      </trkpt>
      <trkpt lat="49.07488" lon="1.0597">
        <ele>196.2</ele>
        <time>2017-10-29T08:15:38Z</time>
      </trkpt>
      <trkpt lat="49.07499" lon="1.05958">
        <ele>196.2</ele>
        <time>2017-10-29T08:15:41Z</time>
      </trkpt>
      <trkpt lat="49.07506" lon="1.05949">
        <ele>196.3</ele>
        <time>2017-10-29T08:15:43Z</time>
      </trkpt>
      <trkpt lat="49.07514" lon="1.0594">
        <ele>196.4</ele>
        <time>2017-10-29T08:15:45Z</time>
      </trkpt>
      <trkpt lat="49.07524" lon="1.05927">
        <ele>196.5</ele>
        <time>2017-10-29T08:15:48Z</time>
      </trkpt>
      <trkpt lat="49.07534" lon="1.05915">
        <ele>196.5</ele>
        <time>2017-10-29T08:15:51Z</time>
      </trkpt>
      <trkpt lat="49.07542" lon="1.05906">
        <ele>196.5</ele>
        <time>2017-10-29T08:15:53Z</time>
      </trkpt>
      <trkpt lat="49.0755" lon="1.05895">
        <ele>196.5</ele>
        <time>2017-10-29T08:15:55Z</time>
      </trkpt>
      <trkpt lat="49.07558" lon="1.05884">
        <ele>196.6</ele>
        <time>2017-10-29T08:15:57Z</time>
      </trkpt>
      <trkpt lat="49.07566" lon="1.05872">
        <ele>196.6</ele>
        <time>2017-10-29T08:15:59Z</time>
      </trkpt>
      <trkpt lat="49.07574" lon="1.0586">
        <ele>196.7</ele>
        <time>2017-10-29T08:16:01Z</time>
      </trkpt>
      <trkpt lat="49.07582" lon="1.05849">
        <ele>196.7</ele>
        <time>2017-10-29T08:16:03Z</time>
      </trkpt>
      <trkpt lat="49.07589" lon="1.05836">
        <ele>196.6</ele>
        <time>2017-10-29T08:16:05Z</time>
      </trkpt>
      <trkpt lat="49.07598" lon="1.05824">
        <ele>196.6</ele>
        <time>2017-10-29T08:16:07Z</time>
      </trkpt>
      <trkpt lat="49.07606" lon="1.05812">
        <ele>196.6</ele>
        <time>2017-10-29T08:16:09Z</time>
      </trkpt>
      <trkpt lat="49.07615" lon="1.05801">
        <ele>196.7</ele>
        <time>2017-10-29T08:16:11Z</time>
      </trkpt>
      <trkpt lat="49.07623" lon="1.05789">
        <ele>196.8</ele>
        <time>2017-10-29T08:16:13Z</time>
      </trkpt>
      <trkpt lat="49.0763" lon="1.05777">
        <ele>197</ele>
        <time>2017-10-29T08:16:15Z</time>
      </trkpt>
      <trkpt lat="49.07637" lon="1.05766">
        <ele>197</ele>
        <time>2017-10-29T08:16:17Z</time>
      </trkpt>
      <trkpt lat="49.07647" lon="1.05751">
        <ele>197.1</ele>
        <time>2017-10-29T08:16:20Z</time>
      </trkpt>
      <trkpt lat="49.07655" lon="1.0574">
        <ele>196.9</ele>
        <time>2017-10-29T08:16:22Z</time>
      </trkpt>
      <trkpt lat="49.07662" lon="1.05729">
        <ele>196.8</ele>
        <time>2017-10-29T08:16:24Z</time>
      </trkpt>
      <trkpt lat="49.07669" lon="1.05717">
        <ele>196.9</ele>
        <time>2017-10-29T08:16:26Z</time>
      </trkpt>
      <trkpt lat="49.07677" lon="1.05707">
        <ele>197</ele>
        <time>2017-10-29T08:16:28Z</time>
      </trkpt>
      <trkpt lat="49.07685" lon="1.05696">
        <ele>197</ele>
        <time>2017-10-29T08:16:30Z</time>
      </trkpt>
      <trkpt lat="49.07691" lon="1.05685">
        <ele>197</ele>
        <time>2017-10-29T08:16:32Z</time>
      </trkpt>
      <trkpt lat="49.07697" lon="1.05672">
        <ele>196.9</ele>
        <time>2017-10-29T08:16:34Z</time>
      </trkpt>
      <trkpt lat="49.07704" lon="1.0566">
        <ele>196.8</ele>
        <time>2017-10-29T08:16:36Z</time>
      </trkpt>
      <trkpt lat="49.0771" lon="1.05647">
        <ele>196.9</ele>
        <time>2017-10-29T08:16:38Z</time>
      </trkpt>
      <trkpt lat="49.07716" lon="1.05634">
        <ele>197</ele>
        <time>2017-10-29T08:16:40Z</time>
      </trkpt>
      <trkpt lat="49.07723" lon="1.05622">
        <ele>197</ele>
        <time>2017-10-29T08:16:42Z</time>
      </trkpt>
      <trkpt lat="49.0773" lon="1.0561">
        <ele>197</ele>
        <time>2017-10-29T08:16:44Z</time>
      </trkpt>
      <trkpt lat="49.07737" lon="1.05598">
        <ele>197.1</ele>
        <time>2017-10-29T08:16:46Z</time>
      </trkpt>
      <trkpt lat="49.07743" lon="1.05586">
        <ele>197.4</ele>
        <time>2017-10-29T08:16:48Z</time>
      </trkpt>
      <trkpt lat="49.07751" lon="1.05575">
        <ele>197.6</ele>
        <time>2017-10-29T08:16:50Z</time>
      </trkpt>
      <trkpt lat="49.07757" lon="1.05563">
        <ele>197.6</ele>
        <time>2017-10-29T08:16:52Z</time>
      </trkpt>
      <trkpt lat="49.07764" lon="1.05552">
        <ele>197.5</ele>
        <time>2017-10-29T08:16:54Z</time>
      </trkpt>
      <trkpt lat="49.07771" lon="1.0554">
        <ele>197.6</ele>
        <time>2017-10-29T08:16:56Z</time>
      </trkpt>
      <trkpt lat="49.07777" lon="1.05529">
        <ele>197.5</ele>
        <time>2017-10-29T08:16:58Z</time>
      </trkpt>
      <trkpt lat="49.07784" lon="1.05516">
        <ele>197.6</ele>
        <time>2017-10-29T08:17:00Z</time>
      </trkpt>
      <trkpt lat="49.07792" lon="1.05505">
        <ele>197.7</ele>
        <time>2017-10-29T08:17:02Z</time>
      </trkpt>
      <trkpt lat="49.07799" lon="1.05493">
        <ele>197.7</ele>
        <time>2017-10-29T08:17:04Z</time>
      </trkpt>
      <trkpt lat="49.07806" lon="1.05481">
        <ele>197.8</ele>
        <time>2017-10-29T08:17:06Z</time>
      </trkpt>
      <trkpt lat="49.07813" lon="1.0547">
        <ele>197.8</ele>
        <time>2017-10-29T08:17:08Z</time>
      </trkpt>
      <trkpt lat="49.0782" lon="1.05458">
        <ele>197.8</ele>
        <time>2017-10-29T08:17:10Z</time>
      </trkpt>
      <trkpt lat="49.07828" lon="1.05446">
        <ele>197.9</ele>
        <time>2017-10-29T08:17:12Z</time>
      </trkpt>
      <trkpt lat="49.07835" lon="1.05434">
        <ele>197.9</ele>
        <time>2017-10-29T08:17:14Z</time>
      </trkpt>
      <trkpt lat="49.07842" lon="1.05422">
        <ele>198</ele>
        <time>2017-10-29T08:17:16Z</time>
      </trkpt>
      <trkpt lat="49.07849" lon="1.0541">
        <ele>198.2</ele>
        <time>2017-10-29T08:17:18Z</time>
      </trkpt>
      <trkpt lat="49.07856" lon="1.05398">
        <ele>198.2</ele>
        <time>2017-10-29T08:17:20Z</time>
      </trkpt>
      <trkpt lat="49.07863" lon="1.05387">
        <ele>198.2</ele>
        <time>2017-10-29T08:17:22Z</time>
      </trkpt>
      <trkpt lat="49.0787" lon="1.05375">
        <ele>198.1</ele>
        <time>2017-10-29T08:17:24Z</time>
      </trkpt>
      <trkpt lat="49.07877" lon="1.05363">
        <ele>198.2</ele>
        <time>2017-10-29T08:17:26Z</time>
      </trkpt>
      <trkpt lat="49.07884" lon="1.05351">
        <ele>198.2</ele>
        <time>2017-10-29T08:17:28Z</time>
      </trkpt>
      <trkpt lat="49.07892" lon="1.0534">
        <ele>198.2</ele>
        <time>2017-10-29T08:17:30Z</time>
      </trkpt>
      <trkpt lat="49.07899" lon="1.05328">
        <ele>198.2</ele>
        <time>2017-10-29T08:17:32Z</time>
      </trkpt>
      <trkpt lat="49.07906" lon="1.05316">
        <ele>198.3</ele>
        <time>2017-10-29T08:17:34Z</time>
      </trkpt>
      <trkpt lat="49.07913" lon="1.05305">
        <ele>198.3</ele>
        <time>2017-10-29T08:17:36Z</time>
      </trkpt>
      <trkpt lat="49.0792" lon="1.05293">
        <ele>198.3</ele>
        <time>2017-10-29T08:17:38Z</time>
      </trkpt>
      <trkpt lat="49.07927" lon="1.05281">
        <ele>198.4</ele>
        <time>2017-10-29T08:17:40Z</time>
      </trkpt>
      <trkpt lat="49.07933" lon="1.05269">
        <ele>198.5</ele>
        <time>2017-10-29T08:17:42Z</time>
      </trkpt>
      <trkpt lat="49.07941" lon="1.05257">
        <ele>198.5</ele>
        <time>2017-10-29T08:17:44Z</time>
      </trkpt>
      <trkpt lat="49.07949" lon="1.05244">
        <ele>198.3</ele>
        <time>2017-10-29T08:17:46Z</time>
      </trkpt>
      <trkpt lat="49.07956" lon="1.05232">
        <ele>198.3</ele>
        <time>2017-10-29T08:17:48Z</time>
      </trkpt>
      <trkpt lat="49.07964" lon="1.05219">
        <ele>198.4</ele>
        <time>2017-10-29T08:17:50Z</time>
      </trkpt>
      <trkpt lat="49.07971" lon="1.05207">
        <ele>198.4</ele>
        <time>2017-10-29T08:17:52Z</time>
      </trkpt>
      <trkpt lat="49.07979" lon="1.05194">
        <ele>198.5</ele>
        <time>2017-10-29T08:17:54Z</time>
      </trkpt>
      <trkpt lat="49.07987" lon="1.05182">
        <ele>198.5</ele>
        <time>2017-10-29T08:17:56Z</time>
      </trkpt>
      <trkpt lat="49.07995" lon="1.05169">
        <ele>198.8</ele>
        <time>2017-10-29T08:17:58Z</time>
      </trkpt>
      <trkpt lat="49.08003" lon="1.05157">
        <ele>198.8</ele>
        <time>2017-10-29T08:18:00Z</time>
      </trkpt>
      <trkpt lat="49.0801" lon="1.05144">
        <ele>198.6</ele>
        <time>2017-10-29T08:18:02Z</time>
      </trkpt>
      <trkpt lat="49.08018" lon="1.05132">
        <ele>198.6</ele>
        <time>2017-10-29T08:18:04Z</time>
      </trkpt>
      <trkpt lat="49.08025" lon="1.05119">
        <ele>198.8</ele>
        <time>2017-10-29T08:18:06Z</time>
      </trkpt>
      <trkpt lat="49.08033" lon="1.05107">
        <ele>198.9</ele>
        <time>2017-10-29T08:18:08Z</time>
      </trkpt>
      <trkpt lat="49.08041" lon="1.05094">
        <ele>198.8</ele>
        <time>2017-10-29T08:18:10Z</time>
      </trkpt>
      <trkpt lat="49.08049" lon="1.05082">
        <ele>198.6</ele>
        <time>2017-10-29T08:18:12Z</time>
      </trkpt>
      <trkpt lat="49.08057" lon="1.05069">
        <ele>198.5</ele>
        <time>2017-10-29T08:18:14Z</time>
      </trkpt>
      <trkpt lat="49.08064" lon="1.05056">
        <ele>198.4</ele>
        <time>2017-10-29T08:18:16Z</time>
      </trkpt>
      <trkpt lat="49.08072" lon="1.05042">
        <ele>198.4</ele>
        <time>2017-10-29T08:18:18Z</time>
      </trkpt>
      <trkpt lat="49.0808" lon="1.0503">
        <ele>198.5</ele>
        <time>2017-10-29T08:18:20Z</time>
      </trkpt>
      <trkpt lat="49.08088" lon="1.05018">
        <ele>198.5</ele>
        <time>2017-10-29T08:18:22Z</time>
      </trkpt>
      <trkpt lat="49.08096" lon="1.05006">
        <ele>198.6</ele>
        <time>2017-10-29T08:18:24Z</time>
      </trkpt>
      <trkpt lat="49.08104" lon="1.04993">
        <ele>198.5</ele>
        <time>2017-10-29T08:18:26Z</time>
      </trkpt>
      <trkpt lat="49.08112" lon="1.0498">
        <ele>198.5</ele>
        <time>2017-10-29T08:18:28Z</time>
      </trkpt>
      <trkpt lat="49.0812" lon="1.04967">
        <ele>198.5</ele>
        <time>2017-10-29T08:18:30Z</time>
      </trkpt>
      <trkpt lat="49.08128" lon="1.04954">
        <ele>198.4</ele>
        <time>2017-10-29T08:18:32Z</time>
      </trkpt>
      <trkpt lat="49.08136" lon="1.04941">
        <ele>198.6</ele>
        <time>2017-10-29T08:18:34Z</time>
      </trkpt>
      <trkpt lat="49.08144" lon="1.04927">
        <ele>198.7</ele>
        <time>2017-10-29T08:18:36Z</time>
      </trkpt>
      <trkpt lat="49.08152" lon="1.04914">
        <ele>198.7</ele>
        <time>2017-10-29T08:18:38Z</time>
      </trkpt>
      <trkpt lat="49.08159" lon="1.04901">
        <ele>198.7</ele>
        <time>2017-10-29T08:18:40Z</time>
      </trkpt>
      <trkpt lat="49.08167" lon="1.04888">
        <ele>198.6</ele>
        <time>2017-10-29T08:18:42Z</time>
      </trkpt>
      <trkpt lat="49.08175" lon="1.04875">
        <ele>198.7</ele>
        <time>2017-10-29T08:18:44Z</time>
      </trkpt>
      <trkpt lat="49.08182" lon="1.04862">
        <ele>198.9</ele>
        <time>2017-10-29T08:18:46Z</time>
      </trkpt>
      <trkpt lat="49.0819" lon="1.04849">
        <ele>199</ele>
        <time>2017-10-29T08:18:48Z</time>
      </trkpt>
      <trkpt lat="49.08198" lon="1.04836">
        <ele>199.1</ele>
        <time>2017-10-29T08:18:50Z</time>
      </trkpt>
      <trkpt lat="49.08206" lon="1.04824">
        <ele>199.1</ele>
        <time>2017-10-29T08:18:52Z</time>
      </trkpt>
      <trkpt lat="49.08213" lon="1.04811">
        <ele>198.8</ele>
        <time>2017-10-29T08:18:54Z</time>
      </trkpt>
      <trkpt lat="49.08221" lon="1.04798">
        <ele>198.8</ele>
        <time>2017-10-29T08:18:56Z</time>
      </trkpt>
      <trkpt lat="49.08229" lon="1.04785">
        <ele>199</ele>
        <time>2017-10-29T08:18:58Z</time>
      </trkpt>
      <trkpt lat="49.08237" lon="1.04772">
        <ele>199.1</ele>
        <time>2017-10-29T08:19:00Z</time>
      </trkpt>
      <trkpt lat="49.08245" lon="1.04759">
        <ele>199.2</ele>
        <time>2017-10-29T08:19:02Z</time>
      </trkpt>
      <trkpt lat="49.08254" lon="1.04746">
        <ele>199.1</ele>
        <time>2017-10-29T08:19:04Z</time>
      </trkpt>
      <trkpt lat="49.08262" lon="1.04735">
        <ele>199.1</ele>
        <time>2017-10-29T08:19:06Z</time>
      </trkpt>
      <trkpt lat="49.0827" lon="1.04722">
        <ele>199.1</ele>
        <time>2017-10-29T08:19:08Z</time>
      </trkpt>
      <trkpt lat="49.08278" lon="1.04709">
        <ele>199.2</ele>
        <time>2017-10-29T08:19:10Z</time>
      </trkpt>
      <trkpt lat="49.08285" lon="1.04696">
        <ele>199</ele>
        <time>2017-10-29T08:19:12Z</time>
      </trkpt>
      <trkpt lat="49.08293" lon="1.04682">
        <ele>198.9</ele>
        <time>2017-10-29T08:19:14Z</time>
      </trkpt>
      <trkpt lat="49.08301" lon="1.04669">
        <ele>198.9</ele>
        <time>2017-10-29T08:19:16Z</time>
      </trkpt>
      <trkpt lat="49.08309" lon="1.04655">
        <ele>198.9</ele>
        <time>2017-10-29T08:19:18Z</time>
      </trkpt>
      <trkpt lat="49.08317" lon="1.04642">
        <ele>198.9</ele>
        <time>2017-10-29T08:19:20Z</time>
      </trkpt>
      <trkpt lat="49.08325" lon="1.04628">
        <ele>199</ele>
        <time>2017-10-29T08:19:22Z</time>
      </trkpt>
      <trkpt lat="49.08333" lon="1.04615">
        <ele>199.1</ele>
        <time>2017-10-29T08:19:24Z</time>
      </trkpt>
      <trkpt lat="49.08341" lon="1.04601">
        <ele>199.3</ele>
        <time>2017-10-29T08:19:26Z</time>
      </trkpt>
      <trkpt lat="49.0835" lon="1.04588">
        <ele>199.4</ele>
        <time>2017-10-29T08:19:28Z</time>
      </trkpt>
      <trkpt lat="49.08358" lon="1.04575">
        <ele>199.3</ele>
        <time>2017-10-29T08:19:30Z</time>
      </trkpt>
      <trkpt lat="49.08366" lon="1.04562">
        <ele>199.4</ele>
        <time>2017-10-29T08:19:32Z</time>
      </trkpt>
      <trkpt lat="49.08374" lon="1.04548">
        <ele>199.5</ele>
        <time>2017-10-29T08:19:34Z</time>
      </trkpt>
      <trkpt lat="49.08382" lon="1.04535">
        <ele>199.5</ele>
        <time>2017-10-29T08:19:36Z</time>
      </trkpt>
      <trkpt lat="49.0839" lon="1.04522">
        <ele>199.5</ele>
        <time>2017-10-29T08:19:38Z</time>
      </trkpt>
      <trkpt lat="49.08399" lon="1.04508">
        <ele>199.7</ele>
        <time>2017-10-29T08:19:40Z</time>
      </trkpt>
      <trkpt lat="49.08407" lon="1.04495">
        <ele>199.7</ele>
        <time>2017-10-29T08:19:42Z</time>
      </trkpt>
      <trkpt lat="49.08415" lon="1.04482">
        <ele>199.7</ele>
        <time>2017-10-29T08:19:44Z</time>
      </trkpt>
      <trkpt lat="49.08423" lon="1.04469">
        <ele>199.8</ele>
        <time>2017-10-29T08:19:46Z</time>
      </trkpt>
      <trkpt lat="49.0843" lon="1.04455">
        <ele>199.9</ele>
        <time>2017-10-29T08:19:48Z</time>
      </trkpt>
      <trkpt lat="49.08439" lon="1.04442">
        <ele>199.7</ele>
        <time>2017-10-29T08:19:50Z</time>
      </trkpt>
      <trkpt lat="49.08447" lon="1.04428">
        <ele>199.8</ele>
        <time>2017-10-29T08:19:52Z</time>
      </trkpt>
      <trkpt lat="49.08455" lon="1.04415">
        <ele>199.7</ele>
        <time>2017-10-29T08:19:54Z</time>
      </trkpt>
      <trkpt lat="49.08464" lon="1.04401">
        <ele>199.7</ele>
        <time>2017-10-29T08:19:56Z</time>
      </trkpt>
      <trkpt lat="49.08473" lon="1.04388">
        <ele>199.5</ele>
        <time>2017-10-29T08:19:58Z</time>
      </trkpt>
      <trkpt lat="49.08481" lon="1.04375">
        <ele>199.3</ele>
        <time>2017-10-29T08:20:00Z</time>
      </trkpt>
      <trkpt lat="49.08489" lon="1.04362">
        <ele>199.3</ele>
        <time>2017-10-29T08:20:02Z</time>
      </trkpt>
      <trkpt lat="49.08497" lon="1.04348">
        <ele>199.4</ele>
        <time>2017-10-29T08:20:04Z</time>
      </trkpt>
      <trkpt lat="49.08505" lon="1.04335">
        <ele>199.4</ele>
        <time>2017-10-29T08:20:06Z</time>
      </trkpt>
      <trkpt lat="49.08513" lon="1.04322">
        <ele>199.6</ele>
        <time>2017-10-29T08:20:08Z</time>
      </trkpt>
      <trkpt lat="49.08522" lon="1.04309">
        <ele>199.7</ele>
        <time>2017-10-29T08:20:10Z</time>
      </trkpt>
      <trkpt lat="49.08531" lon="1.04296">
        <ele>199.7</ele>
        <time>2017-10-29T08:20:12Z</time>
      </trkpt>
      <trkpt lat="49.08539" lon="1.04283">
        <ele>199.5</ele>
        <time>2017-10-29T08:20:14Z</time>
      </trkpt>
      <trkpt lat="49.08547" lon="1.0427">
        <ele>199.6</ele>
        <time>2017-10-29T08:20:16Z</time>
      </trkpt>
      <trkpt lat="49.08556" lon="1.04256">
        <ele>199.7</ele>
        <time>2017-10-29T08:20:18Z</time>
      </trkpt>
      <trkpt lat="49.08564" lon="1.04243">
        <ele>199.6</ele>
        <time>2017-10-29T08:20:20Z</time>
      </trkpt>
      <trkpt lat="49.08573" lon="1.04229">
        <ele>199.8</ele>
        <time>2017-10-29T08:20:22Z</time>
      </trkpt>
      <trkpt lat="49.08581" lon="1.04216">
        <ele>199.8</ele>
        <time>2017-10-29T08:20:24Z</time>
      </trkpt>
      <trkpt lat="49.08589" lon="1.04203">
        <ele>199.7</ele>
        <time>2017-10-29T08:20:26Z</time>
      </trkpt>
      <trkpt lat="49.08597" lon="1.0419">
        <ele>199.7</ele>
        <time>2017-10-29T08:20:28Z</time>
      </trkpt>
      <trkpt lat="49.08605" lon="1.04177">
        <ele>199.6</ele>
        <time>2017-10-29T08:20:30Z</time>
      </trkpt>
      <trkpt lat="49.08614" lon="1.04164">
        <ele>199.6</ele>
        <time>2017-10-29T08:20:32Z</time>
      </trkpt>
      <trkpt lat="49.08621" lon="1.04151">
        <ele>199.6</ele>
        <time>2017-10-29T08:20:34Z</time>
      </trkpt>
      <trkpt lat="49.08629" lon="1.04137">
        <ele>199.5</ele>
        <time>2017-10-29T08:20:36Z</time>
      </trkpt>
      <trkpt lat="49.08637" lon="1.04124">
        <ele>199.5</ele>
        <time>2017-10-29T08:20:38Z</time>
      </trkpt>
      <trkpt lat="49.08645" lon="1.0411">
        <ele>199.5</ele>
        <time>2017-10-29T08:20:40Z</time>
      </trkpt>
      <trkpt lat="49.08653" lon="1.04097">
        <ele>199.5</ele>
        <time>2017-10-29T08:20:42Z</time>
      </trkpt>
      <trkpt lat="49.08661" lon="1.04083">
        <ele>199.4</ele>
        <time>2017-10-29T08:20:44Z</time>
      </trkpt>
      <trkpt lat="49.08669" lon="1.04069">
        <ele>199.2</ele>
        <time>2017-10-29T08:20:46Z</time>
      </trkpt>
      <trkpt lat="49.08677" lon="1.04056">
        <ele>199.2</ele>
        <time>2017-10-29T08:20:48Z</time>
      </trkpt>
      <trkpt lat="49.08685" lon="1.04042">
        <ele>199.2</ele>
        <time>2017-10-29T08:20:50Z</time>
      </trkpt>
      <trkpt lat="49.08693" lon="1.04028">
        <ele>199.2</ele>
        <time>2017-10-29T08:20:52Z</time>
      </trkpt>
      <trkpt lat="49.08701" lon="1.04015">
        <ele>199.2</ele>
        <time>2017-10-29T08:20:54Z</time>
      </trkpt>
      <trkpt lat="49.08708" lon="1.04002">
        <ele>199.1</ele>
        <time>2017-10-29T08:20:56Z</time>
      </trkpt>
      <trkpt lat="49.08716" lon="1.03991">
        <ele>199.1</ele>
        <time>2017-10-29T08:20:58Z</time>
      </trkpt>
      <trkpt lat="49.08723" lon="1.03981">
        <ele>199.2</ele>
        <time>2017-10-29T08:21:00Z</time>
      </trkpt>
      <trkpt lat="49.08729" lon="1.03971">
        <ele>199.3</ele>
        <time>2017-10-29T08:21:02Z</time>
      </trkpt>
      <trkpt lat="49.08735" lon="1.0396">
        <ele>199.2</ele>
        <time>2017-10-29T08:21:04Z</time>
      </trkpt>
      <trkpt lat="49.08743" lon="1.03945">
        <ele>199.2</ele>
        <time>2017-10-29T08:21:07Z</time>
      </trkpt>
      <trkpt lat="49.08749" lon="1.03933">
        <ele>199.3</ele>
        <time>2017-10-29T08:21:10Z</time>
      </trkpt>
      <trkpt lat="49.08757" lon="1.03924">
        <ele>199.5</ele>
        <time>2017-10-29T08:21:14Z</time>
      </trkpt>
      <trkpt lat="49.08768" lon="1.03922">
        <ele>199.4</ele>
        <time>2017-10-29T08:21:19Z</time>
      </trkpt>
      <trkpt lat="49.08777" lon="1.03923">
        <ele>199.2</ele>
        <time>2017-10-29T08:21:23Z</time>
      </trkpt>
      <trkpt lat="49.08789" lon="1.03923">
        <ele>199.3</ele>
        <time>2017-10-29T08:21:27Z</time>
      </trkpt>
      <trkpt lat="49.08798" lon="1.03924">
        <ele>199.3</ele>
        <time>2017-10-29T08:21:30Z</time>
      </trkpt>
      <trkpt lat="49.08808" lon="1.03925">
        <ele>199.3</ele>
        <time>2017-10-29T08:21:33Z</time>
      </trkpt>
      <trkpt lat="49.0882" lon="1.03925">
        <ele>199.1</ele>
        <time>2017-10-29T08:21:36Z</time>
      </trkpt>
      <trkpt lat="49.08833" lon="1.03926">
        <ele>198.9</ele>
        <time>2017-10-29T08:21:39Z</time>
      </trkpt>
      <trkpt lat="49.08845" lon="1.03927">
        <ele>198.9</ele>
        <time>2017-10-29T08:21:42Z</time>
      </trkpt>
      <trkpt lat="49.08858" lon="1.03927">
        <ele>198.9</ele>
        <time>2017-10-29T08:21:45Z</time>
      </trkpt>
      <trkpt lat="49.08871" lon="1.03929">
        <ele>198.6</ele>
        <time>2017-10-29T08:21:48Z</time>
      </trkpt>
      <trkpt lat="49.08885" lon="1.0393">
        <ele>198.5</ele>
        <time>2017-10-29T08:21:51Z</time>
      </trkpt>
      <trkpt lat="49.08894" lon="1.03931">
        <ele>198.4</ele>
        <time>2017-10-29T08:21:53Z</time>
      </trkpt>
      <trkpt lat="49.08906" lon="1.03931">
        <ele>198.2</ele>
        <time>2017-10-29T08:21:56Z</time>
      </trkpt>
      <trkpt lat="49.08915" lon="1.03932">
        <ele>198.2</ele>
        <time>2017-10-29T08:21:58Z</time>
      </trkpt>
      <trkpt lat="49.08925" lon="1.03933">
        <ele>198.2</ele>
        <time>2017-10-29T08:22:00Z</time>
      </trkpt>
      <trkpt lat="49.08934" lon="1.03937">
        <ele>198.1</ele>
        <time>2017-10-29T08:22:02Z</time>
      </trkpt>
      <trkpt lat="49.08943" lon="1.0395">
        <ele>197.7</ele>
        <time>2017-10-29T08:22:05Z</time>
      </trkpt>
      <trkpt lat="49.08954" lon="1.03951">
        <ele>197.8</ele>
        <time>2017-10-29T08:22:08Z</time>
      </trkpt>
      <trkpt lat="49.08959" lon="1.03938">
        <ele>197.9</ele>
        <time>2017-10-29T08:22:11Z</time>
      </trkpt>
      <trkpt lat="49.08964" lon="1.0392">
        <ele>197.8</ele>
        <time>2017-10-29T08:22:14Z</time>
      </trkpt>
      <trkpt lat="49.08972" lon="1.03903">
        <ele>197.8</ele>
        <time>2017-10-29T08:22:17Z</time>
      </trkpt>
      <trkpt lat="49.08978" lon="1.03891">
        <ele>197.8</ele>
        <time>2017-10-29T08:22:19Z</time>
      </trkpt>
      <trkpt lat="49.08983" lon="1.03879">
        <ele>197.7</ele>
        <time>2017-10-29T08:22:21Z</time>
      </trkpt>
      <trkpt lat="49.08989" lon="1.03868">
        <ele>197.7</ele>
        <time>2017-10-29T08:22:23Z</time>
      </trkpt>
      <trkpt lat="49.08994" lon="1.03857">
        <ele>197.6</ele>
        <time>2017-10-29T08:22:25Z</time>
      </trkpt>
      <trkpt lat="49.09" lon="1.03845">
        <ele>197.4</ele>
        <time>2017-10-29T08:22:27Z</time>
      </trkpt>
      <trkpt lat="49.09006" lon="1.03834">
        <ele>197.4</ele>
        <time>2017-10-29T08:22:29Z</time>
      </trkpt>
      <trkpt lat="49.09012" lon="1.03824">
        <ele>197.5</ele>
        <time>2017-10-29T08:22:31Z</time>
      </trkpt>
      <trkpt lat="49.09018" lon="1.03813">
        <ele>197.5</ele>
        <time>2017-10-29T08:22:33Z</time>
      </trkpt>
      <trkpt lat="49.09024" lon="1.03802">
        <ele>197.5</ele>
        <time>2017-10-29T08:22:35Z</time>
      </trkpt>
      <trkpt lat="49.0903" lon="1.03791">
        <ele>197.5</ele>
        <time>2017-10-29T08:22:37Z</time>
      </trkpt>
      <trkpt lat="49.09035" lon="1.03779">
        <ele>197.4</ele>
        <time>2017-10-29T08:22:39Z</time>
      </trkpt>
      <trkpt lat="49.0904" lon="1.03768">
        <ele>197.3</ele>
        <time>2017-10-29T08:22:41Z</time>
      </trkpt>
      <trkpt lat="49.09045" lon="1.03756">
        <ele>197.1</ele>
        <time>2017-10-29T08:22:43Z</time>
      </trkpt>
      <trkpt lat="49.0905" lon="1.03738">
        <ele>197</ele>
        <time>2017-10-29T08:22:46Z</time>
      </trkpt>
      <trkpt lat="49.0906" lon="1.03737">
        <ele>196.9</ele>
        <time>2017-10-29T08:22:49Z</time>
      </trkpt>
      <trkpt lat="49.0907" lon="1.03747">
        <ele>196.9</ele>
        <time>2017-10-29T08:22:52Z</time>
      </trkpt>
      <trkpt lat="49.09078" lon="1.03753">
        <ele>196.8</ele>
        <time>2017-10-29T08:22:54Z</time>
      </trkpt>
      <trkpt lat="49.09087" lon="1.03759">
        <ele>197</ele>
        <time>2017-10-29T08:22:56Z</time>
      </trkpt>
      <trkpt lat="49.09095" lon="1.03766">
        <ele>196.9</ele>
        <time>2017-10-29T08:22:58Z</time>
      </trkpt>
      <trkpt lat="49.09107" lon="1.03777">
        <ele>197</ele>
        <time>2017-10-29T08:23:01Z</time>
      </trkpt>
      <trkpt lat="49.09115" lon="1.03783">
        <ele>197</ele>
        <time>2017-10-29T08:23:03Z</time>
      </trkpt>
      <trkpt lat="49.09127" lon="1.03792">
        <ele>196.8</ele>
        <time>2017-10-29T08:23:06Z</time>
      </trkpt>
      <trkpt lat="49.09138" lon="1.03802">
        <ele>196.9</ele>
        <time>2017-10-29T08:23:09Z</time>
      </trkpt>
      <trkpt lat="49.09149" lon="1.03812">
        <ele>197.1</ele>
        <time>2017-10-29T08:23:12Z</time>
      </trkpt>
      <trkpt lat="49.0916" lon="1.03822">
        <ele>196.8</ele>
        <time>2017-10-29T08:23:15Z</time>
      </trkpt>
      <trkpt lat="49.09168" lon="1.03829">
        <ele>196.9</ele>
        <time>2017-10-29T08:23:17Z</time>
      </trkpt>
      <trkpt lat="49.09176" lon="1.03836">
        <ele>197</ele>
        <time>2017-10-29T08:23:19Z</time>
      </trkpt>
      <trkpt lat="49.09184" lon="1.03843">
        <ele>197.2</ele>
        <time>2017-10-29T08:23:21Z</time>
      </trkpt>
      <trkpt lat="49.09192" lon="1.0385">
        <ele>197</ele>
        <time>2017-10-29T08:23:23Z</time>
      </trkpt>
      <trkpt lat="49.092" lon="1.03856">
        <ele>197.2</ele>
        <time>2017-10-29T08:23:25Z</time>
      </trkpt>
      <trkpt lat="49.09208" lon="1.03862">
        <ele>197.5</ele>
        <time>2017-10-29T08:23:27Z</time>
      </trkpt>
      <trkpt lat="49.09217" lon="1.03868">
        <ele>197.5</ele>
        <time>2017-10-29T08:23:29Z</time>
      </trkpt>
      <trkpt lat="49.09225" lon="1.03873">
        <ele>197.6</ele>
        <time>2017-10-29T08:23:31Z</time>
      </trkpt>
      <trkpt lat="49.09234" lon="1.03878">
        <ele>197.6</ele>
        <time>2017-10-29T08:23:33Z</time>
      </trkpt>
      <trkpt lat="49.09243" lon="1.03882">
        <ele>197.7</ele>
        <time>2017-10-29T08:23:35Z</time>
      </trkpt>
      <trkpt lat="49.09252" lon="1.03886">
        <ele>197.8</ele>
        <time>2017-10-29T08:23:37Z</time>
      </trkpt>
      <trkpt lat="49.0926" lon="1.0389">
        <ele>197.8</ele>
        <time>2017-10-29T08:23:39Z</time>
      </trkpt>
      <trkpt lat="49.09269" lon="1.03894">
        <ele>197.9</ele>
        <time>2017-10-29T08:23:41Z</time>
      </trkpt>
      <trkpt lat="49.09278" lon="1.03898">
        <ele>198</ele>
        <time>2017-10-29T08:23:43Z</time>
      </trkpt>
      <trkpt lat="49.09287" lon="1.03902">
        <ele>198.2</ele>
        <time>2017-10-29T08:23:45Z</time>
      </trkpt>
      <trkpt lat="49.09296" lon="1.03906">
        <ele>198.3</ele>
        <time>2017-10-29T08:23:47Z</time>
      </trkpt>
      <trkpt lat="49.09306" lon="1.0391">
        <ele>198.6</ele>
        <time>2017-10-29T08:23:49Z</time>
      </trkpt>
      <trkpt lat="49.09315" lon="1.03914">
        <ele>198.5</ele>
        <time>2017-10-29T08:23:51Z</time>
      </trkpt>
      <trkpt lat="49.09324" lon="1.03918">
        <ele>198.6</ele>
        <time>2017-10-29T08:23:53Z</time>
      </trkpt>
      <trkpt lat="49.09334" lon="1.03922">
        <ele>198.4</ele>
        <time>2017-10-29T08:23:55Z</time>
      </trkpt>
      <trkpt lat="49.09344" lon="1.03926">
        <ele>198.2</ele>
        <time>2017-10-29T08:23:57Z</time>
      </trkpt>
      <trkpt lat="49.09353" lon="1.03931">
        <ele>198.3</ele>
        <time>2017-10-29T08:23:59Z</time>
      </trkpt>
      <trkpt lat="49.09363" lon="1.03936">
        <ele>198.3</ele>
        <time>2017-10-29T08:24:01Z</time>
      </trkpt>
      <trkpt lat="49.09373" lon="1.03942">
        <ele>198</ele>
        <time>2017-10-29T08:24:03Z</time>
      </trkpt>
      <trkpt lat="49.09383" lon="1.03948">
        <ele>197.7</ele>
        <time>2017-10-29T08:24:05Z</time>
      </trkpt>
      <trkpt lat="49.09392" lon="1.03956">
        <ele>197.6</ele>
        <time>2017-10-29T08:24:07Z</time>
      </trkpt>
      <trkpt lat="49.09401" lon="1.03965">
        <ele>197.3</ele>
        <time>2017-10-29T08:24:09Z</time>
      </trkpt>
      <trkpt lat="49.09409" lon="1.03974">
        <ele>197.2</ele>
        <time>2017-10-29T08:24:11Z</time>
      </trkpt>
      <trkpt lat="49.09417" lon="1.03984">
        <ele>196.9</ele>
        <time>2017-10-29T08:24:13Z</time>
      </trkpt>
      <trkpt lat="49.09425" lon="1.03995">
        <ele>196.7</ele>
        <time>2017-10-29T08:24:15Z</time>
      </trkpt>
      <trkpt lat="49.09432" lon="1.04007">
        <ele>196.5</ele>
        <time>2017-10-29T08:24:17Z</time>
      </trkpt>
      <trkpt lat="49.09438" lon="1.04021">
        <ele>196.6</ele>
        <time>2017-10-29T08:24:19Z</time>
      </trkpt>
      <trkpt lat="49.09441" lon="1.04035">
        <ele>196.7</ele>
        <time>2017-10-29T08:24:21Z</time>
      </trkpt>
      <trkpt lat="49.09445" lon="1.04049">
        <ele>196.6</ele>
        <time>2017-10-29T08:24:23Z</time>
      </trkpt>
      <trkpt lat="49.09448" lon="1.04065">
        <ele>196.5</ele>
        <time>2017-10-29T08:24:25Z</time>
      </trkpt>
      <trkpt lat="49.09452" lon="1.0408">
        <ele>196.5</ele>
        <time>2017-10-29T08:24:27Z</time>
      </trkpt>
      <trkpt lat="49.09454" lon="1.04095">
        <ele>196.5</ele>
        <time>2017-10-29T08:24:29Z</time>
      </trkpt>
      <trkpt lat="49.09457" lon="1.0411">
        <ele>196.4</ele>
        <time>2017-10-29T08:24:31Z</time>
      </trkpt>
      <trkpt lat="49.0946" lon="1.04125">
        <ele>196.5</ele>
        <time>2017-10-29T08:24:33Z</time>
      </trkpt>
      <trkpt lat="49.09462" lon="1.04139">
        <ele>196.4</ele>
        <time>2017-10-29T08:24:35Z</time>
      </trkpt>
      <trkpt lat="49.09466" lon="1.04158">
        <ele>196.4</ele>
        <time>2017-10-29T08:24:38Z</time>
      </trkpt>
      <trkpt lat="49.09469" lon="1.04175">
        <ele>196.4</ele>
        <time>2017-10-29T08:24:41Z</time>
      </trkpt>
      <trkpt lat="49.09474" lon="1.04187">
        <ele>196.5</ele>
        <time>2017-10-29T08:24:44Z</time>
      </trkpt>
      <trkpt lat="49.09485" lon="1.04181">
        <ele>197.2</ele>
        <time>2017-10-29T08:24:48Z</time>
      </trkpt>
      <trkpt lat="49.09495" lon="1.0417">
        <ele>197.2</ele>
        <time>2017-10-29T08:24:51Z</time>
      </trkpt>
      <trkpt lat="49.09504" lon="1.04158">
        <ele>197.2</ele>
        <time>2017-10-29T08:24:54Z</time>
      </trkpt>
      <trkpt lat="49.09515" lon="1.04146">
        <ele>197.2</ele>
        <time>2017-10-29T08:24:57Z</time>
      </trkpt>
      <trkpt lat="49.09525" lon="1.04135">
        <ele>197.5</ele>
        <time>2017-10-29T08:25:00Z</time>
      </trkpt>
      <trkpt lat="49.09536" lon="1.04123">
        <ele>197.4</ele>
        <time>2017-10-29T08:25:03Z</time>
      </trkpt>
      <trkpt lat="49.09544" lon="1.04114">
        <ele>197.2</ele>
        <time>2017-10-29T08:25:05Z</time>
      </trkpt>
      <trkpt lat="49.09552" lon="1.04106">
        <ele>197</ele>
        <time>2017-10-29T08:25:07Z</time>
      </trkpt>
      <trkpt lat="49.09559" lon="1.04097">
        <ele>196.9</ele>
        <time>2017-10-29T08:25:09Z</time>
      </trkpt>
      <trkpt lat="49.09568" lon="1.0409">
        <ele>196.8</ele>
        <time>2017-10-29T08:25:11Z</time>
      </trkpt>
      <trkpt lat="49.09576" lon="1.04081">
        <ele>196.8</ele>
        <time>2017-10-29T08:25:13Z</time>
      </trkpt>
      <trkpt lat="49.09583" lon="1.04072">
        <ele>196.9</ele>
        <time>2017-10-29T08:25:15Z</time>
      </trkpt>
      <trkpt lat="49.09591" lon="1.04063">
        <ele>197</ele>
        <time>2017-10-29T08:25:17Z</time>
      </trkpt>
      <trkpt lat="49.09599" lon="1.04055">
        <ele>197</ele>
        <time>2017-10-29T08:25:19Z</time>
      </trkpt>
      <trkpt lat="49.09606" lon="1.04046">
        <ele>197</ele>
        <time>2017-10-29T08:25:21Z</time>
      </trkpt>
      <trkpt lat="49.09614" lon="1.04037">
        <ele>197.1</ele>
        <time>2017-10-29T08:25:23Z</time>
      </trkpt>
      <trkpt lat="49.09621" lon="1.04028">
        <ele>197</ele>
        <time>2017-10-29T08:25:25Z</time>
      </trkpt>
      <trkpt lat="49.09629" lon="1.0402">
        <ele>196.8</ele>
        <time>2017-10-29T08:25:27Z</time>
      </trkpt>
      <trkpt lat="49.09637" lon="1.04011">
        <ele>196.7</ele>
        <time>2017-10-29T08:25:29Z</time>
      </trkpt>
      <trkpt lat="49.09644" lon="1.04002">
        <ele>196.6</ele>
        <time>2017-10-29T08:25:31Z</time>
      </trkpt>
      <trkpt lat="49.09652" lon="1.03993">
        <ele>196.5</ele>
        <time>2017-10-29T08:25:33Z</time>
      </trkpt>
      <trkpt lat="49.0966" lon="1.03985">
        <ele>196.5</ele>
        <time>2017-10-29T08:25:35Z</time>
      </trkpt>
      <trkpt lat="49.09668" lon="1.03976">
        <ele>196.5</ele>
        <time>2017-10-29T08:25:37Z</time>
      </trkpt>
      <trkpt lat="49.09676" lon="1.03967">
        <ele>196.6</ele>
        <time>2017-10-29T08:25:39Z</time>
      </trkpt>
      <trkpt lat="49.09684" lon="1.03958">
        <ele>196.3</ele>
        <time>2017-10-29T08:25:41Z</time>
      </trkpt>
      <trkpt lat="49.09691" lon="1.03949">
        <ele>196.4</ele>
        <time>2017-10-29T08:25:43Z</time>
      </trkpt>
      <trkpt lat="49.097" lon="1.0394">
        <ele>196.4</ele>
        <time>2017-10-29T08:25:45Z</time>
      </trkpt>
      <trkpt lat="49.09707" lon="1.03932">
        <ele>196.4</ele>
        <time>2017-10-29T08:25:47Z</time>
      </trkpt>
      <trkpt lat="49.09715" lon="1.03923">
        <ele>196.4</ele>
        <time>2017-10-29T08:25:49Z</time>
      </trkpt>
      <trkpt lat="49.09723" lon="1.03914">
        <ele>196.4</ele>
        <time>2017-10-29T08:25:51Z</time>
      </trkpt>
      <trkpt lat="49.09731" lon="1.03905">
        <ele>196.1</ele>
        <time>2017-10-29T08:25:53Z</time>
      </trkpt>
      <trkpt lat="49.0974" lon="1.03895">
        <ele>195.9</ele>
        <time>2017-10-29T08:25:55Z</time>
      </trkpt>
      <trkpt lat="49.09748" lon="1.03886">
        <ele>195.9</ele>
        <time>2017-10-29T08:25:57Z</time>
      </trkpt>
      <trkpt lat="49.09756" lon="1.03876">
        <ele>195.7</ele>
        <time>2017-10-29T08:25:59Z</time>
      </trkpt>
      <trkpt lat="49.09764" lon="1.03867">
        <ele>195.6</ele>
        <time>2017-10-29T08:26:01Z</time>
      </trkpt>
      <trkpt lat="49.09771" lon="1.03858">
        <ele>195.5</ele>
        <time>2017-10-29T08:26:03Z</time>
      </trkpt>
      <trkpt lat="49.09779" lon="1.03848">
        <ele>195.3</ele>
        <time>2017-10-29T08:26:05Z</time>
      </trkpt>
      <trkpt lat="49.09787" lon="1.03839">
        <ele>195.1</ele>
        <time>2017-10-29T08:26:07Z</time>
      </trkpt>
      <trkpt lat="49.09795" lon="1.0383">
        <ele>195.2</ele>
        <time>2017-10-29T08:26:09Z</time>
      </trkpt>
      <trkpt lat="49.09803" lon="1.03821">
        <ele>195.3</ele>
        <time>2017-10-29T08:26:11Z</time>
      </trkpt>
      <trkpt lat="49.0981" lon="1.03812">
        <ele>195.1</ele>
        <time>2017-10-29T08:26:13Z</time>
      </trkpt>
      <trkpt lat="49.09819" lon="1.03803">
        <ele>195.1</ele>
        <time>2017-10-29T08:26:15Z</time>
      </trkpt>
      <trkpt lat="49.09826" lon="1.03794">
        <ele>195.2</ele>
        <time>2017-10-29T08:26:17Z</time>
      </trkpt>
      <trkpt lat="49.09834" lon="1.03785">
        <ele>195</ele>
        <time>2017-10-29T08:26:19Z</time>
      </trkpt>
      <trkpt lat="49.09842" lon="1.03776">
        <ele>194.8</ele>
        <time>2017-10-29T08:26:21Z</time>
      </trkpt>
      <trkpt lat="49.0985" lon="1.03767">
        <ele>194.7</ele>
        <time>2017-10-29T08:26:23Z</time>
      </trkpt>
      <trkpt lat="49.09858" lon="1.03759">
        <ele>194.7</ele>
        <time>2017-10-29T08:26:25Z</time>
      </trkpt>
      <trkpt lat="49.09866" lon="1.0375">
        <ele>194.8</ele>
        <time>2017-10-29T08:26:27Z</time>
      </trkpt>
      <trkpt lat="49.09875" lon="1.03743">
        <ele>194.7</ele>
        <time>2017-10-29T08:26:29Z</time>
      </trkpt>
      <trkpt lat="49.09883" lon="1.03737">
        <ele>194.5</ele>
        <time>2017-10-29T08:26:31Z</time>
      </trkpt>
      <trkpt lat="49.09892" lon="1.03732">
        <ele>194.3</ele>
        <time>2017-10-29T08:26:33Z</time>
      </trkpt>
      <trkpt lat="49.09902" lon="1.03728">
        <ele>194.2</ele>
        <time>2017-10-29T08:26:35Z</time>
      </trkpt>
      <trkpt lat="49.09911" lon="1.03723">
        <ele>194</ele>
        <time>2017-10-29T08:26:37Z</time>
      </trkpt>
      <trkpt lat="49.09921" lon="1.03718">
        <ele>194</ele>
        <time>2017-10-29T08:26:39Z</time>
      </trkpt>
      <trkpt lat="49.09931" lon="1.03712">
        <ele>194</ele>
        <time>2017-10-29T08:26:41Z</time>
      </trkpt>
      <trkpt lat="49.0994" lon="1.03707">
        <ele>193.8</ele>
        <time>2017-10-29T08:26:43Z</time>
      </trkpt>
      <trkpt lat="49.09949" lon="1.03702">
        <ele>193.7</ele>
        <time>2017-10-29T08:26:45Z</time>
      </trkpt>
      <trkpt lat="49.09959" lon="1.03697">
        <ele>193.4</ele>
        <time>2017-10-29T08:26:47Z</time>
      </trkpt>
      <trkpt lat="49.09969" lon="1.03692">
        <ele>193.2</ele>
        <time>2017-10-29T08:26:49Z</time>
      </trkpt>
      <trkpt lat="49.09978" lon="1.03687">
        <ele>193.3</ele>
        <time>2017-10-29T08:26:51Z</time>
      </trkpt>
      <trkpt lat="49.09987" lon="1.03682">
        <ele>193.2</ele>
        <time>2017-10-29T08:26:53Z</time>
      </trkpt>
      <trkpt lat="49.09996" lon="1.03677">
        <ele>193.3</ele>
        <time>2017-10-29T08:26:55Z</time>
      </trkpt>
      <trkpt lat="49.10006" lon="1.03672">
        <ele>193.2</ele>
        <time>2017-10-29T08:26:57Z</time>
      </trkpt>
      <trkpt lat="49.10015" lon="1.03667">
        <ele>193.3</ele>
        <time>2017-10-29T08:26:59Z</time>
      </trkpt>
      <trkpt lat="49.10023" lon="1.03663">
        <ele>193.4</ele>
        <time>2017-10-29T08:27:01Z</time>
      </trkpt>
      <trkpt lat="49.10032" lon="1.03658">
        <ele>193.4</ele>
        <time>2017-10-29T08:27:03Z</time>
      </trkpt>
      <trkpt lat="49.10041" lon="1.03653">
        <ele>193.4</ele>
        <time>2017-10-29T08:27:05Z</time>
      </trkpt>
      <trkpt lat="49.1005" lon="1.03648">
        <ele>193.5</ele>
        <time>2017-10-29T08:27:07Z</time>
      </trkpt>
      <trkpt lat="49.1006" lon="1.03644">
        <ele>193.7</ele>
        <time>2017-10-29T08:27:09Z</time>
      </trkpt>
      <trkpt lat="49.10069" lon="1.03639">
        <ele>193.8</ele>
        <time>2017-10-29T08:27:11Z</time>
      </trkpt>
      <trkpt lat="49.10078" lon="1.03634">
        <ele>193.8</ele>
        <time>2017-10-29T08:27:13Z</time>
      </trkpt>
      <trkpt lat="49.10088" lon="1.0363">
        <ele>193.5</ele>
        <time>2017-10-29T08:27:15Z</time>
      </trkpt>
      <trkpt lat="49.10097" lon="1.03624">
        <ele>193.8</ele>
        <time>2017-10-29T08:27:17Z</time>
      </trkpt>
      <trkpt lat="49.10106" lon="1.0362">
        <ele>193.9</ele>
        <time>2017-10-29T08:27:19Z</time>
      </trkpt>
      <trkpt lat="49.10115" lon="1.03615">
        <ele>194.1</ele>
        <time>2017-10-29T08:27:21Z</time>
      </trkpt>
      <trkpt lat="49.10124" lon="1.0361">
        <ele>194.3</ele>
        <time>2017-10-29T08:27:23Z</time>
      </trkpt>
      <trkpt lat="49.10133" lon="1.03606">
        <ele>194.4</ele>
        <time>2017-10-29T08:27:25Z</time>
      </trkpt>
      <trkpt lat="49.10142" lon="1.03601">
        <ele>194.5</ele>
        <time>2017-10-29T08:27:27Z</time>
      </trkpt>
      <trkpt lat="49.10151" lon="1.03597">
        <ele>194.6</ele>
        <time>2017-10-29T08:27:29Z</time>
      </trkpt>
      <trkpt lat="49.1016" lon="1.03593">
        <ele>194.5</ele>
        <time>2017-10-29T08:27:31Z</time>
      </trkpt>
      <trkpt lat="49.10169" lon="1.03588">
        <ele>194.4</ele>
        <time>2017-10-29T08:27:33Z</time>
      </trkpt>
      <trkpt lat="49.10178" lon="1.03582">
        <ele>194.3</ele>
        <time>2017-10-29T08:27:35Z</time>
      </trkpt>
      <trkpt lat="49.10187" lon="1.03577">
        <ele>194.5</ele>
        <time>2017-10-29T08:27:37Z</time>
      </trkpt>
      <trkpt lat="49.10196" lon="1.03573">
        <ele>194.6</ele>
        <time>2017-10-29T08:27:39Z</time>
      </trkpt>
      <trkpt lat="49.10205" lon="1.03568">
        <ele>194.6</ele>
        <time>2017-10-29T08:27:41Z</time>
      </trkpt>
      <trkpt lat="49.10214" lon="1.03563">
        <ele>194.5</ele>
        <time>2017-10-29T08:27:43Z</time>
      </trkpt>
      <trkpt lat="49.10223" lon="1.03558">
        <ele>194.5</ele>
        <time>2017-10-29T08:27:45Z</time>
      </trkpt>
      <trkpt lat="49.10231" lon="1.03553">
        <ele>194.6</ele>
        <time>2017-10-29T08:27:47Z</time>
      </trkpt>
      <trkpt lat="49.1024" lon="1.03549">
        <ele>194.9</ele>
        <time>2017-10-29T08:27:49Z</time>
      </trkpt>
      <trkpt lat="49.1025" lon="1.03544">
        <ele>195</ele>
        <time>2017-10-29T08:27:51Z</time>
      </trkpt>
      <trkpt lat="49.10259" lon="1.0354">
        <ele>194.9</ele>
        <time>2017-10-29T08:27:53Z</time>
      </trkpt>
      <trkpt lat="49.10268" lon="1.03535">
        <ele>195.2</ele>
        <time>2017-10-29T08:27:55Z</time>
      </trkpt>
      <trkpt lat="49.10277" lon="1.03529">
        <ele>195</ele>
        <time>2017-10-29T08:27:57Z</time>
      </trkpt>
      <trkpt lat="49.10287" lon="1.03524">
        <ele>195</ele>
        <time>2017-10-29T08:27:59Z</time>
      </trkpt>
      <trkpt lat="49.10295" lon="1.03519">
        <ele>195.4</ele>
        <time>2017-10-29T08:28:01Z</time>
      </trkpt>
      <trkpt lat="49.10304" lon="1.03514">
        <ele>195.6</ele>
        <time>2017-10-29T08:28:03Z</time>
      </trkpt>
      <trkpt lat="49.10313" lon="1.03509">
        <ele>195.7</ele>
        <time>2017-10-29T08:28:05Z</time>
      </trkpt>
      <trkpt lat="49.10322" lon="1.03504">
        <ele>195.8</ele>
        <time>2017-10-29T08:28:07Z</time>
      </trkpt>
      <trkpt lat="49.1033" lon="1.03499">
        <ele>195.9</ele>
        <time>2017-10-29T08:28:09Z</time>
      </trkpt>
      <trkpt lat="49.1034" lon="1.03494">
        <ele>195.9</ele>
        <time>2017-10-29T08:28:11Z</time>
      </trkpt>
      <trkpt lat="49.10349" lon="1.03489">
        <ele>196.1</ele>
        <time>2017-10-29T08:28:13Z</time>
      </trkpt>
      <trkpt lat="49.10358" lon="1.03484">
        <ele>196.3</ele>
        <time>2017-10-29T08:28:15Z</time>
      </trkpt>
      <trkpt lat="49.10367" lon="1.03479">
        <ele>196.5</ele>
        <time>2017-10-29T08:28:17Z</time>
      </trkpt>
      <trkpt lat="49.10376" lon="1.03473">
        <ele>196.4</ele>
        <time>2017-10-29T08:28:19Z</time>
      </trkpt>
      <trkpt lat="49.10386" lon="1.03468">
        <ele>196.4</ele>
        <time>2017-10-29T08:28:21Z</time>
      </trkpt>
      <trkpt lat="49.10395" lon="1.03463">
        <ele>196.6</ele>
        <time>2017-10-29T08:28:23Z</time>
      </trkpt>
      <trkpt lat="49.10405" lon="1.03457">
        <ele>196.5</ele>
        <time>2017-10-29T08:28:25Z</time>
      </trkpt>
      <trkpt lat="49.10415" lon="1.03452">
        <ele>196.5</ele>
        <time>2017-10-29T08:28:27Z</time>
      </trkpt>
      <trkpt lat="49.10425" lon="1.03446">
        <ele>196.1</ele>
        <time>2017-10-29T08:28:29Z</time>
      </trkpt>
      <trkpt lat="49.10434" lon="1.03441">
        <ele>196.3</ele>
        <time>2017-10-29T08:28:31Z</time>
      </trkpt>
      <trkpt lat="49.10443" lon="1.03436">
        <ele>196.4</ele>
        <time>2017-10-29T08:28:33Z</time>
      </trkpt>
      <trkpt lat="49.10452" lon="1.03431">
        <ele>196.4</ele>
        <time>2017-10-29T08:28:35Z</time>
      </trkpt>
      <trkpt lat="49.10461" lon="1.03426">
        <ele>196.5</ele>
        <time>2017-10-29T08:28:37Z</time>
      </trkpt>
      <trkpt lat="49.1047" lon="1.03421">
        <ele>196.3</ele>
        <time>2017-10-29T08:28:39Z</time>
      </trkpt>
      <trkpt lat="49.10479" lon="1.03416">
        <ele>196.3</ele>
        <time>2017-10-29T08:28:41Z</time>
      </trkpt>
      <trkpt lat="49.10489" lon="1.0341">
        <ele>196.2</ele>
        <time>2017-10-29T08:28:43Z</time>
      </trkpt>
      <trkpt lat="49.10499" lon="1.03405">
        <ele>196.1</ele>
        <time>2017-10-29T08:28:45Z</time>
      </trkpt>
      <trkpt lat="49.10509" lon="1.03399">
        <ele>196</ele>
        <time>2017-10-29T08:28:47Z</time>
      </trkpt>
      <trkpt lat="49.10519" lon="1.03393">
        <ele>195.7</ele>
        <time>2017-10-29T08:28:49Z</time>
      </trkpt>
      <trkpt lat="49.10529" lon="1.03387">
        <ele>195.4</ele>
        <time>2017-10-29T08:28:51Z</time>
      </trkpt>
      <trkpt lat="49.10538" lon="1.03382">
        <ele>195.3</ele>
        <time>2017-10-29T08:28:53Z</time>
      </trkpt>
      <trkpt lat="49.10548" lon="1.03377">
        <ele>195.1</ele>
        <time>2017-10-29T08:28:55Z</time>
      </trkpt>
      <trkpt lat="49.10558" lon="1.03371">
        <ele>194.9</ele>
        <time>2017-10-29T08:28:57Z</time>
      </trkpt>
      <trkpt lat="49.10567" lon="1.03366">
        <ele>194.7</ele>
        <time>2017-10-29T08:28:59Z</time>
      </trkpt>
      <trkpt lat="49.10577" lon="1.03361">
        <ele>194.5</ele>
        <time>2017-10-29T08:29:01Z</time>
      </trkpt>
      <trkpt lat="49.10587" lon="1.03355">
        <ele>194.3</ele>
        <time>2017-10-29T08:29:03Z</time>
      </trkpt>
      <trkpt lat="49.10596" lon="1.0335">
        <ele>194.4</ele>
        <time>2017-10-29T08:29:05Z</time>
      </trkpt>
      <trkpt lat="49.10607" lon="1.03344">
        <ele>194.4</ele>
        <time>2017-10-29T08:29:07Z</time>
      </trkpt>
      <trkpt lat="49.10616" lon="1.03338">
        <ele>194</ele>
        <time>2017-10-29T08:29:09Z</time>
      </trkpt>
      <trkpt lat="49.10626" lon="1.03333">
        <ele>193.7</ele>
        <time>2017-10-29T08:29:11Z</time>
      </trkpt>
      <trkpt lat="49.10635" lon="1.03328">
        <ele>193.6</ele>
        <time>2017-10-29T08:29:13Z</time>
      </trkpt>
      <trkpt lat="49.10644" lon="1.03323">
        <ele>193.5</ele>
        <time>2017-10-29T08:29:15Z</time>
      </trkpt>
      <trkpt lat="49.10653" lon="1.03318">
        <ele>193.3</ele>
        <time>2017-10-29T08:29:17Z</time>
      </trkpt>
      <trkpt lat="49.10666" lon="1.0331">
        <ele>193.2</ele>
        <time>2017-10-29T08:29:20Z</time>
      </trkpt>
      <trkpt lat="49.10674" lon="1.03305">
        <ele>193.2</ele>
        <time>2017-10-29T08:29:22Z</time>
      </trkpt>
      <trkpt lat="49.10683" lon="1.033">
        <ele>193.3</ele>
        <time>2017-10-29T08:29:24Z</time>
      </trkpt>
      <trkpt lat="49.10695" lon="1.03293">
        <ele>192.9</ele>
        <time>2017-10-29T08:29:27Z</time>
      </trkpt>
      <trkpt lat="49.10708" lon="1.03286">
        <ele>192.7</ele>
        <time>2017-10-29T08:29:30Z</time>
      </trkpt>
      <trkpt lat="49.10717" lon="1.03282">
        <ele>192.7</ele>
        <time>2017-10-29T08:29:32Z</time>
      </trkpt>
      <trkpt lat="49.10725" lon="1.03277">
        <ele>192.5</ele>
        <time>2017-10-29T08:29:34Z</time>
      </trkpt>
      <trkpt lat="49.10738" lon="1.0327">
        <ele>192.4</ele>
        <time>2017-10-29T08:29:37Z</time>
      </trkpt>
      <trkpt lat="49.10746" lon="1.03264">
        <ele>192.4</ele>
        <time>2017-10-29T08:29:39Z</time>
      </trkpt>
      <trkpt lat="49.10758" lon="1.03256">
        <ele>192.3</ele>
        <time>2017-10-29T08:29:42Z</time>
      </trkpt>
      <trkpt lat="49.10769" lon="1.03249">
        <ele>192.3</ele>
        <time>2017-10-29T08:29:45Z</time>
      </trkpt>
      <trkpt lat="49.10778" lon="1.03243">
        <ele>192.3</ele>
        <time>2017-10-29T08:29:47Z</time>
      </trkpt>
      <trkpt lat="49.1079" lon="1.03235">
        <ele>192.5</ele>
        <time>2017-10-29T08:29:50Z</time>
      </trkpt>
      <trkpt lat="49.10802" lon="1.0323">
        <ele>192.9</ele>
        <time>2017-10-29T08:29:53Z</time>
      </trkpt>
      <trkpt lat="49.10814" lon="1.03224">
        <ele>193.2</ele>
        <time>2017-10-29T08:29:56Z</time>
      </trkpt>
      <trkpt lat="49.10825" lon="1.03219">
        <ele>193.5</ele>
        <time>2017-10-29T08:29:59Z</time>
      </trkpt>
      <trkpt lat="49.10836" lon="1.03213">
        <ele>193.9</ele>
        <time>2017-10-29T08:30:02Z</time>
      </trkpt>
      <trkpt lat="49.10847" lon="1.03207">
        <ele>194.2</ele>
        <time>2017-10-29T08:30:05Z</time>
      </trkpt>
      <trkpt lat="49.10859" lon="1.032">
        <ele>194.3</ele>
        <time>2017-10-29T08:30:08Z</time>
      </trkpt>
      <trkpt lat="49.1087" lon="1.03194">
        <ele>194.5</ele>
        <time>2017-10-29T08:30:11Z</time>
      </trkpt>
      <trkpt lat="49.10882" lon="1.03188">
        <ele>194.5</ele>
        <time>2017-10-29T08:30:14Z</time>
      </trkpt>
      <trkpt lat="49.10894" lon="1.03181">
        <ele>194.8</ele>
        <time>2017-10-29T08:30:17Z</time>
      </trkpt>
      <trkpt lat="49.10905" lon="1.03175">
        <ele>195</ele>
        <time>2017-10-29T08:30:20Z</time>
      </trkpt>
      <trkpt lat="49.10916" lon="1.03169">
        <ele>195.1</ele>
        <time>2017-10-29T08:30:23Z</time>
      </trkpt>
      <trkpt lat="49.10927" lon="1.03163">
        <ele>195.1</ele>
        <time>2017-10-29T08:30:26Z</time>
      </trkpt>
      <trkpt lat="49.10938" lon="1.03157">
        <ele>195.2</ele>
        <time>2017-10-29T08:30:29Z</time>
      </trkpt>
      <trkpt lat="49.10949" lon="1.03151">
        <ele>195.4</ele>
        <time>2017-10-29T08:30:32Z</time>
      </trkpt>
      <trkpt lat="49.1096" lon="1.03145">
        <ele>195.6</ele>
        <time>2017-10-29T08:30:35Z</time>
      </trkpt>
      <trkpt lat="49.1097" lon="1.03139">
        <ele>195.8</ele>
        <time>2017-10-29T08:30:38Z</time>
      </trkpt>
      <trkpt lat="49.10981" lon="1.03133">
        <ele>196</ele>
        <time>2017-10-29T08:30:41Z</time>
      </trkpt>
      <trkpt lat="49.10991" lon="1.03125">
        <ele>196.2</ele>
        <time>2017-10-29T08:30:44Z</time>
      </trkpt>
      <trkpt lat="49.11001" lon="1.03118">
        <ele>196.3</ele>
        <time>2017-10-29T08:30:47Z</time>
      </trkpt>
      <trkpt lat="49.11011" lon="1.0311">
        <ele>196.3</ele>
        <time>2017-10-29T08:30:50Z</time>
      </trkpt>
      <trkpt lat="49.11022" lon="1.031">
        <ele>196.3</ele>
        <time>2017-10-29T08:30:53Z</time>
      </trkpt>
      <trkpt lat="49.11033" lon="1.03091">
        <ele>196.2</ele>
        <time>2017-10-29T08:30:56Z</time>
      </trkpt>
      <trkpt lat="49.11044" lon="1.03082">
        <ele>196.3</ele>
        <time>2017-10-29T08:30:59Z</time>
      </trkpt>
      <trkpt lat="49.11054" lon="1.03073">
        <ele>196</ele>
        <time>2017-10-29T08:31:02Z</time>
      </trkpt>
      <trkpt lat="49.11064" lon="1.03065">
        <ele>196.1</ele>
        <time>2017-10-29T08:31:05Z</time>
      </trkpt>
      <trkpt lat="49.11074" lon="1.03057">
        <ele>196.3</ele>
        <time>2017-10-29T08:31:08Z</time>
      </trkpt>
      <trkpt lat="49.11084" lon="1.03048">
        <ele>196.6</ele>
        <time>2017-10-29T08:31:11Z</time>
      </trkpt>
      <trkpt lat="49.11093" lon="1.03041">
        <ele>196.6</ele>
        <time>2017-10-29T08:31:14Z</time>
      </trkpt>
      <trkpt lat="49.11104" lon="1.0304">
        <ele>196.5</ele>
        <time>2017-10-29T08:31:18Z</time>
      </trkpt>
      <trkpt lat="49.1111" lon="1.03051">
        <ele>196.1</ele>
        <time>2017-10-29T08:31:23Z</time>
      </trkpt>
      <trkpt lat="49.11115" lon="1.03066">
        <ele>195.3</ele>
        <time>2017-10-29T08:33:57Z</time>
      </trkpt>
      <trkpt lat="49.11116" lon="1.03082">
        <ele>195.3</ele>
        <time>2017-10-29T08:34:01Z</time>
      </trkpt>
      <trkpt lat="49.11117" lon="1.03097">
        <ele>195.2</ele>
        <time>2017-10-29T08:34:04Z</time>
      </trkpt>
      <trkpt lat="49.11118" lon="1.03111">
        <ele>195.2</ele>
        <time>2017-10-29T08:34:07Z</time>
      </trkpt>
      <trkpt lat="49.1112" lon="1.03125">
        <ele>195.2</ele>
        <time>2017-10-29T08:34:10Z</time>
      </trkpt>
      <trkpt lat="49.11122" lon="1.03141">
        <ele>195.3</ele>
        <time>2017-10-29T08:34:13Z</time>
      </trkpt>
      <trkpt lat="49.11125" lon="1.03156">
        <ele>195.5</ele>
        <time>2017-10-29T08:34:16Z</time>
      </trkpt>
      <trkpt lat="49.11127" lon="1.03172">
        <ele>195.6</ele>
        <time>2017-10-29T08:34:19Z</time>
      </trkpt>
      <trkpt lat="49.1113" lon="1.03187">
        <ele>195.8</ele>
        <time>2017-10-29T08:34:22Z</time>
      </trkpt>
      <trkpt lat="49.11132" lon="1.03201">
        <ele>195.8</ele>
        <time>2017-10-29T08:34:25Z</time>
      </trkpt>
      <trkpt lat="49.11134" lon="1.03217">
        <ele>195.7</ele>
        <time>2017-10-29T08:34:28Z</time>
      </trkpt>
      <trkpt lat="49.11137" lon="1.03234">
        <ele>195.6</ele>
        <time>2017-10-29T08:34:31Z</time>
      </trkpt>
      <trkpt lat="49.1114" lon="1.03254">
        <ele>195.5</ele>
        <time>2017-10-29T08:34:34Z</time>
      </trkpt>
      <trkpt lat="49.11142" lon="1.03268">
        <ele>195.5</ele>
        <time>2017-10-29T08:34:36Z</time>
      </trkpt>
      <trkpt lat="49.11145" lon="1.03283">
        <ele>195.5</ele>
        <time>2017-10-29T08:34:38Z</time>
      </trkpt>
      <trkpt lat="49.11147" lon="1.03299">
        <ele>195.3</ele>
        <time>2017-10-29T08:34:40Z</time>
      </trkpt>
      <trkpt lat="49.1115" lon="1.03314">
        <ele>195.1</ele>
        <time>2017-10-29T08:34:42Z</time>
      </trkpt>
      <trkpt lat="49.11154" lon="1.0333">
        <ele>194.9</ele>
        <time>2017-10-29T08:34:44Z</time>
      </trkpt>
      <trkpt lat="49.11157" lon="1.03346">
        <ele>194.5</ele>
        <time>2017-10-29T08:34:46Z</time>
      </trkpt>
      <trkpt lat="49.1116" lon="1.03363">
        <ele>194.2</ele>
        <time>2017-10-29T08:34:48Z</time>
      </trkpt>
      <trkpt lat="49.11163" lon="1.03379">
        <ele>193.9</ele>
        <time>2017-10-29T08:34:50Z</time>
      </trkpt>
      <trkpt lat="49.11166" lon="1.03396">
        <ele>193.7</ele>
        <time>2017-10-29T08:34:52Z</time>
      </trkpt>
      <trkpt lat="49.11169" lon="1.03414">
        <ele>193.5</ele>
        <time>2017-10-29T08:34:54Z</time>
      </trkpt>
      <trkpt lat="49.11172" lon="1.03433">
        <ele>193.3</ele>
        <time>2017-10-29T08:34:56Z</time>
      </trkpt>
      <trkpt lat="49.11173" lon="1.03452">
        <ele>193</ele>
        <time>2017-10-29T08:34:58Z</time>
      </trkpt>
      <trkpt lat="49.11173" lon="1.03471">
        <ele>192.7</ele>
        <time>2017-10-29T08:35:00Z</time>
      </trkpt>
      <trkpt lat="49.11173" lon="1.0349">
        <ele>192.3</ele>
        <time>2017-10-29T08:35:02Z</time>
      </trkpt>
      <trkpt lat="49.11171" lon="1.03509">
        <ele>192</ele>
        <time>2017-10-29T08:35:04Z</time>
      </trkpt>
      <trkpt lat="49.11171" lon="1.03528">
        <ele>191.9</ele>
        <time>2017-10-29T08:35:06Z</time>
      </trkpt>
      <trkpt lat="49.11171" lon="1.03546">
        <ele>191.7</ele>
        <time>2017-10-29T08:35:08Z</time>
      </trkpt>
      <trkpt lat="49.11172" lon="1.03565">
        <ele>191.6</ele>
        <time>2017-10-29T08:35:10Z</time>
      </trkpt>
      <trkpt lat="49.11175" lon="1.03584">
        <ele>191.5</ele>
        <time>2017-10-29T08:35:12Z</time>
      </trkpt>
      <trkpt lat="49.11179" lon="1.03602">
        <ele>191.1</ele>
        <time>2017-10-29T08:35:14Z</time>
      </trkpt>
      <trkpt lat="49.11184" lon="1.0362">
        <ele>191</ele>
        <time>2017-10-29T08:35:16Z</time>
      </trkpt>
      <trkpt lat="49.1119" lon="1.03637">
        <ele>190.9</ele>
        <time>2017-10-29T08:35:18Z</time>
      </trkpt>
      <trkpt lat="49.11196" lon="1.03655">
        <ele>190.7</ele>
        <time>2017-10-29T08:35:20Z</time>
      </trkpt>
      <trkpt lat="49.11202" lon="1.03673">
        <ele>190.6</ele>
        <time>2017-10-29T08:35:22Z</time>
      </trkpt>
      <trkpt lat="49.11207" lon="1.03691">
        <ele>190.5</ele>
        <time>2017-10-29T08:35:24Z</time>
      </trkpt>
      <trkpt lat="49.11212" lon="1.03709">
        <ele>190.3</ele>
        <time>2017-10-29T08:35:26Z</time>
      </trkpt>
      <trkpt lat="49.11217" lon="1.03727">
        <ele>190.1</ele>
        <time>2017-10-29T08:35:28Z</time>
      </trkpt>
      <trkpt lat="49.11222" lon="1.03746">
        <ele>190.1</ele>
        <time>2017-10-29T08:35:30Z</time>
      </trkpt>
      <trkpt lat="49.11226" lon="1.03764">
        <ele>190.1</ele>
        <time>2017-10-29T08:35:32Z</time>
      </trkpt>
      <trkpt lat="49.11231" lon="1.03781">
        <ele>190</ele>
        <time>2017-10-29T08:35:34Z</time>
      </trkpt>
      <trkpt lat="49.11237" lon="1.03799">
        <ele>189.9</ele>
        <time>2017-10-29T08:35:36Z</time>
      </trkpt>
      <trkpt lat="49.11243" lon="1.03816">
        <ele>189.9</ele>
        <time>2017-10-29T08:35:38Z</time>
      </trkpt>
      <trkpt lat="49.11249" lon="1.03832">
        <ele>190</ele>
        <time>2017-10-29T08:35:40Z</time>
      </trkpt>
      <trkpt lat="49.11255" lon="1.03849">
        <ele>190</ele>
        <time>2017-10-29T08:35:42Z</time>
      </trkpt>
      <trkpt lat="49.11261" lon="1.03865">
        <ele>189.9</ele>
        <time>2017-10-29T08:35:44Z</time>
      </trkpt>
      <trkpt lat="49.11266" lon="1.03881">
        <ele>189.8</ele>
        <time>2017-10-29T08:35:46Z</time>
      </trkpt>
      <trkpt lat="49.11271" lon="1.03897">
        <ele>189.7</ele>
        <time>2017-10-29T08:35:48Z</time>
      </trkpt>
      <trkpt lat="49.11278" lon="1.03911">
        <ele>189.8</ele>
        <time>2017-10-29T08:35:50Z</time>
      </trkpt>
      <trkpt lat="49.11283" lon="1.03924">
        <ele>189.7</ele>
        <time>2017-10-29T08:35:52Z</time>
      </trkpt>
      <trkpt lat="49.11289" lon="1.03939">
        <ele>189.5</ele>
        <time>2017-10-29T08:35:54Z</time>
      </trkpt>
      <trkpt lat="49.11294" lon="1.03953">
        <ele>189.5</ele>
        <time>2017-10-29T08:35:56Z</time>
      </trkpt>
      <trkpt lat="49.11298" lon="1.03967">
        <ele>189.2</ele>
        <time>2017-10-29T08:35:58Z</time>
      </trkpt>
      <trkpt lat="49.113" lon="1.03981">
        <ele>189.2</ele>
        <time>2017-10-29T08:36:00Z</time>
      </trkpt>
      <trkpt lat="49.11303" lon="1.03996">
        <ele>189</ele>
        <time>2017-10-29T08:36:02Z</time>
      </trkpt>
      <trkpt lat="49.11306" lon="1.04011">
        <ele>188.8</ele>
        <time>2017-10-29T08:36:04Z</time>
      </trkpt>
      <trkpt lat="49.11309" lon="1.04025">
        <ele>188.7</ele>
        <time>2017-10-29T08:36:06Z</time>
      </trkpt>
      <trkpt lat="49.11311" lon="1.0404">
        <ele>188.5</ele>
        <time>2017-10-29T08:36:08Z</time>
      </trkpt>
      <trkpt lat="49.11314" lon="1.04054">
        <ele>188.5</ele>
        <time>2017-10-29T08:36:10Z</time>
      </trkpt>
      <trkpt lat="49.11316" lon="1.04068">
        <ele>188.2</ele>
        <time>2017-10-29T08:36:12Z</time>
      </trkpt>
      <trkpt lat="49.11319" lon="1.04087">
        <ele>188.2</ele>
        <time>2017-10-29T08:36:15Z</time>
      </trkpt>
      <trkpt lat="49.11321" lon="1.04103">
        <ele>188.2</ele>
        <time>2017-10-29T08:36:18Z</time>
      </trkpt>
      <trkpt lat="49.11323" lon="1.0412">
        <ele>188.2</ele>
        <time>2017-10-29T08:36:21Z</time>
      </trkpt>
      <trkpt lat="49.11325" lon="1.04135">
        <ele>188</ele>
        <time>2017-10-29T08:36:24Z</time>
      </trkpt>
      <trkpt lat="49.11325" lon="1.04151">
        <ele>187.7</ele>
        <time>2017-10-29T08:36:27Z</time>
      </trkpt>
      <trkpt lat="49.11323" lon="1.04167">
        <ele>187.6</ele>
        <time>2017-10-29T08:36:30Z</time>
      </trkpt>
      <trkpt lat="49.11323" lon="1.04182">
        <ele>187.6</ele>
        <time>2017-10-29T08:36:33Z</time>
      </trkpt>
      <trkpt lat="49.11321" lon="1.04197">
        <ele>187.6</ele>
        <time>2017-10-29T08:36:36Z</time>
      </trkpt>
      <trkpt lat="49.11321" lon="1.04214">
        <ele>187.7</ele>
        <time>2017-10-29T08:36:39Z</time>
      </trkpt>
      <trkpt lat="49.11321" lon="1.04229">
        <ele>187.7</ele>
        <time>2017-10-29T08:36:42Z</time>
      </trkpt>
      <trkpt lat="49.11321" lon="1.04244">
        <ele>187.7</ele>
        <time>2017-10-29T08:36:45Z</time>
      </trkpt>
      <trkpt lat="49.11322" lon="1.0426">
        <ele>187.7</ele>
        <time>2017-10-29T08:36:48Z</time>
      </trkpt>
      <trkpt lat="49.11322" lon="1.04276">
        <ele>187.5</ele>
        <time>2017-10-29T08:36:51Z</time>
      </trkpt>
      <trkpt lat="49.11323" lon="1.04292">
        <ele>187.3</ele>
        <time>2017-10-29T08:36:54Z</time>
      </trkpt>
      <trkpt lat="49.11323" lon="1.04307">
        <ele>187.3</ele>
        <time>2017-10-29T08:36:57Z</time>
      </trkpt>
      <trkpt lat="49.11324" lon="1.04322">
        <ele>187</ele>
        <time>2017-10-29T08:37:00Z</time>
      </trkpt>
      <trkpt lat="49.11324" lon="1.04338">
        <ele>186.8</ele>
        <time>2017-10-29T08:37:03Z</time>
      </trkpt>
      <trkpt lat="49.11325" lon="1.04354">
        <ele>186.5</ele>
        <time>2017-10-29T08:37:06Z</time>
      </trkpt>
      <trkpt lat="49.11324" lon="1.04371">
        <ele>186.2</ele>
        <time>2017-10-29T08:37:09Z</time>
      </trkpt>
      <trkpt lat="49.11322" lon="1.04388">
        <ele>186</ele>
        <time>2017-10-29T08:37:12Z</time>
      </trkpt>
      <trkpt lat="49.1132" lon="1.04404">
        <ele>185.6</ele>
        <time>2017-10-29T08:37:15Z</time>
      </trkpt>
      <trkpt lat="49.11318" lon="1.04421">
        <ele>185.4</ele>
        <time>2017-10-29T08:37:18Z</time>
      </trkpt>
      <trkpt lat="49.11315" lon="1.04439">
        <ele>185.4</ele>
        <time>2017-10-29T08:37:21Z</time>
      </trkpt>
      <trkpt lat="49.11312" lon="1.04455">
        <ele>185.3</ele>
        <time>2017-10-29T08:37:24Z</time>
      </trkpt>
      <trkpt lat="49.11308" lon="1.0447">
        <ele>185.3</ele>
        <time>2017-10-29T08:37:27Z</time>
      </trkpt>
      <trkpt lat="49.11301" lon="1.04483">
        <ele>185.3</ele>
        <time>2017-10-29T08:37:30Z</time>
      </trkpt>
      <trkpt lat="49.11294" lon="1.04497">
        <ele>185.6</ele>
        <time>2017-10-29T08:37:33Z</time>
      </trkpt>
      <trkpt lat="49.11288" lon="1.04509">
        <ele>186.1</ele>
        <time>2017-10-29T08:37:36Z</time>
      </trkpt>
      <trkpt lat="49.11299" lon="1.04508">
        <ele>186.8</ele>
        <time>2017-10-29T08:37:42Z</time>
      </trkpt>
      <trkpt lat="49.11309" lon="1.045">
        <ele>187.2</ele>
        <time>2017-10-29T08:37:45Z</time>
      </trkpt>
      <trkpt lat="49.11318" lon="1.04493">
        <ele>187.5</ele>
        <time>2017-10-29T08:37:48Z</time>
      </trkpt>
      <trkpt lat="49.11327" lon="1.04486">
        <ele>188</ele>
        <time>2017-10-29T08:37:51Z</time>
      </trkpt>
      <trkpt lat="49.11337" lon="1.0448">
        <ele>188.4</ele>
        <time>2017-10-29T08:37:54Z</time>
      </trkpt>
      <trkpt lat="49.11348" lon="1.04472">
        <ele>188.6</ele>
        <time>2017-10-29T08:37:57Z</time>
      </trkpt>
      <trkpt lat="49.11357" lon="1.04468">
        <ele>188.6</ele>
        <time>2017-10-29T08:37:59Z</time>
      </trkpt>
      <trkpt lat="49.11366" lon="1.04464">
        <ele>188.4</ele>
        <time>2017-10-29T08:38:01Z</time>
      </trkpt>
      <trkpt lat="49.11375" lon="1.0446">
        <ele>188.1</ele>
        <time>2017-10-29T08:38:03Z</time>
      </trkpt>
      <trkpt lat="49.11384" lon="1.04454">
        <ele>188</ele>
        <time>2017-10-29T08:38:05Z</time>
      </trkpt>
      <trkpt lat="49.11393" lon="1.0445">
        <ele>188</ele>
        <time>2017-10-29T08:38:07Z</time>
      </trkpt>
      <trkpt lat="49.11402" lon="1.04445">
        <ele>188</ele>
        <time>2017-10-29T08:38:09Z</time>
      </trkpt>
      <trkpt lat="49.11411" lon="1.0444">
        <ele>188.3</ele>
        <time>2017-10-29T08:38:11Z</time>
      </trkpt>
      <trkpt lat="49.11421" lon="1.04436">
        <ele>188.4</ele>
        <time>2017-10-29T08:38:13Z</time>
      </trkpt>
      <trkpt lat="49.11431" lon="1.04432">
        <ele>188.3</ele>
        <time>2017-10-29T08:38:15Z</time>
      </trkpt>
      <trkpt lat="49.11441" lon="1.04428">
        <ele>188.1</ele>
        <time>2017-10-29T08:38:17Z</time>
      </trkpt>
      <trkpt lat="49.11451" lon="1.04424">
        <ele>187.7</ele>
        <time>2017-10-29T08:38:19Z</time>
      </trkpt>
      <trkpt lat="49.11461" lon="1.04421">
        <ele>187.5</ele>
        <time>2017-10-29T08:38:21Z</time>
      </trkpt>
      <trkpt lat="49.1147" lon="1.04418">
        <ele>187.3</ele>
        <time>2017-10-29T08:38:23Z</time>
      </trkpt>
      <trkpt lat="49.1148" lon="1.04414">
        <ele>186.9</ele>
        <time>2017-10-29T08:38:25Z</time>
      </trkpt>
      <trkpt lat="49.1149" lon="1.04411">
        <ele>186.6</ele>
        <time>2017-10-29T08:38:27Z</time>
      </trkpt>
      <trkpt lat="49.115" lon="1.04407">
        <ele>186.3</ele>
        <time>2017-10-29T08:38:29Z</time>
      </trkpt>
      <trkpt lat="49.11511" lon="1.04404">
        <ele>186</ele>
        <time>2017-10-29T08:38:31Z</time>
      </trkpt>
      <trkpt lat="49.1152" lon="1.04402">
        <ele>185.9</ele>
        <time>2017-10-29T08:38:33Z</time>
      </trkpt>
      <trkpt lat="49.1153" lon="1.044">
        <ele>185.7</ele>
        <time>2017-10-29T08:38:35Z</time>
      </trkpt>
      <trkpt lat="49.11542" lon="1.04397">
        <ele>185.8</ele>
        <time>2017-10-29T08:38:38Z</time>
      </trkpt>
      <trkpt lat="49.11552" lon="1.04395">
        <ele>186.2</ele>
        <time>2017-10-29T08:38:41Z</time>
      </trkpt>
      <trkpt lat="49.11561" lon="1.04394">
        <ele>186.5</ele>
        <time>2017-10-29T08:38:46Z</time>
      </trkpt>
      <trkpt lat="49.11551" lon="1.04397">
        <ele>186.6</ele>
        <time>2017-10-29T08:39:01Z</time>
      </trkpt>
      <trkpt lat="49.11539" lon="1.044">
        <ele>186.5</ele>
        <time>2017-10-29T08:39:05Z</time>
      </trkpt>
      <trkpt lat="49.11528" lon="1.04403">
        <ele>186.3</ele>
        <time>2017-10-29T08:39:08Z</time>
      </trkpt>
      <trkpt lat="49.11515" lon="1.04407">
        <ele>186.1</ele>
        <time>2017-10-29T08:39:11Z</time>
      </trkpt>
      <trkpt lat="49.11507" lon="1.04399">
        <ele>186</ele>
        <time>2017-10-29T08:39:15Z</time>
      </trkpt>
      <trkpt lat="49.11513" lon="1.04385">
        <ele>185.5</ele>
        <time>2017-10-29T08:39:18Z</time>
      </trkpt>
      <trkpt lat="49.11519" lon="1.04369">
        <ele>185.1</ele>
        <time>2017-10-29T08:39:21Z</time>
      </trkpt>
      <trkpt lat="49.11524" lon="1.04356">
        <ele>184.7</ele>
        <time>2017-10-29T08:39:23Z</time>
      </trkpt>
      <trkpt lat="49.1153" lon="1.04341">
        <ele>184.5</ele>
        <time>2017-10-29T08:39:25Z</time>
      </trkpt>
      <trkpt lat="49.11536" lon="1.04325">
        <ele>184</ele>
        <time>2017-10-29T08:39:27Z</time>
      </trkpt>
      <trkpt lat="49.11542" lon="1.04309">
        <ele>183.5</ele>
        <time>2017-10-29T08:39:29Z</time>
      </trkpt>
      <trkpt lat="49.11549" lon="1.04293">
        <ele>182.7</ele>
        <time>2017-10-29T08:39:31Z</time>
      </trkpt>
      <trkpt lat="49.11555" lon="1.0428">
        <ele>182.5</ele>
        <time>2017-10-29T08:39:33Z</time>
      </trkpt>
      <trkpt lat="49.11561" lon="1.04267">
        <ele>182</ele>
        <time>2017-10-29T08:39:35Z</time>
      </trkpt>
      <trkpt lat="49.11567" lon="1.04253">
        <ele>181.8</ele>
        <time>2017-10-29T08:39:37Z</time>
      </trkpt>
      <trkpt lat="49.11574" lon="1.04242">
        <ele>181.3</ele>
        <time>2017-10-29T08:39:39Z</time>
      </trkpt>
      <trkpt lat="49.11583" lon="1.04232">
        <ele>180.9</ele>
        <time>2017-10-29T08:39:41Z</time>
      </trkpt>
      <trkpt lat="49.11591" lon="1.04224">
        <ele>180.6</ele>
        <time>2017-10-29T08:39:43Z</time>
      </trkpt>
      <trkpt lat="49.11601" lon="1.04218">
        <ele>180.2</ele>
        <time>2017-10-29T08:39:45Z</time>
      </trkpt>
      <trkpt lat="49.11612" lon="1.04218">
        <ele>179.6</ele>
        <time>2017-10-29T08:39:47Z</time>
      </trkpt>
      <trkpt lat="49.11622" lon="1.0422">
        <ele>179.1</ele>
        <time>2017-10-29T08:39:49Z</time>
      </trkpt>
      <trkpt lat="49.11633" lon="1.04221">
        <ele>178.6</ele>
        <time>2017-10-29T08:39:51Z</time>
      </trkpt>
      <trkpt lat="49.11643" lon="1.04222">
        <ele>178.3</ele>
        <time>2017-10-29T08:39:53Z</time>
      </trkpt>
      <trkpt lat="49.11652" lon="1.04224">
        <ele>177.8</ele>
        <time>2017-10-29T08:39:55Z</time>
      </trkpt>
      <trkpt lat="49.11665" lon="1.04227">
        <ele>177</ele>
        <time>2017-10-29T08:39:58Z</time>
      </trkpt>
      <trkpt lat="49.11678" lon="1.0423">
        <ele>176.8</ele>
        <time>2017-10-29T08:40:01Z</time>
      </trkpt>
      <trkpt lat="49.11688" lon="1.04231">
        <ele>176.7</ele>
        <time>2017-10-29T08:40:03Z</time>
      </trkpt>
      <trkpt lat="49.11697" lon="1.04235">
        <ele>176.5</ele>
        <time>2017-10-29T08:40:05Z</time>
      </trkpt>
      <trkpt lat="49.11707" lon="1.04239">
        <ele>176.2</ele>
        <time>2017-10-29T08:40:07Z</time>
      </trkpt>
      <trkpt lat="49.11716" lon="1.04243">
        <ele>175.9</ele>
        <time>2017-10-29T08:40:09Z</time>
      </trkpt>
      <trkpt lat="49.11725" lon="1.04247">
        <ele>175.4</ele>
        <time>2017-10-29T08:40:11Z</time>
      </trkpt>
      <trkpt lat="49.11734" lon="1.0425">
        <ele>175.3</ele>
        <time>2017-10-29T08:40:13Z</time>
      </trkpt>
      <trkpt lat="49.11745" lon="1.04252">
        <ele>175</ele>
        <time>2017-10-29T08:40:15Z</time>
      </trkpt>
      <trkpt lat="49.11756" lon="1.04256">
        <ele>174.5</ele>
        <time>2017-10-29T08:40:17Z</time>
      </trkpt>
      <trkpt lat="49.11767" lon="1.0426">
        <ele>174</ele>
        <time>2017-10-29T08:40:19Z</time>
      </trkpt>
      <trkpt lat="49.11778" lon="1.04263">
        <ele>173.7</ele>
        <time>2017-10-29T08:40:21Z</time>
      </trkpt>
      <trkpt lat="49.11789" lon="1.04267">
        <ele>173.2</ele>
        <time>2017-10-29T08:40:23Z</time>
      </trkpt>
      <trkpt lat="49.11801" lon="1.0427">
        <ele>173</ele>
        <time>2017-10-29T08:40:25Z</time>
      </trkpt>
      <trkpt lat="49.11812" lon="1.04272">
        <ele>172.6</ele>
        <time>2017-10-29T08:40:27Z</time>
      </trkpt>
      <trkpt lat="49.11824" lon="1.04272">
        <ele>172.3</ele>
        <time>2017-10-29T08:40:29Z</time>
      </trkpt>
      <trkpt lat="49.11836" lon="1.04273">
        <ele>172.2</ele>
        <time>2017-10-29T08:40:31Z</time>
      </trkpt>
      <trkpt lat="49.11848" lon="1.04272">
        <ele>172.2</ele>
        <time>2017-10-29T08:40:33Z</time>
      </trkpt>
      <trkpt lat="49.1186" lon="1.04271">
        <ele>171.9</ele>
        <time>2017-10-29T08:40:35Z</time>
      </trkpt>
      <trkpt lat="49.11872" lon="1.0427">
        <ele>171.7</ele>
        <time>2017-10-29T08:40:37Z</time>
      </trkpt>
      <trkpt lat="49.11882" lon="1.04269">
        <ele>171.4</ele>
        <time>2017-10-29T08:40:39Z</time>
      </trkpt>
      <trkpt lat="49.11893" lon="1.04268">
        <ele>171</ele>
        <time>2017-10-29T08:40:41Z</time>
      </trkpt>
      <trkpt lat="49.11905" lon="1.04266">
        <ele>170.6</ele>
        <time>2017-10-29T08:40:43Z</time>
      </trkpt>
      <trkpt lat="49.11918" lon="1.04264">
        <ele>170.4</ele>
        <time>2017-10-29T08:40:45Z</time>
      </trkpt>
      <trkpt lat="49.11932" lon="1.04263">
        <ele>170.3</ele>
        <time>2017-10-29T08:40:47Z</time>
      </trkpt>
      <trkpt lat="49.11944" lon="1.04264">
        <ele>170.2</ele>
        <time>2017-10-29T08:40:49Z</time>
      </trkpt>
      <trkpt lat="49.11955" lon="1.04264">
        <ele>170.3</ele>
        <time>2017-10-29T08:40:51Z</time>
      </trkpt>
      <trkpt lat="49.11968" lon="1.04265">
        <ele>169.9</ele>
        <time>2017-10-29T08:40:53Z</time>
      </trkpt>
      <trkpt lat="49.11979" lon="1.04267">
        <ele>169.7</ele>
        <time>2017-10-29T08:40:55Z</time>
      </trkpt>
      <trkpt lat="49.11989" lon="1.0427">
        <ele>169.5</ele>
        <time>2017-10-29T08:40:57Z</time>
      </trkpt>
      <trkpt lat="49.11999" lon="1.04277">
        <ele>169.2</ele>
        <time>2017-10-29T08:40:59Z</time>
      </trkpt>
      <trkpt lat="49.12011" lon="1.04287">
        <ele>169</ele>
        <time>2017-10-29T08:41:02Z</time>
      </trkpt>
      <trkpt lat="49.12022" lon="1.04296">
        <ele>168.5</ele>
        <time>2017-10-29T08:41:05Z</time>
      </trkpt>
      <trkpt lat="49.12031" lon="1.04304">
        <ele>168</ele>
        <time>2017-10-29T08:41:08Z</time>
      </trkpt>
      <trkpt lat="49.12041" lon="1.04317">
        <ele>167.7</ele>
        <time>2017-10-29T08:41:11Z</time>
      </trkpt>
      <trkpt lat="49.12053" lon="1.04328">
        <ele>167.2</ele>
        <time>2017-10-29T08:41:14Z</time>
      </trkpt>
      <trkpt lat="49.12062" lon="1.04334">
        <ele>166.9</ele>
        <time>2017-10-29T08:41:16Z</time>
      </trkpt>
      <trkpt lat="49.12072" lon="1.04341">
        <ele>166.5</ele>
        <time>2017-10-29T08:41:18Z</time>
      </trkpt>
      <trkpt lat="49.12079" lon="1.04349">
        <ele>166</ele>
        <time>2017-10-29T08:41:20Z</time>
      </trkpt>
      <trkpt lat="49.12091" lon="1.04353">
        <ele>165.4</ele>
        <time>2017-10-29T08:41:23Z</time>
      </trkpt>
      <trkpt lat="49.12102" lon="1.04357">
        <ele>165</ele>
        <time>2017-10-29T08:41:25Z</time>
      </trkpt>
      <trkpt lat="49.12116" lon="1.04363">
        <ele>164.8</ele>
        <time>2017-10-29T08:41:27Z</time>
      </trkpt>
      <trkpt lat="49.12128" lon="1.04368">
        <ele>164.3</ele>
        <time>2017-10-29T08:41:29Z</time>
      </trkpt>
      <trkpt lat="49.1214" lon="1.04374">
        <ele>164.1</ele>
        <time>2017-10-29T08:41:31Z</time>
      </trkpt>
      <trkpt lat="49.12155" lon="1.04379">
        <ele>163.8</ele>
        <time>2017-10-29T08:41:33Z</time>
      </trkpt>
      <trkpt lat="49.12168" lon="1.04384">
        <ele>163.4</ele>
        <time>2017-10-29T08:41:35Z</time>
      </trkpt>
      <trkpt lat="49.12179" lon="1.04388">
        <ele>163.2</ele>
        <time>2017-10-29T08:41:37Z</time>
      </trkpt>
      <trkpt lat="49.12193" lon="1.04392">
        <ele>162.8</ele>
        <time>2017-10-29T08:41:39Z</time>
      </trkpt>
      <trkpt lat="49.12204" lon="1.04398">
        <ele>162.3</ele>
        <time>2017-10-29T08:41:41Z</time>
      </trkpt>
      <trkpt lat="49.12215" lon="1.04403">
        <ele>162.1</ele>
        <time>2017-10-29T08:41:43Z</time>
      </trkpt>
      <trkpt lat="49.12227" lon="1.04413">
        <ele>161.9</ele>
        <time>2017-10-29T08:41:46Z</time>
      </trkpt>
      <trkpt lat="49.12236" lon="1.0442">
        <ele>161.4</ele>
        <time>2017-10-29T08:41:49Z</time>
      </trkpt>
      <trkpt lat="49.12246" lon="1.04427">
        <ele>161</ele>
        <time>2017-10-29T08:41:51Z</time>
      </trkpt>
      <trkpt lat="49.12257" lon="1.04434">
        <ele>160.8</ele>
        <time>2017-10-29T08:41:53Z</time>
      </trkpt>
      <trkpt lat="49.12269" lon="1.04446">
        <ele>160.6</ele>
        <time>2017-10-29T08:41:55Z</time>
      </trkpt>
      <trkpt lat="49.1228" lon="1.04459">
        <ele>160.2</ele>
        <time>2017-10-29T08:41:57Z</time>
      </trkpt>
      <trkpt lat="49.12291" lon="1.04471">
        <ele>159.8</ele>
        <time>2017-10-29T08:41:59Z</time>
      </trkpt>
      <trkpt lat="49.12302" lon="1.04482">
        <ele>159.7</ele>
        <time>2017-10-29T08:42:01Z</time>
      </trkpt>
      <trkpt lat="49.12312" lon="1.04494">
        <ele>159.4</ele>
        <time>2017-10-29T08:42:03Z</time>
      </trkpt>
      <trkpt lat="49.12321" lon="1.04507">
        <ele>159.1</ele>
        <time>2017-10-29T08:42:05Z</time>
      </trkpt>
      <trkpt lat="49.12328" lon="1.0452">
        <ele>158.9</ele>
        <time>2017-10-29T08:42:07Z</time>
      </trkpt>
      <trkpt lat="49.12335" lon="1.04534">
        <ele>158.5</ele>
        <time>2017-10-29T08:42:09Z</time>
      </trkpt>
      <trkpt lat="49.1234" lon="1.04551">
        <ele>158.3</ele>
        <time>2017-10-29T08:42:11Z</time>
      </trkpt>
      <trkpt lat="49.12347" lon="1.04566">
        <ele>158.2</ele>
        <time>2017-10-29T08:42:13Z</time>
      </trkpt>
      <trkpt lat="49.12354" lon="1.04583">
        <ele>158.1</ele>
        <time>2017-10-29T08:42:15Z</time>
      </trkpt>
      <trkpt lat="49.12361" lon="1.04599">
        <ele>157.9</ele>
        <time>2017-10-29T08:42:17Z</time>
      </trkpt>
      <trkpt lat="49.12366" lon="1.04615">
        <ele>157.6</ele>
        <time>2017-10-29T08:42:19Z</time>
      </trkpt>
      <trkpt lat="49.12371" lon="1.04632">
        <ele>157.3</ele>
        <time>2017-10-29T08:42:21Z</time>
      </trkpt>
      <trkpt lat="49.12376" lon="1.0465">
        <ele>157</ele>
        <time>2017-10-29T08:42:23Z</time>
      </trkpt>
      <trkpt lat="49.12382" lon="1.04666">
        <ele>156.8</ele>
        <time>2017-10-29T08:42:25Z</time>
      </trkpt>
      <trkpt lat="49.12387" lon="1.04682">
        <ele>156.5</ele>
        <time>2017-10-29T08:42:27Z</time>
      </trkpt>
      <trkpt lat="49.1239" lon="1.04699">
        <ele>156.3</ele>
        <time>2017-10-29T08:42:29Z</time>
      </trkpt>
      <trkpt lat="49.12393" lon="1.04716">
        <ele>156.2</ele>
        <time>2017-10-29T08:42:31Z</time>
      </trkpt>
      <trkpt lat="49.12395" lon="1.04734">
        <ele>155.9</ele>
        <time>2017-10-29T08:42:33Z</time>
      </trkpt>
      <trkpt lat="49.12398" lon="1.04751">
        <ele>155.6</ele>
        <time>2017-10-29T08:42:35Z</time>
      </trkpt>
      <trkpt lat="49.12401" lon="1.04771">
        <ele>155.5</ele>
        <time>2017-10-29T08:42:37Z</time>
      </trkpt>
      <trkpt lat="49.12403" lon="1.04788">
        <ele>155.2</ele>
        <time>2017-10-29T08:42:39Z</time>
      </trkpt>
      <trkpt lat="49.12408" lon="1.04802">
        <ele>154.9</ele>
        <time>2017-10-29T08:42:41Z</time>
      </trkpt>
      <trkpt lat="49.12412" lon="1.04817">
        <ele>154.6</ele>
        <time>2017-10-29T08:42:43Z</time>
      </trkpt>
      <trkpt lat="49.12417" lon="1.04834">
        <ele>154.3</ele>
        <time>2017-10-29T08:42:45Z</time>
      </trkpt>
      <trkpt lat="49.12421" lon="1.04851">
        <ele>154.2</ele>
        <time>2017-10-29T08:42:47Z</time>
      </trkpt>
      <trkpt lat="49.12425" lon="1.04865">
        <ele>153.9</ele>
        <time>2017-10-29T08:42:49Z</time>
      </trkpt>
      <trkpt lat="49.12429" lon="1.0488">
        <ele>153.7</ele>
        <time>2017-10-29T08:42:51Z</time>
      </trkpt>
      <trkpt lat="49.1243" lon="1.04898">
        <ele>153.5</ele>
        <time>2017-10-29T08:42:53Z</time>
      </trkpt>
      <trkpt lat="49.12433" lon="1.04915">
        <ele>153.2</ele>
        <time>2017-10-29T08:42:55Z</time>
      </trkpt>
      <trkpt lat="49.12435" lon="1.04933">
        <ele>153</ele>
        <time>2017-10-29T08:42:57Z</time>
      </trkpt>
      <trkpt lat="49.12437" lon="1.04949">
        <ele>152.7</ele>
        <time>2017-10-29T08:42:59Z</time>
      </trkpt>
      <trkpt lat="49.12441" lon="1.04967">
        <ele>152.7</ele>
        <time>2017-10-29T08:43:01Z</time>
      </trkpt>
      <trkpt lat="49.12445" lon="1.04984">
        <ele>152.5</ele>
        <time>2017-10-29T08:43:03Z</time>
      </trkpt>
      <trkpt lat="49.12449" lon="1.05001">
        <ele>152.4</ele>
        <time>2017-10-29T08:43:05Z</time>
      </trkpt>
      <trkpt lat="49.12451" lon="1.05017">
        <ele>152.2</ele>
        <time>2017-10-29T08:43:07Z</time>
      </trkpt>
      <trkpt lat="49.12451" lon="1.05035">
        <ele>152</ele>
        <time>2017-10-29T08:43:09Z</time>
      </trkpt>
      <trkpt lat="49.12453" lon="1.05051">
        <ele>151.9</ele>
        <time>2017-10-29T08:43:11Z</time>
      </trkpt>
      <trkpt lat="49.12455" lon="1.05067">
        <ele>151.6</ele>
        <time>2017-10-29T08:43:13Z</time>
      </trkpt>
      <trkpt lat="49.12458" lon="1.0508">
        <ele>151.4</ele>
        <time>2017-10-29T08:43:15Z</time>
      </trkpt>
      <trkpt lat="49.12461" lon="1.05094">
        <ele>151.3</ele>
        <time>2017-10-29T08:43:17Z</time>
      </trkpt>
      <trkpt lat="49.12461" lon="1.05109">
        <ele>151.3</ele>
        <time>2017-10-29T08:43:19Z</time>
      </trkpt>
      <trkpt lat="49.12457" lon="1.05125">
        <ele>151.4</ele>
        <time>2017-10-29T08:43:22Z</time>
      </trkpt>
      <trkpt lat="49.12451" lon="1.05138">
        <ele>151.9</ele>
        <time>2017-10-29T08:43:26Z</time>
      </trkpt>
      <trkpt lat="49.1244" lon="1.05149">
        <ele>152.7</ele>
        <time>2017-10-29T08:43:29Z</time>
      </trkpt>
      <trkpt lat="49.12432" lon="1.05156">
        <ele>153.1</ele>
        <time>2017-10-29T08:43:32Z</time>
      </trkpt>
      <trkpt lat="49.12423" lon="1.05165">
        <ele>153.4</ele>
        <time>2017-10-29T08:43:35Z</time>
      </trkpt>
      <trkpt lat="49.12412" lon="1.05171">
        <ele>154.1</ele>
        <time>2017-10-29T08:43:38Z</time>
      </trkpt>
      <trkpt lat="49.12403" lon="1.05178">
        <ele>154.6</ele>
        <time>2017-10-29T08:43:41Z</time>
      </trkpt>
      <trkpt lat="49.12394" lon="1.05184">
        <ele>154.8</ele>
        <time>2017-10-29T08:43:44Z</time>
      </trkpt>
      <trkpt lat="49.12384" lon="1.0519">
        <ele>154.9</ele>
        <time>2017-10-29T08:43:47Z</time>
      </trkpt>
      <trkpt lat="49.12375" lon="1.05197">
        <ele>155.5</ele>
        <time>2017-10-29T08:43:50Z</time>
      </trkpt>
      <trkpt lat="49.12364" lon="1.05202">
        <ele>155.8</ele>
        <time>2017-10-29T08:43:53Z</time>
      </trkpt>
      <trkpt lat="49.12356" lon="1.05207">
        <ele>156</ele>
        <time>2017-10-29T08:43:56Z</time>
      </trkpt>
      <trkpt lat="49.12347" lon="1.05214">
        <ele>156.4</ele>
        <time>2017-10-29T08:43:59Z</time>
      </trkpt>
      <trkpt lat="49.12339" lon="1.05224">
        <ele>156.7</ele>
        <time>2017-10-29T08:44:02Z</time>
      </trkpt>
      <trkpt lat="49.1233" lon="1.05234">
        <ele>156.9</ele>
        <time>2017-10-29T08:44:05Z</time>
      </trkpt>
      <trkpt lat="49.12322" lon="1.05242">
        <ele>157.1</ele>
        <time>2017-10-29T08:44:08Z</time>
      </trkpt>
      <trkpt lat="49.12315" lon="1.05254">
        <ele>157.4</ele>
        <time>2017-10-29T08:44:11Z</time>
      </trkpt>
      <trkpt lat="49.12309" lon="1.05266">
        <ele>157.6</ele>
        <time>2017-10-29T08:44:14Z</time>
      </trkpt>
      <trkpt lat="49.12302" lon="1.05278">
        <ele>157.7</ele>
        <time>2017-10-29T08:44:17Z</time>
      </trkpt>
      <trkpt lat="49.12297" lon="1.05293">
        <ele>158.1</ele>
        <time>2017-10-29T08:44:20Z</time>
      </trkpt>
      <trkpt lat="49.1229" lon="1.05306">
        <ele>158.6</ele>
        <time>2017-10-29T08:44:23Z</time>
      </trkpt>
      <trkpt lat="49.12283" lon="1.05317">
        <ele>159</ele>
        <time>2017-10-29T08:44:26Z</time>
      </trkpt>
      <trkpt lat="49.12277" lon="1.05328">
        <ele>159.4</ele>
        <time>2017-10-29T08:44:29Z</time>
      </trkpt>
      <trkpt lat="49.12268" lon="1.05342">
        <ele>159.7</ele>
        <time>2017-10-29T08:44:33Z</time>
      </trkpt>
      <trkpt lat="49.12259" lon="1.05355">
        <ele>160.3</ele>
        <time>2017-10-29T08:44:37Z</time>
      </trkpt>
      <trkpt lat="49.12248" lon="1.05366">
        <ele>160.7</ele>
        <time>2017-10-29T08:44:40Z</time>
      </trkpt>
      <trkpt lat="49.12238" lon="1.05374">
        <ele>161.3</ele>
        <time>2017-10-29T08:44:43Z</time>
      </trkpt>
      <trkpt lat="49.12229" lon="1.05383">
        <ele>161.7</ele>
        <time>2017-10-29T08:44:46Z</time>
      </trkpt>
      <trkpt lat="49.12219" lon="1.0539">
        <ele>162.4</ele>
        <time>2017-10-29T08:44:55Z</time>
      </trkpt>
      <trkpt lat="49.1221" lon="1.05397">
        <ele>162.6</ele>
        <time>2017-10-29T08:45:10Z</time>
      </trkpt>
      <trkpt lat="49.12202" lon="1.05405">
        <ele>162.6</ele>
        <time>2017-10-29T08:45:16Z</time>
      </trkpt>
      <trkpt lat="49.12195" lon="1.05416">
        <ele>163</ele>
        <time>2017-10-29T08:45:20Z</time>
      </trkpt>
      <trkpt lat="49.12186" lon="1.05429">
        <ele>163.4</ele>
        <time>2017-10-29T08:45:24Z</time>
      </trkpt>
      <trkpt lat="49.1218" lon="1.0544">
        <ele>163.7</ele>
        <time>2017-10-29T08:45:28Z</time>
      </trkpt>
      <trkpt lat="49.12174" lon="1.05451">
        <ele>163.6</ele>
        <time>2017-10-29T08:45:32Z</time>
      </trkpt>
      <trkpt lat="49.12169" lon="1.05464">
        <ele>163.7</ele>
        <time>2017-10-29T08:45:37Z</time>
      </trkpt>
      <trkpt lat="49.12162" lon="1.05476">
        <ele>163.8</ele>
        <time>2017-10-29T08:45:41Z</time>
      </trkpt>
      <trkpt lat="49.12156" lon="1.05488">
        <ele>164</ele>
        <time>2017-10-29T08:45:44Z</time>
      </trkpt>
      <trkpt lat="49.1215" lon="1.055">
        <ele>164.3</ele>
        <time>2017-10-29T08:45:47Z</time>
      </trkpt>
      <trkpt lat="49.12143" lon="1.05514">
        <ele>164.6</ele>
        <time>2017-10-29T08:45:51Z</time>
      </trkpt>
      <trkpt lat="49.12133" lon="1.05523">
        <ele>164.7</ele>
        <time>2017-10-29T08:45:55Z</time>
      </trkpt>
      <trkpt lat="49.12126" lon="1.05531">
        <ele>165.4</ele>
        <time>2017-10-29T08:45:59Z</time>
      </trkpt>
      <trkpt lat="49.12117" lon="1.05542">
        <ele>165.5</ele>
        <time>2017-10-29T08:46:02Z</time>
      </trkpt>
      <trkpt lat="49.12109" lon="1.05549">
        <ele>165.6</ele>
        <time>2017-10-29T08:46:05Z</time>
      </trkpt>
      <trkpt lat="49.12098" lon="1.05557">
        <ele>165.7</ele>
        <time>2017-10-29T08:46:08Z</time>
      </trkpt>
      <trkpt lat="49.12088" lon="1.05562">
        <ele>165.9</ele>
        <time>2017-10-29T08:46:11Z</time>
      </trkpt>
      <trkpt lat="49.12079" lon="1.05568">
        <ele>166</ele>
        <time>2017-10-29T08:46:14Z</time>
      </trkpt>
      <trkpt lat="49.12068" lon="1.0557">
        <ele>166.3</ele>
        <time>2017-10-29T08:46:17Z</time>
      </trkpt>
      <trkpt lat="49.12057" lon="1.05574">
        <ele>166.5</ele>
        <time>2017-10-29T08:46:20Z</time>
      </trkpt>
      <trkpt lat="49.12046" lon="1.05577">
        <ele>166.8</ele>
        <time>2017-10-29T08:46:24Z</time>
      </trkpt>
      <trkpt lat="49.12036" lon="1.05579">
        <ele>167.4</ele>
        <time>2017-10-29T08:46:28Z</time>
      </trkpt>
      <trkpt lat="49.12027" lon="1.05581">
        <ele>168.4</ele>
        <time>2017-10-29T08:46:32Z</time>
      </trkpt>
      <trkpt lat="49.12018" lon="1.05587">
        <ele>169.4</ele>
        <time>2017-10-29T08:46:36Z</time>
      </trkpt>
      <trkpt lat="49.12011" lon="1.05596">
        <ele>170.1</ele>
        <time>2017-10-29T08:46:40Z</time>
      </trkpt>
      <trkpt lat="49.12004" lon="1.05607">
        <ele>170.7</ele>
        <time>2017-10-29T08:46:44Z</time>
      </trkpt>
      <trkpt lat="49.12001" lon="1.0562">
        <ele>171.5</ele>
        <time>2017-10-29T08:46:49Z</time>
      </trkpt>
      <trkpt lat="49.11995" lon="1.05635">
        <ele>172.3</ele>
        <time>2017-10-29T08:46:54Z</time>
      </trkpt>
      <trkpt lat="49.11991" lon="1.0565">
        <ele>172.9</ele>
        <time>2017-10-29T08:46:58Z</time>
      </trkpt>
      <trkpt lat="49.11986" lon="1.05665">
        <ele>173.5</ele>
        <time>2017-10-29T08:47:02Z</time>
      </trkpt>
      <trkpt lat="49.11985" lon="1.05679">
        <ele>174</ele>
        <time>2017-10-29T08:47:06Z</time>
      </trkpt>
      <trkpt lat="49.11984" lon="1.05696">
        <ele>174.9</ele>
        <time>2017-10-29T08:47:11Z</time>
      </trkpt>
      <trkpt lat="49.11982" lon="1.05711">
        <ele>175.9</ele>
        <time>2017-10-29T08:47:15Z</time>
      </trkpt>
      <trkpt lat="49.11979" lon="1.05727">
        <ele>176.9</ele>
        <time>2017-10-29T08:47:19Z</time>
      </trkpt>
      <trkpt lat="49.1198" lon="1.05745">
        <ele>177.7</ele>
        <time>2017-10-29T08:47:23Z</time>
      </trkpt>
      <trkpt lat="49.1198" lon="1.05762">
        <ele>178.7</ele>
        <time>2017-10-29T08:47:27Z</time>
      </trkpt>
      <trkpt lat="49.11976" lon="1.05776">
        <ele>179.4</ele>
        <time>2017-10-29T08:47:30Z</time>
      </trkpt>
      <trkpt lat="49.11971" lon="1.05793">
        <ele>180.5</ele>
        <time>2017-10-29T08:47:34Z</time>
      </trkpt>
      <trkpt lat="49.1197" lon="1.05807">
        <ele>181.5</ele>
        <time>2017-10-29T08:47:37Z</time>
      </trkpt>
      <trkpt lat="49.11974" lon="1.05823">
        <ele>182.6</ele>
        <time>2017-10-29T08:47:41Z</time>
      </trkpt>
      <trkpt lat="49.11976" lon="1.05841">
        <ele>183.1</ele>
        <time>2017-10-29T08:47:44Z</time>
      </trkpt>
      <trkpt lat="49.11978" lon="1.05856">
        <ele>183.6</ele>
        <time>2017-10-29T08:47:47Z</time>
      </trkpt>
      <trkpt lat="49.11981" lon="1.05871">
        <ele>183.7</ele>
        <time>2017-10-29T08:47:50Z</time>
      </trkpt>
      <trkpt lat="49.11984" lon="1.05885">
        <ele>183.9</ele>
        <time>2017-10-29T08:47:53Z</time>
      </trkpt>
      <trkpt lat="49.11985" lon="1.059">
        <ele>184.4</ele>
        <time>2017-10-29T08:47:56Z</time>
      </trkpt>
      <trkpt lat="49.11989" lon="1.05914">
        <ele>184.6</ele>
        <time>2017-10-29T08:47:59Z</time>
      </trkpt>
      <trkpt lat="49.1199" lon="1.05927">
        <ele>185.1</ele>
        <time>2017-10-29T08:48:02Z</time>
      </trkpt>
      <trkpt lat="49.11994" lon="1.0594">
        <ele>185.1</ele>
        <time>2017-10-29T08:48:05Z</time>
      </trkpt>
      <trkpt lat="49.11997" lon="1.05955">
        <ele>185.4</ele>
        <time>2017-10-29T08:48:08Z</time>
      </trkpt>
      <trkpt lat="49.11998" lon="1.0597">
        <ele>185.8</ele>
        <time>2017-10-29T08:48:11Z</time>
      </trkpt>
      <trkpt lat="49.12003" lon="1.05982">
        <ele>186.2</ele>
        <time>2017-10-29T08:48:17Z</time>
      </trkpt>
      <trkpt lat="49.12012" lon="1.05983">
        <ele>186.5</ele>
        <time>2017-10-29T08:48:22Z</time>
      </trkpt>
      <trkpt lat="49.12021" lon="1.05988">
        <ele>186.7</ele>
        <time>2017-10-29T08:48:39Z</time>
      </trkpt>
      <trkpt lat="49.12032" lon="1.05986">
        <ele>186.6</ele>
        <time>2017-10-29T08:48:44Z</time>
      </trkpt>
      <trkpt lat="49.12041" lon="1.05984">
        <ele>186.4</ele>
        <time>2017-10-29T08:48:48Z</time>
      </trkpt>
      <trkpt lat="49.12052" lon="1.05979">
        <ele>186.3</ele>
        <time>2017-10-29T08:48:53Z</time>
      </trkpt>
      <trkpt lat="49.12062" lon="1.05977">
        <ele>186.3</ele>
        <time>2017-10-29T08:48:58Z</time>
      </trkpt>
      <trkpt lat="49.12073" lon="1.05975">
        <ele>186.1</ele>
        <time>2017-10-29T08:49:02Z</time>
      </trkpt>
      <trkpt lat="49.12082" lon="1.05972">
        <ele>186</ele>
        <time>2017-10-29T08:49:05Z</time>
      </trkpt>
      <trkpt lat="49.12091" lon="1.0597">
        <ele>185.8</ele>
        <time>2017-10-29T08:49:09Z</time>
      </trkpt>
      <trkpt lat="49.12102" lon="1.05966">
        <ele>185.7</ele>
        <time>2017-10-29T08:49:13Z</time>
      </trkpt>
      <trkpt lat="49.12112" lon="1.05963">
        <ele>185.7</ele>
        <time>2017-10-29T08:49:17Z</time>
      </trkpt>
      <trkpt lat="49.12122" lon="1.05961">
        <ele>186</ele>
        <time>2017-10-29T08:49:20Z</time>
      </trkpt>
      <trkpt lat="49.12133" lon="1.05958">
        <ele>186.2</ele>
        <time>2017-10-29T08:49:24Z</time>
      </trkpt>
      <trkpt lat="49.12143" lon="1.05955">
        <ele>186.6</ele>
        <time>2017-10-29T08:49:28Z</time>
      </trkpt>
      <trkpt lat="49.12152" lon="1.05952">
        <ele>186.9</ele>
        <time>2017-10-29T08:49:31Z</time>
      </trkpt>
      <trkpt lat="49.12164" lon="1.05948">
        <ele>187</ele>
        <time>2017-10-29T08:49:35Z</time>
      </trkpt>
      <trkpt lat="49.12175" lon="1.05946">
        <ele>187.1</ele>
        <time>2017-10-29T08:49:39Z</time>
      </trkpt>
      <trkpt lat="49.12185" lon="1.05943">
        <ele>187.5</ele>
        <time>2017-10-29T08:49:43Z</time>
      </trkpt>
      <trkpt lat="49.12195" lon="1.0594">
        <ele>187.5</ele>
        <time>2017-10-29T08:49:47Z</time>
      </trkpt>
      <trkpt lat="49.12205" lon="1.05937">
        <ele>187.4</ele>
        <time>2017-10-29T08:49:50Z</time>
      </trkpt>
      <trkpt lat="49.12214" lon="1.05935">
        <ele>187.4</ele>
        <time>2017-10-29T08:49:53Z</time>
      </trkpt>
      <trkpt lat="49.12224" lon="1.05932">
        <ele>187.4</ele>
        <time>2017-10-29T08:49:58Z</time>
      </trkpt>
      <trkpt lat="49.12233" lon="1.0593">
        <ele>187.4</ele>
        <time>2017-10-29T08:50:02Z</time>
      </trkpt>
      <trkpt lat="49.12243" lon="1.05926">
        <ele>187.5</ele>
        <time>2017-10-29T08:50:05Z</time>
      </trkpt>
      <trkpt lat="49.12252" lon="1.05923">
        <ele>187.8</ele>
        <time>2017-10-29T08:50:08Z</time>
      </trkpt>
      <trkpt lat="49.12263" lon="1.0592">
        <ele>187.9</ele>
        <time>2017-10-29T08:50:12Z</time>
      </trkpt>
      <trkpt lat="49.12273" lon="1.05917">
        <ele>187.8</ele>
        <time>2017-10-29T08:50:15Z</time>
      </trkpt>
      <trkpt lat="49.12284" lon="1.05914">
        <ele>187.9</ele>
        <time>2017-10-29T08:50:19Z</time>
      </trkpt>
      <trkpt lat="49.12296" lon="1.05911">
        <ele>188.1</ele>
        <time>2017-10-29T08:50:23Z</time>
      </trkpt>
      <trkpt lat="49.12306" lon="1.05907">
        <ele>188.1</ele>
        <time>2017-10-29T08:50:27Z</time>
      </trkpt>
      <trkpt lat="49.12319" lon="1.05902">
        <ele>188.2</ele>
        <time>2017-10-29T08:50:31Z</time>
      </trkpt>
      <trkpt lat="49.12329" lon="1.05899">
        <ele>188.4</ele>
        <time>2017-10-29T08:50:34Z</time>
      </trkpt>
      <trkpt lat="49.12339" lon="1.05896">
        <ele>188.5</ele>
        <time>2017-10-29T08:50:38Z</time>
      </trkpt>
      <trkpt lat="49.12349" lon="1.05893">
        <ele>188.7</ele>
        <time>2017-10-29T08:50:41Z</time>
      </trkpt>
      <trkpt lat="49.12358" lon="1.05889">
        <ele>188.5</ele>
        <time>2017-10-29T08:50:44Z</time>
      </trkpt>
      <trkpt lat="49.1237" lon="1.05885">
        <ele>188.8</ele>
        <time>2017-10-29T08:50:48Z</time>
      </trkpt>
      <trkpt lat="49.12379" lon="1.05883">
        <ele>188.9</ele>
        <time>2017-10-29T08:50:51Z</time>
      </trkpt>
      <trkpt lat="49.12388" lon="1.05881">
        <ele>188.9</ele>
        <time>2017-10-29T08:50:54Z</time>
      </trkpt>
      <trkpt lat="49.12399" lon="1.05877">
        <ele>188.8</ele>
        <time>2017-10-29T08:50:57Z</time>
      </trkpt>
      <trkpt lat="49.12408" lon="1.05875">
        <ele>188.8</ele>
        <time>2017-10-29T08:51:00Z</time>
      </trkpt>
      <trkpt lat="49.12417" lon="1.05872">
        <ele>188.7</ele>
        <time>2017-10-29T08:51:03Z</time>
      </trkpt>
      <trkpt lat="49.12429" lon="1.05868">
        <ele>188.6</ele>
        <time>2017-10-29T08:51:06Z</time>
      </trkpt>
      <trkpt lat="49.12439" lon="1.05866">
        <ele>188.4</ele>
        <time>2017-10-29T08:51:10Z</time>
      </trkpt>
      <trkpt lat="49.12448" lon="1.05863">
        <ele>188.2</ele>
        <time>2017-10-29T08:51:13Z</time>
      </trkpt>
      <trkpt lat="49.12459" lon="1.05861">
        <ele>188</ele>
        <time>2017-10-29T08:51:17Z</time>
      </trkpt>
      <trkpt lat="49.12468" lon="1.05859">
        <ele>188.1</ele>
        <time>2017-10-29T08:51:20Z</time>
      </trkpt>
      <trkpt lat="49.12479" lon="1.05857">
        <ele>188.2</ele>
        <time>2017-10-29T08:51:24Z</time>
      </trkpt>
      <trkpt lat="49.12489" lon="1.05852">
        <ele>188.4</ele>
        <time>2017-10-29T08:51:27Z</time>
      </trkpt>
      <trkpt lat="49.125" lon="1.05848">
        <ele>188.6</ele>
        <time>2017-10-29T08:51:30Z</time>
      </trkpt>
      <trkpt lat="49.12511" lon="1.05844">
        <ele>188.8</ele>
        <time>2017-10-29T08:51:33Z</time>
      </trkpt>
      <trkpt lat="49.12522" lon="1.05841">
        <ele>188.8</ele>
        <time>2017-10-29T08:51:36Z</time>
      </trkpt>
      <trkpt lat="49.12532" lon="1.05838">
        <ele>188.9</ele>
        <time>2017-10-29T08:51:39Z</time>
      </trkpt>
      <trkpt lat="49.12544" lon="1.05834">
        <ele>188.9</ele>
        <time>2017-10-29T08:51:42Z</time>
      </trkpt>
      <trkpt lat="49.12555" lon="1.05831">
        <ele>189</ele>
        <time>2017-10-29T08:51:45Z</time>
      </trkpt>
      <trkpt lat="49.12567" lon="1.05827">
        <ele>189.2</ele>
        <time>2017-10-29T08:51:48Z</time>
      </trkpt>
      <trkpt lat="49.12577" lon="1.05824">
        <ele>189.4</ele>
        <time>2017-10-29T08:51:51Z</time>
      </trkpt>
      <trkpt lat="49.12588" lon="1.05822">
        <ele>189.5</ele>
        <time>2017-10-29T08:51:55Z</time>
      </trkpt>
      <trkpt lat="49.12599" lon="1.05818">
        <ele>189.5</ele>
        <time>2017-10-29T08:51:58Z</time>
      </trkpt>
      <trkpt lat="49.12609" lon="1.05813">
        <ele>189.5</ele>
        <time>2017-10-29T08:52:01Z</time>
      </trkpt>
      <trkpt lat="49.12621" lon="1.05808">
        <ele>189.1</ele>
        <time>2017-10-29T08:52:04Z</time>
      </trkpt>
      <trkpt lat="49.1263" lon="1.05806">
        <ele>189.1</ele>
        <time>2017-10-29T08:52:06Z</time>
      </trkpt>
      <trkpt lat="49.12642" lon="1.05802">
        <ele>188.9</ele>
        <time>2017-10-29T08:52:09Z</time>
      </trkpt>
      <trkpt lat="49.12653" lon="1.05799">
        <ele>188.9</ele>
        <time>2017-10-29T08:52:12Z</time>
      </trkpt>
      <trkpt lat="49.12665" lon="1.05797">
        <ele>188.7</ele>
        <time>2017-10-29T08:52:15Z</time>
      </trkpt>
      <trkpt lat="49.12675" lon="1.05794">
        <ele>188.1</ele>
        <time>2017-10-29T08:52:18Z</time>
      </trkpt>
      <trkpt lat="49.12685" lon="1.05792">
        <ele>187.6</ele>
        <time>2017-10-29T08:52:21Z</time>
      </trkpt>
      <trkpt lat="49.12694" lon="1.05788">
        <ele>186.9</ele>
        <time>2017-10-29T08:52:26Z</time>
      </trkpt>
      <trkpt lat="49.12703" lon="1.05785">
        <ele>186.7</ele>
        <time>2017-10-29T08:52:31Z</time>
      </trkpt>
      <trkpt lat="49.12714" lon="1.05782">
        <ele>186.6</ele>
        <time>2017-10-29T08:52:35Z</time>
      </trkpt>
      <trkpt lat="49.12723" lon="1.05775">
        <ele>186.4</ele>
        <time>2017-10-29T08:52:39Z</time>
      </trkpt>
      <trkpt lat="49.12735" lon="1.05768">
        <ele>186.2</ele>
        <time>2017-10-29T08:52:43Z</time>
      </trkpt>
      <trkpt lat="49.12746" lon="1.05764">
        <ele>185.5</ele>
        <time>2017-10-29T08:52:46Z</time>
      </trkpt>
      <trkpt lat="49.12757" lon="1.05758">
        <ele>185</ele>
        <time>2017-10-29T08:52:49Z</time>
      </trkpt>
      <trkpt lat="49.12769" lon="1.05755">
        <ele>184.7</ele>
        <time>2017-10-29T08:52:51Z</time>
      </trkpt>
      <trkpt lat="49.1278" lon="1.05752">
        <ele>184.4</ele>
        <time>2017-10-29T08:52:53Z</time>
      </trkpt>
      <trkpt lat="49.1279" lon="1.05748">
        <ele>184</ele>
        <time>2017-10-29T08:52:55Z</time>
      </trkpt>
      <trkpt lat="49.12802" lon="1.05746">
        <ele>183.4</ele>
        <time>2017-10-29T08:52:57Z</time>
      </trkpt>
      <trkpt lat="49.12813" lon="1.05747">
        <ele>183</ele>
        <time>2017-10-29T08:52:59Z</time>
      </trkpt>
      <trkpt lat="49.12824" lon="1.05748">
        <ele>182.6</ele>
        <time>2017-10-29T08:53:01Z</time>
      </trkpt>
      <trkpt lat="49.12837" lon="1.05751">
        <ele>182.1</ele>
        <time>2017-10-29T08:53:03Z</time>
      </trkpt>
      <trkpt lat="49.12851" lon="1.05753">
        <ele>181.8</ele>
        <time>2017-10-29T08:53:05Z</time>
      </trkpt>
      <trkpt lat="49.12863" lon="1.05755">
        <ele>181.2</ele>
        <time>2017-10-29T08:53:07Z</time>
      </trkpt>
      <trkpt lat="49.12872" lon="1.05757">
        <ele>180.6</ele>
        <time>2017-10-29T08:53:09Z</time>
      </trkpt>
      <trkpt lat="49.12882" lon="1.0576">
        <ele>179.6</ele>
        <time>2017-10-29T08:53:11Z</time>
      </trkpt>
      <trkpt lat="49.12893" lon="1.05765">
        <ele>178.8</ele>
        <time>2017-10-29T08:53:13Z</time>
      </trkpt>
      <trkpt lat="49.12903" lon="1.05771">
        <ele>178.2</ele>
        <time>2017-10-29T08:53:15Z</time>
      </trkpt>
      <trkpt lat="49.12913" lon="1.05775">
        <ele>177.7</ele>
        <time>2017-10-29T08:53:17Z</time>
      </trkpt>
      <trkpt lat="49.12922" lon="1.05778">
        <ele>176.9</ele>
        <time>2017-10-29T08:53:20Z</time>
      </trkpt>
      <trkpt lat="49.12932" lon="1.05776">
        <ele>176.2</ele>
        <time>2017-10-29T08:53:23Z</time>
      </trkpt>
      <trkpt lat="49.12943" lon="1.05777">
        <ele>175.6</ele>
        <time>2017-10-29T08:53:28Z</time>
      </trkpt>
      <trkpt lat="49.12952" lon="1.05782">
        <ele>175.5</ele>
        <time>2017-10-29T08:53:31Z</time>
      </trkpt>
      <trkpt lat="49.12961" lon="1.05786">
        <ele>175.1</ele>
        <time>2017-10-29T08:53:34Z</time>
      </trkpt>
      <trkpt lat="49.1297" lon="1.05792">
        <ele>174.3</ele>
        <time>2017-10-29T08:53:38Z</time>
      </trkpt>
      <trkpt lat="49.12981" lon="1.05796">
        <ele>173.6</ele>
        <time>2017-10-29T08:53:43Z</time>
      </trkpt>
      <trkpt lat="49.12991" lon="1.05803">
        <ele>173</ele>
        <time>2017-10-29T08:53:47Z</time>
      </trkpt>
      <trkpt lat="49.12999" lon="1.0581">
        <ele>172.2</ele>
        <time>2017-10-29T08:53:50Z</time>
      </trkpt>
      <trkpt lat="49.13009" lon="1.0582">
        <ele>171.6</ele>
        <time>2017-10-29T08:53:52Z</time>
      </trkpt>
      <trkpt lat="49.13019" lon="1.05831">
        <ele>170.8</ele>
        <time>2017-10-29T08:53:54Z</time>
      </trkpt>
      <trkpt lat="49.1303" lon="1.05845">
        <ele>170</ele>
        <time>2017-10-29T08:53:56Z</time>
      </trkpt>
      <trkpt lat="49.13038" lon="1.0586">
        <ele>169</ele>
        <time>2017-10-29T08:53:58Z</time>
      </trkpt>
      <trkpt lat="49.13044" lon="1.05873">
        <ele>167.8</ele>
        <time>2017-10-29T08:54:00Z</time>
      </trkpt>
      <trkpt lat="49.13047" lon="1.05886">
        <ele>166.8</ele>
        <time>2017-10-29T08:54:02Z</time>
      </trkpt>
      <trkpt lat="49.13053" lon="1.05902">
        <ele>165.1</ele>
        <time>2017-10-29T08:54:04Z</time>
      </trkpt>
      <trkpt lat="49.13055" lon="1.05917">
        <ele>163.7</ele>
        <time>2017-10-29T08:54:06Z</time>
      </trkpt>
      <trkpt lat="49.13059" lon="1.05935">
        <ele>162.3</ele>
        <time>2017-10-29T08:54:08Z</time>
      </trkpt>
      <trkpt lat="49.13062" lon="1.05951">
        <ele>160.5</ele>
        <time>2017-10-29T08:54:10Z</time>
      </trkpt>
      <trkpt lat="49.13068" lon="1.05968">
        <ele>158.4</ele>
        <time>2017-10-29T08:54:12Z</time>
      </trkpt>
      <trkpt lat="49.13072" lon="1.05986">
        <ele>156.7</ele>
        <time>2017-10-29T08:54:14Z</time>
      </trkpt>
      <trkpt lat="49.13079" lon="1.06002">
        <ele>154.9</ele>
        <time>2017-10-29T08:54:16Z</time>
      </trkpt>
      <trkpt lat="49.13085" lon="1.06022">
        <ele>153.4</ele>
        <time>2017-10-29T08:54:18Z</time>
      </trkpt>
      <trkpt lat="49.1309" lon="1.0604">
        <ele>151.8</ele>
        <time>2017-10-29T08:54:20Z</time>
      </trkpt>
      <trkpt lat="49.13099" lon="1.0606">
        <ele>150.3</ele>
        <time>2017-10-29T08:54:22Z</time>
      </trkpt>
      <trkpt lat="49.13106" lon="1.06078">
        <ele>148.6</ele>
        <time>2017-10-29T08:54:24Z</time>
      </trkpt>
      <trkpt lat="49.13116" lon="1.06097">
        <ele>147</ele>
        <time>2017-10-29T08:54:26Z</time>
      </trkpt>
      <trkpt lat="49.13124" lon="1.06116">
        <ele>144.7</ele>
        <time>2017-10-29T08:54:28Z</time>
      </trkpt>
      <trkpt lat="49.13132" lon="1.06136">
        <ele>142.7</ele>
        <time>2017-10-29T08:54:30Z</time>
      </trkpt>
      <trkpt lat="49.13139" lon="1.06158">
        <ele>141.1</ele>
        <time>2017-10-29T08:54:32Z</time>
      </trkpt>
      <trkpt lat="49.1315" lon="1.06178">
        <ele>139.1</ele>
        <time>2017-10-29T08:54:34Z</time>
      </trkpt>
      <trkpt lat="49.13159" lon="1.06196">
        <ele>137.5</ele>
        <time>2017-10-29T08:54:36Z</time>
      </trkpt>
      <trkpt lat="49.13171" lon="1.06216">
        <ele>136.1</ele>
        <time>2017-10-29T08:54:38Z</time>
      </trkpt>
      <trkpt lat="49.13176" lon="1.06228">
        <ele>135.2</ele>
        <time>2017-10-29T08:54:39Z</time>
      </trkpt>
      <trkpt lat="49.13182" lon="1.06239">
        <ele>134.4</ele>
        <time>2017-10-29T08:54:40Z</time>
      </trkpt>
      <trkpt lat="49.13193" lon="1.06258">
        <ele>132.9</ele>
        <time>2017-10-29T08:54:42Z</time>
      </trkpt>
      <trkpt lat="49.13199" lon="1.0627">
        <ele>132.2</ele>
        <time>2017-10-29T08:54:43Z</time>
      </trkpt>
      <trkpt lat="49.1321" lon="1.06289">
        <ele>130</ele>
        <time>2017-10-29T08:54:45Z</time>
      </trkpt>
      <trkpt lat="49.13218" lon="1.06309">
        <ele>128.6</ele>
        <time>2017-10-29T08:54:47Z</time>
      </trkpt>
      <trkpt lat="49.13226" lon="1.06325">
        <ele>127.3</ele>
        <time>2017-10-29T08:54:49Z</time>
      </trkpt>
      <trkpt lat="49.13232" lon="1.0634">
        <ele>126.3</ele>
        <time>2017-10-29T08:54:51Z</time>
      </trkpt>
      <trkpt lat="49.13238" lon="1.06355">
        <ele>125.7</ele>
        <time>2017-10-29T08:54:53Z</time>
      </trkpt>
      <trkpt lat="49.13244" lon="1.06367">
        <ele>125</ele>
        <time>2017-10-29T08:54:55Z</time>
      </trkpt>
      <trkpt lat="49.1325" lon="1.06382">
        <ele>124.1</ele>
        <time>2017-10-29T08:54:58Z</time>
      </trkpt>
      <trkpt lat="49.13258" lon="1.06397">
        <ele>124</ele>
        <time>2017-10-29T08:55:01Z</time>
      </trkpt>
      <trkpt lat="49.13268" lon="1.06407">
        <ele>123.8</ele>
        <time>2017-10-29T08:55:04Z</time>
      </trkpt>
      <trkpt lat="49.13278" lon="1.06415">
        <ele>123</ele>
        <time>2017-10-29T08:55:07Z</time>
      </trkpt>
      <trkpt lat="49.13288" lon="1.0642">
        <ele>122.5</ele>
        <time>2017-10-29T08:55:09Z</time>
      </trkpt>
      <trkpt lat="49.13297" lon="1.06425">
        <ele>122.2</ele>
        <time>2017-10-29T08:55:11Z</time>
      </trkpt>
      <trkpt lat="49.13311" lon="1.06429">
        <ele>121.8</ele>
        <time>2017-10-29T08:55:13Z</time>
      </trkpt>
      <trkpt lat="49.13321" lon="1.06432">
        <ele>121.5</ele>
        <time>2017-10-29T08:55:15Z</time>
      </trkpt>
      <trkpt lat="49.13332" lon="1.06436">
        <ele>121.2</ele>
        <time>2017-10-29T08:55:17Z</time>
      </trkpt>
      <trkpt lat="49.13342" lon="1.06439">
        <ele>120.9</ele>
        <time>2017-10-29T08:55:19Z</time>
      </trkpt>
      <trkpt lat="49.13351" lon="1.06442">
        <ele>120.5</ele>
        <time>2017-10-29T08:55:21Z</time>
      </trkpt>
      <trkpt lat="49.13361" lon="1.06446">
        <ele>120.1</ele>
        <time>2017-10-29T08:55:23Z</time>
      </trkpt>
      <trkpt lat="49.13371" lon="1.06452">
        <ele>119.8</ele>
        <time>2017-10-29T08:55:25Z</time>
      </trkpt>
      <trkpt lat="49.13381" lon="1.06458">
        <ele>119.6</ele>
        <time>2017-10-29T08:55:27Z</time>
      </trkpt>
      <trkpt lat="49.1339" lon="1.06463">
        <ele>119.1</ele>
        <time>2017-10-29T08:55:29Z</time>
      </trkpt>
      <trkpt lat="49.13399" lon="1.06469">
        <ele>119.1</ele>
        <time>2017-10-29T08:55:31Z</time>
      </trkpt>
      <trkpt lat="49.13411" lon="1.06479">
        <ele>118.7</ele>
        <time>2017-10-29T08:55:33Z</time>
      </trkpt>
      <trkpt lat="49.13425" lon="1.06486">
        <ele>118.3</ele>
        <time>2017-10-29T08:55:35Z</time>
      </trkpt>
      <trkpt lat="49.13439" lon="1.06494">
        <ele>118.1</ele>
        <time>2017-10-29T08:55:37Z</time>
      </trkpt>
      <trkpt lat="49.13456" lon="1.06503">
        <ele>117.6</ele>
        <time>2017-10-29T08:55:39Z</time>
      </trkpt>
      <trkpt lat="49.1347" lon="1.06507">
        <ele>117.4</ele>
        <time>2017-10-29T08:55:41Z</time>
      </trkpt>
      <trkpt lat="49.13482" lon="1.06513">
        <ele>117.1</ele>
        <time>2017-10-29T08:55:43Z</time>
      </trkpt>
      <trkpt lat="49.13491" lon="1.06518">
        <ele>116.9</ele>
        <time>2017-10-29T08:55:45Z</time>
      </trkpt>
      <trkpt lat="49.135" lon="1.06524">
        <ele>116.3</ele>
        <time>2017-10-29T08:55:48Z</time>
      </trkpt>
      <trkpt lat="49.13506" lon="1.06538">
        <ele>115.9</ele>
        <time>2017-10-29T08:55:52Z</time>
      </trkpt>
      <trkpt lat="49.13507" lon="1.06556">
        <ele>115.5</ele>
        <time>2017-10-29T08:55:56Z</time>
      </trkpt>
      <trkpt lat="49.13508" lon="1.06572">
        <ele>115.8</ele>
        <time>2017-10-29T08:56:01Z</time>
      </trkpt>
      <trkpt lat="49.13507" lon="1.06587">
        <ele>116.7</ele>
        <time>2017-10-29T08:56:06Z</time>
      </trkpt>
      <trkpt lat="49.13503" lon="1.06602">
        <ele>117.5</ele>
        <time>2017-10-29T08:56:10Z</time>
      </trkpt>
      <trkpt lat="49.13499" lon="1.06615">
        <ele>118.2</ele>
        <time>2017-10-29T08:56:14Z</time>
      </trkpt>
      <trkpt lat="49.13494" lon="1.06631">
        <ele>118.8</ele>
        <time>2017-10-29T08:56:19Z</time>
      </trkpt>
      <trkpt lat="49.13492" lon="1.06645">
        <ele>119.3</ele>
        <time>2017-10-29T08:56:23Z</time>
      </trkpt>
      <trkpt lat="49.1349" lon="1.06658">
        <ele>119.7</ele>
        <time>2017-10-29T08:56:27Z</time>
      </trkpt>
      <trkpt lat="49.13486" lon="1.06675">
        <ele>120.1</ele>
        <time>2017-10-29T08:56:31Z</time>
      </trkpt>
      <trkpt lat="49.13481" lon="1.06688">
        <ele>120.4</ele>
        <time>2017-10-29T08:56:34Z</time>
      </trkpt>
      <trkpt lat="49.13478" lon="1.06704">
        <ele>120.7</ele>
        <time>2017-10-29T08:56:37Z</time>
      </trkpt>
      <trkpt lat="49.13473" lon="1.06719">
        <ele>120.6</ele>
        <time>2017-10-29T08:56:40Z</time>
      </trkpt>
      <trkpt lat="49.13469" lon="1.06733">
        <ele>120.6</ele>
        <time>2017-10-29T08:56:43Z</time>
      </trkpt>
      <trkpt lat="49.13467" lon="1.06749">
        <ele>120.6</ele>
        <time>2017-10-29T08:56:46Z</time>
      </trkpt>
      <trkpt lat="49.13465" lon="1.06767">
        <ele>120.3</ele>
        <time>2017-10-29T08:56:49Z</time>
      </trkpt>
      <trkpt lat="49.13463" lon="1.06788">
        <ele>119.3</ele>
        <time>2017-10-29T08:56:52Z</time>
      </trkpt>
      <trkpt lat="49.13457" lon="1.06805">
        <ele>118.4</ele>
        <time>2017-10-29T08:56:54Z</time>
      </trkpt>
      <trkpt lat="49.13455" lon="1.06823">
        <ele>117.7</ele>
        <time>2017-10-29T08:56:56Z</time>
      </trkpt>
      <trkpt lat="49.13454" lon="1.0684">
        <ele>117.2</ele>
        <time>2017-10-29T08:56:58Z</time>
      </trkpt>
      <trkpt lat="49.13451" lon="1.06856">
        <ele>116.9</ele>
        <time>2017-10-29T08:57:00Z</time>
      </trkpt>
      <trkpt lat="49.13447" lon="1.06871">
        <ele>116.6</ele>
        <time>2017-10-29T08:57:03Z</time>
      </trkpt>
      <trkpt lat="49.13445" lon="1.06888">
        <ele>116.4</ele>
        <time>2017-10-29T08:57:06Z</time>
      </trkpt>
      <trkpt lat="49.13442" lon="1.06908">
        <ele>116</ele>
        <time>2017-10-29T08:57:09Z</time>
      </trkpt>
      <trkpt lat="49.1344" lon="1.06923">
        <ele>115.5</ele>
        <time>2017-10-29T08:57:11Z</time>
      </trkpt>
      <trkpt lat="49.13442" lon="1.06941">
        <ele>114.6</ele>
        <time>2017-10-29T08:57:14Z</time>
      </trkpt>
      <trkpt lat="49.13447" lon="1.06957">
        <ele>113.9</ele>
        <time>2017-10-29T08:57:17Z</time>
      </trkpt>
      <trkpt lat="49.13447" lon="1.06978">
        <ele>113.3</ele>
        <time>2017-10-29T08:57:20Z</time>
      </trkpt>
      <trkpt lat="49.13446" lon="1.06995">
        <ele>112.7</ele>
        <time>2017-10-29T08:57:23Z</time>
      </trkpt>
      <trkpt lat="49.13449" lon="1.07009">
        <ele>112.5</ele>
        <time>2017-10-29T08:57:25Z</time>
      </trkpt>
      <trkpt lat="49.13453" lon="1.07021">
        <ele>112.4</ele>
        <time>2017-10-29T08:57:27Z</time>
      </trkpt>
      <trkpt lat="49.13457" lon="1.0704">
        <ele>112.4</ele>
        <time>2017-10-29T08:57:30Z</time>
      </trkpt>
      <trkpt lat="49.13463" lon="1.07059">
        <ele>112.6</ele>
        <time>2017-10-29T08:57:33Z</time>
      </trkpt>
      <trkpt lat="49.13466" lon="1.07078">
        <ele>112.8</ele>
        <time>2017-10-29T08:57:36Z</time>
      </trkpt>
      <trkpt lat="49.13469" lon="1.07097">
        <ele>113.2</ele>
        <time>2017-10-29T08:57:39Z</time>
      </trkpt>
      <trkpt lat="49.1347" lon="1.07112">
        <ele>113.3</ele>
        <time>2017-10-29T08:57:41Z</time>
      </trkpt>
      <trkpt lat="49.13473" lon="1.07128">
        <ele>113.7</ele>
        <time>2017-10-29T08:57:44Z</time>
      </trkpt>
      <trkpt lat="49.13476" lon="1.07143">
        <ele>114.5</ele>
        <time>2017-10-29T08:57:47Z</time>
      </trkpt>
      <trkpt lat="49.13482" lon="1.07155">
        <ele>115.1</ele>
        <time>2017-10-29T08:57:50Z</time>
      </trkpt>
      <trkpt lat="49.13485" lon="1.07173">
        <ele>115.8</ele>
        <time>2017-10-29T08:57:53Z</time>
      </trkpt>
      <trkpt lat="49.13491" lon="1.07187">
        <ele>116.9</ele>
        <time>2017-10-29T08:57:57Z</time>
      </trkpt>
      <trkpt lat="49.13497" lon="1.07198">
        <ele>118</ele>
        <time>2017-10-29T08:58:01Z</time>
      </trkpt>
      <trkpt lat="49.13506" lon="1.07206">
        <ele>119.1</ele>
        <time>2017-10-29T08:58:05Z</time>
      </trkpt>
      <trkpt lat="49.13514" lon="1.07216">
        <ele>120</ele>
        <time>2017-10-29T08:58:09Z</time>
      </trkpt>
      <trkpt lat="49.13522" lon="1.07224">
        <ele>120.9</ele>
        <time>2017-10-29T08:58:12Z</time>
      </trkpt>
      <trkpt lat="49.13531" lon="1.07232">
        <ele>122</ele>
        <time>2017-10-29T08:58:16Z</time>
      </trkpt>
      <trkpt lat="49.1354" lon="1.07241">
        <ele>122.6</ele>
        <time>2017-10-29T08:58:20Z</time>
      </trkpt>
      <trkpt lat="49.13548" lon="1.07247">
        <ele>123</ele>
        <time>2017-10-29T08:58:23Z</time>
      </trkpt>
      <trkpt lat="49.13557" lon="1.07252">
        <ele>123.3</ele>
        <time>2017-10-29T08:58:26Z</time>
      </trkpt>
      <trkpt lat="49.13568" lon="1.07257">
        <ele>123.9</ele>
        <time>2017-10-29T08:58:30Z</time>
      </trkpt>
      <trkpt lat="49.1358" lon="1.07259">
        <ele>124.9</ele>
        <time>2017-10-29T08:58:34Z</time>
      </trkpt>
      <trkpt lat="49.13589" lon="1.07261">
        <ele>125.5</ele>
        <time>2017-10-29T08:58:37Z</time>
      </trkpt>
      <trkpt lat="49.13601" lon="1.07266">
        <ele>126.4</ele>
        <time>2017-10-29T08:58:41Z</time>
      </trkpt>
      <trkpt lat="49.1361" lon="1.0727">
        <ele>126.9</ele>
        <time>2017-10-29T08:58:44Z</time>
      </trkpt>
      <trkpt lat="49.13621" lon="1.07273">
        <ele>127.7</ele>
        <time>2017-10-29T08:58:48Z</time>
      </trkpt>
      <trkpt lat="49.13631" lon="1.0728">
        <ele>128.8</ele>
        <time>2017-10-29T08:58:52Z</time>
      </trkpt>
      <trkpt lat="49.1364" lon="1.07285">
        <ele>129.6</ele>
        <time>2017-10-29T08:58:55Z</time>
      </trkpt>
      <trkpt lat="49.13649" lon="1.07288">
        <ele>130.7</ele>
        <time>2017-10-29T08:58:58Z</time>
      </trkpt>
      <trkpt lat="49.1366" lon="1.07292">
        <ele>131.7</ele>
        <time>2017-10-29T08:59:02Z</time>
      </trkpt>
      <trkpt lat="49.13669" lon="1.07295">
        <ele>133</ele>
        <time>2017-10-29T08:59:06Z</time>
      </trkpt>
      <trkpt lat="49.13679" lon="1.07299">
        <ele>134.5</ele>
        <time>2017-10-29T08:59:11Z</time>
      </trkpt>
      <trkpt lat="49.13688" lon="1.073">
        <ele>135.6</ele>
        <time>2017-10-29T08:59:15Z</time>
      </trkpt>
      <trkpt lat="49.13699" lon="1.07301">
        <ele>137.1</ele>
        <time>2017-10-29T08:59:20Z</time>
      </trkpt>
      <trkpt lat="49.13709" lon="1.07303">
        <ele>138.4</ele>
        <time>2017-10-29T08:59:25Z</time>
      </trkpt>
      <trkpt lat="49.1372" lon="1.07307">
        <ele>139.9</ele>
        <time>2017-10-29T08:59:30Z</time>
      </trkpt>
      <trkpt lat="49.13728" lon="1.07312">
        <ele>141.6</ele>
        <time>2017-10-29T08:59:35Z</time>
      </trkpt>
      <trkpt lat="49.13738" lon="1.07316">
        <ele>143.6</ele>
        <time>2017-10-29T08:59:41Z</time>
      </trkpt>
      <trkpt lat="49.13746" lon="1.07321">
        <ele>145</ele>
        <time>2017-10-29T08:59:45Z</time>
      </trkpt>
      <trkpt lat="49.13756" lon="1.07327">
        <ele>146.6</ele>
        <time>2017-10-29T08:59:50Z</time>
      </trkpt>
      <trkpt lat="49.13765" lon="1.07332">
        <ele>148.1</ele>
        <time>2017-10-29T08:59:55Z</time>
      </trkpt>
      <trkpt lat="49.13775" lon="1.07337">
        <ele>150.1</ele>
        <time>2017-10-29T09:00:01Z</time>
      </trkpt>
      <trkpt lat="49.13784" lon="1.07339">
        <ele>151.9</ele>
        <time>2017-10-29T09:00:06Z</time>
      </trkpt>
      <trkpt lat="49.13795" lon="1.0734">
        <ele>154.2</ele>
        <time>2017-10-29T09:00:12Z</time>
      </trkpt>
      <trkpt lat="49.13804" lon="1.07338">
        <ele>156.2</ele>
        <time>2017-10-29T09:00:18Z</time>
      </trkpt>
      <trkpt lat="49.13795" lon="1.07332">
        <ele>157.1</ele>
        <time>2017-10-29T09:00:24Z</time>
      </trkpt>
      <trkpt lat="49.13803" lon="1.07339">
        <ele>156.7</ele>
        <time>2017-10-29T09:00:42Z</time>
      </trkpt>
      <trkpt lat="49.13796" lon="1.07331">
        <ele>157.4</ele>
        <time>2017-10-29T09:01:00Z</time>
      </trkpt>
      <trkpt lat="49.13804" lon="1.0734">
        <ele>157</ele>
        <time>2017-10-29T09:01:09Z</time>
      </trkpt>
      <trkpt lat="49.13814" lon="1.07342">
        <ele>157</ele>
        <time>2017-10-29T09:06:45Z</time>
      </trkpt>
      <trkpt lat="49.13823" lon="1.07346">
        <ele>157.4</ele>
        <time>2017-10-29T09:06:50Z</time>
      </trkpt>
      <trkpt lat="49.13833" lon="1.07349">
        <ele>157.9</ele>
        <time>2017-10-29T09:06:55Z</time>
      </trkpt>
      <trkpt lat="49.13844" lon="1.07352">
        <ele>158.4</ele>
        <time>2017-10-29T09:07:00Z</time>
      </trkpt>
      <trkpt lat="49.13854" lon="1.07355">
        <ele>159</ele>
        <time>2017-10-29T09:07:04Z</time>
      </trkpt>
      <trkpt lat="49.13863" lon="1.0736">
        <ele>159.6</ele>
        <time>2017-10-29T09:07:08Z</time>
      </trkpt>
      <trkpt lat="49.13873" lon="1.07362">
        <ele>160.6</ele>
        <time>2017-10-29T09:07:12Z</time>
      </trkpt>
      <trkpt lat="49.13884" lon="1.07367">
        <ele>161.4</ele>
        <time>2017-10-29T09:07:16Z</time>
      </trkpt>
      <trkpt lat="49.13895" lon="1.07371">
        <ele>162.3</ele>
        <time>2017-10-29T09:07:21Z</time>
      </trkpt>
      <trkpt lat="49.13904" lon="1.07374">
        <ele>162.9</ele>
        <time>2017-10-29T09:07:25Z</time>
      </trkpt>
      <trkpt lat="49.13914" lon="1.07376">
        <ele>163.3</ele>
        <time>2017-10-29T09:07:28Z</time>
      </trkpt>
      <trkpt lat="49.13926" lon="1.07379">
        <ele>163.9</ele>
        <time>2017-10-29T09:07:32Z</time>
      </trkpt>
      <trkpt lat="49.13934" lon="1.07384">
        <ele>164.3</ele>
        <time>2017-10-29T09:07:35Z</time>
      </trkpt>
      <trkpt lat="49.13943" lon="1.0739">
        <ele>164.8</ele>
        <time>2017-10-29T09:07:38Z</time>
      </trkpt>
      <trkpt lat="49.1395" lon="1.074">
        <ele>165.4</ele>
        <time>2017-10-29T09:07:42Z</time>
      </trkpt>
      <trkpt lat="49.13956" lon="1.0741">
        <ele>165.9</ele>
        <time>2017-10-29T09:07:46Z</time>
      </trkpt>
      <trkpt lat="49.13959" lon="1.07424">
        <ele>166.8</ele>
        <time>2017-10-29T09:07:52Z</time>
      </trkpt>
      <trkpt lat="49.13958" lon="1.07438">
        <ele>167.4</ele>
        <time>2017-10-29T09:07:58Z</time>
      </trkpt>
      <trkpt lat="49.13953" lon="1.07452">
        <ele>168.1</ele>
        <time>2017-10-29T09:08:04Z</time>
      </trkpt>
      <trkpt lat="49.13947" lon="1.07465">
        <ele>168.7</ele>
        <time>2017-10-29T09:08:10Z</time>
      </trkpt>
      <trkpt lat="49.13941" lon="1.07479">
        <ele>169.1</ele>
        <time>2017-10-29T09:08:15Z</time>
      </trkpt>
      <trkpt lat="49.13937" lon="1.07491">
        <ele>169.4</ele>
        <time>2017-10-29T09:08:20Z</time>
      </trkpt>
      <trkpt lat="49.13934" lon="1.07506">
        <ele>169.6</ele>
        <time>2017-10-29T09:08:25Z</time>
      </trkpt>
      <trkpt lat="49.13935" lon="1.07522">
        <ele>169.9</ele>
        <time>2017-10-29T09:08:31Z</time>
      </trkpt>
      <trkpt lat="49.13936" lon="1.07539">
        <ele>170.7</ele>
        <time>2017-10-29T09:08:37Z</time>
      </trkpt>
      <trkpt lat="49.13938" lon="1.07554">
        <ele>171.2</ele>
        <time>2017-10-29T09:08:42Z</time>
      </trkpt>
      <trkpt lat="49.1394" lon="1.07569">
        <ele>171.6</ele>
        <time>2017-10-29T09:08:47Z</time>
      </trkpt>
      <trkpt lat="49.13943" lon="1.07585">
        <ele>172.3</ele>
        <time>2017-10-29T09:08:53Z</time>
      </trkpt>
      <trkpt lat="49.13946" lon="1.076">
        <ele>172.9</ele>
        <time>2017-10-29T09:08:58Z</time>
      </trkpt>
      <trkpt lat="49.13948" lon="1.07615">
        <ele>173.5</ele>
        <time>2017-10-29T09:09:02Z</time>
      </trkpt>
      <trkpt lat="49.1395" lon="1.07629">
        <ele>174.1</ele>
        <time>2017-10-29T09:09:06Z</time>
      </trkpt>
      <trkpt lat="49.13954" lon="1.07645">
        <ele>174.8</ele>
        <time>2017-10-29T09:09:11Z</time>
      </trkpt>
      <trkpt lat="49.13958" lon="1.07662">
        <ele>175.5</ele>
        <time>2017-10-29T09:09:16Z</time>
      </trkpt>
      <trkpt lat="49.1396" lon="1.07676">
        <ele>176.1</ele>
        <time>2017-10-29T09:09:20Z</time>
      </trkpt>
      <trkpt lat="49.13964" lon="1.0769">
        <ele>176.5</ele>
        <time>2017-10-29T09:09:24Z</time>
      </trkpt>
      <trkpt lat="49.13969" lon="1.07704">
        <ele>177.2</ele>
        <time>2017-10-29T09:09:29Z</time>
      </trkpt>
      <trkpt lat="49.13975" lon="1.07716">
        <ele>177.7</ele>
        <time>2017-10-29T09:09:33Z</time>
      </trkpt>
      <trkpt lat="49.13982" lon="1.0773">
        <ele>178.3</ele>
        <time>2017-10-29T09:09:38Z</time>
      </trkpt>
      <trkpt lat="49.13988" lon="1.07739">
        <ele>179.1</ele>
        <time>2017-10-29T09:09:44Z</time>
      </trkpt>
      <trkpt lat="49.13996" lon="1.07752">
        <ele>179.8</ele>
        <time>2017-10-29T09:09:49Z</time>
      </trkpt>
      <trkpt lat="49.14002" lon="1.07761">
        <ele>180.7</ele>
        <time>2017-10-29T09:09:54Z</time>
      </trkpt>
      <trkpt lat="49.14009" lon="1.07771">
        <ele>181.4</ele>
        <time>2017-10-29T09:09:59Z</time>
      </trkpt>
      <trkpt lat="49.14017" lon="1.07781">
        <ele>182</ele>
        <time>2017-10-29T09:10:03Z</time>
      </trkpt>
      <trkpt lat="49.14026" lon="1.07791">
        <ele>182.5</ele>
        <time>2017-10-29T09:10:07Z</time>
      </trkpt>
      <trkpt lat="49.14033" lon="1.078">
        <ele>183</ele>
        <time>2017-10-29T09:10:11Z</time>
      </trkpt>
      <trkpt lat="49.1404" lon="1.07809">
        <ele>183.7</ele>
        <time>2017-10-29T09:10:16Z</time>
      </trkpt>
      <trkpt lat="49.14048" lon="1.07819">
        <ele>184.2</ele>
        <time>2017-10-29T09:10:20Z</time>
      </trkpt>
      <trkpt lat="49.14056" lon="1.07827">
        <ele>184.5</ele>
        <time>2017-10-29T09:10:23Z</time>
      </trkpt>
      <trkpt lat="49.14064" lon="1.07835">
        <ele>185.1</ele>
        <time>2017-10-29T09:10:27Z</time>
      </trkpt>
      <trkpt lat="49.14071" lon="1.07845">
        <ele>185.9</ele>
        <time>2017-10-29T09:10:31Z</time>
      </trkpt>
      <trkpt lat="49.1408" lon="1.07855">
        <ele>186.5</ele>
        <time>2017-10-29T09:10:35Z</time>
      </trkpt>
      <trkpt lat="49.14088" lon="1.07867">
        <ele>187.3</ele>
        <time>2017-10-29T09:10:40Z</time>
      </trkpt>
      <trkpt lat="49.14094" lon="1.07876">
        <ele>187.7</ele>
        <time>2017-10-29T09:10:44Z</time>
      </trkpt>
      <trkpt lat="49.14102" lon="1.07887">
        <ele>188.4</ele>
        <time>2017-10-29T09:10:49Z</time>
      </trkpt>
      <trkpt lat="49.1411" lon="1.07897">
        <ele>188.8</ele>
        <time>2017-10-29T09:10:53Z</time>
      </trkpt>
      <trkpt lat="49.1412" lon="1.07907">
        <ele>189.4</ele>
        <time>2017-10-29T09:10:57Z</time>
      </trkpt>
      <trkpt lat="49.14129" lon="1.07918">
        <ele>189.8</ele>
        <time>2017-10-29T09:11:01Z</time>
      </trkpt>
      <trkpt lat="49.14136" lon="1.07925">
        <ele>190.1</ele>
        <time>2017-10-29T09:11:04Z</time>
      </trkpt>
      <trkpt lat="49.14149" lon="1.07936">
        <ele>190.6</ele>
        <time>2017-10-29T09:11:08Z</time>
      </trkpt>
      <trkpt lat="49.14157" lon="1.0795">
        <ele>190.8</ele>
        <time>2017-10-29T09:11:12Z</time>
      </trkpt>
      <trkpt lat="49.14157" lon="1.07965">
        <ele>191.1</ele>
        <time>2017-10-29T09:11:16Z</time>
      </trkpt>
      <trkpt lat="49.14153" lon="1.0798">
        <ele>191.5</ele>
        <time>2017-10-29T09:11:21Z</time>
      </trkpt>
      <trkpt lat="49.14145" lon="1.07988">
        <ele>191.4</ele>
        <time>2017-10-29T09:11:25Z</time>
      </trkpt>
      <trkpt lat="49.14137" lon="1.07997">
        <ele>191.3</ele>
        <time>2017-10-29T09:11:29Z</time>
      </trkpt>
      <trkpt lat="49.14129" lon="1.08006">
        <ele>191.2</ele>
        <time>2017-10-29T09:11:33Z</time>
      </trkpt>
      <trkpt lat="49.14121" lon="1.08016">
        <ele>191.1</ele>
        <time>2017-10-29T09:11:37Z</time>
      </trkpt>
      <trkpt lat="49.14111" lon="1.08026">
        <ele>191.2</ele>
        <time>2017-10-29T09:11:41Z</time>
      </trkpt>
      <trkpt lat="49.14103" lon="1.08042">
        <ele>191.2</ele>
        <time>2017-10-29T09:11:44Z</time>
      </trkpt>
      <trkpt lat="49.14095" lon="1.08051">
        <ele>191.2</ele>
        <time>2017-10-29T09:11:46Z</time>
      </trkpt>
      <trkpt lat="49.14089" lon="1.08063">
        <ele>191.4</ele>
        <time>2017-10-29T09:11:48Z</time>
      </trkpt>
      <trkpt lat="49.14077" lon="1.08074">
        <ele>191.3</ele>
        <time>2017-10-29T09:11:51Z</time>
      </trkpt>
      <trkpt lat="49.14068" lon="1.08084">
        <ele>191.2</ele>
        <time>2017-10-29T09:11:54Z</time>
      </trkpt>
      <trkpt lat="49.14059" lon="1.08092">
        <ele>191</ele>
        <time>2017-10-29T09:11:56Z</time>
      </trkpt>
      <trkpt lat="49.14051" lon="1.08101">
        <ele>191.1</ele>
        <time>2017-10-29T09:11:58Z</time>
      </trkpt>
      <trkpt lat="49.14044" lon="1.08111">
        <ele>191.1</ele>
        <time>2017-10-29T09:12:00Z</time>
      </trkpt>
      <trkpt lat="49.14037" lon="1.08121">
        <ele>191</ele>
        <time>2017-10-29T09:12:02Z</time>
      </trkpt>
      <trkpt lat="49.14027" lon="1.08136">
        <ele>190.7</ele>
        <time>2017-10-29T09:12:05Z</time>
      </trkpt>
      <trkpt lat="49.14019" lon="1.08142">
        <ele>190.4</ele>
        <time>2017-10-29T09:12:07Z</time>
      </trkpt>
      <trkpt lat="49.14011" lon="1.08152">
        <ele>190.1</ele>
        <time>2017-10-29T09:12:09Z</time>
      </trkpt>
      <trkpt lat="49.14002" lon="1.08163">
        <ele>189.8</ele>
        <time>2017-10-29T09:12:11Z</time>
      </trkpt>
      <trkpt lat="49.13994" lon="1.08172">
        <ele>189.3</ele>
        <time>2017-10-29T09:12:13Z</time>
      </trkpt>
      <trkpt lat="49.13988" lon="1.08185">
        <ele>188.6</ele>
        <time>2017-10-29T09:12:15Z</time>
      </trkpt>
      <trkpt lat="49.13984" lon="1.082">
        <ele>187.5</ele>
        <time>2017-10-29T09:12:17Z</time>
      </trkpt>
      <trkpt lat="49.13983" lon="1.08214">
        <ele>186.8</ele>
        <time>2017-10-29T09:12:19Z</time>
      </trkpt>
      <trkpt lat="49.13984" lon="1.08231">
        <ele>186.1</ele>
        <time>2017-10-29T09:12:21Z</time>
      </trkpt>
      <trkpt lat="49.13985" lon="1.08248">
        <ele>185.2</ele>
        <time>2017-10-29T09:12:23Z</time>
      </trkpt>
      <trkpt lat="49.13987" lon="1.08269">
        <ele>184.2</ele>
        <time>2017-10-29T09:12:25Z</time>
      </trkpt>
      <trkpt lat="49.13988" lon="1.08291">
        <ele>183</ele>
        <time>2017-10-29T09:12:27Z</time>
      </trkpt>
      <trkpt lat="49.13992" lon="1.08311">
        <ele>182.1</ele>
        <time>2017-10-29T09:12:29Z</time>
      </trkpt>
      <trkpt lat="49.13996" lon="1.0833">
        <ele>181</ele>
        <time>2017-10-29T09:12:31Z</time>
      </trkpt>
      <trkpt lat="49.14001" lon="1.08347">
        <ele>180</ele>
        <time>2017-10-29T09:12:33Z</time>
      </trkpt>
      <trkpt lat="49.14006" lon="1.08363">
        <ele>178.9</ele>
        <time>2017-10-29T09:12:35Z</time>
      </trkpt>
      <trkpt lat="49.1401" lon="1.0838">
        <ele>177.9</ele>
        <time>2017-10-29T09:12:37Z</time>
      </trkpt>
      <trkpt lat="49.14013" lon="1.08396">
        <ele>176.8</ele>
        <time>2017-10-29T09:12:39Z</time>
      </trkpt>
      <trkpt lat="49.14015" lon="1.08411">
        <ele>175.7</ele>
        <time>2017-10-29T09:12:41Z</time>
      </trkpt>
      <trkpt lat="49.14019" lon="1.08426">
        <ele>174.6</ele>
        <time>2017-10-29T09:12:43Z</time>
      </trkpt>
      <trkpt lat="49.14023" lon="1.08439">
        <ele>172.8</ele>
        <time>2017-10-29T09:12:45Z</time>
      </trkpt>
      <trkpt lat="49.14021" lon="1.08457">
        <ele>170.6</ele>
        <time>2017-10-29T09:12:48Z</time>
      </trkpt>
      <trkpt lat="49.1402" lon="1.08473">
        <ele>168.1</ele>
        <time>2017-10-29T09:12:52Z</time>
      </trkpt>
      <trkpt lat="49.1402" lon="1.08494">
        <ele>166.5</ele>
        <time>2017-10-29T09:12:55Z</time>
      </trkpt>
      <trkpt lat="49.14023" lon="1.08511">
        <ele>165.5</ele>
        <time>2017-10-29T09:12:57Z</time>
      </trkpt>
      <trkpt lat="49.14025" lon="1.08531">
        <ele>164.4</ele>
        <time>2017-10-29T09:12:59Z</time>
      </trkpt>
      <trkpt lat="49.14025" lon="1.0855">
        <ele>163</ele>
        <time>2017-10-29T09:13:01Z</time>
      </trkpt>
      <trkpt lat="49.14026" lon="1.08572">
        <ele>162</ele>
        <time>2017-10-29T09:13:03Z</time>
      </trkpt>
      <trkpt lat="49.14023" lon="1.08592">
        <ele>160.9</ele>
        <time>2017-10-29T09:13:05Z</time>
      </trkpt>
      <trkpt lat="49.14022" lon="1.08612">
        <ele>159.8</ele>
        <time>2017-10-29T09:13:07Z</time>
      </trkpt>
      <trkpt lat="49.14021" lon="1.08631">
        <ele>159.2</ele>
        <time>2017-10-29T09:13:09Z</time>
      </trkpt>
      <trkpt lat="49.14018" lon="1.08652">
        <ele>158.4</ele>
        <time>2017-10-29T09:13:11Z</time>
      </trkpt>
      <trkpt lat="49.14014" lon="1.0867">
        <ele>157.9</ele>
        <time>2017-10-29T09:13:13Z</time>
      </trkpt>
      <trkpt lat="49.14009" lon="1.0869">
        <ele>157.3</ele>
        <time>2017-10-29T09:13:15Z</time>
      </trkpt>
      <trkpt lat="49.14004" lon="1.08712">
        <ele>156.4</ele>
        <time>2017-10-29T09:13:17Z</time>
      </trkpt>
      <trkpt lat="49.13997" lon="1.08731">
        <ele>155.5</ele>
        <time>2017-10-29T09:13:19Z</time>
      </trkpt>
      <trkpt lat="49.1399" lon="1.08752">
        <ele>154.4</ele>
        <time>2017-10-29T09:13:21Z</time>
      </trkpt>
      <trkpt lat="49.13984" lon="1.08773">
        <ele>153.7</ele>
        <time>2017-10-29T09:13:23Z</time>
      </trkpt>
      <trkpt lat="49.13979" lon="1.08793">
        <ele>153.3</ele>
        <time>2017-10-29T09:13:25Z</time>
      </trkpt>
      <trkpt lat="49.13974" lon="1.0881">
        <ele>152.9</ele>
        <time>2017-10-29T09:13:27Z</time>
      </trkpt>
      <trkpt lat="49.13969" lon="1.0883">
        <ele>152.4</ele>
        <time>2017-10-29T09:13:29Z</time>
      </trkpt>
      <trkpt lat="49.13965" lon="1.08851">
        <ele>151.9</ele>
        <time>2017-10-29T09:13:31Z</time>
      </trkpt>
      <trkpt lat="49.13961" lon="1.08868">
        <ele>151.4</ele>
        <time>2017-10-29T09:13:33Z</time>
      </trkpt>
      <trkpt lat="49.13957" lon="1.08881">
        <ele>150.7</ele>
        <time>2017-10-29T09:13:35Z</time>
      </trkpt>
      <trkpt lat="49.13952" lon="1.08899">
        <ele>148.7</ele>
        <time>2017-10-29T09:13:40Z</time>
      </trkpt>
      <trkpt lat="49.13944" lon="1.0891">
        <ele>147.6</ele>
        <time>2017-10-29T09:13:44Z</time>
      </trkpt>
      <trkpt lat="49.13935" lon="1.0892">
        <ele>146.6</ele>
        <time>2017-10-29T09:13:47Z</time>
      </trkpt>
      <trkpt lat="49.13926" lon="1.08928">
        <ele>145.3</ele>
        <time>2017-10-29T09:13:49Z</time>
      </trkpt>
      <trkpt lat="49.13917" lon="1.08937">
        <ele>144.1</ele>
        <time>2017-10-29T09:13:51Z</time>
      </trkpt>
      <trkpt lat="49.13908" lon="1.08938">
        <ele>142.9</ele>
        <time>2017-10-29T09:13:53Z</time>
      </trkpt>
      <trkpt lat="49.13896" lon="1.08929">
        <ele>140.9</ele>
        <time>2017-10-29T09:13:56Z</time>
      </trkpt>
      <trkpt lat="49.13891" lon="1.08917">
        <ele>139.4</ele>
        <time>2017-10-29T09:13:58Z</time>
      </trkpt>
      <trkpt lat="49.13882" lon="1.08901">
        <ele>137.7</ele>
        <time>2017-10-29T09:14:01Z</time>
      </trkpt>
      <trkpt lat="49.13876" lon="1.08887">
        <ele>136.1</ele>
        <time>2017-10-29T09:14:04Z</time>
      </trkpt>
      <trkpt lat="49.1387" lon="1.08867">
        <ele>134</ele>
        <time>2017-10-29T09:14:07Z</time>
      </trkpt>
      <trkpt lat="49.13857" lon="1.08849">
        <ele>133.1</ele>
        <time>2017-10-29T09:14:09Z</time>
      </trkpt>
      <trkpt lat="49.13845" lon="1.0883">
        <ele>132.6</ele>
        <time>2017-10-29T09:14:11Z</time>
      </trkpt>
      <trkpt lat="49.13831" lon="1.08812">
        <ele>132</ele>
        <time>2017-10-29T09:14:13Z</time>
      </trkpt>
      <trkpt lat="49.13821" lon="1.08795">
        <ele>131.5</ele>
        <time>2017-10-29T09:14:15Z</time>
      </trkpt>
      <trkpt lat="49.1381" lon="1.08781">
        <ele>131</ele>
        <time>2017-10-29T09:14:17Z</time>
      </trkpt>
      <trkpt lat="49.13801" lon="1.08766">
        <ele>130.5</ele>
        <time>2017-10-29T09:14:19Z</time>
      </trkpt>
      <trkpt lat="49.13795" lon="1.08751">
        <ele>130.2</ele>
        <time>2017-10-29T09:14:21Z</time>
      </trkpt>
      <trkpt lat="49.13789" lon="1.08739">
        <ele>130</ele>
        <time>2017-10-29T09:14:23Z</time>
      </trkpt>
      <trkpt lat="49.13786" lon="1.08724">
        <ele>130.1</ele>
        <time>2017-10-29T09:14:25Z</time>
      </trkpt>
      <trkpt lat="49.13784" lon="1.08706">
        <ele>130.4</ele>
        <time>2017-10-29T09:14:28Z</time>
      </trkpt>
      <trkpt lat="49.13782" lon="1.08689">
        <ele>130.4</ele>
        <time>2017-10-29T09:14:31Z</time>
      </trkpt>
      <trkpt lat="49.1378" lon="1.08674">
        <ele>130.2</ele>
        <time>2017-10-29T09:14:34Z</time>
      </trkpt>
      <trkpt lat="49.13777" lon="1.08654">
        <ele>130.1</ele>
        <time>2017-10-29T09:14:38Z</time>
      </trkpt>
      <trkpt lat="49.13772" lon="1.08642">
        <ele>130.2</ele>
        <time>2017-10-29T09:14:41Z</time>
      </trkpt>
      <trkpt lat="49.13764" lon="1.08632">
        <ele>130.2</ele>
        <time>2017-10-29T09:14:43Z</time>
      </trkpt>
      <trkpt lat="49.13756" lon="1.08617">
        <ele>130</ele>
        <time>2017-10-29T09:14:46Z</time>
      </trkpt>
      <trkpt lat="49.1375" lon="1.086">
        <ele>129.8</ele>
        <time>2017-10-29T09:14:49Z</time>
      </trkpt>
      <trkpt lat="49.13743" lon="1.08584">
        <ele>129.1</ele>
        <time>2017-10-29T09:14:52Z</time>
      </trkpt>
      <trkpt lat="49.13736" lon="1.08573">
        <ele>128.1</ele>
        <time>2017-10-29T09:14:55Z</time>
      </trkpt>
      <trkpt lat="49.13725" lon="1.08558">
        <ele>127.4</ele>
        <time>2017-10-29T09:14:57Z</time>
      </trkpt>
      <trkpt lat="49.13714" lon="1.08545">
        <ele>126.9</ele>
        <time>2017-10-29T09:14:59Z</time>
      </trkpt>
      <trkpt lat="49.13705" lon="1.08537">
        <ele>126.1</ele>
        <time>2017-10-29T09:15:01Z</time>
      </trkpt>
      <trkpt lat="49.13696" lon="1.08531">
        <ele>124.7</ele>
        <time>2017-10-29T09:15:04Z</time>
      </trkpt>
      <trkpt lat="49.13686" lon="1.08525">
        <ele>123.9</ele>
        <time>2017-10-29T09:15:06Z</time>
      </trkpt>
      <trkpt lat="49.13676" lon="1.08517">
        <ele>121.4</ele>
        <time>2017-10-29T09:15:10Z</time>
      </trkpt>
      <trkpt lat="49.13666" lon="1.08517">
        <ele>119.9</ele>
        <time>2017-10-29T09:15:13Z</time>
      </trkpt>
      <trkpt lat="49.13656" lon="1.08513">
        <ele>119</ele>
        <time>2017-10-29T09:15:16Z</time>
      </trkpt>
      <trkpt lat="49.13644" lon="1.08512">
        <ele>117.3</ele>
        <time>2017-10-29T09:15:20Z</time>
      </trkpt>
      <trkpt lat="49.13634" lon="1.08523">
        <ele>115.9</ele>
        <time>2017-10-29T09:15:23Z</time>
      </trkpt>
      <trkpt lat="49.13622" lon="1.08533">
        <ele>113.9</ele>
        <time>2017-10-29T09:15:26Z</time>
      </trkpt>
      <trkpt lat="49.13614" lon="1.08541">
        <ele>112.5</ele>
        <time>2017-10-29T09:15:28Z</time>
      </trkpt>
      <trkpt lat="49.13605" lon="1.08549">
        <ele>111.4</ele>
        <time>2017-10-29T09:15:30Z</time>
      </trkpt>
      <trkpt lat="49.13597" lon="1.08556">
        <ele>109.1</ele>
        <time>2017-10-29T09:15:33Z</time>
      </trkpt>
      <trkpt lat="49.13587" lon="1.08567">
        <ele>106.8</ele>
        <time>2017-10-29T09:15:38Z</time>
      </trkpt>
      <trkpt lat="49.1358" lon="1.08576">
        <ele>104.2</ele>
        <time>2017-10-29T09:15:52Z</time>
      </trkpt>
      <trkpt lat="49.13571" lon="1.08582">
        <ele>104.1</ele>
        <time>2017-10-29T09:16:08Z</time>
      </trkpt>
      <trkpt lat="49.13563" lon="1.08593">
        <ele>104.1</ele>
        <time>2017-10-29T09:16:14Z</time>
      </trkpt>
      <trkpt lat="49.13553" lon="1.08596">
        <ele>103.8</ele>
        <time>2017-10-29T09:16:17Z</time>
      </trkpt>
      <trkpt lat="49.13544" lon="1.08597">
        <ele>103.6</ele>
        <time>2017-10-29T09:16:20Z</time>
      </trkpt>
      <trkpt lat="49.13533" lon="1.08597">
        <ele>103.5</ele>
        <time>2017-10-29T09:16:22Z</time>
      </trkpt>
      <trkpt lat="49.13521" lon="1.08596">
        <ele>103.3</ele>
        <time>2017-10-29T09:16:25Z</time>
      </trkpt>
      <trkpt lat="49.13508" lon="1.08591">
        <ele>103.1</ele>
        <time>2017-10-29T09:16:27Z</time>
      </trkpt>
      <trkpt lat="49.13496" lon="1.08588">
        <ele>103.1</ele>
        <time>2017-10-29T09:16:30Z</time>
      </trkpt>
      <trkpt lat="49.13483" lon="1.08578">
        <ele>103.1</ele>
        <time>2017-10-29T09:16:33Z</time>
      </trkpt>
      <trkpt lat="49.13472" lon="1.08574">
        <ele>103</ele>
        <time>2017-10-29T09:16:35Z</time>
      </trkpt>
      <trkpt lat="49.13462" lon="1.08569">
        <ele>103</ele>
        <time>2017-10-29T09:16:37Z</time>
      </trkpt>
      <trkpt lat="49.13451" lon="1.08563">
        <ele>103</ele>
        <time>2017-10-29T09:16:39Z</time>
      </trkpt>
      <trkpt lat="49.13441" lon="1.08558">
        <ele>103</ele>
        <time>2017-10-29T09:16:41Z</time>
      </trkpt>
      <trkpt lat="49.13432" lon="1.08552">
        <ele>103</ele>
        <time>2017-10-29T09:16:43Z</time>
      </trkpt>
      <trkpt lat="49.13423" lon="1.08545">
        <ele>102.9</ele>
        <time>2017-10-29T09:16:45Z</time>
      </trkpt>
      <trkpt lat="49.13414" lon="1.08538">
        <ele>102.8</ele>
        <time>2017-10-29T09:16:47Z</time>
      </trkpt>
      <trkpt lat="49.13405" lon="1.08531">
        <ele>102.8</ele>
        <time>2017-10-29T09:16:49Z</time>
      </trkpt>
      <trkpt lat="49.13396" lon="1.08523">
        <ele>102.6</ele>
        <time>2017-10-29T09:16:51Z</time>
      </trkpt>
      <trkpt lat="49.13387" lon="1.08516">
        <ele>102.5</ele>
        <time>2017-10-29T09:16:53Z</time>
      </trkpt>
      <trkpt lat="49.13379" lon="1.08509">
        <ele>102.4</ele>
        <time>2017-10-29T09:16:55Z</time>
      </trkpt>
      <trkpt lat="49.1337" lon="1.08502">
        <ele>102.4</ele>
        <time>2017-10-29T09:16:57Z</time>
      </trkpt>
      <trkpt lat="49.13362" lon="1.08496">
        <ele>102.5</ele>
        <time>2017-10-29T09:16:59Z</time>
      </trkpt>
      <trkpt lat="49.13353" lon="1.08489">
        <ele>102.5</ele>
        <time>2017-10-29T09:17:01Z</time>
      </trkpt>
      <trkpt lat="49.13345" lon="1.08482">
        <ele>102.4</ele>
        <time>2017-10-29T09:17:03Z</time>
      </trkpt>
      <trkpt lat="49.13337" lon="1.08475">
        <ele>102.5</ele>
        <time>2017-10-29T09:17:05Z</time>
      </trkpt>
      <trkpt lat="49.13328" lon="1.0847">
        <ele>102.5</ele>
        <time>2017-10-29T09:17:07Z</time>
      </trkpt>
      <trkpt lat="49.13318" lon="1.08464">
        <ele>102.6</ele>
        <time>2017-10-29T09:17:09Z</time>
      </trkpt>
      <trkpt lat="49.13309" lon="1.0846">
        <ele>102.8</ele>
        <time>2017-10-29T09:17:11Z</time>
      </trkpt>
      <trkpt lat="49.13299" lon="1.08456">
        <ele>103</ele>
        <time>2017-10-29T09:17:13Z</time>
      </trkpt>
      <trkpt lat="49.1329" lon="1.08453">
        <ele>103.4</ele>
        <time>2017-10-29T09:17:15Z</time>
      </trkpt>
      <trkpt lat="49.13279" lon="1.08453">
        <ele>103.7</ele>
        <time>2017-10-29T09:17:18Z</time>
      </trkpt>
      <trkpt lat="49.13267" lon="1.08454">
        <ele>104.1</ele>
        <time>2017-10-29T09:17:21Z</time>
      </trkpt>
      <trkpt lat="49.13254" lon="1.08458">
        <ele>104.3</ele>
        <time>2017-10-29T09:17:24Z</time>
      </trkpt>
      <trkpt lat="49.13245" lon="1.08462">
        <ele>104.6</ele>
        <time>2017-10-29T09:17:26Z</time>
      </trkpt>
      <trkpt lat="49.13237" lon="1.08468">
        <ele>104.7</ele>
        <time>2017-10-29T09:17:28Z</time>
      </trkpt>
      <trkpt lat="49.13226" lon="1.08475">
        <ele>104.4</ele>
        <time>2017-10-29T09:17:30Z</time>
      </trkpt>
      <trkpt lat="49.13219" lon="1.08485">
        <ele>104</ele>
        <time>2017-10-29T09:17:32Z</time>
      </trkpt>
      <trkpt lat="49.13212" lon="1.085">
        <ele>103.6</ele>
        <time>2017-10-29T09:17:35Z</time>
      </trkpt>
      <trkpt lat="49.13205" lon="1.08512">
        <ele>103.3</ele>
        <time>2017-10-29T09:17:37Z</time>
      </trkpt>
      <trkpt lat="49.132" lon="1.08524">
        <ele>103.2</ele>
        <time>2017-10-29T09:17:39Z</time>
      </trkpt>
      <trkpt lat="49.13193" lon="1.08539">
        <ele>103</ele>
        <time>2017-10-29T09:17:41Z</time>
      </trkpt>
      <trkpt lat="49.13188" lon="1.08554">
        <ele>102.8</ele>
        <time>2017-10-29T09:17:43Z</time>
      </trkpt>
      <trkpt lat="49.13186" lon="1.08569">
        <ele>102.8</ele>
        <time>2017-10-29T09:17:45Z</time>
      </trkpt>
      <trkpt lat="49.13183" lon="1.08589">
        <ele>102.5</ele>
        <time>2017-10-29T09:17:48Z</time>
      </trkpt>
      <trkpt lat="49.13181" lon="1.08605">
        <ele>102.4</ele>
        <time>2017-10-29T09:17:50Z</time>
      </trkpt>
      <trkpt lat="49.13179" lon="1.08621">
        <ele>102.1</ele>
        <time>2017-10-29T09:17:52Z</time>
      </trkpt>
      <trkpt lat="49.13175" lon="1.08636">
        <ele>101.9</ele>
        <time>2017-10-29T09:17:54Z</time>
      </trkpt>
      <trkpt lat="49.13173" lon="1.08652">
        <ele>101.8</ele>
        <time>2017-10-29T09:17:56Z</time>
      </trkpt>
      <trkpt lat="49.13169" lon="1.08668">
        <ele>101.4</ele>
        <time>2017-10-29T09:17:58Z</time>
      </trkpt>
      <trkpt lat="49.13167" lon="1.08685">
        <ele>101.2</ele>
        <time>2017-10-29T09:18:00Z</time>
      </trkpt>
      <trkpt lat="49.13164" lon="1.08701">
        <ele>101.1</ele>
        <time>2017-10-29T09:18:02Z</time>
      </trkpt>
      <trkpt lat="49.13161" lon="1.08719">
        <ele>101</ele>
        <time>2017-10-29T09:18:04Z</time>
      </trkpt>
      <trkpt lat="49.1316" lon="1.08739">
        <ele>100.7</ele>
        <time>2017-10-29T09:18:06Z</time>
      </trkpt>
      <trkpt lat="49.13158" lon="1.08755">
        <ele>100.5</ele>
        <time>2017-10-29T09:18:08Z</time>
      </trkpt>
      <trkpt lat="49.13156" lon="1.08774">
        <ele>100.2</ele>
        <time>2017-10-29T09:18:10Z</time>
      </trkpt>
      <trkpt lat="49.13152" lon="1.0879">
        <ele>99.8</ele>
        <time>2017-10-29T09:18:12Z</time>
      </trkpt>
      <trkpt lat="49.13147" lon="1.08808">
        <ele>99.5</ele>
        <time>2017-10-29T09:18:14Z</time>
      </trkpt>
      <trkpt lat="49.1314" lon="1.08825">
        <ele>99.2</ele>
        <time>2017-10-29T09:18:16Z</time>
      </trkpt>
      <trkpt lat="49.13134" lon="1.08843">
        <ele>99</ele>
        <time>2017-10-29T09:18:18Z</time>
      </trkpt>
      <trkpt lat="49.13126" lon="1.08858">
        <ele>98.8</ele>
        <time>2017-10-29T09:18:20Z</time>
      </trkpt>
      <trkpt lat="49.13122" lon="1.08875">
        <ele>99</ele>
        <time>2017-10-29T09:18:22Z</time>
      </trkpt>
      <trkpt lat="49.13116" lon="1.08891">
        <ele>98.9</ele>
        <time>2017-10-29T09:18:24Z</time>
      </trkpt>
      <trkpt lat="49.13108" lon="1.08907">
        <ele>98.9</ele>
        <time>2017-10-29T09:18:26Z</time>
      </trkpt>
      <trkpt lat="49.13103" lon="1.08923">
        <ele>98.7</ele>
        <time>2017-10-29T09:18:28Z</time>
      </trkpt>
      <trkpt lat="49.13097" lon="1.08939">
        <ele>98.5</ele>
        <time>2017-10-29T09:18:30Z</time>
      </trkpt>
      <trkpt lat="49.1309" lon="1.08955">
        <ele>98.4</ele>
        <time>2017-10-29T09:18:32Z</time>
      </trkpt>
      <trkpt lat="49.13084" lon="1.08971">
        <ele>98.2</ele>
        <time>2017-10-29T09:18:34Z</time>
      </trkpt>
      <trkpt lat="49.13075" lon="1.08984">
        <ele>97.9</ele>
        <time>2017-10-29T09:18:36Z</time>
      </trkpt>
      <trkpt lat="49.13069" lon="1.09">
        <ele>97.8</ele>
        <time>2017-10-29T09:18:38Z</time>
      </trkpt>
      <trkpt lat="49.13065" lon="1.09013">
        <ele>97.7</ele>
        <time>2017-10-29T09:18:40Z</time>
      </trkpt>
      <trkpt lat="49.13058" lon="1.09022">
        <ele>97.6</ele>
        <time>2017-10-29T09:18:43Z</time>
      </trkpt>
      <trkpt lat="49.1305" lon="1.09038">
        <ele>97.4</ele>
        <time>2017-10-29T09:18:46Z</time>
      </trkpt>
      <trkpt lat="49.13041" lon="1.0905">
        <ele>97.4</ele>
        <time>2017-10-29T09:18:49Z</time>
      </trkpt>
      <trkpt lat="49.13029" lon="1.09061">
        <ele>97.2</ele>
        <time>2017-10-29T09:18:52Z</time>
      </trkpt>
      <trkpt lat="49.13021" lon="1.09073">
        <ele>97.3</ele>
        <time>2017-10-29T09:18:55Z</time>
      </trkpt>
      <trkpt lat="49.13013" lon="1.09086">
        <ele>97.2</ele>
        <time>2017-10-29T09:18:58Z</time>
      </trkpt>
      <trkpt lat="49.13007" lon="1.09098">
        <ele>97.3</ele>
        <time>2017-10-29T09:19:00Z</time>
      </trkpt>
      <trkpt lat="49.12999" lon="1.09114">
        <ele>97.3</ele>
        <time>2017-10-29T09:19:03Z</time>
      </trkpt>
      <trkpt lat="49.12993" lon="1.09127">
        <ele>97.4</ele>
        <time>2017-10-29T09:19:05Z</time>
      </trkpt>
      <trkpt lat="49.12984" lon="1.0914">
        <ele>97.7</ele>
        <time>2017-10-29T09:19:08Z</time>
      </trkpt>
      <trkpt lat="49.12976" lon="1.09153">
        <ele>97.8</ele>
        <time>2017-10-29T09:19:11Z</time>
      </trkpt>
      <trkpt lat="49.12967" lon="1.0917">
        <ele>97.7</ele>
        <time>2017-10-29T09:19:14Z</time>
      </trkpt>
      <trkpt lat="49.12959" lon="1.09182">
        <ele>97.5</ele>
        <time>2017-10-29T09:19:16Z</time>
      </trkpt>
      <trkpt lat="49.12953" lon="1.09194">
        <ele>97.3</ele>
        <time>2017-10-29T09:19:19Z</time>
      </trkpt>
      <trkpt lat="49.12945" lon="1.09206">
        <ele>97.3</ele>
        <time>2017-10-29T09:19:22Z</time>
      </trkpt>
      <trkpt lat="49.1294" lon="1.09218">
        <ele>97.1</ele>
        <time>2017-10-29T09:19:26Z</time>
      </trkpt>
      <trkpt lat="49.12939" lon="1.09233">
        <ele>96.6</ele>
        <time>2017-10-29T09:19:34Z</time>
      </trkpt>
      <trkpt lat="49.12936" lon="1.09247">
        <ele>96.5</ele>
        <time>2017-10-29T09:20:01Z</time>
      </trkpt>
      <trkpt lat="49.12929" lon="1.09256">
        <ele>96.4</ele>
        <time>2017-10-29T09:20:06Z</time>
      </trkpt>
      <trkpt lat="49.1292" lon="1.09267">
        <ele>96.2</ele>
        <time>2017-10-29T09:20:10Z</time>
      </trkpt>
      <trkpt lat="49.12913" lon="1.09278">
        <ele>96.2</ele>
        <time>2017-10-29T09:20:13Z</time>
      </trkpt>
      <trkpt lat="49.12907" lon="1.09289">
        <ele>96.3</ele>
        <time>2017-10-29T09:20:16Z</time>
      </trkpt>
      <trkpt lat="49.12901" lon="1.09306">
        <ele>96.3</ele>
        <time>2017-10-29T09:20:19Z</time>
      </trkpt>
      <trkpt lat="49.12896" lon="1.09323">
        <ele>96.4</ele>
        <time>2017-10-29T09:20:22Z</time>
      </trkpt>
      <trkpt lat="49.12891" lon="1.0934">
        <ele>96.6</ele>
        <time>2017-10-29T09:20:25Z</time>
      </trkpt>
      <trkpt lat="49.12886" lon="1.09358">
        <ele>96.4</ele>
        <time>2017-10-29T09:20:28Z</time>
      </trkpt>
      <trkpt lat="49.12885" lon="1.09373">
        <ele>96.3</ele>
        <time>2017-10-29T09:20:31Z</time>
      </trkpt>
      <trkpt lat="49.12879" lon="1.0939">
        <ele>96.3</ele>
        <time>2017-10-29T09:20:34Z</time>
      </trkpt>
      <trkpt lat="49.12874" lon="1.09403">
        <ele>96.3</ele>
        <time>2017-10-29T09:20:36Z</time>
      </trkpt>
      <trkpt lat="49.12868" lon="1.09419">
        <ele>96.1</ele>
        <time>2017-10-29T09:20:39Z</time>
      </trkpt>
      <trkpt lat="49.12867" lon="1.09433">
        <ele>96</ele>
        <time>2017-10-29T09:20:41Z</time>
      </trkpt>
      <trkpt lat="49.12865" lon="1.09453">
        <ele>95.8</ele>
        <time>2017-10-29T09:20:44Z</time>
      </trkpt>
      <trkpt lat="49.12862" lon="1.09468">
        <ele>95.7</ele>
        <time>2017-10-29T09:20:46Z</time>
      </trkpt>
      <trkpt lat="49.1286" lon="1.09481">
        <ele>95.6</ele>
        <time>2017-10-29T09:20:48Z</time>
      </trkpt>
      <trkpt lat="49.12857" lon="1.09501">
        <ele>95.3</ele>
        <time>2017-10-29T09:20:51Z</time>
      </trkpt>
      <trkpt lat="49.12856" lon="1.09517">
        <ele>95.1</ele>
        <time>2017-10-29T09:20:54Z</time>
      </trkpt>
      <trkpt lat="49.12856" lon="1.09537">
        <ele>95</ele>
        <time>2017-10-29T09:20:57Z</time>
      </trkpt>
      <trkpt lat="49.12858" lon="1.09558">
        <ele>95.3</ele>
        <time>2017-10-29T09:21:00Z</time>
      </trkpt>
      <trkpt lat="49.12859" lon="1.09574">
        <ele>95.4</ele>
        <time>2017-10-29T09:21:02Z</time>
      </trkpt>
      <trkpt lat="49.1286" lon="1.0959">
        <ele>95.3</ele>
        <time>2017-10-29T09:21:04Z</time>
      </trkpt>
      <trkpt lat="49.12859" lon="1.09608">
        <ele>95.2</ele>
        <time>2017-10-29T09:21:06Z</time>
      </trkpt>
      <trkpt lat="49.12858" lon="1.09624">
        <ele>94.8</ele>
        <time>2017-10-29T09:21:08Z</time>
      </trkpt>
      <trkpt lat="49.12855" lon="1.09644">
        <ele>94.4</ele>
        <time>2017-10-29T09:21:11Z</time>
      </trkpt>
      <trkpt lat="49.12856" lon="1.09658">
        <ele>94.1</ele>
        <time>2017-10-29T09:21:13Z</time>
      </trkpt>
      <trkpt lat="49.12859" lon="1.09678">
        <ele>94.1</ele>
        <time>2017-10-29T09:21:16Z</time>
      </trkpt>
      <trkpt lat="49.12861" lon="1.09694">
        <ele>94</ele>
        <time>2017-10-29T09:21:19Z</time>
      </trkpt>
      <trkpt lat="49.12865" lon="1.09708">
        <ele>94.2</ele>
        <time>2017-10-29T09:21:22Z</time>
      </trkpt>
      <trkpt lat="49.12867" lon="1.09724">
        <ele>94.1</ele>
        <time>2017-10-29T09:21:25Z</time>
      </trkpt>
      <trkpt lat="49.12868" lon="1.09738">
        <ele>94.1</ele>
        <time>2017-10-29T09:21:28Z</time>
      </trkpt>
      <trkpt lat="49.1287" lon="1.09754">
        <ele>94.1</ele>
        <time>2017-10-29T09:21:32Z</time>
      </trkpt>
      <trkpt lat="49.12869" lon="1.09771">
        <ele>93.8</ele>
        <time>2017-10-29T09:21:36Z</time>
      </trkpt>
      <trkpt lat="49.1287" lon="1.09785">
        <ele>93.7</ele>
        <time>2017-10-29T09:21:38Z</time>
      </trkpt>
      <trkpt lat="49.12868" lon="1.09805">
        <ele>93.7</ele>
        <time>2017-10-29T09:21:41Z</time>
      </trkpt>
      <trkpt lat="49.12867" lon="1.09825">
        <ele>93.8</ele>
        <time>2017-10-29T09:21:44Z</time>
      </trkpt>
      <trkpt lat="49.12864" lon="1.09846">
        <ele>93.8</ele>
        <time>2017-10-29T09:21:47Z</time>
      </trkpt>
      <trkpt lat="49.12862" lon="1.09861">
        <ele>93.8</ele>
        <time>2017-10-29T09:21:49Z</time>
      </trkpt>
      <trkpt lat="49.1286" lon="1.09875">
        <ele>93.8</ele>
        <time>2017-10-29T09:21:51Z</time>
      </trkpt>
      <trkpt lat="49.12857" lon="1.09895">
        <ele>94</ele>
        <time>2017-10-29T09:21:54Z</time>
      </trkpt>
      <trkpt lat="49.12853" lon="1.09914">
        <ele>93.8</ele>
        <time>2017-10-29T09:21:57Z</time>
      </trkpt>
      <trkpt lat="49.12848" lon="1.0993">
        <ele>93.8</ele>
        <time>2017-10-29T09:22:00Z</time>
      </trkpt>
      <trkpt lat="49.12844" lon="1.09945">
        <ele>93.8</ele>
        <time>2017-10-29T09:22:03Z</time>
      </trkpt>
      <trkpt lat="49.12841" lon="1.0996">
        <ele>93.6</ele>
        <time>2017-10-29T09:22:06Z</time>
      </trkpt>
      <trkpt lat="49.12835" lon="1.09974">
        <ele>93.5</ele>
        <time>2017-10-29T09:22:09Z</time>
      </trkpt>
      <trkpt lat="49.12825" lon="1.09983">
        <ele>93</ele>
        <time>2017-10-29T09:22:12Z</time>
      </trkpt>
      <trkpt lat="49.12812" lon="1.09983">
        <ele>92.8</ele>
        <time>2017-10-29T09:22:15Z</time>
      </trkpt>
      <trkpt lat="49.12803" lon="1.09979">
        <ele>92.8</ele>
        <time>2017-10-29T09:22:17Z</time>
      </trkpt>
      <trkpt lat="49.12794" lon="1.09973">
        <ele>92.7</ele>
        <time>2017-10-29T09:22:19Z</time>
      </trkpt>
      <trkpt lat="49.12783" lon="1.09963">
        <ele>92.7</ele>
        <time>2017-10-29T09:22:22Z</time>
      </trkpt>
      <trkpt lat="49.12774" lon="1.09952">
        <ele>92.6</ele>
        <time>2017-10-29T09:22:25Z</time>
      </trkpt>
      <trkpt lat="49.12765" lon="1.09939">
        <ele>92.4</ele>
        <time>2017-10-29T09:22:28Z</time>
      </trkpt>
      <trkpt lat="49.12756" lon="1.09925">
        <ele>92.2</ele>
        <time>2017-10-29T09:22:31Z</time>
      </trkpt>
      <trkpt lat="49.12748" lon="1.09909">
        <ele>92.2</ele>
        <time>2017-10-29T09:22:34Z</time>
      </trkpt>
      <trkpt lat="49.1274" lon="1.09894">
        <ele>92.1</ele>
        <time>2017-10-29T09:22:37Z</time>
      </trkpt>
      <trkpt lat="49.12732" lon="1.09877">
        <ele>91.9</ele>
        <time>2017-10-29T09:22:40Z</time>
      </trkpt>
      <trkpt lat="49.12726" lon="1.09866">
        <ele>92</ele>
        <time>2017-10-29T09:22:42Z</time>
      </trkpt>
      <trkpt lat="49.1272" lon="1.09854">
        <ele>91.9</ele>
        <time>2017-10-29T09:22:44Z</time>
      </trkpt>
      <trkpt lat="49.12713" lon="1.09842">
        <ele>91.7</ele>
        <time>2017-10-29T09:22:46Z</time>
      </trkpt>
      <trkpt lat="49.12705" lon="1.09832">
        <ele>91.4</ele>
        <time>2017-10-29T09:22:48Z</time>
      </trkpt>
      <trkpt lat="49.12697" lon="1.09824">
        <ele>91.5</ele>
        <time>2017-10-29T09:22:50Z</time>
      </trkpt>
      <trkpt lat="49.12688" lon="1.09815">
        <ele>91.4</ele>
        <time>2017-10-29T09:22:52Z</time>
      </trkpt>
      <trkpt lat="49.12678" lon="1.09807">
        <ele>91.2</ele>
        <time>2017-10-29T09:22:54Z</time>
      </trkpt>
      <trkpt lat="49.12669" lon="1.09799">
        <ele>91</ele>
        <time>2017-10-29T09:22:56Z</time>
      </trkpt>
      <trkpt lat="49.12661" lon="1.0979">
        <ele>90.9</ele>
        <time>2017-10-29T09:22:58Z</time>
      </trkpt>
      <trkpt lat="49.12653" lon="1.0978">
        <ele>90.9</ele>
        <time>2017-10-29T09:23:00Z</time>
      </trkpt>
      <trkpt lat="49.12645" lon="1.0977">
        <ele>90.9</ele>
        <time>2017-10-29T09:23:02Z</time>
      </trkpt>
      <trkpt lat="49.12638" lon="1.0976">
        <ele>90.9</ele>
        <time>2017-10-29T09:23:04Z</time>
      </trkpt>
      <trkpt lat="49.1263" lon="1.09751">
        <ele>90.8</ele>
        <time>2017-10-29T09:23:06Z</time>
      </trkpt>
      <trkpt lat="49.12623" lon="1.09742">
        <ele>90.8</ele>
        <time>2017-10-29T09:23:08Z</time>
      </trkpt>
      <trkpt lat="49.12615" lon="1.09732">
        <ele>90.9</ele>
        <time>2017-10-29T09:23:10Z</time>
      </trkpt>
      <trkpt lat="49.12607" lon="1.09723">
        <ele>91</ele>
        <time>2017-10-29T09:23:12Z</time>
      </trkpt>
      <trkpt lat="49.12598" lon="1.09714">
        <ele>91</ele>
        <time>2017-10-29T09:23:14Z</time>
      </trkpt>
      <trkpt lat="49.12589" lon="1.09706">
        <ele>91</ele>
        <time>2017-10-29T09:23:16Z</time>
      </trkpt>
      <trkpt lat="49.1258" lon="1.09698">
        <ele>90.9</ele>
        <time>2017-10-29T09:23:18Z</time>
      </trkpt>
      <trkpt lat="49.1257" lon="1.09692">
        <ele>90.8</ele>
        <time>2017-10-29T09:23:20Z</time>
      </trkpt>
      <trkpt lat="49.1256" lon="1.09686">
        <ele>90.6</ele>
        <time>2017-10-29T09:23:22Z</time>
      </trkpt>
      <trkpt lat="49.12551" lon="1.09682">
        <ele>90.4</ele>
        <time>2017-10-29T09:23:24Z</time>
      </trkpt>
      <trkpt lat="49.12541" lon="1.09678">
        <ele>90.2</ele>
        <time>2017-10-29T09:23:26Z</time>
      </trkpt>
      <trkpt lat="49.12531" lon="1.09675">
        <ele>90.2</ele>
        <time>2017-10-29T09:23:28Z</time>
      </trkpt>
      <trkpt lat="49.1252" lon="1.09673">
        <ele>90.2</ele>
        <time>2017-10-29T09:23:30Z</time>
      </trkpt>
      <trkpt lat="49.12509" lon="1.09673">
        <ele>90</ele>
        <time>2017-10-29T09:23:32Z</time>
      </trkpt>
      <trkpt lat="49.12499" lon="1.09675">
        <ele>89.9</ele>
        <time>2017-10-29T09:23:34Z</time>
      </trkpt>
      <trkpt lat="49.12488" lon="1.09679">
        <ele>89.5</ele>
        <time>2017-10-29T09:23:36Z</time>
      </trkpt>
      <trkpt lat="49.12479" lon="1.09685">
        <ele>89.5</ele>
        <time>2017-10-29T09:23:38Z</time>
      </trkpt>
      <trkpt lat="49.1247" lon="1.09693">
        <ele>89.5</ele>
        <time>2017-10-29T09:23:40Z</time>
      </trkpt>
      <trkpt lat="49.12461" lon="1.09702">
        <ele>89.5</ele>
        <time>2017-10-29T09:23:42Z</time>
      </trkpt>
      <trkpt lat="49.12453" lon="1.09711">
        <ele>89.5</ele>
        <time>2017-10-29T09:23:44Z</time>
      </trkpt>
      <trkpt lat="49.12445" lon="1.09721">
        <ele>89.5</ele>
        <time>2017-10-29T09:23:46Z</time>
      </trkpt>
      <trkpt lat="49.12438" lon="1.09733">
        <ele>89.5</ele>
        <time>2017-10-29T09:23:48Z</time>
      </trkpt>
      <trkpt lat="49.12432" lon="1.09745">
        <ele>89.4</ele>
        <time>2017-10-29T09:23:50Z</time>
      </trkpt>
      <trkpt lat="49.12426" lon="1.09759">
        <ele>89.4</ele>
        <time>2017-10-29T09:23:52Z</time>
      </trkpt>
      <trkpt lat="49.12421" lon="1.09773">
        <ele>89.3</ele>
        <time>2017-10-29T09:23:54Z</time>
      </trkpt>
      <trkpt lat="49.12416" lon="1.09787">
        <ele>89.2</ele>
        <time>2017-10-29T09:23:56Z</time>
      </trkpt>
      <trkpt lat="49.12412" lon="1.09802">
        <ele>89.2</ele>
        <time>2017-10-29T09:23:58Z</time>
      </trkpt>
      <trkpt lat="49.12409" lon="1.09817">
        <ele>89.2</ele>
        <time>2017-10-29T09:24:00Z</time>
      </trkpt>
      <trkpt lat="49.12406" lon="1.09831">
        <ele>89</ele>
        <time>2017-10-29T09:24:02Z</time>
      </trkpt>
      <trkpt lat="49.12404" lon="1.09846">
        <ele>88.8</ele>
        <time>2017-10-29T09:24:04Z</time>
      </trkpt>
      <trkpt lat="49.12402" lon="1.09861">
        <ele>88.7</ele>
        <time>2017-10-29T09:24:06Z</time>
      </trkpt>
      <trkpt lat="49.124" lon="1.09876">
        <ele>88.6</ele>
        <time>2017-10-29T09:24:08Z</time>
      </trkpt>
      <trkpt lat="49.12398" lon="1.09891">
        <ele>88.6</ele>
        <time>2017-10-29T09:24:10Z</time>
      </trkpt>
      <trkpt lat="49.12396" lon="1.09906">
        <ele>88.6</ele>
        <time>2017-10-29T09:24:12Z</time>
      </trkpt>
      <trkpt lat="49.12393" lon="1.09921">
        <ele>88.6</ele>
        <time>2017-10-29T09:24:14Z</time>
      </trkpt>
      <trkpt lat="49.12389" lon="1.09936">
        <ele>88.8</ele>
        <time>2017-10-29T09:24:16Z</time>
      </trkpt>
      <trkpt lat="49.12385" lon="1.0995">
        <ele>88.8</ele>
        <time>2017-10-29T09:24:18Z</time>
      </trkpt>
      <trkpt lat="49.12381" lon="1.09964">
        <ele>88.8</ele>
        <time>2017-10-29T09:24:20Z</time>
      </trkpt>
      <trkpt lat="49.12377" lon="1.09977">
        <ele>88.7</ele>
        <time>2017-10-29T09:24:22Z</time>
      </trkpt>
      <trkpt lat="49.12373" lon="1.09989">
        <ele>88.1</ele>
        <time>2017-10-29T09:24:24Z</time>
      </trkpt>
      <trkpt lat="49.12368" lon="1.10002">
        <ele>88.1</ele>
        <time>2017-10-29T09:24:26Z</time>
      </trkpt>
      <trkpt lat="49.12364" lon="1.10015">
        <ele>88.1</ele>
        <time>2017-10-29T09:24:28Z</time>
      </trkpt>
      <trkpt lat="49.12358" lon="1.10033">
        <ele>88.1</ele>
        <time>2017-10-29T09:24:31Z</time>
      </trkpt>
      <trkpt lat="49.12356" lon="1.10053">
        <ele>87.9</ele>
        <time>2017-10-29T09:24:34Z</time>
      </trkpt>
      <trkpt lat="49.12357" lon="1.10067">
        <ele>87.9</ele>
        <time>2017-10-29T09:24:36Z</time>
      </trkpt>
      <trkpt lat="49.12358" lon="1.10082">
        <ele>87.9</ele>
        <time>2017-10-29T09:24:38Z</time>
      </trkpt>
      <trkpt lat="49.12359" lon="1.10096">
        <ele>87.9</ele>
        <time>2017-10-29T09:24:40Z</time>
      </trkpt>
      <trkpt lat="49.1236" lon="1.1011">
        <ele>87.9</ele>
        <time>2017-10-29T09:24:42Z</time>
      </trkpt>
      <trkpt lat="49.12361" lon="1.10124">
        <ele>87.9</ele>
        <time>2017-10-29T09:24:44Z</time>
      </trkpt>
      <trkpt lat="49.12362" lon="1.10144">
        <ele>87.8</ele>
        <time>2017-10-29T09:24:47Z</time>
      </trkpt>
      <trkpt lat="49.12363" lon="1.10164">
        <ele>87.7</ele>
        <time>2017-10-29T09:24:50Z</time>
      </trkpt>
      <trkpt lat="49.12364" lon="1.10178">
        <ele>87.6</ele>
        <time>2017-10-29T09:24:52Z</time>
      </trkpt>
      <trkpt lat="49.12365" lon="1.10192">
        <ele>87.6</ele>
        <time>2017-10-29T09:24:54Z</time>
      </trkpt>
      <trkpt lat="49.12366" lon="1.10207">
        <ele>87.6</ele>
        <time>2017-10-29T09:24:56Z</time>
      </trkpt>
      <trkpt lat="49.12367" lon="1.10221">
        <ele>87.6</ele>
        <time>2017-10-29T09:24:58Z</time>
      </trkpt>
      <trkpt lat="49.12369" lon="1.1024">
        <ele>87.5</ele>
        <time>2017-10-29T09:25:01Z</time>
      </trkpt>
      <trkpt lat="49.1237" lon="1.10258">
        <ele>87.6</ele>
        <time>2017-10-29T09:25:04Z</time>
      </trkpt>
      <trkpt lat="49.12374" lon="1.10271">
        <ele>87.5</ele>
        <time>2017-10-29T09:25:07Z</time>
      </trkpt>
      <trkpt lat="49.12382" lon="1.10279">
        <ele>87</ele>
        <time>2017-10-29T09:25:12Z</time>
      </trkpt>
      <trkpt lat="49.12373" lon="1.10283">
        <ele>86.6</ele>
        <time>2017-10-29T09:31:33Z</time>
      </trkpt>
      <trkpt lat="49.12372" lon="1.10298">
        <ele>86.9</ele>
        <time>2017-10-29T09:31:45Z</time>
      </trkpt>
      <trkpt lat="49.12373" lon="1.10316">
        <ele>86.9</ele>
        <time>2017-10-29T09:31:49Z</time>
      </trkpt>
      <trkpt lat="49.12375" lon="1.10334">
        <ele>87</ele>
        <time>2017-10-29T09:31:52Z</time>
      </trkpt>
      <trkpt lat="49.12376" lon="1.10355">
        <ele>87</ele>
        <time>2017-10-29T09:31:55Z</time>
      </trkpt>
      <trkpt lat="49.12377" lon="1.10374">
        <ele>86.9</ele>
        <time>2017-10-29T09:31:58Z</time>
      </trkpt>
      <trkpt lat="49.12379" lon="1.10393">
        <ele>86.8</ele>
        <time>2017-10-29T09:32:01Z</time>
      </trkpt>
      <trkpt lat="49.1238" lon="1.10408">
        <ele>86.9</ele>
        <time>2017-10-29T09:32:04Z</time>
      </trkpt>
      <trkpt lat="49.12382" lon="1.10424">
        <ele>86.8</ele>
        <time>2017-10-29T09:32:08Z</time>
      </trkpt>
      <trkpt lat="49.12384" lon="1.10442">
        <ele>86.7</ele>
        <time>2017-10-29T09:32:12Z</time>
      </trkpt>
      <trkpt lat="49.12385" lon="1.10456">
        <ele>86.7</ele>
        <time>2017-10-29T09:32:15Z</time>
      </trkpt>
      <trkpt lat="49.12386" lon="1.1047">
        <ele>86.7</ele>
        <time>2017-10-29T09:32:18Z</time>
      </trkpt>
      <trkpt lat="49.12387" lon="1.10485">
        <ele>86.6</ele>
        <time>2017-10-29T09:32:21Z</time>
      </trkpt>
      <trkpt lat="49.12389" lon="1.10499">
        <ele>86.4</ele>
        <time>2017-10-29T09:32:24Z</time>
      </trkpt>
      <trkpt lat="49.12391" lon="1.10513">
        <ele>86.4</ele>
        <time>2017-10-29T09:32:27Z</time>
      </trkpt>
      <trkpt lat="49.1239" lon="1.10529">
        <ele>86.3</ele>
        <time>2017-10-29T09:32:31Z</time>
      </trkpt>
      <trkpt lat="49.12381" lon="1.10526">
        <ele>86.7</ele>
        <time>2017-10-29T09:32:36Z</time>
      </trkpt>
      <trkpt lat="49.12372" lon="1.10517">
        <ele>86.9</ele>
        <time>2017-10-29T09:32:41Z</time>
      </trkpt>
      <trkpt lat="49.12365" lon="1.10508">
        <ele>87.3</ele>
        <time>2017-10-29T09:32:45Z</time>
      </trkpt>
      <trkpt lat="49.12358" lon="1.10498">
        <ele>87.8</ele>
        <time>2017-10-29T09:32:49Z</time>
      </trkpt>
      <trkpt lat="49.1235" lon="1.10487">
        <ele>88.5</ele>
        <time>2017-10-29T09:32:54Z</time>
      </trkpt>
      <trkpt lat="49.12344" lon="1.10476">
        <ele>89</ele>
        <time>2017-10-29T09:32:59Z</time>
      </trkpt>
      <trkpt lat="49.12338" lon="1.10465">
        <ele>89.8</ele>
        <time>2017-10-29T09:33:04Z</time>
      </trkpt>
      <trkpt lat="49.12332" lon="1.10451">
        <ele>90.2</ele>
        <time>2017-10-29T09:33:09Z</time>
      </trkpt>
      <trkpt lat="49.12327" lon="1.10439">
        <ele>90.7</ele>
        <time>2017-10-29T09:33:14Z</time>
      </trkpt>
      <trkpt lat="49.12322" lon="1.10424">
        <ele>91.4</ele>
        <time>2017-10-29T09:33:19Z</time>
      </trkpt>
      <trkpt lat="49.12319" lon="1.10409">
        <ele>92.9</ele>
        <time>2017-10-29T09:33:25Z</time>
      </trkpt>
      <trkpt lat="49.12315" lon="1.10396">
        <ele>94.4</ele>
        <time>2017-10-29T09:33:31Z</time>
      </trkpt>
      <trkpt lat="49.12312" lon="1.10382">
        <ele>95.5</ele>
        <time>2017-10-29T09:33:36Z</time>
      </trkpt>
      <trkpt lat="49.1231" lon="1.10368">
        <ele>96.3</ele>
        <time>2017-10-29T09:33:40Z</time>
      </trkpt>
      <trkpt lat="49.12307" lon="1.10353">
        <ele>97.2</ele>
        <time>2017-10-29T09:33:45Z</time>
      </trkpt>
      <trkpt lat="49.12302" lon="1.1034">
        <ele>98.2</ele>
        <time>2017-10-29T09:33:50Z</time>
      </trkpt>
      <trkpt lat="49.12296" lon="1.10328">
        <ele>99.3</ele>
        <time>2017-10-29T09:33:55Z</time>
      </trkpt>
      <trkpt lat="49.12292" lon="1.10314">
        <ele>100.8</ele>
        <time>2017-10-29T09:34:01Z</time>
      </trkpt>
      <trkpt lat="49.12288" lon="1.10299">
        <ele>101.9</ele>
        <time>2017-10-29T09:34:07Z</time>
      </trkpt>
      <trkpt lat="49.12286" lon="1.10285">
        <ele>102.8</ele>
        <time>2017-10-29T09:34:13Z</time>
      </trkpt>
      <trkpt lat="49.12285" lon="1.10269">
        <ele>103.4</ele>
        <time>2017-10-29T09:34:17Z</time>
      </trkpt>
      <trkpt lat="49.12281" lon="1.10252">
        <ele>104.4</ele>
        <time>2017-10-29T09:34:22Z</time>
      </trkpt>
      <trkpt lat="49.12278" lon="1.10238">
        <ele>105.6</ele>
        <time>2017-10-29T09:34:28Z</time>
      </trkpt>
      <trkpt lat="49.12276" lon="1.10224">
        <ele>106.3</ele>
        <time>2017-10-29T09:34:33Z</time>
      </trkpt>
      <trkpt lat="49.12272" lon="1.1021">
        <ele>107.1</ele>
        <time>2017-10-29T09:34:38Z</time>
      </trkpt>
      <trkpt lat="49.1227" lon="1.10194">
        <ele>108.2</ele>
        <time>2017-10-29T09:34:44Z</time>
      </trkpt>
      <trkpt lat="49.12265" lon="1.10181">
        <ele>109.1</ele>
        <time>2017-10-29T09:34:49Z</time>
      </trkpt>
      <trkpt lat="49.1226" lon="1.10167">
        <ele>110.3</ele>
        <time>2017-10-29T09:34:56Z</time>
      </trkpt>
      <trkpt lat="49.12258" lon="1.10153">
        <ele>111.5</ele>
        <time>2017-10-29T09:35:01Z</time>
      </trkpt>
      <trkpt lat="49.12253" lon="1.10141">
        <ele>112.3</ele>
        <time>2017-10-29T09:35:05Z</time>
      </trkpt>
      <trkpt lat="49.12249" lon="1.10128">
        <ele>113.4</ele>
        <time>2017-10-29T09:35:10Z</time>
      </trkpt>
      <trkpt lat="49.12245" lon="1.10114">
        <ele>114.8</ele>
        <time>2017-10-29T09:35:16Z</time>
      </trkpt>
      <trkpt lat="49.1224" lon="1.10102">
        <ele>116.2</ele>
        <time>2017-10-29T09:35:20Z</time>
      </trkpt>
      <trkpt lat="49.12234" lon="1.10089">
        <ele>117.9</ele>
        <time>2017-10-29T09:35:26Z</time>
      </trkpt>
      <trkpt lat="49.12229" lon="1.10076">
        <ele>119.3</ele>
        <time>2017-10-29T09:35:31Z</time>
      </trkpt>
      <trkpt lat="49.12228" lon="1.1006">
        <ele>120.5</ele>
        <time>2017-10-29T09:35:36Z</time>
      </trkpt>
      <trkpt lat="49.12225" lon="1.10045">
        <ele>121.7</ele>
        <time>2017-10-29T09:35:41Z</time>
      </trkpt>
      <trkpt lat="49.12222" lon="1.10031">
        <ele>122.5</ele>
        <time>2017-10-29T09:35:46Z</time>
      </trkpt>
      <trkpt lat="49.12219" lon="1.10016">
        <ele>123.7</ele>
        <time>2017-10-29T09:35:52Z</time>
      </trkpt>
      <trkpt lat="49.12218" lon="1.09999">
        <ele>124.8</ele>
        <time>2017-10-29T09:35:58Z</time>
      </trkpt>
      <trkpt lat="49.12218" lon="1.09984">
        <ele>125.9</ele>
        <time>2017-10-29T09:36:03Z</time>
      </trkpt>
      <trkpt lat="49.12217" lon="1.09969">
        <ele>126.7</ele>
        <time>2017-10-29T09:36:08Z</time>
      </trkpt>
      <trkpt lat="49.12216" lon="1.09955">
        <ele>127.3</ele>
        <time>2017-10-29T09:36:12Z</time>
      </trkpt>
      <trkpt lat="49.12215" lon="1.0994">
        <ele>127.9</ele>
        <time>2017-10-29T09:36:16Z</time>
      </trkpt>
      <trkpt lat="49.12213" lon="1.09926">
        <ele>128.4</ele>
        <time>2017-10-29T09:36:20Z</time>
      </trkpt>
      <trkpt lat="49.12214" lon="1.0991">
        <ele>129.5</ele>
        <time>2017-10-29T09:36:25Z</time>
      </trkpt>
      <trkpt lat="49.12211" lon="1.09894">
        <ele>130.4</ele>
        <time>2017-10-29T09:36:29Z</time>
      </trkpt>
      <trkpt lat="49.1221" lon="1.09879">
        <ele>131.4</ele>
        <time>2017-10-29T09:36:34Z</time>
      </trkpt>
      <trkpt lat="49.12209" lon="1.09863">
        <ele>132.7</ele>
        <time>2017-10-29T09:36:39Z</time>
      </trkpt>
      <trkpt lat="49.12209" lon="1.09849">
        <ele>133.6</ele>
        <time>2017-10-29T09:36:43Z</time>
      </trkpt>
      <trkpt lat="49.12206" lon="1.09836">
        <ele>134.3</ele>
        <time>2017-10-29T09:36:47Z</time>
      </trkpt>
      <trkpt lat="49.12203" lon="1.09822">
        <ele>135.2</ele>
        <time>2017-10-29T09:36:52Z</time>
      </trkpt>
      <trkpt lat="49.12198" lon="1.09808">
        <ele>135.8</ele>
        <time>2017-10-29T09:36:55Z</time>
      </trkpt>
      <trkpt lat="49.12195" lon="1.09794">
        <ele>136.3</ele>
        <time>2017-10-29T09:36:59Z</time>
      </trkpt>
      <trkpt lat="49.1219" lon="1.0978">
        <ele>137.4</ele>
        <time>2017-10-29T09:37:04Z</time>
      </trkpt>
      <trkpt lat="49.12186" lon="1.09764">
        <ele>138.6</ele>
        <time>2017-10-29T09:37:09Z</time>
      </trkpt>
      <trkpt lat="49.12185" lon="1.09747">
        <ele>140</ele>
        <time>2017-10-29T09:37:14Z</time>
      </trkpt>
      <trkpt lat="49.12185" lon="1.09732">
        <ele>141.5</ele>
        <time>2017-10-29T09:37:19Z</time>
      </trkpt>
      <trkpt lat="49.12183" lon="1.09716">
        <ele>143</ele>
        <time>2017-10-29T09:37:24Z</time>
      </trkpt>
      <trkpt lat="49.12183" lon="1.09701">
        <ele>144.6</ele>
        <time>2017-10-29T09:37:29Z</time>
      </trkpt>
      <trkpt lat="49.12182" lon="1.09683">
        <ele>145.8</ele>
        <time>2017-10-29T09:37:34Z</time>
      </trkpt>
      <trkpt lat="49.12184" lon="1.09669">
        <ele>147.1</ele>
        <time>2017-10-29T09:37:39Z</time>
      </trkpt>
      <trkpt lat="49.12188" lon="1.09654">
        <ele>148.8</ele>
        <time>2017-10-29T09:37:45Z</time>
      </trkpt>
      <trkpt lat="49.12195" lon="1.09643">
        <ele>150.3</ele>
        <time>2017-10-29T09:37:51Z</time>
      </trkpt>
      <trkpt lat="49.122" lon="1.09628">
        <ele>151.6</ele>
        <time>2017-10-29T09:37:57Z</time>
      </trkpt>
      <trkpt lat="49.12206" lon="1.09616">
        <ele>153</ele>
        <time>2017-10-29T09:38:02Z</time>
      </trkpt>
      <trkpt lat="49.12209" lon="1.09603">
        <ele>154.6</ele>
        <time>2017-10-29T09:38:08Z</time>
      </trkpt>
      <trkpt lat="49.12212" lon="1.0959">
        <ele>155.6</ele>
        <time>2017-10-29T09:38:12Z</time>
      </trkpt>
      <trkpt lat="49.12213" lon="1.09576">
        <ele>156.5</ele>
        <time>2017-10-29T09:38:16Z</time>
      </trkpt>
      <trkpt lat="49.12216" lon="1.09563">
        <ele>158</ele>
        <time>2017-10-29T09:38:21Z</time>
      </trkpt>
      <trkpt lat="49.1222" lon="1.09551">
        <ele>159.6</ele>
        <time>2017-10-29T09:38:26Z</time>
      </trkpt>
      <trkpt lat="49.12223" lon="1.09536">
        <ele>161.6</ele>
        <time>2017-10-29T09:38:32Z</time>
      </trkpt>
      <trkpt lat="49.12223" lon="1.0952">
        <ele>163.3</ele>
        <time>2017-10-29T09:38:38Z</time>
      </trkpt>
      <trkpt lat="49.12224" lon="1.09505">
        <ele>164.9</ele>
        <time>2017-10-29T09:38:43Z</time>
      </trkpt>
      <trkpt lat="49.12222" lon="1.09491">
        <ele>166.7</ele>
        <time>2017-10-29T09:38:49Z</time>
      </trkpt>
      <trkpt lat="49.12216" lon="1.09477">
        <ele>167.7</ele>
        <time>2017-10-29T09:38:53Z</time>
      </trkpt>
      <trkpt lat="49.12209" lon="1.09467">
        <ele>168.8</ele>
        <time>2017-10-29T09:38:58Z</time>
      </trkpt>
      <trkpt lat="49.12202" lon="1.09456">
        <ele>169.9</ele>
        <time>2017-10-29T09:39:03Z</time>
      </trkpt>
      <trkpt lat="49.12197" lon="1.09443">
        <ele>171.2</ele>
        <time>2017-10-29T09:39:10Z</time>
      </trkpt>
      <trkpt lat="49.12195" lon="1.09429">
        <ele>171.5</ele>
        <time>2017-10-29T09:39:15Z</time>
      </trkpt>
      <trkpt lat="49.12196" lon="1.09444">
        <ele>171.8</ele>
        <time>2017-10-29T09:39:25Z</time>
      </trkpt>
      <trkpt lat="49.12204" lon="1.09456">
        <ele>171.4</ele>
        <time>2017-10-29T09:39:30Z</time>
      </trkpt>
      <trkpt lat="49.12213" lon="1.09467">
        <ele>171</ele>
        <time>2017-10-29T09:39:33Z</time>
      </trkpt>
      <trkpt lat="49.12218" lon="1.09484">
        <ele>170.1</ele>
        <time>2017-10-29T09:39:36Z</time>
      </trkpt>
      <trkpt lat="49.12219" lon="1.09497">
        <ele>169.3</ele>
        <time>2017-10-29T09:39:38Z</time>
      </trkpt>
      <trkpt lat="49.12221" lon="1.09518">
        <ele>167.6</ele>
        <time>2017-10-29T09:39:41Z</time>
      </trkpt>
      <trkpt lat="49.12221" lon="1.0954">
        <ele>165.8</ele>
        <time>2017-10-29T09:39:44Z</time>
      </trkpt>
      <trkpt lat="49.12218" lon="1.09558">
        <ele>163.6</ele>
        <time>2017-10-29T09:39:47Z</time>
      </trkpt>
      <trkpt lat="49.12216" lon="1.09576">
        <ele>161.4</ele>
        <time>2017-10-29T09:39:50Z</time>
      </trkpt>
      <trkpt lat="49.12213" lon="1.09591">
        <ele>158.1</ele>
        <time>2017-10-29T09:39:55Z</time>
      </trkpt>
      <trkpt lat="49.12208" lon="1.09606">
        <ele>156.6</ele>
        <time>2017-10-29T09:39:59Z</time>
      </trkpt>
      <trkpt lat="49.122" lon="1.0962">
        <ele>155.5</ele>
        <time>2017-10-29T09:40:02Z</time>
      </trkpt>
      <trkpt lat="49.12194" lon="1.09631">
        <ele>154.3</ele>
        <time>2017-10-29T09:40:04Z</time>
      </trkpt>
      <trkpt lat="49.12188" lon="1.09644">
        <ele>152.7</ele>
        <time>2017-10-29T09:40:07Z</time>
      </trkpt>
      <trkpt lat="49.12187" lon="1.09665">
        <ele>151.1</ele>
        <time>2017-10-29T09:40:10Z</time>
      </trkpt>
      <trkpt lat="49.12184" lon="1.09689">
        <ele>150</ele>
        <time>2017-10-29T09:40:12Z</time>
      </trkpt>
      <trkpt lat="49.12185" lon="1.09704">
        <ele>147.9</ele>
        <time>2017-10-29T09:40:15Z</time>
      </trkpt>
      <trkpt lat="49.12185" lon="1.09718">
        <ele>145.2</ele>
        <time>2017-10-29T09:40:20Z</time>
      </trkpt>
      <trkpt lat="49.12181" lon="1.09704">
        <ele>144</ele>
        <time>2017-10-29T09:40:37Z</time>
      </trkpt>
      <trkpt lat="49.12183" lon="1.09689">
        <ele>145.2</ele>
        <time>2017-10-29T09:40:44Z</time>
      </trkpt>
      <trkpt lat="49.12183" lon="1.09674">
        <ele>146.4</ele>
        <time>2017-10-29T09:40:52Z</time>
      </trkpt>
      <trkpt lat="49.12185" lon="1.09661">
        <ele>147.8</ele>
        <time>2017-10-29T09:41:02Z</time>
      </trkpt>
      <trkpt lat="49.1219" lon="1.09647">
        <ele>149.6</ele>
        <time>2017-10-29T09:41:11Z</time>
      </trkpt>
      <trkpt lat="49.12195" lon="1.09635">
        <ele>151.2</ele>
        <time>2017-10-29T09:41:20Z</time>
      </trkpt>
      <trkpt lat="49.122" lon="1.09621">
        <ele>152.4</ele>
        <time>2017-10-29T09:41:30Z</time>
      </trkpt>
      <trkpt lat="49.12204" lon="1.09608">
        <ele>153.7</ele>
        <time>2017-10-29T09:41:39Z</time>
      </trkpt>
      <trkpt lat="49.12208" lon="1.09596">
        <ele>155.1</ele>
        <time>2017-10-29T09:41:48Z</time>
      </trkpt>
      <trkpt lat="49.12214" lon="1.09585">
        <ele>156.7</ele>
        <time>2017-10-29T09:41:57Z</time>
      </trkpt>
      <trkpt lat="49.12215" lon="1.09569">
        <ele>157.9</ele>
        <time>2017-10-29T09:42:06Z</time>
      </trkpt>
      <trkpt lat="49.12217" lon="1.09555">
        <ele>159.3</ele>
        <time>2017-10-29T09:42:17Z</time>
      </trkpt>
      <trkpt lat="49.12219" lon="1.09541">
        <ele>161.1</ele>
        <time>2017-10-29T09:42:28Z</time>
      </trkpt>
      <trkpt lat="49.12219" lon="1.09526">
        <ele>162.7</ele>
        <time>2017-10-29T09:42:38Z</time>
      </trkpt>
      <trkpt lat="49.12221" lon="1.09512">
        <ele>164.5</ele>
        <time>2017-10-29T09:42:48Z</time>
      </trkpt>
      <trkpt lat="49.12221" lon="1.09498">
        <ele>166.2</ele>
        <time>2017-10-29T09:43:00Z</time>
      </trkpt>
      <trkpt lat="49.1222" lon="1.09484">
        <ele>167.4</ele>
        <time>2017-10-29T09:43:19Z</time>
      </trkpt>
      <trkpt lat="49.12214" lon="1.09472">
        <ele>168.2</ele>
        <time>2017-10-29T09:43:26Z</time>
      </trkpt>
      <trkpt lat="49.12208" lon="1.09461">
        <ele>169.3</ele>
        <time>2017-10-29T09:43:34Z</time>
      </trkpt>
      <trkpt lat="49.12201" lon="1.09452">
        <ele>170.3</ele>
        <time>2017-10-29T09:43:41Z</time>
      </trkpt>
      <trkpt lat="49.12196" lon="1.09439">
        <ele>171.2</ele>
        <time>2017-10-29T09:43:49Z</time>
      </trkpt>
      <trkpt lat="49.12193" lon="1.09425">
        <ele>171.6</ele>
        <time>2017-10-29T09:43:57Z</time>
      </trkpt>
      <trkpt lat="49.1219" lon="1.09411">
        <ele>171.6</ele>
        <time>2017-10-29T09:44:04Z</time>
      </trkpt>
      <trkpt lat="49.12186" lon="1.09395">
        <ele>172</ele>
        <time>2017-10-29T09:44:10Z</time>
      </trkpt>
      <trkpt lat="49.12182" lon="1.0938">
        <ele>172.5</ele>
        <time>2017-10-29T09:44:16Z</time>
      </trkpt>
      <trkpt lat="49.12179" lon="1.09365">
        <ele>173.3</ele>
        <time>2017-10-29T09:44:22Z</time>
      </trkpt>
      <trkpt lat="49.12176" lon="1.0935">
        <ele>173.9</ele>
        <time>2017-10-29T09:44:28Z</time>
      </trkpt>
      <trkpt lat="49.12173" lon="1.09335">
        <ele>174.5</ele>
        <time>2017-10-29T09:44:34Z</time>
      </trkpt>
      <trkpt lat="49.12168" lon="1.0932">
        <ele>174.9</ele>
        <time>2017-10-29T09:44:39Z</time>
      </trkpt>
      <trkpt lat="49.12165" lon="1.09307">
        <ele>175.1</ele>
        <time>2017-10-29T09:44:43Z</time>
      </trkpt>
      <trkpt lat="49.12161" lon="1.09292">
        <ele>175.4</ele>
        <time>2017-10-29T09:44:49Z</time>
      </trkpt>
      <trkpt lat="49.12165" lon="1.09279">
        <ele>175.3</ele>
        <time>2017-10-29T09:47:53Z</time>
      </trkpt>
      <trkpt lat="49.12156" lon="1.09276">
        <ele>174.9</ele>
        <time>2017-10-29T09:50:49Z</time>
      </trkpt>
      <trkpt lat="49.12152" lon="1.0926">
        <ele>174.9</ele>
        <time>2017-10-29T09:50:54Z</time>
      </trkpt>
      <trkpt lat="49.12149" lon="1.09246">
        <ele>174.7</ele>
        <time>2017-10-29T09:50:57Z</time>
      </trkpt>
      <trkpt lat="49.12148" lon="1.09232">
        <ele>174.9</ele>
        <time>2017-10-29T09:51:00Z</time>
      </trkpt>
      <trkpt lat="49.12145" lon="1.09215">
        <ele>175.1</ele>
        <time>2017-10-29T09:51:03Z</time>
      </trkpt>
      <trkpt lat="49.12142" lon="1.09198">
        <ele>175.3</ele>
        <time>2017-10-29T09:51:06Z</time>
      </trkpt>
      <trkpt lat="49.12141" lon="1.09184">
        <ele>175.7</ele>
        <time>2017-10-29T09:51:09Z</time>
      </trkpt>
      <trkpt lat="49.12138" lon="1.09165">
        <ele>176.1</ele>
        <time>2017-10-29T09:51:13Z</time>
      </trkpt>
      <trkpt lat="49.12134" lon="1.09152">
        <ele>176.4</ele>
        <time>2017-10-29T09:51:16Z</time>
      </trkpt>
      <trkpt lat="49.12129" lon="1.09138">
        <ele>176.8</ele>
        <time>2017-10-29T09:51:19Z</time>
      </trkpt>
      <trkpt lat="49.12126" lon="1.09125">
        <ele>177.1</ele>
        <time>2017-10-29T09:51:22Z</time>
      </trkpt>
      <trkpt lat="49.12123" lon="1.09109">
        <ele>177.7</ele>
        <time>2017-10-29T09:51:26Z</time>
      </trkpt>
      <trkpt lat="49.1212" lon="1.09094">
        <ele>178.3</ele>
        <time>2017-10-29T09:51:29Z</time>
      </trkpt>
      <trkpt lat="49.12116" lon="1.0908">
        <ele>178.7</ele>
        <time>2017-10-29T09:51:32Z</time>
      </trkpt>
      <trkpt lat="49.12112" lon="1.09065">
        <ele>179.2</ele>
        <time>2017-10-29T09:51:35Z</time>
      </trkpt>
      <trkpt lat="49.12108" lon="1.09047">
        <ele>179.9</ele>
        <time>2017-10-29T09:51:39Z</time>
      </trkpt>
      <trkpt lat="49.12105" lon="1.09032">
        <ele>180.2</ele>
        <time>2017-10-29T09:51:42Z</time>
      </trkpt>
      <trkpt lat="49.12102" lon="1.09017">
        <ele>180.7</ele>
        <time>2017-10-29T09:51:45Z</time>
      </trkpt>
      <trkpt lat="49.12098" lon="1.09001">
        <ele>181.2</ele>
        <time>2017-10-29T09:51:48Z</time>
      </trkpt>
      <trkpt lat="49.12095" lon="1.08986">
        <ele>181.3</ele>
        <time>2017-10-29T09:51:51Z</time>
      </trkpt>
      <trkpt lat="49.12092" lon="1.08971">
        <ele>181.4</ele>
        <time>2017-10-29T09:51:54Z</time>
      </trkpt>
      <trkpt lat="49.12088" lon="1.08956">
        <ele>181.8</ele>
        <time>2017-10-29T09:51:57Z</time>
      </trkpt>
      <trkpt lat="49.12086" lon="1.08942">
        <ele>182.2</ele>
        <time>2017-10-29T09:52:00Z</time>
      </trkpt>
      <trkpt lat="49.12082" lon="1.08927">
        <ele>182.7</ele>
        <time>2017-10-29T09:52:03Z</time>
      </trkpt>
      <trkpt lat="49.12079" lon="1.08912">
        <ele>183.1</ele>
        <time>2017-10-29T09:52:06Z</time>
      </trkpt>
      <trkpt lat="49.12076" lon="1.08896">
        <ele>183.6</ele>
        <time>2017-10-29T09:52:09Z</time>
      </trkpt>
      <trkpt lat="49.12073" lon="1.08882">
        <ele>184</ele>
        <time>2017-10-29T09:52:12Z</time>
      </trkpt>
      <trkpt lat="49.12069" lon="1.08867">
        <ele>184.3</ele>
        <time>2017-10-29T09:52:15Z</time>
      </trkpt>
      <trkpt lat="49.12065" lon="1.08851">
        <ele>184.6</ele>
        <time>2017-10-29T09:52:18Z</time>
      </trkpt>
      <trkpt lat="49.1206" lon="1.08834">
        <ele>184.8</ele>
        <time>2017-10-29T09:52:21Z</time>
      </trkpt>
      <trkpt lat="49.12057" lon="1.08818">
        <ele>185.2</ele>
        <time>2017-10-29T09:52:24Z</time>
      </trkpt>
      <trkpt lat="49.12053" lon="1.088">
        <ele>185.3</ele>
        <time>2017-10-29T09:52:28Z</time>
      </trkpt>
      <trkpt lat="49.12049" lon="1.08784">
        <ele>185.1</ele>
        <time>2017-10-29T09:52:31Z</time>
      </trkpt>
      <trkpt lat="49.12046" lon="1.08769">
        <ele>185</ele>
        <time>2017-10-29T09:52:33Z</time>
      </trkpt>
      <trkpt lat="49.12043" lon="1.08753">
        <ele>185.1</ele>
        <time>2017-10-29T09:52:36Z</time>
      </trkpt>
      <trkpt lat="49.12039" lon="1.08737">
        <ele>185.1</ele>
        <time>2017-10-29T09:52:39Z</time>
      </trkpt>
      <trkpt lat="49.12035" lon="1.08719">
        <ele>185</ele>
        <time>2017-10-29T09:52:42Z</time>
      </trkpt>
      <trkpt lat="49.12031" lon="1.08703">
        <ele>184.9</ele>
        <time>2017-10-29T09:52:45Z</time>
      </trkpt>
      <trkpt lat="49.12029" lon="1.08687">
        <ele>184.9</ele>
        <time>2017-10-29T09:52:48Z</time>
      </trkpt>
      <trkpt lat="49.12024" lon="1.08672">
        <ele>184.7</ele>
        <time>2017-10-29T09:52:51Z</time>
      </trkpt>
      <trkpt lat="49.12013" lon="1.08663">
        <ele>184.5</ele>
        <time>2017-10-29T09:52:54Z</time>
      </trkpt>
      <trkpt lat="49.12001" lon="1.0866">
        <ele>184.3</ele>
        <time>2017-10-29T09:52:57Z</time>
      </trkpt>
      <trkpt lat="49.11989" lon="1.08658">
        <ele>184.3</ele>
        <time>2017-10-29T09:53:00Z</time>
      </trkpt>
      <trkpt lat="49.11977" lon="1.08655">
        <ele>184.2</ele>
        <time>2017-10-29T09:53:03Z</time>
      </trkpt>
      <trkpt lat="49.11964" lon="1.08653">
        <ele>184.3</ele>
        <time>2017-10-29T09:53:06Z</time>
      </trkpt>
      <trkpt lat="49.11952" lon="1.08651">
        <ele>184.6</ele>
        <time>2017-10-29T09:53:09Z</time>
      </trkpt>
      <trkpt lat="49.1194" lon="1.0865">
        <ele>185</ele>
        <time>2017-10-29T09:53:12Z</time>
      </trkpt>
      <trkpt lat="49.11928" lon="1.08648">
        <ele>185.4</ele>
        <time>2017-10-29T09:53:15Z</time>
      </trkpt>
      <trkpt lat="49.11916" lon="1.08647">
        <ele>186</ele>
        <time>2017-10-29T09:53:18Z</time>
      </trkpt>
      <trkpt lat="49.11904" lon="1.08645">
        <ele>186.3</ele>
        <time>2017-10-29T09:53:21Z</time>
      </trkpt>
      <trkpt lat="49.11892" lon="1.08645">
        <ele>186.7</ele>
        <time>2017-10-29T09:53:24Z</time>
      </trkpt>
      <trkpt lat="49.11882" lon="1.08645">
        <ele>187.1</ele>
        <time>2017-10-29T09:53:27Z</time>
      </trkpt>
      <trkpt lat="49.11875" lon="1.08654">
        <ele>187.6</ele>
        <time>2017-10-29T09:53:30Z</time>
      </trkpt>
      <trkpt lat="49.11869" lon="1.08667">
        <ele>188.3</ele>
        <time>2017-10-29T09:53:33Z</time>
      </trkpt>
      <trkpt lat="49.11864" lon="1.08683">
        <ele>188.7</ele>
        <time>2017-10-29T09:53:36Z</time>
      </trkpt>
      <trkpt lat="49.11859" lon="1.08698">
        <ele>189</ele>
        <time>2017-10-29T09:53:39Z</time>
      </trkpt>
      <trkpt lat="49.11854" lon="1.08715">
        <ele>189.2</ele>
        <time>2017-10-29T09:53:42Z</time>
      </trkpt>
      <trkpt lat="49.1185" lon="1.08731">
        <ele>189.6</ele>
        <time>2017-10-29T09:53:45Z</time>
      </trkpt>
      <trkpt lat="49.11845" lon="1.08747">
        <ele>190</ele>
        <time>2017-10-29T09:53:48Z</time>
      </trkpt>
      <trkpt lat="49.11841" lon="1.08763">
        <ele>190.5</ele>
        <time>2017-10-29T09:53:51Z</time>
      </trkpt>
      <trkpt lat="49.11836" lon="1.0878">
        <ele>190.8</ele>
        <time>2017-10-29T09:53:54Z</time>
      </trkpt>
      <trkpt lat="49.11833" lon="1.08793">
        <ele>190.8</ele>
        <time>2017-10-29T09:53:56Z</time>
      </trkpt>
      <trkpt lat="49.1183" lon="1.08807">
        <ele>190.8</ele>
        <time>2017-10-29T09:53:58Z</time>
      </trkpt>
      <trkpt lat="49.11827" lon="1.0882">
        <ele>191</ele>
        <time>2017-10-29T09:54:00Z</time>
      </trkpt>
      <trkpt lat="49.11824" lon="1.08834">
        <ele>191.1</ele>
        <time>2017-10-29T09:54:02Z</time>
      </trkpt>
      <trkpt lat="49.11821" lon="1.08847">
        <ele>191.2</ele>
        <time>2017-10-29T09:54:04Z</time>
      </trkpt>
      <trkpt lat="49.11817" lon="1.08865">
        <ele>191.2</ele>
        <time>2017-10-29T09:54:07Z</time>
      </trkpt>
      <trkpt lat="49.11813" lon="1.08883">
        <ele>191.4</ele>
        <time>2017-10-29T09:54:10Z</time>
      </trkpt>
      <trkpt lat="49.1181" lon="1.08896">
        <ele>191.5</ele>
        <time>2017-10-29T09:54:12Z</time>
      </trkpt>
      <trkpt lat="49.11806" lon="1.08915">
        <ele>191.8</ele>
        <time>2017-10-29T09:54:15Z</time>
      </trkpt>
      <trkpt lat="49.11803" lon="1.08933">
        <ele>192.1</ele>
        <time>2017-10-29T09:54:18Z</time>
      </trkpt>
      <trkpt lat="49.118" lon="1.08949">
        <ele>192.3</ele>
        <time>2017-10-29T09:54:21Z</time>
      </trkpt>
      <trkpt lat="49.11794" lon="1.08966">
        <ele>192.3</ele>
        <time>2017-10-29T09:54:24Z</time>
      </trkpt>
      <trkpt lat="49.11785" lon="1.08978">
        <ele>192.3</ele>
        <time>2017-10-29T09:54:27Z</time>
      </trkpt>
      <trkpt lat="49.11775" lon="1.08984">
        <ele>192.3</ele>
        <time>2017-10-29T09:54:30Z</time>
      </trkpt>
      <trkpt lat="49.11766" lon="1.08988">
        <ele>192.3</ele>
        <time>2017-10-29T09:54:33Z</time>
      </trkpt>
      <trkpt lat="49.11756" lon="1.08989">
        <ele>192.5</ele>
        <time>2017-10-29T09:54:37Z</time>
      </trkpt>
      <trkpt lat="49.11746" lon="1.08983">
        <ele>192.5</ele>
        <time>2017-10-29T09:54:42Z</time>
      </trkpt>
      <trkpt lat="49.11737" lon="1.08976">
        <ele>192.4</ele>
        <time>2017-10-29T09:54:46Z</time>
      </trkpt>
      <trkpt lat="49.11727" lon="1.0897">
        <ele>192.4</ele>
        <time>2017-10-29T09:54:52Z</time>
      </trkpt>
      <trkpt lat="49.11716" lon="1.0897">
        <ele>192.6</ele>
        <time>2017-10-29T09:54:57Z</time>
      </trkpt>
      <trkpt lat="49.11707" lon="1.08973">
        <ele>192.7</ele>
        <time>2017-10-29T09:55:01Z</time>
      </trkpt>
      <trkpt lat="49.11698" lon="1.08981">
        <ele>192.7</ele>
        <time>2017-10-29T09:55:05Z</time>
      </trkpt>
      <trkpt lat="49.11689" lon="1.08991">
        <ele>193</ele>
        <time>2017-10-29T09:55:09Z</time>
      </trkpt>
      <trkpt lat="49.1168" lon="1.08998">
        <ele>193</ele>
        <time>2017-10-29T09:55:12Z</time>
      </trkpt>
      <trkpt lat="49.11669" lon="1.09004">
        <ele>192.9</ele>
        <time>2017-10-29T09:55:15Z</time>
      </trkpt>
      <trkpt lat="49.11656" lon="1.09004">
        <ele>192.9</ele>
        <time>2017-10-29T09:55:18Z</time>
      </trkpt>
      <trkpt lat="49.11647" lon="1.09002">
        <ele>192.8</ele>
        <time>2017-10-29T09:55:20Z</time>
      </trkpt>
      <trkpt lat="49.11638" lon="1.08999">
        <ele>192.8</ele>
        <time>2017-10-29T09:55:22Z</time>
      </trkpt>
      <trkpt lat="49.11628" lon="1.08997">
        <ele>192.6</ele>
        <time>2017-10-29T09:55:24Z</time>
      </trkpt>
      <trkpt lat="49.11619" lon="1.08996">
        <ele>192.5</ele>
        <time>2017-10-29T09:55:26Z</time>
      </trkpt>
      <trkpt lat="49.11609" lon="1.08996">
        <ele>192.2</ele>
        <time>2017-10-29T09:55:28Z</time>
      </trkpt>
      <trkpt lat="49.116" lon="1.08999">
        <ele>192.1</ele>
        <time>2017-10-29T09:55:30Z</time>
      </trkpt>
      <trkpt lat="49.11591" lon="1.09005">
        <ele>191.9</ele>
        <time>2017-10-29T09:55:32Z</time>
      </trkpt>
      <trkpt lat="49.11582" lon="1.09012">
        <ele>191.8</ele>
        <time>2017-10-29T09:55:34Z</time>
      </trkpt>
      <trkpt lat="49.11574" lon="1.09018">
        <ele>191.7</ele>
        <time>2017-10-29T09:55:36Z</time>
      </trkpt>
      <trkpt lat="49.11563" lon="1.09028">
        <ele>191.6</ele>
        <time>2017-10-29T09:55:39Z</time>
      </trkpt>
      <trkpt lat="49.11554" lon="1.09044">
        <ele>191.5</ele>
        <time>2017-10-29T09:55:42Z</time>
      </trkpt>
      <trkpt lat="49.1155" lon="1.09063">
        <ele>191.6</ele>
        <time>2017-10-29T09:55:45Z</time>
      </trkpt>
      <trkpt lat="49.11549" lon="1.09077">
        <ele>191.5</ele>
        <time>2017-10-29T09:55:47Z</time>
      </trkpt>
      <trkpt lat="49.11549" lon="1.09092">
        <ele>191.4</ele>
        <time>2017-10-29T09:55:49Z</time>
      </trkpt>
      <trkpt lat="49.11551" lon="1.09106">
        <ele>191.2</ele>
        <time>2017-10-29T09:55:51Z</time>
      </trkpt>
      <trkpt lat="49.11553" lon="1.0912">
        <ele>191.3</ele>
        <time>2017-10-29T09:55:53Z</time>
      </trkpt>
      <trkpt lat="49.11557" lon="1.09139">
        <ele>191.3</ele>
        <time>2017-10-29T09:55:56Z</time>
      </trkpt>
      <trkpt lat="49.1156" lon="1.09157">
        <ele>191.3</ele>
        <time>2017-10-29T09:55:59Z</time>
      </trkpt>
      <trkpt lat="49.11563" lon="1.09175">
        <ele>191.3</ele>
        <time>2017-10-29T09:56:02Z</time>
      </trkpt>
      <trkpt lat="49.11566" lon="1.09195">
        <ele>191.3</ele>
        <time>2017-10-29T09:56:05Z</time>
      </trkpt>
      <trkpt lat="49.11567" lon="1.09209">
        <ele>191.3</ele>
        <time>2017-10-29T09:56:07Z</time>
      </trkpt>
      <trkpt lat="49.11568" lon="1.09223">
        <ele>191.3</ele>
        <time>2017-10-29T09:56:09Z</time>
      </trkpt>
      <trkpt lat="49.11568" lon="1.09239">
        <ele>191.2</ele>
        <time>2017-10-29T09:56:11Z</time>
      </trkpt>
      <trkpt lat="49.11567" lon="1.09255">
        <ele>191.1</ele>
        <time>2017-10-29T09:56:13Z</time>
      </trkpt>
      <trkpt lat="49.11566" lon="1.09271">
        <ele>191.1</ele>
        <time>2017-10-29T09:56:15Z</time>
      </trkpt>
      <trkpt lat="49.11564" lon="1.09286">
        <ele>191</ele>
        <time>2017-10-29T09:56:17Z</time>
      </trkpt>
      <trkpt lat="49.11561" lon="1.093">
        <ele>191</ele>
        <time>2017-10-29T09:56:19Z</time>
      </trkpt>
      <trkpt lat="49.11559" lon="1.09314">
        <ele>191</ele>
        <time>2017-10-29T09:56:21Z</time>
      </trkpt>
      <trkpt lat="49.11556" lon="1.09329">
        <ele>190.9</ele>
        <time>2017-10-29T09:56:23Z</time>
      </trkpt>
      <trkpt lat="49.11552" lon="1.09343">
        <ele>190.7</ele>
        <time>2017-10-29T09:56:25Z</time>
      </trkpt>
      <trkpt lat="49.11549" lon="1.09358">
        <ele>190.7</ele>
        <time>2017-10-29T09:56:27Z</time>
      </trkpt>
      <trkpt lat="49.11546" lon="1.09373">
        <ele>190.7</ele>
        <time>2017-10-29T09:56:29Z</time>
      </trkpt>
      <trkpt lat="49.11542" lon="1.09387">
        <ele>190.6</ele>
        <time>2017-10-29T09:56:31Z</time>
      </trkpt>
      <trkpt lat="49.11537" lon="1.09401">
        <ele>190.5</ele>
        <time>2017-10-29T09:56:33Z</time>
      </trkpt>
      <trkpt lat="49.11532" lon="1.09414">
        <ele>190.4</ele>
        <time>2017-10-29T09:56:35Z</time>
      </trkpt>
      <trkpt lat="49.11526" lon="1.09426">
        <ele>190.2</ele>
        <time>2017-10-29T09:56:37Z</time>
      </trkpt>
      <trkpt lat="49.11519" lon="1.09438">
        <ele>190.1</ele>
        <time>2017-10-29T09:56:39Z</time>
      </trkpt>
      <trkpt lat="49.11511" lon="1.09448">
        <ele>190.1</ele>
        <time>2017-10-29T09:56:41Z</time>
      </trkpt>
      <trkpt lat="49.11504" lon="1.09458">
        <ele>190</ele>
        <time>2017-10-29T09:56:43Z</time>
      </trkpt>
      <trkpt lat="49.11496" lon="1.09468">
        <ele>189.9</ele>
        <time>2017-10-29T09:56:45Z</time>
      </trkpt>
      <trkpt lat="49.11488" lon="1.09478">
        <ele>189.8</ele>
        <time>2017-10-29T09:56:47Z</time>
      </trkpt>
      <trkpt lat="49.1148" lon="1.09488">
        <ele>189.7</ele>
        <time>2017-10-29T09:56:49Z</time>
      </trkpt>
      <trkpt lat="49.11473" lon="1.09499">
        <ele>189.5</ele>
        <time>2017-10-29T09:56:51Z</time>
      </trkpt>
      <trkpt lat="49.11465" lon="1.0951">
        <ele>189.3</ele>
        <time>2017-10-29T09:56:53Z</time>
      </trkpt>
      <trkpt lat="49.11458" lon="1.0952">
        <ele>189.2</ele>
        <time>2017-10-29T09:56:55Z</time>
      </trkpt>
      <trkpt lat="49.11451" lon="1.0953">
        <ele>189</ele>
        <time>2017-10-29T09:56:57Z</time>
      </trkpt>
      <trkpt lat="49.11443" lon="1.0954">
        <ele>188.9</ele>
        <time>2017-10-29T09:56:59Z</time>
      </trkpt>
      <trkpt lat="49.11435" lon="1.09551">
        <ele>188.8</ele>
        <time>2017-10-29T09:57:01Z</time>
      </trkpt>
      <trkpt lat="49.11428" lon="1.09563">
        <ele>188.8</ele>
        <time>2017-10-29T09:57:03Z</time>
      </trkpt>
      <trkpt lat="49.1142" lon="1.09575">
        <ele>188.6</ele>
        <time>2017-10-29T09:57:05Z</time>
      </trkpt>
      <trkpt lat="49.11411" lon="1.09587">
        <ele>188.4</ele>
        <time>2017-10-29T09:57:07Z</time>
      </trkpt>
      <trkpt lat="49.11403" lon="1.09599">
        <ele>188.3</ele>
        <time>2017-10-29T09:57:09Z</time>
      </trkpt>
      <trkpt lat="49.11395" lon="1.09613">
        <ele>188.2</ele>
        <time>2017-10-29T09:57:11Z</time>
      </trkpt>
      <trkpt lat="49.11387" lon="1.09627">
        <ele>188</ele>
        <time>2017-10-29T09:57:13Z</time>
      </trkpt>
      <trkpt lat="49.11378" lon="1.0964">
        <ele>187.8</ele>
        <time>2017-10-29T09:57:15Z</time>
      </trkpt>
      <trkpt lat="49.11369" lon="1.09652">
        <ele>187.5</ele>
        <time>2017-10-29T09:57:17Z</time>
      </trkpt>
      <trkpt lat="49.11358" lon="1.09662">
        <ele>187.3</ele>
        <time>2017-10-29T09:57:19Z</time>
      </trkpt>
      <trkpt lat="49.11347" lon="1.0967">
        <ele>186.9</ele>
        <time>2017-10-29T09:57:21Z</time>
      </trkpt>
      <trkpt lat="49.11335" lon="1.09676">
        <ele>186.6</ele>
        <time>2017-10-29T09:57:23Z</time>
      </trkpt>
      <trkpt lat="49.11322" lon="1.09681">
        <ele>186.3</ele>
        <time>2017-10-29T09:57:25Z</time>
      </trkpt>
      <trkpt lat="49.11309" lon="1.09687">
        <ele>185.8</ele>
        <time>2017-10-29T09:57:27Z</time>
      </trkpt>
      <trkpt lat="49.11297" lon="1.09697">
        <ele>185.5</ele>
        <time>2017-10-29T09:57:29Z</time>
      </trkpt>
      <trkpt lat="49.11287" lon="1.09712">
        <ele>185.2</ele>
        <time>2017-10-29T09:57:31Z</time>
      </trkpt>
      <trkpt lat="49.11278" lon="1.09725">
        <ele>185.1</ele>
        <time>2017-10-29T09:57:33Z</time>
      </trkpt>
      <trkpt lat="49.1127" lon="1.09736">
        <ele>184.7</ele>
        <time>2017-10-29T09:57:35Z</time>
      </trkpt>
      <trkpt lat="49.11259" lon="1.09746">
        <ele>184.6</ele>
        <time>2017-10-29T09:57:38Z</time>
      </trkpt>
      <trkpt lat="49.11249" lon="1.09747">
        <ele>184.6</ele>
        <time>2017-10-29T09:57:41Z</time>
      </trkpt>
      <trkpt lat="49.11238" lon="1.09751">
        <ele>184.9</ele>
        <time>2017-10-29T09:57:44Z</time>
      </trkpt>
      <trkpt lat="49.11232" lon="1.09763">
        <ele>184.8</ele>
        <time>2017-10-29T09:57:47Z</time>
      </trkpt>
      <trkpt lat="49.1123" lon="1.09777">
        <ele>185</ele>
        <time>2017-10-29T09:57:50Z</time>
      </trkpt>
      <trkpt lat="49.11227" lon="1.09795">
        <ele>185</ele>
        <time>2017-10-29T09:57:53Z</time>
      </trkpt>
      <trkpt lat="49.11225" lon="1.09812">
        <ele>185.2</ele>
        <time>2017-10-29T09:57:56Z</time>
      </trkpt>
      <trkpt lat="49.11222" lon="1.0983">
        <ele>185.4</ele>
        <time>2017-10-29T09:57:59Z</time>
      </trkpt>
      <trkpt lat="49.11221" lon="1.09847">
        <ele>185.2</ele>
        <time>2017-10-29T09:58:02Z</time>
      </trkpt>
      <trkpt lat="49.11218" lon="1.09867">
        <ele>185.3</ele>
        <time>2017-10-29T09:58:05Z</time>
      </trkpt>
      <trkpt lat="49.11213" lon="1.09886">
        <ele>185.4</ele>
        <time>2017-10-29T09:58:08Z</time>
      </trkpt>
      <trkpt lat="49.1121" lon="1.09901">
        <ele>185.3</ele>
        <time>2017-10-29T09:58:10Z</time>
      </trkpt>
      <trkpt lat="49.11207" lon="1.09914">
        <ele>185.3</ele>
        <time>2017-10-29T09:58:12Z</time>
      </trkpt>
      <trkpt lat="49.11204" lon="1.09932">
        <ele>185.3</ele>
        <time>2017-10-29T09:58:15Z</time>
      </trkpt>
      <trkpt lat="49.112" lon="1.09949">
        <ele>185.1</ele>
        <time>2017-10-29T09:58:18Z</time>
      </trkpt>
      <trkpt lat="49.11197" lon="1.09969">
        <ele>185.1</ele>
        <time>2017-10-29T09:58:21Z</time>
      </trkpt>
      <trkpt lat="49.11196" lon="1.09989">
        <ele>184.8</ele>
        <time>2017-10-29T09:58:24Z</time>
      </trkpt>
      <trkpt lat="49.11196" lon="1.10009">
        <ele>184.7</ele>
        <time>2017-10-29T09:58:27Z</time>
      </trkpt>
      <trkpt lat="49.11196" lon="1.10024">
        <ele>184.5</ele>
        <time>2017-10-29T09:58:29Z</time>
      </trkpt>
      <trkpt lat="49.11195" lon="1.10039">
        <ele>184.6</ele>
        <time>2017-10-29T09:58:31Z</time>
      </trkpt>
      <trkpt lat="49.11192" lon="1.10052">
        <ele>184.6</ele>
        <time>2017-10-29T09:58:33Z</time>
      </trkpt>
      <trkpt lat="49.11188" lon="1.10071">
        <ele>184.3</ele>
        <time>2017-10-29T09:58:36Z</time>
      </trkpt>
      <trkpt lat="49.11184" lon="1.1009">
        <ele>183.7</ele>
        <time>2017-10-29T09:58:39Z</time>
      </trkpt>
      <trkpt lat="49.11182" lon="1.10104">
        <ele>183.5</ele>
        <time>2017-10-29T09:58:41Z</time>
      </trkpt>
      <trkpt lat="49.11181" lon="1.10118">
        <ele>183.4</ele>
        <time>2017-10-29T09:58:43Z</time>
      </trkpt>
      <trkpt lat="49.11179" lon="1.10133">
        <ele>183.1</ele>
        <time>2017-10-29T09:58:45Z</time>
      </trkpt>
      <trkpt lat="49.11178" lon="1.10148">
        <ele>182.6</ele>
        <time>2017-10-29T09:58:47Z</time>
      </trkpt>
      <trkpt lat="49.11177" lon="1.10164">
        <ele>182.3</ele>
        <time>2017-10-29T09:58:49Z</time>
      </trkpt>
      <trkpt lat="49.11177" lon="1.10181">
        <ele>182.3</ele>
        <time>2017-10-29T09:58:51Z</time>
      </trkpt>
      <trkpt lat="49.11177" lon="1.10197">
        <ele>181.7</ele>
        <time>2017-10-29T09:58:53Z</time>
      </trkpt>
      <trkpt lat="49.11176" lon="1.10212">
        <ele>181.2</ele>
        <time>2017-10-29T09:58:55Z</time>
      </trkpt>
      <trkpt lat="49.11178" lon="1.1023">
        <ele>181</ele>
        <time>2017-10-29T09:58:58Z</time>
      </trkpt>
      <trkpt lat="49.11179" lon="1.10244">
        <ele>180.5</ele>
        <time>2017-10-29T09:59:00Z</time>
      </trkpt>
      <trkpt lat="49.11179" lon="1.10259">
        <ele>180.1</ele>
        <time>2017-10-29T09:59:02Z</time>
      </trkpt>
      <trkpt lat="49.11179" lon="1.10275">
        <ele>179.3</ele>
        <time>2017-10-29T09:59:04Z</time>
      </trkpt>
      <trkpt lat="49.1118" lon="1.10292">
        <ele>178.8</ele>
        <time>2017-10-29T09:59:06Z</time>
      </trkpt>
      <trkpt lat="49.11182" lon="1.1031">
        <ele>178.1</ele>
        <time>2017-10-29T09:59:08Z</time>
      </trkpt>
      <trkpt lat="49.11186" lon="1.1033">
        <ele>177.4</ele>
        <time>2017-10-29T09:59:10Z</time>
      </trkpt>
      <trkpt lat="49.11191" lon="1.10349">
        <ele>176.7</ele>
        <time>2017-10-29T09:59:12Z</time>
      </trkpt>
      <trkpt lat="49.11193" lon="1.10368">
        <ele>176</ele>
        <time>2017-10-29T09:59:14Z</time>
      </trkpt>
      <trkpt lat="49.11194" lon="1.10385">
        <ele>174.5</ele>
        <time>2017-10-29T09:59:17Z</time>
      </trkpt>
      <trkpt lat="49.11189" lon="1.10398">
        <ele>173.1</ele>
        <time>2017-10-29T09:59:20Z</time>
      </trkpt>
      <trkpt lat="49.11177" lon="1.10403">
        <ele>172.4</ele>
        <time>2017-10-29T09:59:24Z</time>
      </trkpt>
      <trkpt lat="49.11166" lon="1.104">
        <ele>172.7</ele>
        <time>2017-10-29T09:59:28Z</time>
      </trkpt>
      <trkpt lat="49.11156" lon="1.10397">
        <ele>173.1</ele>
        <time>2017-10-29T09:59:31Z</time>
      </trkpt>
      <trkpt lat="49.11147" lon="1.10394">
        <ele>173.6</ele>
        <time>2017-10-29T09:59:34Z</time>
      </trkpt>
      <trkpt lat="49.11138" lon="1.1039">
        <ele>174</ele>
        <time>2017-10-29T09:59:37Z</time>
      </trkpt>
      <trkpt lat="49.11128" lon="1.10386">
        <ele>174.4</ele>
        <time>2017-10-29T09:59:40Z</time>
      </trkpt>
      <trkpt lat="49.11119" lon="1.10389">
        <ele>174.7</ele>
        <time>2017-10-29T09:59:52Z</time>
      </trkpt>
      <trkpt lat="49.11129" lon="1.10388">
        <ele>174.6</ele>
        <time>2017-10-29T10:01:13Z</time>
      </trkpt>
      <trkpt lat="49.11138" lon="1.10392">
        <ele>174.5</ele>
        <time>2017-10-29T10:01:22Z</time>
      </trkpt>
      <trkpt lat="49.11147" lon="1.10398">
        <ele>174.1</ele>
        <time>2017-10-29T10:01:30Z</time>
      </trkpt>
      <trkpt lat="49.11156" lon="1.10401">
        <ele>173.9</ele>
        <time>2017-10-29T10:01:38Z</time>
      </trkpt>
      <trkpt lat="49.11165" lon="1.10405">
        <ele>173.5</ele>
        <time>2017-10-29T10:01:48Z</time>
      </trkpt>
      <trkpt lat="49.11175" lon="1.10406">
        <ele>173.2</ele>
        <time>2017-10-29T10:06:20Z</time>
      </trkpt>
      <trkpt lat="49.11165" lon="1.10406">
        <ele>173.5</ele>
        <time>2017-10-29T10:08:59Z</time>
      </trkpt>
      <trkpt lat="49.11156" lon="1.10401">
        <ele>173.6</ele>
        <time>2017-10-29T10:09:05Z</time>
      </trkpt>
      <trkpt lat="49.11146" lon="1.10397">
        <ele>173.8</ele>
        <time>2017-10-29T10:09:09Z</time>
      </trkpt>
      <trkpt lat="49.11138" lon="1.10391">
        <ele>174.1</ele>
        <time>2017-10-29T10:09:13Z</time>
      </trkpt>
      <trkpt lat="49.11128" lon="1.10386">
        <ele>174.4</ele>
        <time>2017-10-29T10:09:17Z</time>
      </trkpt>
      <trkpt lat="49.11116" lon="1.10382">
        <ele>174.8</ele>
        <time>2017-10-29T10:09:21Z</time>
      </trkpt>
      <trkpt lat="49.11106" lon="1.10378">
        <ele>174.7</ele>
        <time>2017-10-29T10:09:24Z</time>
      </trkpt>
      <trkpt lat="49.11097" lon="1.10374">
        <ele>174.9</ele>
        <time>2017-10-29T10:09:27Z</time>
      </trkpt>
      <trkpt lat="49.11088" lon="1.10368">
        <ele>175</ele>
        <time>2017-10-29T10:09:30Z</time>
      </trkpt>
      <trkpt lat="49.11079" lon="1.10363">
        <ele>175.1</ele>
        <time>2017-10-29T10:09:33Z</time>
      </trkpt>
      <trkpt lat="49.1107" lon="1.10358">
        <ele>175.3</ele>
        <time>2017-10-29T10:09:36Z</time>
      </trkpt>
      <trkpt lat="49.11061" lon="1.10354">
        <ele>175.5</ele>
        <time>2017-10-29T10:09:39Z</time>
      </trkpt>
      <trkpt lat="49.1105" lon="1.10349">
        <ele>175.8</ele>
        <time>2017-10-29T10:09:43Z</time>
      </trkpt>
      <trkpt lat="49.11041" lon="1.10346">
        <ele>176.2</ele>
        <time>2017-10-29T10:09:46Z</time>
      </trkpt>
      <trkpt lat="49.11032" lon="1.10342">
        <ele>176.7</ele>
        <time>2017-10-29T10:09:49Z</time>
      </trkpt>
      <trkpt lat="49.1102" lon="1.10339">
        <ele>177.3</ele>
        <time>2017-10-29T10:09:53Z</time>
      </trkpt>
      <trkpt lat="49.11009" lon="1.10336">
        <ele>178.1</ele>
        <time>2017-10-29T10:09:57Z</time>
      </trkpt>
      <trkpt lat="49.11" lon="1.10333">
        <ele>178.5</ele>
        <time>2017-10-29T10:10:00Z</time>
      </trkpt>
      <trkpt lat="49.1099" lon="1.10329">
        <ele>178.7</ele>
        <time>2017-10-29T10:10:03Z</time>
      </trkpt>
      <trkpt lat="49.10979" lon="1.10324">
        <ele>178.8</ele>
        <time>2017-10-29T10:10:07Z</time>
      </trkpt>
      <trkpt lat="49.1097" lon="1.10321">
        <ele>179</ele>
        <time>2017-10-29T10:10:10Z</time>
      </trkpt>
      <trkpt lat="49.1096" lon="1.10317">
        <ele>179.3</ele>
        <time>2017-10-29T10:10:13Z</time>
      </trkpt>
      <trkpt lat="49.10951" lon="1.10313">
        <ele>179.6</ele>
        <time>2017-10-29T10:10:16Z</time>
      </trkpt>
      <trkpt lat="49.10942" lon="1.10308">
        <ele>179.5</ele>
        <time>2017-10-29T10:10:19Z</time>
      </trkpt>
      <trkpt lat="49.10931" lon="1.10304">
        <ele>179.5</ele>
        <time>2017-10-29T10:10:23Z</time>
      </trkpt>
      <trkpt lat="49.10919" lon="1.10299">
        <ele>179.4</ele>
        <time>2017-10-29T10:10:26Z</time>
      </trkpt>
      <trkpt lat="49.10907" lon="1.10292">
        <ele>179.1</ele>
        <time>2017-10-29T10:10:29Z</time>
      </trkpt>
      <trkpt lat="49.10895" lon="1.10288">
        <ele>178.9</ele>
        <time>2017-10-29T10:10:32Z</time>
      </trkpt>
      <trkpt lat="49.10883" lon="1.10282">
        <ele>178.5</ele>
        <time>2017-10-29T10:10:35Z</time>
      </trkpt>
      <trkpt lat="49.10872" lon="1.10276">
        <ele>178.4</ele>
        <time>2017-10-29T10:10:38Z</time>
      </trkpt>
      <trkpt lat="49.1086" lon="1.10268">
        <ele>177.8</ele>
        <time>2017-10-29T10:10:41Z</time>
      </trkpt>
      <trkpt lat="49.10851" lon="1.10263">
        <ele>177.5</ele>
        <time>2017-10-29T10:10:43Z</time>
      </trkpt>
      <trkpt lat="49.10839" lon="1.10257">
        <ele>177.2</ele>
        <time>2017-10-29T10:10:46Z</time>
      </trkpt>
      <trkpt lat="49.10828" lon="1.10252">
        <ele>176.8</ele>
        <time>2017-10-29T10:10:49Z</time>
      </trkpt>
      <trkpt lat="49.10816" lon="1.10249">
        <ele>176.3</ele>
        <time>2017-10-29T10:10:52Z</time>
      </trkpt>
      <trkpt lat="49.10804" lon="1.10246">
        <ele>175.7</ele>
        <time>2017-10-29T10:10:55Z</time>
      </trkpt>
      <trkpt lat="49.10795" lon="1.10244">
        <ele>175.2</ele>
        <time>2017-10-29T10:10:57Z</time>
      </trkpt>
      <trkpt lat="49.10782" lon="1.10238">
        <ele>174.8</ele>
        <time>2017-10-29T10:11:00Z</time>
      </trkpt>
      <trkpt lat="49.10773" lon="1.10234">
        <ele>174.5</ele>
        <time>2017-10-29T10:11:02Z</time>
      </trkpt>
      <trkpt lat="49.10761" lon="1.1023">
        <ele>174.1</ele>
        <time>2017-10-29T10:11:05Z</time>
      </trkpt>
      <trkpt lat="49.10752" lon="1.10226">
        <ele>173.7</ele>
        <time>2017-10-29T10:11:07Z</time>
      </trkpt>
      <trkpt lat="49.10742" lon="1.10221">
        <ele>173.1</ele>
        <time>2017-10-29T10:11:09Z</time>
      </trkpt>
      <trkpt lat="49.10733" lon="1.10215">
        <ele>172.5</ele>
        <time>2017-10-29T10:11:11Z</time>
      </trkpt>
      <trkpt lat="49.10725" lon="1.10207">
        <ele>171.6</ele>
        <time>2017-10-29T10:11:13Z</time>
      </trkpt>
      <trkpt lat="49.10717" lon="1.10201">
        <ele>171.2</ele>
        <time>2017-10-29T10:11:15Z</time>
      </trkpt>
      <trkpt lat="49.10708" lon="1.10197">
        <ele>170.4</ele>
        <time>2017-10-29T10:11:17Z</time>
      </trkpt>
      <trkpt lat="49.10697" lon="1.10188">
        <ele>169.7</ele>
        <time>2017-10-29T10:11:19Z</time>
      </trkpt>
      <trkpt lat="49.10685" lon="1.10184">
        <ele>169.4</ele>
        <time>2017-10-29T10:11:21Z</time>
      </trkpt>
      <trkpt lat="49.10675" lon="1.10183">
        <ele>169.5</ele>
        <time>2017-10-29T10:11:23Z</time>
      </trkpt>
      <trkpt lat="49.10664" lon="1.10181">
        <ele>169.7</ele>
        <time>2017-10-29T10:11:25Z</time>
      </trkpt>
      <trkpt lat="49.10652" lon="1.10177">
        <ele>169.8</ele>
        <time>2017-10-29T10:11:28Z</time>
      </trkpt>
      <trkpt lat="49.1064" lon="1.10174">
        <ele>169.9</ele>
        <time>2017-10-29T10:11:31Z</time>
      </trkpt>
      <trkpt lat="49.10631" lon="1.10172">
        <ele>170</ele>
        <time>2017-10-29T10:11:33Z</time>
      </trkpt>
      <trkpt lat="49.1062" lon="1.10167">
        <ele>170.1</ele>
        <time>2017-10-29T10:11:36Z</time>
      </trkpt>
      <trkpt lat="49.10607" lon="1.10159">
        <ele>170.1</ele>
        <time>2017-10-29T10:11:39Z</time>
      </trkpt>
      <trkpt lat="49.10597" lon="1.10152">
        <ele>169.5</ele>
        <time>2017-10-29T10:11:42Z</time>
      </trkpt>
      <trkpt lat="49.1059" lon="1.10142">
        <ele>168.8</ele>
        <time>2017-10-29T10:11:46Z</time>
      </trkpt>
      <trkpt lat="49.10594" lon="1.10129">
        <ele>168.3</ele>
        <time>2017-10-29T10:11:51Z</time>
      </trkpt>
      <trkpt lat="49.10586" lon="1.10137">
        <ele>168.6</ele>
        <time>2017-10-29T10:12:07Z</time>
      </trkpt>
      <trkpt lat="49.10575" lon="1.10137">
        <ele>167.9</ele>
        <time>2017-10-29T10:12:12Z</time>
      </trkpt>
      <trkpt lat="49.10565" lon="1.10125">
        <ele>167.2</ele>
        <time>2017-10-29T10:12:15Z</time>
      </trkpt>
      <trkpt lat="49.10558" lon="1.10116">
        <ele>166.6</ele>
        <time>2017-10-29T10:12:17Z</time>
      </trkpt>
      <trkpt lat="49.10552" lon="1.10103">
        <ele>165.8</ele>
        <time>2017-10-29T10:12:19Z</time>
      </trkpt>
      <trkpt lat="49.10548" lon="1.10082">
        <ele>164.2</ele>
        <time>2017-10-29T10:12:22Z</time>
      </trkpt>
      <trkpt lat="49.10547" lon="1.10065">
        <ele>162.9</ele>
        <time>2017-10-29T10:12:24Z</time>
      </trkpt>
      <trkpt lat="49.10545" lon="1.10048">
        <ele>161.7</ele>
        <time>2017-10-29T10:12:26Z</time>
      </trkpt>
      <trkpt lat="49.10546" lon="1.10032">
        <ele>160.5</ele>
        <time>2017-10-29T10:12:28Z</time>
      </trkpt>
      <trkpt lat="49.10547" lon="1.10018">
        <ele>158.8</ele>
        <time>2017-10-29T10:12:30Z</time>
      </trkpt>
      <trkpt lat="49.10549" lon="1.10004">
        <ele>157.3</ele>
        <time>2017-10-29T10:12:32Z</time>
      </trkpt>
      <trkpt lat="49.10552" lon="1.09985">
        <ele>156</ele>
        <time>2017-10-29T10:12:34Z</time>
      </trkpt>
      <trkpt lat="49.10555" lon="1.09967">
        <ele>154.6</ele>
        <time>2017-10-29T10:12:36Z</time>
      </trkpt>
      <trkpt lat="49.10558" lon="1.09951">
        <ele>153.3</ele>
        <time>2017-10-29T10:12:38Z</time>
      </trkpt>
      <trkpt lat="49.10558" lon="1.09935">
        <ele>151.2</ele>
        <time>2017-10-29T10:12:41Z</time>
      </trkpt>
      <trkpt lat="49.10546" lon="1.09935">
        <ele>148.6</ele>
        <time>2017-10-29T10:12:45Z</time>
      </trkpt>
      <trkpt lat="49.10538" lon="1.09944">
        <ele>147.7</ele>
        <time>2017-10-29T10:12:47Z</time>
      </trkpt>
      <trkpt lat="49.1053" lon="1.09954">
        <ele>146.7</ele>
        <time>2017-10-29T10:12:49Z</time>
      </trkpt>
      <trkpt lat="49.10524" lon="1.09967">
        <ele>144.8</ele>
        <time>2017-10-29T10:12:52Z</time>
      </trkpt>
      <trkpt lat="49.10518" lon="1.09979">
        <ele>143.7</ele>
        <time>2017-10-29T10:12:54Z</time>
      </trkpt>
      <trkpt lat="49.10511" lon="1.09993">
        <ele>142.3</ele>
        <time>2017-10-29T10:12:56Z</time>
      </trkpt>
      <trkpt lat="49.10504" lon="1.10007">
        <ele>141.1</ele>
        <time>2017-10-29T10:12:58Z</time>
      </trkpt>
      <trkpt lat="49.10498" lon="1.10021">
        <ele>139.1</ele>
        <time>2017-10-29T10:13:00Z</time>
      </trkpt>
      <trkpt lat="49.10492" lon="1.10033">
        <ele>137.1</ele>
        <time>2017-10-29T10:13:02Z</time>
      </trkpt>
      <trkpt lat="49.10485" lon="1.10051">
        <ele>134</ele>
        <time>2017-10-29T10:13:05Z</time>
      </trkpt>
      <trkpt lat="49.10478" lon="1.10063">
        <ele>132.1</ele>
        <time>2017-10-29T10:13:07Z</time>
      </trkpt>
      <trkpt lat="49.10469" lon="1.1008">
        <ele>129.4</ele>
        <time>2017-10-29T10:13:10Z</time>
      </trkpt>
      <trkpt lat="49.10465" lon="1.10093">
        <ele>127.6</ele>
        <time>2017-10-29T10:13:12Z</time>
      </trkpt>
      <trkpt lat="49.10461" lon="1.10107">
        <ele>125.8</ele>
        <time>2017-10-29T10:13:14Z</time>
      </trkpt>
      <trkpt lat="49.10458" lon="1.10122">
        <ele>124.6</ele>
        <time>2017-10-29T10:13:16Z</time>
      </trkpt>
      <trkpt lat="49.10454" lon="1.10136">
        <ele>122.8</ele>
        <time>2017-10-29T10:13:19Z</time>
      </trkpt>
      <trkpt lat="49.10451" lon="1.10149">
        <ele>121.1</ele>
        <time>2017-10-29T10:13:24Z</time>
      </trkpt>
      <trkpt lat="49.10448" lon="1.10162">
        <ele>119.7</ele>
        <time>2017-10-29T10:13:45Z</time>
      </trkpt>
      <trkpt lat="49.10443" lon="1.10174">
        <ele>119.6</ele>
        <time>2017-10-29T10:14:09Z</time>
      </trkpt>
      <trkpt lat="49.10439" lon="1.1019">
        <ele>119.1</ele>
        <time>2017-10-29T10:14:14Z</time>
      </trkpt>
      <trkpt lat="49.10435" lon="1.10206">
        <ele>118.6</ele>
        <time>2017-10-29T10:14:18Z</time>
      </trkpt>
      <trkpt lat="49.10431" lon="1.10222">
        <ele>117.7</ele>
        <time>2017-10-29T10:14:21Z</time>
      </trkpt>
      <trkpt lat="49.10425" lon="1.10237">
        <ele>117.2</ele>
        <time>2017-10-29T10:14:23Z</time>
      </trkpt>
      <trkpt lat="49.10423" lon="1.10255">
        <ele>116.5</ele>
        <time>2017-10-29T10:14:25Z</time>
      </trkpt>
      <trkpt lat="49.10418" lon="1.10273">
        <ele>115.7</ele>
        <time>2017-10-29T10:14:27Z</time>
      </trkpt>
      <trkpt lat="49.10413" lon="1.10291">
        <ele>114.4</ele>
        <time>2017-10-29T10:14:29Z</time>
      </trkpt>
      <trkpt lat="49.1041" lon="1.10307">
        <ele>113.3</ele>
        <time>2017-10-29T10:14:31Z</time>
      </trkpt>
      <trkpt lat="49.10407" lon="1.10321">
        <ele>111.8</ele>
        <time>2017-10-29T10:14:33Z</time>
      </trkpt>
      <trkpt lat="49.10405" lon="1.10342">
        <ele>109.2</ele>
        <time>2017-10-29T10:14:36Z</time>
      </trkpt>
      <trkpt lat="49.10407" lon="1.10359">
        <ele>107.7</ele>
        <time>2017-10-29T10:14:38Z</time>
      </trkpt>
      <trkpt lat="49.10408" lon="1.10376">
        <ele>106</ele>
        <time>2017-10-29T10:14:40Z</time>
      </trkpt>
      <trkpt lat="49.10407" lon="1.10397">
        <ele>104.6</ele>
        <time>2017-10-29T10:14:42Z</time>
      </trkpt>
      <trkpt lat="49.10407" lon="1.10418">
        <ele>102.9</ele>
        <time>2017-10-29T10:14:44Z</time>
      </trkpt>
      <trkpt lat="49.10404" lon="1.10439">
        <ele>101.3</ele>
        <time>2017-10-29T10:14:46Z</time>
      </trkpt>
      <trkpt lat="49.10401" lon="1.1046">
        <ele>100.1</ele>
        <time>2017-10-29T10:14:48Z</time>
      </trkpt>
      <trkpt lat="49.10398" lon="1.10477">
        <ele>98.7</ele>
        <time>2017-10-29T10:14:50Z</time>
      </trkpt>
      <trkpt lat="49.10394" lon="1.10492">
        <ele>96.9</ele>
        <time>2017-10-29T10:14:53Z</time>
      </trkpt>
      <trkpt lat="49.10385" lon="1.105">
        <ele>94.5</ele>
        <time>2017-10-29T10:14:58Z</time>
      </trkpt>
      <trkpt lat="49.10375" lon="1.10497">
        <ele>93.3</ele>
        <time>2017-10-29T10:15:02Z</time>
      </trkpt>
      <trkpt lat="49.10367" lon="1.10487">
        <ele>92.6</ele>
        <time>2017-10-29T10:15:05Z</time>
      </trkpt>
      <trkpt lat="49.10359" lon="1.10474">
        <ele>92.1</ele>
        <time>2017-10-29T10:15:08Z</time>
      </trkpt>
      <trkpt lat="49.10352" lon="1.10458">
        <ele>91.7</ele>
        <time>2017-10-29T10:15:11Z</time>
      </trkpt>
      <trkpt lat="49.10345" lon="1.10448">
        <ele>91.4</ele>
        <time>2017-10-29T10:15:13Z</time>
      </trkpt>
      <trkpt lat="49.10338" lon="1.10439">
        <ele>91.1</ele>
        <time>2017-10-29T10:15:15Z</time>
      </trkpt>
      <trkpt lat="49.1033" lon="1.1043">
        <ele>90.8</ele>
        <time>2017-10-29T10:15:17Z</time>
      </trkpt>
      <trkpt lat="49.10322" lon="1.10424">
        <ele>90.5</ele>
        <time>2017-10-29T10:15:19Z</time>
      </trkpt>
      <trkpt lat="49.10313" lon="1.10418">
        <ele>90.4</ele>
        <time>2017-10-29T10:15:21Z</time>
      </trkpt>
      <trkpt lat="49.10305" lon="1.10413">
        <ele>90.3</ele>
        <time>2017-10-29T10:15:23Z</time>
      </trkpt>
      <trkpt lat="49.10292" lon="1.10406">
        <ele>90.1</ele>
        <time>2017-10-29T10:15:26Z</time>
      </trkpt>
      <trkpt lat="49.10283" lon="1.10402">
        <ele>90</ele>
        <time>2017-10-29T10:15:28Z</time>
      </trkpt>
      <trkpt lat="49.10274" lon="1.10399">
        <ele>89.9</ele>
        <time>2017-10-29T10:15:30Z</time>
      </trkpt>
      <trkpt lat="49.10264" lon="1.10398">
        <ele>89.9</ele>
        <time>2017-10-29T10:15:32Z</time>
      </trkpt>
      <trkpt lat="49.10254" lon="1.10398">
        <ele>89.9</ele>
        <time>2017-10-29T10:15:34Z</time>
      </trkpt>
      <trkpt lat="49.10244" lon="1.10399">
        <ele>89.9</ele>
        <time>2017-10-29T10:15:36Z</time>
      </trkpt>
      <trkpt lat="49.10234" lon="1.104">
        <ele>89.9</ele>
        <time>2017-10-29T10:15:38Z</time>
      </trkpt>
      <trkpt lat="49.10224" lon="1.10402">
        <ele>90</ele>
        <time>2017-10-29T10:15:40Z</time>
      </trkpt>
      <trkpt lat="49.10214" lon="1.10404">
        <ele>90</ele>
        <time>2017-10-29T10:15:42Z</time>
      </trkpt>
      <trkpt lat="49.10204" lon="1.10405">
        <ele>90.1</ele>
        <time>2017-10-29T10:15:44Z</time>
      </trkpt>
      <trkpt lat="49.10195" lon="1.10405">
        <ele>90.1</ele>
        <time>2017-10-29T10:15:46Z</time>
      </trkpt>
      <trkpt lat="49.10185" lon="1.10407">
        <ele>90.2</ele>
        <time>2017-10-29T10:15:48Z</time>
      </trkpt>
      <trkpt lat="49.10174" lon="1.10408">
        <ele>90.2</ele>
        <time>2017-10-29T10:15:50Z</time>
      </trkpt>
      <trkpt lat="49.10164" lon="1.10409">
        <ele>90.1</ele>
        <time>2017-10-29T10:15:52Z</time>
      </trkpt>
      <trkpt lat="49.10153" lon="1.1041">
        <ele>90.1</ele>
        <time>2017-10-29T10:15:54Z</time>
      </trkpt>
      <trkpt lat="49.10142" lon="1.10411">
        <ele>90.2</ele>
        <time>2017-10-29T10:15:56Z</time>
      </trkpt>
      <trkpt lat="49.10131" lon="1.1041">
        <ele>90.1</ele>
        <time>2017-10-29T10:15:58Z</time>
      </trkpt>
      <trkpt lat="49.1012" lon="1.10407">
        <ele>90.1</ele>
        <time>2017-10-29T10:16:00Z</time>
      </trkpt>
      <trkpt lat="49.1011" lon="1.10403">
        <ele>90</ele>
        <time>2017-10-29T10:16:02Z</time>
      </trkpt>
      <trkpt lat="49.101" lon="1.10396">
        <ele>90.1</ele>
        <time>2017-10-29T10:16:04Z</time>
      </trkpt>
      <trkpt lat="49.1009" lon="1.10388">
        <ele>90.1</ele>
        <time>2017-10-29T10:16:06Z</time>
      </trkpt>
      <trkpt lat="49.10082" lon="1.10379">
        <ele>90.2</ele>
        <time>2017-10-29T10:16:08Z</time>
      </trkpt>
      <trkpt lat="49.10072" lon="1.10371">
        <ele>90.3</ele>
        <time>2017-10-29T10:16:10Z</time>
      </trkpt>
      <trkpt lat="49.10062" lon="1.10364">
        <ele>90.5</ele>
        <time>2017-10-29T10:16:12Z</time>
      </trkpt>
      <trkpt lat="49.10051" lon="1.10362">
        <ele>90.6</ele>
        <time>2017-10-29T10:16:14Z</time>
      </trkpt>
      <trkpt lat="49.10042" lon="1.10362">
        <ele>90.7</ele>
        <time>2017-10-29T10:16:16Z</time>
      </trkpt>
      <trkpt lat="49.10032" lon="1.10363">
        <ele>90.8</ele>
        <time>2017-10-29T10:16:18Z</time>
      </trkpt>
      <trkpt lat="49.10023" lon="1.10365">
        <ele>90.8</ele>
        <time>2017-10-29T10:16:20Z</time>
      </trkpt>
      <trkpt lat="49.1001" lon="1.10369">
        <ele>91</ele>
        <time>2017-10-29T10:16:23Z</time>
      </trkpt>
      <trkpt lat="49.10001" lon="1.10373">
        <ele>91.2</ele>
        <time>2017-10-29T10:16:25Z</time>
      </trkpt>
      <trkpt lat="49.09992" lon="1.10376">
        <ele>91.4</ele>
        <time>2017-10-29T10:16:27Z</time>
      </trkpt>
      <trkpt lat="49.09983" lon="1.10381">
        <ele>91.5</ele>
        <time>2017-10-29T10:16:29Z</time>
      </trkpt>
      <trkpt lat="49.09975" lon="1.10385">
        <ele>91.7</ele>
        <time>2017-10-29T10:16:31Z</time>
      </trkpt>
      <trkpt lat="49.09966" lon="1.1039">
        <ele>91.8</ele>
        <time>2017-10-29T10:16:33Z</time>
      </trkpt>
      <trkpt lat="49.09957" lon="1.10395">
        <ele>91.7</ele>
        <time>2017-10-29T10:16:35Z</time>
      </trkpt>
      <trkpt lat="49.09945" lon="1.10401">
        <ele>91.8</ele>
        <time>2017-10-29T10:16:38Z</time>
      </trkpt>
      <trkpt lat="49.09933" lon="1.10407">
        <ele>91.9</ele>
        <time>2017-10-29T10:16:41Z</time>
      </trkpt>
      <trkpt lat="49.09922" lon="1.10413">
        <ele>92.4</ele>
        <time>2017-10-29T10:16:44Z</time>
      </trkpt>
      <trkpt lat="49.09912" lon="1.10413">
        <ele>92.4</ele>
        <time>2017-10-29T10:16:47Z</time>
      </trkpt>
      <trkpt lat="49.099" lon="1.10414">
        <ele>93.1</ele>
        <time>2017-10-29T10:16:51Z</time>
      </trkpt>
      <trkpt lat="49.0989" lon="1.10416">
        <ele>93.9</ele>
        <time>2017-10-29T10:16:54Z</time>
      </trkpt>
      <trkpt lat="49.09881" lon="1.10417">
        <ele>94.4</ele>
        <time>2017-10-29T10:16:57Z</time>
      </trkpt>
      <trkpt lat="49.09869" lon="1.1042">
        <ele>95.1</ele>
        <time>2017-10-29T10:17:01Z</time>
      </trkpt>
      <trkpt lat="49.09858" lon="1.10421">
        <ele>96.1</ele>
        <time>2017-10-29T10:17:05Z</time>
      </trkpt>
      <trkpt lat="49.09848" lon="1.10423">
        <ele>97.2</ele>
        <time>2017-10-29T10:17:09Z</time>
      </trkpt>
      <trkpt lat="49.09838" lon="1.10425">
        <ele>98.3</ele>
        <time>2017-10-29T10:17:13Z</time>
      </trkpt>
      <trkpt lat="49.09828" lon="1.10427">
        <ele>99.4</ele>
        <time>2017-10-29T10:17:17Z</time>
      </trkpt>
      <trkpt lat="49.09819" lon="1.10431">
        <ele>100.5</ele>
        <time>2017-10-29T10:17:21Z</time>
      </trkpt>
      <trkpt lat="49.09809" lon="1.10436">
        <ele>101.5</ele>
        <time>2017-10-29T10:17:25Z</time>
      </trkpt>
      <trkpt lat="49.09798" lon="1.10443">
        <ele>102.5</ele>
        <time>2017-10-29T10:17:29Z</time>
      </trkpt>
      <trkpt lat="49.09787" lon="1.10449">
        <ele>103.2</ele>
        <time>2017-10-29T10:17:33Z</time>
      </trkpt>
      <trkpt lat="49.09778" lon="1.10455">
        <ele>103.7</ele>
        <time>2017-10-29T10:17:37Z</time>
      </trkpt>
      <trkpt lat="49.09769" lon="1.10462">
        <ele>104.1</ele>
        <time>2017-10-29T10:17:41Z</time>
      </trkpt>
      <trkpt lat="49.09758" lon="1.10468">
        <ele>104.5</ele>
        <time>2017-10-29T10:17:45Z</time>
      </trkpt>
      <trkpt lat="49.09748" lon="1.10474">
        <ele>104.9</ele>
        <time>2017-10-29T10:17:49Z</time>
      </trkpt>
      <trkpt lat="49.09737" lon="1.10482">
        <ele>105.7</ele>
        <time>2017-10-29T10:17:53Z</time>
      </trkpt>
      <trkpt lat="49.09727" lon="1.10489">
        <ele>106.1</ele>
        <time>2017-10-29T10:17:57Z</time>
      </trkpt>
      <trkpt lat="49.09717" lon="1.10497">
        <ele>106.6</ele>
        <time>2017-10-29T10:18:01Z</time>
      </trkpt>
      <trkpt lat="49.09708" lon="1.10503">
        <ele>106.9</ele>
        <time>2017-10-29T10:18:04Z</time>
      </trkpt>
      <trkpt lat="49.09698" lon="1.10506">
        <ele>107.1</ele>
        <time>2017-10-29T10:18:08Z</time>
      </trkpt>
      <trkpt lat="49.09687" lon="1.1051">
        <ele>107.6</ele>
        <time>2017-10-29T10:18:12Z</time>
      </trkpt>
      <trkpt lat="49.09678" lon="1.10514">
        <ele>108</ele>
        <time>2017-10-29T10:18:15Z</time>
      </trkpt>
      <trkpt lat="49.09667" lon="1.10519">
        <ele>108.6</ele>
        <time>2017-10-29T10:18:19Z</time>
      </trkpt>
      <trkpt lat="49.09658" lon="1.10525">
        <ele>109.1</ele>
        <time>2017-10-29T10:18:22Z</time>
      </trkpt>
      <trkpt lat="49.0965" lon="1.10529">
        <ele>109.9</ele>
        <time>2017-10-29T10:18:25Z</time>
      </trkpt>
      <trkpt lat="49.0964" lon="1.10535">
        <ele>111.1</ele>
        <time>2017-10-29T10:18:30Z</time>
      </trkpt>
      <trkpt lat="49.09631" lon="1.10543">
        <ele>111.3</ele>
        <time>2017-10-29T10:18:34Z</time>
      </trkpt>
      <trkpt lat="49.09622" lon="1.10549">
        <ele>111.7</ele>
        <time>2017-10-29T10:18:38Z</time>
      </trkpt>
      <trkpt lat="49.09611" lon="1.10555">
        <ele>112.1</ele>
        <time>2017-10-29T10:18:43Z</time>
      </trkpt>
      <trkpt lat="49.09603" lon="1.1056">
        <ele>112.2</ele>
        <time>2017-10-29T10:18:47Z</time>
      </trkpt>
      <trkpt lat="49.09594" lon="1.10567">
        <ele>112.2</ele>
        <time>2017-10-29T10:18:51Z</time>
      </trkpt>
      <trkpt lat="49.09585" lon="1.10577">
        <ele>112.4</ele>
        <time>2017-10-29T10:18:55Z</time>
      </trkpt>
      <trkpt lat="49.09577" lon="1.10585">
        <ele>112.4</ele>
        <time>2017-10-29T10:18:59Z</time>
      </trkpt>
      <trkpt lat="49.09569" lon="1.10596">
        <ele>112.3</ele>
        <time>2017-10-29T10:19:03Z</time>
      </trkpt>
      <trkpt lat="49.09562" lon="1.10606">
        <ele>112.1</ele>
        <time>2017-10-29T10:19:06Z</time>
      </trkpt>
      <trkpt lat="49.09553" lon="1.10614">
        <ele>111.7</ele>
        <time>2017-10-29T10:19:10Z</time>
      </trkpt>
      <trkpt lat="49.09545" lon="1.10624">
        <ele>111.3</ele>
        <time>2017-10-29T10:19:13Z</time>
      </trkpt>
      <trkpt lat="49.09535" lon="1.10635">
        <ele>111.1</ele>
        <time>2017-10-29T10:19:16Z</time>
      </trkpt>
      <trkpt lat="49.09528" lon="1.10646">
        <ele>111</ele>
        <time>2017-10-29T10:19:19Z</time>
      </trkpt>
      <trkpt lat="49.09518" lon="1.10655">
        <ele>110.8</ele>
        <time>2017-10-29T10:19:22Z</time>
      </trkpt>
      <trkpt lat="49.09507" lon="1.10668">
        <ele>111</ele>
        <time>2017-10-29T10:19:25Z</time>
      </trkpt>
      <trkpt lat="49.09498" lon="1.10675">
        <ele>111</ele>
        <time>2017-10-29T10:19:28Z</time>
      </trkpt>
      <trkpt lat="49.09487" lon="1.10682">
        <ele>111.3</ele>
        <time>2017-10-29T10:19:31Z</time>
      </trkpt>
      <trkpt lat="49.09479" lon="1.10688">
        <ele>111.9</ele>
        <time>2017-10-29T10:19:34Z</time>
      </trkpt>
      <trkpt lat="49.0947" lon="1.10696">
        <ele>112.9</ele>
        <time>2017-10-29T10:19:37Z</time>
      </trkpt>
      <trkpt lat="49.09463" lon="1.10708">
        <ele>113.6</ele>
        <time>2017-10-29T10:19:40Z</time>
      </trkpt>
      <trkpt lat="49.09458" lon="1.10719">
        <ele>113.8</ele>
        <time>2017-10-29T10:19:43Z</time>
      </trkpt>
      <trkpt lat="49.09452" lon="1.1073">
        <ele>113.8</ele>
        <time>2017-10-29T10:19:46Z</time>
      </trkpt>
      <trkpt lat="49.09444" lon="1.10745">
        <ele>114.1</ele>
        <time>2017-10-29T10:19:50Z</time>
      </trkpt>
      <trkpt lat="49.09437" lon="1.10757">
        <ele>114.5</ele>
        <time>2017-10-29T10:19:54Z</time>
      </trkpt>
      <trkpt lat="49.0943" lon="1.10769">
        <ele>114.5</ele>
        <time>2017-10-29T10:19:57Z</time>
      </trkpt>
      <trkpt lat="49.09424" lon="1.10784">
        <ele>114.7</ele>
        <time>2017-10-29T10:20:00Z</time>
      </trkpt>
      <trkpt lat="49.09418" lon="1.10797">
        <ele>114.9</ele>
        <time>2017-10-29T10:20:03Z</time>
      </trkpt>
      <trkpt lat="49.09412" lon="1.10812">
        <ele>115</ele>
        <time>2017-10-29T10:20:06Z</time>
      </trkpt>
      <trkpt lat="49.09407" lon="1.10826">
        <ele>114.6</ele>
        <time>2017-10-29T10:20:09Z</time>
      </trkpt>
      <trkpt lat="49.09404" lon="1.1084">
        <ele>114.2</ele>
        <time>2017-10-29T10:20:12Z</time>
      </trkpt>
      <trkpt lat="49.09399" lon="1.1086">
        <ele>113.6</ele>
        <time>2017-10-29T10:20:15Z</time>
      </trkpt>
      <trkpt lat="49.09394" lon="1.10877">
        <ele>113.2</ele>
        <time>2017-10-29T10:20:17Z</time>
      </trkpt>
      <trkpt lat="49.09388" lon="1.109">
        <ele>112.7</ele>
        <time>2017-10-29T10:20:19Z</time>
      </trkpt>
      <trkpt lat="49.09383" lon="1.10917">
        <ele>111.7</ele>
        <time>2017-10-29T10:20:21Z</time>
      </trkpt>
      <trkpt lat="49.09379" lon="1.10936">
        <ele>110.9</ele>
        <time>2017-10-29T10:20:23Z</time>
      </trkpt>
      <trkpt lat="49.09374" lon="1.10957">
        <ele>109.9</ele>
        <time>2017-10-29T10:20:25Z</time>
      </trkpt>
      <trkpt lat="49.09369" lon="1.10978">
        <ele>109.3</ele>
        <time>2017-10-29T10:20:27Z</time>
      </trkpt>
      <trkpt lat="49.09366" lon="1.10992">
        <ele>108.8</ele>
        <time>2017-10-29T10:20:29Z</time>
      </trkpt>
      <trkpt lat="49.09365" lon="1.11008">
        <ele>108.4</ele>
        <time>2017-10-29T10:20:31Z</time>
      </trkpt>
      <trkpt lat="49.09363" lon="1.11022">
        <ele>107.9</ele>
        <time>2017-10-29T10:20:33Z</time>
      </trkpt>
      <trkpt lat="49.09362" lon="1.11038">
        <ele>107.8</ele>
        <time>2017-10-29T10:20:35Z</time>
      </trkpt>
      <trkpt lat="49.09362" lon="1.11056">
        <ele>107.8</ele>
        <time>2017-10-29T10:20:37Z</time>
      </trkpt>
      <trkpt lat="49.09359" lon="1.1107">
        <ele>107.7</ele>
        <time>2017-10-29T10:20:39Z</time>
      </trkpt>
      <trkpt lat="49.0936" lon="1.11085">
        <ele>107.9</ele>
        <time>2017-10-29T10:20:41Z</time>
      </trkpt>
      <trkpt lat="49.09356" lon="1.11101">
        <ele>108</ele>
        <time>2017-10-29T10:20:43Z</time>
      </trkpt>
      <trkpt lat="49.09353" lon="1.11115">
        <ele>108.1</ele>
        <time>2017-10-29T10:20:45Z</time>
      </trkpt>
      <trkpt lat="49.09348" lon="1.11135">
        <ele>108.3</ele>
        <time>2017-10-29T10:20:48Z</time>
      </trkpt>
      <trkpt lat="49.09343" lon="1.11152">
        <ele>108.8</ele>
        <time>2017-10-29T10:20:51Z</time>
      </trkpt>
      <trkpt lat="49.09338" lon="1.11168">
        <ele>109.2</ele>
        <time>2017-10-29T10:20:54Z</time>
      </trkpt>
      <trkpt lat="49.09333" lon="1.11183">
        <ele>109.3</ele>
        <time>2017-10-29T10:20:57Z</time>
      </trkpt>
      <trkpt lat="49.09331" lon="1.11198">
        <ele>109.4</ele>
        <time>2017-10-29T10:21:00Z</time>
      </trkpt>
      <trkpt lat="49.0933" lon="1.11214">
        <ele>109.4</ele>
        <time>2017-10-29T10:21:04Z</time>
      </trkpt>
      <trkpt lat="49.09327" lon="1.11231">
        <ele>109.3</ele>
        <time>2017-10-29T10:21:08Z</time>
      </trkpt>
      <trkpt lat="49.09324" lon="1.11245">
        <ele>109.1</ele>
        <time>2017-10-29T10:21:14Z</time>
      </trkpt>
      <trkpt lat="49.09323" lon="1.11259">
        <ele>108.1</ele>
        <time>2017-10-29T10:21:52Z</time>
      </trkpt>
      <trkpt lat="49.09333" lon="1.11263">
        <ele>107.8</ele>
        <time>2017-10-29T10:21:57Z</time>
      </trkpt>
      <trkpt lat="49.09345" lon="1.11266">
        <ele>107.6</ele>
        <time>2017-10-29T10:22:00Z</time>
      </trkpt>
      <trkpt lat="49.09354" lon="1.11269">
        <ele>107.3</ele>
        <time>2017-10-29T10:22:02Z</time>
      </trkpt>
      <trkpt lat="49.09365" lon="1.11271">
        <ele>106.7</ele>
        <time>2017-10-29T10:22:04Z</time>
      </trkpt>
      <trkpt lat="49.09378" lon="1.11269">
        <ele>106.2</ele>
        <time>2017-10-29T10:22:06Z</time>
      </trkpt>
      <trkpt lat="49.09392" lon="1.11266">
        <ele>105.5</ele>
        <time>2017-10-29T10:22:08Z</time>
      </trkpt>
      <trkpt lat="49.09406" lon="1.11262">
        <ele>104.9</ele>
        <time>2017-10-29T10:22:10Z</time>
      </trkpt>
      <trkpt lat="49.0942" lon="1.11258">
        <ele>104.1</ele>
        <time>2017-10-29T10:22:12Z</time>
      </trkpt>
      <trkpt lat="49.09436" lon="1.11258">
        <ele>103.6</ele>
        <time>2017-10-29T10:22:14Z</time>
      </trkpt>
      <trkpt lat="49.09452" lon="1.11261">
        <ele>103</ele>
        <time>2017-10-29T10:22:16Z</time>
      </trkpt>
      <trkpt lat="49.09469" lon="1.11265">
        <ele>101.8</ele>
        <time>2017-10-29T10:22:18Z</time>
      </trkpt>
      <trkpt lat="49.09479" lon="1.11267">
        <ele>101.4</ele>
        <time>2017-10-29T10:22:19Z</time>
      </trkpt>
      <trkpt lat="49.09488" lon="1.1127">
        <ele>100.9</ele>
        <time>2017-10-29T10:22:20Z</time>
      </trkpt>
      <trkpt lat="49.09497" lon="1.11273">
        <ele>100.4</ele>
        <time>2017-10-29T10:22:21Z</time>
      </trkpt>
      <trkpt lat="49.09506" lon="1.11276">
        <ele>99.9</ele>
        <time>2017-10-29T10:22:22Z</time>
      </trkpt>
      <trkpt lat="49.09515" lon="1.1128">
        <ele>99.2</ele>
        <time>2017-10-29T10:22:23Z</time>
      </trkpt>
      <trkpt lat="49.09524" lon="1.11283">
        <ele>98.7</ele>
        <time>2017-10-29T10:22:24Z</time>
      </trkpt>
      <trkpt lat="49.09533" lon="1.11287">
        <ele>98.2</ele>
        <time>2017-10-29T10:22:25Z</time>
      </trkpt>
      <trkpt lat="49.09547" lon="1.11294">
        <ele>97.1</ele>
        <time>2017-10-29T10:22:27Z</time>
      </trkpt>
      <trkpt lat="49.09554" lon="1.11302">
        <ele>96.1</ele>
        <time>2017-10-29T10:22:29Z</time>
      </trkpt>
      <trkpt lat="49.09553" lon="1.11321">
        <ele>94.8</ele>
        <time>2017-10-29T10:22:32Z</time>
      </trkpt>
      <trkpt lat="49.09549" lon="1.11341">
        <ele>94.1</ele>
        <time>2017-10-29T10:22:35Z</time>
      </trkpt>
      <trkpt lat="49.09548" lon="1.11355">
        <ele>93.7</ele>
        <time>2017-10-29T10:22:37Z</time>
      </trkpt>
      <trkpt lat="49.09545" lon="1.11374">
        <ele>93.4</ele>
        <time>2017-10-29T10:22:40Z</time>
      </trkpt>
      <trkpt lat="49.09542" lon="1.11393">
        <ele>93.5</ele>
        <time>2017-10-29T10:22:43Z</time>
      </trkpt>
      <trkpt lat="49.09537" lon="1.11409">
        <ele>93.6</ele>
        <time>2017-10-29T10:22:46Z</time>
      </trkpt>
      <trkpt lat="49.09531" lon="1.11424">
        <ele>93.5</ele>
        <time>2017-10-29T10:22:49Z</time>
      </trkpt>
      <trkpt lat="49.09522" lon="1.11436">
        <ele>93.6</ele>
        <time>2017-10-29T10:22:52Z</time>
      </trkpt>
      <trkpt lat="49.09513" lon="1.11447">
        <ele>93.9</ele>
        <time>2017-10-29T10:22:55Z</time>
      </trkpt>
      <trkpt lat="49.09506" lon="1.11457">
        <ele>94.2</ele>
        <time>2017-10-29T10:22:58Z</time>
      </trkpt>
      <trkpt lat="49.09499" lon="1.11468">
        <ele>94.4</ele>
        <time>2017-10-29T10:23:01Z</time>
      </trkpt>
      <trkpt lat="49.09492" lon="1.1148">
        <ele>94.8</ele>
        <time>2017-10-29T10:23:04Z</time>
      </trkpt>
      <trkpt lat="49.09488" lon="1.11494">
        <ele>95.3</ele>
        <time>2017-10-29T10:23:07Z</time>
      </trkpt>
      <trkpt lat="49.09485" lon="1.11509">
        <ele>95.6</ele>
        <time>2017-10-29T10:23:10Z</time>
      </trkpt>
      <trkpt lat="49.09482" lon="1.11524">
        <ele>95.9</ele>
        <time>2017-10-29T10:23:13Z</time>
      </trkpt>
      <trkpt lat="49.09479" lon="1.11539">
        <ele>96.3</ele>
        <time>2017-10-29T10:23:16Z</time>
      </trkpt>
      <trkpt lat="49.09476" lon="1.11555">
        <ele>96.6</ele>
        <time>2017-10-29T10:23:19Z</time>
      </trkpt>
      <trkpt lat="49.09473" lon="1.11572">
        <ele>97</ele>
        <time>2017-10-29T10:23:22Z</time>
      </trkpt>
      <trkpt lat="49.09471" lon="1.11587">
        <ele>97.3</ele>
        <time>2017-10-29T10:23:25Z</time>
      </trkpt>
      <trkpt lat="49.09468" lon="1.11603">
        <ele>97.5</ele>
        <time>2017-10-29T10:23:28Z</time>
      </trkpt>
      <trkpt lat="49.09465" lon="1.11619">
        <ele>97.8</ele>
        <time>2017-10-29T10:23:31Z</time>
      </trkpt>
      <trkpt lat="49.09463" lon="1.11634">
        <ele>98</ele>
        <time>2017-10-29T10:23:34Z</time>
      </trkpt>
      <trkpt lat="49.0946" lon="1.1165">
        <ele>98.3</ele>
        <time>2017-10-29T10:23:37Z</time>
      </trkpt>
      <trkpt lat="49.09458" lon="1.11664">
        <ele>98.8</ele>
        <time>2017-10-29T10:23:40Z</time>
      </trkpt>
      <trkpt lat="49.09455" lon="1.11679">
        <ele>99.1</ele>
        <time>2017-10-29T10:23:43Z</time>
      </trkpt>
      <trkpt lat="49.09453" lon="1.11694">
        <ele>99.5</ele>
        <time>2017-10-29T10:23:46Z</time>
      </trkpt>
      <trkpt lat="49.09451" lon="1.11708">
        <ele>100</ele>
        <time>2017-10-29T10:23:49Z</time>
      </trkpt>
      <trkpt lat="49.09448" lon="1.11723">
        <ele>100.6</ele>
        <time>2017-10-29T10:23:52Z</time>
      </trkpt>
      <trkpt lat="49.09445" lon="1.11736">
        <ele>101.4</ele>
        <time>2017-10-29T10:23:55Z</time>
      </trkpt>
      <trkpt lat="49.0944" lon="1.11749">
        <ele>102.1</ele>
        <time>2017-10-29T10:23:58Z</time>
      </trkpt>
      <trkpt lat="49.09434" lon="1.1176">
        <ele>102.7</ele>
        <time>2017-10-29T10:24:01Z</time>
      </trkpt>
      <trkpt lat="49.09427" lon="1.1177">
        <ele>103.4</ele>
        <time>2017-10-29T10:24:04Z</time>
      </trkpt>
      <trkpt lat="49.0942" lon="1.11781">
        <ele>104</ele>
        <time>2017-10-29T10:24:07Z</time>
      </trkpt>
      <trkpt lat="49.09413" lon="1.1179">
        <ele>104.5</ele>
        <time>2017-10-29T10:24:10Z</time>
      </trkpt>
      <trkpt lat="49.09406" lon="1.118">
        <ele>105.2</ele>
        <time>2017-10-29T10:24:13Z</time>
      </trkpt>
      <trkpt lat="49.09399" lon="1.11809">
        <ele>105.6</ele>
        <time>2017-10-29T10:24:16Z</time>
      </trkpt>
      <trkpt lat="49.09392" lon="1.11818">
        <ele>106.2</ele>
        <time>2017-10-29T10:24:19Z</time>
      </trkpt>
      <trkpt lat="49.09385" lon="1.11828">
        <ele>106.7</ele>
        <time>2017-10-29T10:24:22Z</time>
      </trkpt>
      <trkpt lat="49.09379" lon="1.11837">
        <ele>107</ele>
        <time>2017-10-29T10:24:25Z</time>
      </trkpt>
      <trkpt lat="49.0937" lon="1.1185">
        <ele>107.7</ele>
        <time>2017-10-29T10:24:29Z</time>
      </trkpt>
      <trkpt lat="49.09362" lon="1.11864">
        <ele>108.5</ele>
        <time>2017-10-29T10:24:33Z</time>
      </trkpt>
      <trkpt lat="49.09357" lon="1.11874">
        <ele>109</ele>
        <time>2017-10-29T10:24:36Z</time>
      </trkpt>
      <trkpt lat="49.09349" lon="1.11887">
        <ele>109.7</ele>
        <time>2017-10-29T10:24:40Z</time>
      </trkpt>
      <trkpt lat="49.09342" lon="1.11901">
        <ele>110.6</ele>
        <time>2017-10-29T10:24:44Z</time>
      </trkpt>
      <trkpt lat="49.09334" lon="1.11914">
        <ele>111.5</ele>
        <time>2017-10-29T10:24:48Z</time>
      </trkpt>
      <trkpt lat="49.09327" lon="1.11928">
        <ele>112.4</ele>
        <time>2017-10-29T10:24:52Z</time>
      </trkpt>
      <trkpt lat="49.0932" lon="1.11943">
        <ele>113.3</ele>
        <time>2017-10-29T10:24:56Z</time>
      </trkpt>
      <trkpt lat="49.09314" lon="1.11956">
        <ele>113.9</ele>
        <time>2017-10-29T10:25:00Z</time>
      </trkpt>
      <trkpt lat="49.09308" lon="1.11971">
        <ele>114.5</ele>
        <time>2017-10-29T10:25:04Z</time>
      </trkpt>
      <trkpt lat="49.09302" lon="1.11985">
        <ele>114.9</ele>
        <time>2017-10-29T10:25:08Z</time>
      </trkpt>
      <trkpt lat="49.09296" lon="1.11998">
        <ele>115.4</ele>
        <time>2017-10-29T10:25:12Z</time>
      </trkpt>
      <trkpt lat="49.09289" lon="1.12011">
        <ele>116</ele>
        <time>2017-10-29T10:25:16Z</time>
      </trkpt>
      <trkpt lat="49.09283" lon="1.12023">
        <ele>116.4</ele>
        <time>2017-10-29T10:25:20Z</time>
      </trkpt>
      <trkpt lat="49.09275" lon="1.12035">
        <ele>116.8</ele>
        <time>2017-10-29T10:25:24Z</time>
      </trkpt>
      <trkpt lat="49.09269" lon="1.12045">
        <ele>117.1</ele>
        <time>2017-10-29T10:25:27Z</time>
      </trkpt>
      <trkpt lat="49.09262" lon="1.12057">
        <ele>117.4</ele>
        <time>2017-10-29T10:25:31Z</time>
      </trkpt>
      <trkpt lat="49.09254" lon="1.12069">
        <ele>118.1</ele>
        <time>2017-10-29T10:25:36Z</time>
      </trkpt>
      <trkpt lat="49.09247" lon="1.12079">
        <ele>118.5</ele>
        <time>2017-10-29T10:25:41Z</time>
      </trkpt>
      <trkpt lat="49.0924" lon="1.12087">
        <ele>118.4</ele>
        <time>2017-10-29T10:25:50Z</time>
      </trkpt>
      <trkpt lat="49.09231" lon="1.1209">
        <ele>118</ele>
        <time>2017-10-29T10:25:55Z</time>
      </trkpt>
      <trkpt lat="49.09221" lon="1.12089">
        <ele>117.4</ele>
        <time>2017-10-29T10:25:59Z</time>
      </trkpt>
      <trkpt lat="49.09211" lon="1.12083">
        <ele>116.6</ele>
        <time>2017-10-29T10:26:02Z</time>
      </trkpt>
      <trkpt lat="49.09201" lon="1.12081">
        <ele>116</ele>
        <time>2017-10-29T10:26:04Z</time>
      </trkpt>
      <trkpt lat="49.0919" lon="1.12078">
        <ele>115.6</ele>
        <time>2017-10-29T10:26:06Z</time>
      </trkpt>
      <trkpt lat="49.09177" lon="1.12079">
        <ele>114.5</ele>
        <time>2017-10-29T10:26:08Z</time>
      </trkpt>
      <trkpt lat="49.09164" lon="1.12084">
        <ele>113.8</ele>
        <time>2017-10-29T10:26:10Z</time>
      </trkpt>
      <trkpt lat="49.09151" lon="1.12093">
        <ele>113.2</ele>
        <time>2017-10-29T10:26:12Z</time>
      </trkpt>
      <trkpt lat="49.09138" lon="1.12103">
        <ele>112.6</ele>
        <time>2017-10-29T10:26:14Z</time>
      </trkpt>
      <trkpt lat="49.09126" lon="1.12114">
        <ele>111.8</ele>
        <time>2017-10-29T10:26:16Z</time>
      </trkpt>
      <trkpt lat="49.09115" lon="1.12124">
        <ele>111.3</ele>
        <time>2017-10-29T10:26:18Z</time>
      </trkpt>
      <trkpt lat="49.09104" lon="1.12134">
        <ele>111.2</ele>
        <time>2017-10-29T10:26:20Z</time>
      </trkpt>
      <trkpt lat="49.09094" lon="1.12142">
        <ele>110.7</ele>
        <time>2017-10-29T10:26:22Z</time>
      </trkpt>
      <trkpt lat="49.09086" lon="1.12148">
        <ele>110.1</ele>
        <time>2017-10-29T10:26:24Z</time>
      </trkpt>
      <trkpt lat="49.09078" lon="1.12153">
        <ele>109.6</ele>
        <time>2017-10-29T10:26:27Z</time>
      </trkpt>
      <trkpt lat="49.09069" lon="1.12155">
        <ele>110</ele>
        <time>2017-10-29T10:26:51Z</time>
      </trkpt>
      <trkpt lat="49.09062" lon="1.12145">
        <ele>109.7</ele>
        <time>2017-10-29T10:27:38Z</time>
      </trkpt>
      <trkpt lat="49.09053" lon="1.12153">
        <ele>110.1</ele>
        <time>2017-10-29T10:28:05Z</time>
      </trkpt>
      <trkpt lat="49.09042" lon="1.12156">
        <ele>110.5</ele>
        <time>2017-10-29T10:28:10Z</time>
      </trkpt>
      <trkpt lat="49.09033" lon="1.12162">
        <ele>111</ele>
        <time>2017-10-29T10:28:13Z</time>
      </trkpt>
      <trkpt lat="49.09023" lon="1.12165">
        <ele>111.4</ele>
        <time>2017-10-29T10:28:16Z</time>
      </trkpt>
      <trkpt lat="49.09013" lon="1.12173">
        <ele>111.6</ele>
        <time>2017-10-29T10:28:18Z</time>
      </trkpt>
      <trkpt lat="49.09002" lon="1.12178">
        <ele>111.9</ele>
        <time>2017-10-29T10:28:20Z</time>
      </trkpt>
      <trkpt lat="49.08992" lon="1.12184">
        <ele>112.3</ele>
        <time>2017-10-29T10:28:23Z</time>
      </trkpt>
      <trkpt lat="49.0898" lon="1.1219">
        <ele>112.7</ele>
        <time>2017-10-29T10:28:26Z</time>
      </trkpt>
      <trkpt lat="49.08968" lon="1.12197">
        <ele>112.9</ele>
        <time>2017-10-29T10:28:29Z</time>
      </trkpt>
      <trkpt lat="49.08957" lon="1.12203">
        <ele>113.2</ele>
        <time>2017-10-29T10:28:32Z</time>
      </trkpt>
      <trkpt lat="49.08946" lon="1.12208">
        <ele>113.4</ele>
        <time>2017-10-29T10:28:35Z</time>
      </trkpt>
      <trkpt lat="49.08934" lon="1.12212">
        <ele>113.7</ele>
        <time>2017-10-29T10:28:38Z</time>
      </trkpt>
      <trkpt lat="49.08921" lon="1.12214">
        <ele>113.9</ele>
        <time>2017-10-29T10:28:41Z</time>
      </trkpt>
      <trkpt lat="49.08909" lon="1.12218">
        <ele>114</ele>
        <time>2017-10-29T10:28:44Z</time>
      </trkpt>
      <trkpt lat="49.08898" lon="1.12222">
        <ele>114.5</ele>
        <time>2017-10-29T10:28:47Z</time>
      </trkpt>
      <trkpt lat="49.08886" lon="1.12219">
        <ele>115</ele>
        <time>2017-10-29T10:28:50Z</time>
      </trkpt>
      <trkpt lat="49.08874" lon="1.12216">
        <ele>115.2</ele>
        <time>2017-10-29T10:28:53Z</time>
      </trkpt>
      <trkpt lat="49.08865" lon="1.12212">
        <ele>115.4</ele>
        <time>2017-10-29T10:28:56Z</time>
      </trkpt>
      <trkpt lat="49.08855" lon="1.12199">
        <ele>115.7</ele>
        <time>2017-10-29T10:28:59Z</time>
      </trkpt>
      <trkpt lat="49.08848" lon="1.12189">
        <ele>116.1</ele>
        <time>2017-10-29T10:29:02Z</time>
      </trkpt>
      <trkpt lat="49.08841" lon="1.12179">
        <ele>116.4</ele>
        <time>2017-10-29T10:29:05Z</time>
      </trkpt>
      <trkpt lat="49.08833" lon="1.12166">
        <ele>116.8</ele>
        <time>2017-10-29T10:29:09Z</time>
      </trkpt>
      <trkpt lat="49.08828" lon="1.12155">
        <ele>117</ele>
        <time>2017-10-29T10:29:12Z</time>
      </trkpt>
      <trkpt lat="49.08825" lon="1.12141">
        <ele>117.7</ele>
        <time>2017-10-29T10:29:16Z</time>
      </trkpt>
      <trkpt lat="49.08821" lon="1.12125">
        <ele>118.1</ele>
        <time>2017-10-29T10:29:20Z</time>
      </trkpt>
      <trkpt lat="49.08817" lon="1.1211">
        <ele>118.7</ele>
        <time>2017-10-29T10:29:24Z</time>
      </trkpt>
      <trkpt lat="49.08814" lon="1.12094">
        <ele>119.3</ele>
        <time>2017-10-29T10:29:28Z</time>
      </trkpt>
      <trkpt lat="49.0881" lon="1.12081">
        <ele>119.8</ele>
        <time>2017-10-29T10:29:31Z</time>
      </trkpt>
      <trkpt lat="49.08803" lon="1.12066">
        <ele>120.3</ele>
        <time>2017-10-29T10:29:35Z</time>
      </trkpt>
      <trkpt lat="49.08799" lon="1.12052">
        <ele>120.9</ele>
        <time>2017-10-29T10:29:39Z</time>
      </trkpt>
      <trkpt lat="49.08794" lon="1.12041">
        <ele>120.9</ele>
        <time>2017-10-29T10:29:43Z</time>
      </trkpt>
      <trkpt lat="49.08786" lon="1.12036">
        <ele>120.8</ele>
        <time>2017-10-29T10:29:47Z</time>
      </trkpt>
      <trkpt lat="49.08777" lon="1.12028">
        <ele>121.2</ele>
        <time>2017-10-29T10:29:51Z</time>
      </trkpt>
      <trkpt lat="49.08768" lon="1.12019">
        <ele>121.3</ele>
        <time>2017-10-29T10:29:54Z</time>
      </trkpt>
      <trkpt lat="49.08759" lon="1.12011">
        <ele>121.5</ele>
        <time>2017-10-29T10:29:57Z</time>
      </trkpt>
      <trkpt lat="49.08747" lon="1.12001">
        <ele>121.9</ele>
        <time>2017-10-29T10:30:00Z</time>
      </trkpt>
      <trkpt lat="49.08736" lon="1.11994">
        <ele>122.1</ele>
        <time>2017-10-29T10:30:03Z</time>
      </trkpt>
      <trkpt lat="49.08723" lon="1.11988">
        <ele>122.1</ele>
        <time>2017-10-29T10:30:06Z</time>
      </trkpt>
      <trkpt lat="49.08714" lon="1.11985">
        <ele>122.2</ele>
        <time>2017-10-29T10:30:08Z</time>
      </trkpt>
      <trkpt lat="49.08702" lon="1.11984">
        <ele>122.4</ele>
        <time>2017-10-29T10:30:11Z</time>
      </trkpt>
      <trkpt lat="49.0869" lon="1.11985">
        <ele>122.6</ele>
        <time>2017-10-29T10:30:14Z</time>
      </trkpt>
      <trkpt lat="49.0868" lon="1.11986">
        <ele>122.9</ele>
        <time>2017-10-29T10:30:17Z</time>
      </trkpt>
      <trkpt lat="49.0867" lon="1.11988">
        <ele>123.3</ele>
        <time>2017-10-29T10:30:20Z</time>
      </trkpt>
      <trkpt lat="49.0866" lon="1.11993">
        <ele>123.4</ele>
        <time>2017-10-29T10:30:23Z</time>
      </trkpt>
      <trkpt lat="49.08649" lon="1.11998">
        <ele>123.5</ele>
        <time>2017-10-29T10:30:26Z</time>
      </trkpt>
      <trkpt lat="49.0864" lon="1.12003">
        <ele>123.7</ele>
        <time>2017-10-29T10:30:29Z</time>
      </trkpt>
      <trkpt lat="49.08629" lon="1.12007">
        <ele>124</ele>
        <time>2017-10-29T10:30:32Z</time>
      </trkpt>
      <trkpt lat="49.0862" lon="1.12012">
        <ele>124.1</ele>
        <time>2017-10-29T10:30:35Z</time>
      </trkpt>
      <trkpt lat="49.0861" lon="1.12017">
        <ele>124.4</ele>
        <time>2017-10-29T10:30:38Z</time>
      </trkpt>
      <trkpt lat="49.086" lon="1.12024">
        <ele>124.7</ele>
        <time>2017-10-29T10:30:41Z</time>
      </trkpt>
      <trkpt lat="49.0859" lon="1.12029">
        <ele>125</ele>
        <time>2017-10-29T10:30:44Z</time>
      </trkpt>
      <trkpt lat="49.08581" lon="1.12034">
        <ele>125.4</ele>
        <time>2017-10-29T10:30:47Z</time>
      </trkpt>
      <trkpt lat="49.08573" lon="1.12042">
        <ele>125.7</ele>
        <time>2017-10-29T10:30:50Z</time>
      </trkpt>
      <trkpt lat="49.08566" lon="1.12052">
        <ele>126</ele>
        <time>2017-10-29T10:30:53Z</time>
      </trkpt>
      <trkpt lat="49.08559" lon="1.12064">
        <ele>126.4</ele>
        <time>2017-10-29T10:30:56Z</time>
      </trkpt>
      <trkpt lat="49.08553" lon="1.12078">
        <ele>126.5</ele>
        <time>2017-10-29T10:30:59Z</time>
      </trkpt>
      <trkpt lat="49.08546" lon="1.1209">
        <ele>126.7</ele>
        <time>2017-10-29T10:31:02Z</time>
      </trkpt>
      <trkpt lat="49.08538" lon="1.12101">
        <ele>126.9</ele>
        <time>2017-10-29T10:31:05Z</time>
      </trkpt>
      <trkpt lat="49.08531" lon="1.12114">
        <ele>127</ele>
        <time>2017-10-29T10:31:08Z</time>
      </trkpt>
      <trkpt lat="49.08523" lon="1.12128">
        <ele>127.1</ele>
        <time>2017-10-29T10:31:11Z</time>
      </trkpt>
      <trkpt lat="49.08515" lon="1.1214">
        <ele>127.2</ele>
        <time>2017-10-29T10:31:14Z</time>
      </trkpt>
      <trkpt lat="49.08507" lon="1.12151">
        <ele>127.5</ele>
        <time>2017-10-29T10:31:17Z</time>
      </trkpt>
      <trkpt lat="49.08498" lon="1.12161">
        <ele>127.6</ele>
        <time>2017-10-29T10:31:20Z</time>
      </trkpt>
      <trkpt lat="49.0849" lon="1.12171">
        <ele>127.8</ele>
        <time>2017-10-29T10:31:23Z</time>
      </trkpt>
      <trkpt lat="49.08481" lon="1.12179">
        <ele>128.1</ele>
        <time>2017-10-29T10:31:26Z</time>
      </trkpt>
      <trkpt lat="49.08473" lon="1.12191">
        <ele>128.2</ele>
        <time>2017-10-29T10:31:29Z</time>
      </trkpt>
      <trkpt lat="49.08466" lon="1.12201">
        <ele>128.2</ele>
        <time>2017-10-29T10:31:32Z</time>
      </trkpt>
      <trkpt lat="49.08458" lon="1.1221">
        <ele>128.5</ele>
        <time>2017-10-29T10:31:35Z</time>
      </trkpt>
      <trkpt lat="49.0845" lon="1.12216">
        <ele>129.2</ele>
        <time>2017-10-29T10:32:21Z</time>
      </trkpt>
      <trkpt lat="49.08441" lon="1.12215">
        <ele>129.1</ele>
        <time>2017-10-29T10:32:30Z</time>
      </trkpt>
      <trkpt lat="49.0843" lon="1.12219">
        <ele>129.4</ele>
        <time>2017-10-29T10:32:35Z</time>
      </trkpt>
      <trkpt lat="49.08419" lon="1.12221">
        <ele>129.5</ele>
        <time>2017-10-29T10:32:39Z</time>
      </trkpt>
      <trkpt lat="49.08409" lon="1.12225">
        <ele>129.8</ele>
        <time>2017-10-29T10:32:43Z</time>
      </trkpt>
      <trkpt lat="49.08399" lon="1.12228">
        <ele>130.1</ele>
        <time>2017-10-29T10:32:47Z</time>
      </trkpt>
      <trkpt lat="49.08389" lon="1.12233">
        <ele>130.2</ele>
        <time>2017-10-29T10:32:51Z</time>
      </trkpt>
      <trkpt lat="49.0838" lon="1.12238">
        <ele>130.3</ele>
        <time>2017-10-29T10:32:55Z</time>
      </trkpt>
      <trkpt lat="49.08371" lon="1.12244">
        <ele>130.2</ele>
        <time>2017-10-29T10:33:00Z</time>
      </trkpt>
      <trkpt lat="49.08361" lon="1.1225">
        <ele>130.3</ele>
        <time>2017-10-29T10:33:04Z</time>
      </trkpt>
      <trkpt lat="49.08352" lon="1.12257">
        <ele>130.5</ele>
        <time>2017-10-29T10:33:08Z</time>
      </trkpt>
      <trkpt lat="49.08344" lon="1.12264">
        <ele>130.8</ele>
        <time>2017-10-29T10:33:12Z</time>
      </trkpt>
      <trkpt lat="49.08334" lon="1.12273">
        <ele>131</ele>
        <time>2017-10-29T10:33:17Z</time>
      </trkpt>
      <trkpt lat="49.0833" lon="1.12286">
        <ele>131.6</ele>
        <time>2017-10-29T10:33:22Z</time>
      </trkpt>
      <trkpt lat="49.08321" lon="1.12292">
        <ele>132</ele>
        <time>2017-10-29T10:33:26Z</time>
      </trkpt>
      <trkpt lat="49.08311" lon="1.12296">
        <ele>132.4</ele>
        <time>2017-10-29T10:33:30Z</time>
      </trkpt>
      <trkpt lat="49.08302" lon="1.12296">
        <ele>132.6</ele>
        <time>2017-10-29T10:33:34Z</time>
      </trkpt>
      <trkpt lat="49.08291" lon="1.12294">
        <ele>132.6</ele>
        <time>2017-10-29T10:33:38Z</time>
      </trkpt>
      <trkpt lat="49.08281" lon="1.1229">
        <ele>132.7</ele>
        <time>2017-10-29T10:33:42Z</time>
      </trkpt>
      <trkpt lat="49.08273" lon="1.12286">
        <ele>133.3</ele>
        <time>2017-10-29T10:33:46Z</time>
      </trkpt>
      <trkpt lat="49.08263" lon="1.12281">
        <ele>133.8</ele>
        <time>2017-10-29T10:33:51Z</time>
      </trkpt>
      <trkpt lat="49.08253" lon="1.12276">
        <ele>134.6</ele>
        <time>2017-10-29T10:33:57Z</time>
      </trkpt>
      <trkpt lat="49.08243" lon="1.12271">
        <ele>135.4</ele>
        <time>2017-10-29T10:34:03Z</time>
      </trkpt>
      <trkpt lat="49.08233" lon="1.12266">
        <ele>136.2</ele>
        <time>2017-10-29T10:34:09Z</time>
      </trkpt>
      <trkpt lat="49.08224" lon="1.12262">
        <ele>137.2</ele>
        <time>2017-10-29T10:34:15Z</time>
      </trkpt>
      <trkpt lat="49.08214" lon="1.12258">
        <ele>138.3</ele>
        <time>2017-10-29T10:34:22Z</time>
      </trkpt>
      <trkpt lat="49.08203" lon="1.12255">
        <ele>139.2</ele>
        <time>2017-10-29T10:34:28Z</time>
      </trkpt>
      <trkpt lat="49.08194" lon="1.1225">
        <ele>140.3</ele>
        <time>2017-10-29T10:34:33Z</time>
      </trkpt>
      <trkpt lat="49.08185" lon="1.12245">
        <ele>141.3</ele>
        <time>2017-10-29T10:34:38Z</time>
      </trkpt>
      <trkpt lat="49.08176" lon="1.12242">
        <ele>142.5</ele>
        <time>2017-10-29T10:34:44Z</time>
      </trkpt>
      <trkpt lat="49.08166" lon="1.12237">
        <ele>143.7</ele>
        <time>2017-10-29T10:34:51Z</time>
      </trkpt>
      <trkpt lat="49.08156" lon="1.12232">
        <ele>145.2</ele>
        <time>2017-10-29T10:34:58Z</time>
      </trkpt>
      <trkpt lat="49.08146" lon="1.12227">
        <ele>146.4</ele>
        <time>2017-10-29T10:35:04Z</time>
      </trkpt>
      <trkpt lat="49.08138" lon="1.12223">
        <ele>147.8</ele>
        <time>2017-10-29T10:35:12Z</time>
      </trkpt>
      <trkpt lat="49.08128" lon="1.1222">
        <ele>149.5</ele>
        <time>2017-10-29T10:35:21Z</time>
      </trkpt>
      <trkpt lat="49.08119" lon="1.12216">
        <ele>150.8</ele>
        <time>2017-10-29T10:35:30Z</time>
      </trkpt>
      <trkpt lat="49.08109" lon="1.12214">
        <ele>151.9</ele>
        <time>2017-10-29T10:35:37Z</time>
      </trkpt>
      <trkpt lat="49.081" lon="1.12209">
        <ele>153.3</ele>
        <time>2017-10-29T10:35:43Z</time>
      </trkpt>
      <trkpt lat="49.0809" lon="1.12209">
        <ele>155.3</ele>
        <time>2017-10-29T10:35:50Z</time>
      </trkpt>
      <trkpt lat="49.08081" lon="1.12214">
        <ele>156.9</ele>
        <time>2017-10-29T10:35:56Z</time>
      </trkpt>
      <trkpt lat="49.08071" lon="1.12221">
        <ele>157.9</ele>
        <time>2017-10-29T10:36:02Z</time>
      </trkpt>
      <trkpt lat="49.08062" lon="1.12227">
        <ele>158.6</ele>
        <time>2017-10-29T10:36:08Z</time>
      </trkpt>
      <trkpt lat="49.08053" lon="1.12233">
        <ele>159.4</ele>
        <time>2017-10-29T10:36:13Z</time>
      </trkpt>
      <trkpt lat="49.08043" lon="1.1224">
        <ele>160.2</ele>
        <time>2017-10-29T10:36:18Z</time>
      </trkpt>
      <trkpt lat="49.08035" lon="1.12246">
        <ele>160.9</ele>
        <time>2017-10-29T10:36:22Z</time>
      </trkpt>
      <trkpt lat="49.08027" lon="1.12251">
        <ele>161.4</ele>
        <time>2017-10-29T10:36:26Z</time>
      </trkpt>
      <trkpt lat="49.08018" lon="1.12255">
        <ele>162</ele>
        <time>2017-10-29T10:36:30Z</time>
      </trkpt>
      <trkpt lat="49.08009" lon="1.12258">
        <ele>162.6</ele>
        <time>2017-10-29T10:36:34Z</time>
      </trkpt>
      <trkpt lat="49.08" lon="1.12259">
        <ele>163.1</ele>
        <time>2017-10-29T10:36:38Z</time>
      </trkpt>
      <trkpt lat="49.0799" lon="1.12258">
        <ele>163.6</ele>
        <time>2017-10-29T10:36:42Z</time>
      </trkpt>
      <trkpt lat="49.0798" lon="1.12256">
        <ele>164.2</ele>
        <time>2017-10-29T10:36:47Z</time>
      </trkpt>
      <trkpt lat="49.0797" lon="1.12253">
        <ele>164.7</ele>
        <time>2017-10-29T10:36:52Z</time>
      </trkpt>
      <trkpt lat="49.07961" lon="1.12248">
        <ele>165.2</ele>
        <time>2017-10-29T10:36:57Z</time>
      </trkpt>
      <trkpt lat="49.0797" lon="1.12254">
        <ele>165.5</ele>
        <time>2017-10-29T10:37:06Z</time>
      </trkpt>
      <trkpt lat="49.07979" lon="1.12259">
        <ele>165.2</ele>
        <time>2017-10-29T10:37:09Z</time>
      </trkpt>
      <trkpt lat="49.07989" lon="1.12262">
        <ele>165</ele>
        <time>2017-10-29T10:37:12Z</time>
      </trkpt>
      <trkpt lat="49.08" lon="1.12263">
        <ele>164.7</ele>
        <time>2017-10-29T10:37:15Z</time>
      </trkpt>
      <trkpt lat="49.08012" lon="1.1226">
        <ele>164.2</ele>
        <time>2017-10-29T10:37:18Z</time>
      </trkpt>
      <trkpt lat="49.08024" lon="1.12254">
        <ele>163.7</ele>
        <time>2017-10-29T10:37:21Z</time>
      </trkpt>
      <trkpt lat="49.08035" lon="1.12245">
        <ele>163.2</ele>
        <time>2017-10-29T10:37:24Z</time>
      </trkpt>
      <trkpt lat="49.08044" lon="1.12238">
        <ele>162.5</ele>
        <time>2017-10-29T10:37:27Z</time>
      </trkpt>
      <trkpt lat="49.08035" lon="1.12246">
        <ele>160.7</ele>
        <time>2017-10-29T10:37:52Z</time>
      </trkpt>
      <trkpt lat="49.08026" lon="1.12252">
        <ele>161.5</ele>
        <time>2017-10-29T10:37:58Z</time>
      </trkpt>
      <trkpt lat="49.08017" lon="1.12256">
        <ele>162.3</ele>
        <time>2017-10-29T10:38:06Z</time>
      </trkpt>
      <trkpt lat="49.08008" lon="1.12257">
        <ele>162.8</ele>
        <time>2017-10-29T10:38:13Z</time>
      </trkpt>
      <trkpt lat="49.07999" lon="1.12259">
        <ele>163.1</ele>
        <time>2017-10-29T10:38:20Z</time>
      </trkpt>
      <trkpt lat="49.07989" lon="1.12257">
        <ele>163.8</ele>
        <time>2017-10-29T10:38:27Z</time>
      </trkpt>
      <trkpt lat="49.0798" lon="1.12255">
        <ele>164.3</ele>
        <time>2017-10-29T10:38:33Z</time>
      </trkpt>
      <trkpt lat="49.07971" lon="1.12252">
        <ele>164.8</ele>
        <time>2017-10-29T10:38:40Z</time>
      </trkpt>
      <trkpt lat="49.07963" lon="1.12248">
        <ele>166.1</ele>
        <time>2017-10-29T10:39:00Z</time>
      </trkpt>
      <trkpt lat="49.07953" lon="1.12244">
        <ele>166.1</ele>
        <time>2017-10-29T10:39:06Z</time>
      </trkpt>
      <trkpt lat="49.07944" lon="1.12237">
        <ele>166.3</ele>
        <time>2017-10-29T10:39:11Z</time>
      </trkpt>
      <trkpt lat="49.07935" lon="1.12231">
        <ele>166.5</ele>
        <time>2017-10-29T10:39:16Z</time>
      </trkpt>
      <trkpt lat="49.07926" lon="1.12225">
        <ele>166.7</ele>
        <time>2017-10-29T10:39:21Z</time>
      </trkpt>
      <trkpt lat="49.07918" lon="1.12219">
        <ele>167.1</ele>
        <time>2017-10-29T10:39:26Z</time>
      </trkpt>
      <trkpt lat="49.07909" lon="1.12212">
        <ele>167.6</ele>
        <time>2017-10-29T10:39:31Z</time>
      </trkpt>
      <trkpt lat="49.07899" lon="1.12205">
        <ele>168</ele>
        <time>2017-10-29T10:39:36Z</time>
      </trkpt>
      <trkpt lat="49.0789" lon="1.12197">
        <ele>168.4</ele>
        <time>2017-10-29T10:39:41Z</time>
      </trkpt>
      <trkpt lat="49.07882" lon="1.12186">
        <ele>168.6</ele>
        <time>2017-10-29T10:39:46Z</time>
      </trkpt>
      <trkpt lat="49.07875" lon="1.12173">
        <ele>169.4</ele>
        <time>2017-10-29T10:39:51Z</time>
      </trkpt>
      <trkpt lat="49.0787" lon="1.12158">
        <ele>170</ele>
        <time>2017-10-29T10:39:56Z</time>
      </trkpt>
      <trkpt lat="49.07865" lon="1.12143">
        <ele>170.7</ele>
        <time>2017-10-29T10:40:01Z</time>
      </trkpt>
      <trkpt lat="49.07863" lon="1.1213">
        <ele>171.3</ele>
        <time>2017-10-29T10:40:05Z</time>
      </trkpt>
      <trkpt lat="49.07861" lon="1.12116">
        <ele>171.8</ele>
        <time>2017-10-29T10:40:09Z</time>
      </trkpt>
      <trkpt lat="49.0786" lon="1.12102">
        <ele>172.4</ele>
        <time>2017-10-29T10:40:13Z</time>
      </trkpt>
      <trkpt lat="49.0786" lon="1.12087">
        <ele>173</ele>
        <time>2017-10-29T10:40:17Z</time>
      </trkpt>
      <trkpt lat="49.07859" lon="1.12071">
        <ele>173.6</ele>
        <time>2017-10-29T10:40:21Z</time>
      </trkpt>
      <trkpt lat="49.0786" lon="1.12055">
        <ele>174.2</ele>
        <time>2017-10-29T10:40:25Z</time>
      </trkpt>
      <trkpt lat="49.07859" lon="1.12039">
        <ele>174.6</ele>
        <time>2017-10-29T10:40:29Z</time>
      </trkpt>
      <trkpt lat="49.07858" lon="1.12024">
        <ele>174.9</ele>
        <time>2017-10-29T10:40:33Z</time>
      </trkpt>
      <trkpt lat="49.07859" lon="1.12009">
        <ele>175.4</ele>
        <time>2017-10-29T10:40:37Z</time>
      </trkpt>
      <trkpt lat="49.07857" lon="1.11995">
        <ele>175.9</ele>
        <time>2017-10-29T10:40:40Z</time>
      </trkpt>
      <trkpt lat="49.07856" lon="1.11981">
        <ele>176.2</ele>
        <time>2017-10-29T10:40:43Z</time>
      </trkpt>
      <trkpt lat="49.07855" lon="1.11966">
        <ele>176.5</ele>
        <time>2017-10-29T10:40:46Z</time>
      </trkpt>
      <trkpt lat="49.07853" lon="1.11951">
        <ele>176.7</ele>
        <time>2017-10-29T10:40:49Z</time>
      </trkpt>
      <trkpt lat="49.07852" lon="1.11937">
        <ele>177</ele>
        <time>2017-10-29T10:40:52Z</time>
      </trkpt>
      <trkpt lat="49.07851" lon="1.11922">
        <ele>177.1</ele>
        <time>2017-10-29T10:40:55Z</time>
      </trkpt>
      <trkpt lat="49.07849" lon="1.11907">
        <ele>177.1</ele>
        <time>2017-10-29T10:40:58Z</time>
      </trkpt>
      <trkpt lat="49.07848" lon="1.11892">
        <ele>176.9</ele>
        <time>2017-10-29T10:41:01Z</time>
      </trkpt>
      <trkpt lat="49.07847" lon="1.11876">
        <ele>177</ele>
        <time>2017-10-29T10:41:04Z</time>
      </trkpt>
      <trkpt lat="49.07846" lon="1.1186">
        <ele>177.1</ele>
        <time>2017-10-29T10:41:07Z</time>
      </trkpt>
      <trkpt lat="49.07846" lon="1.11843">
        <ele>177.3</ele>
        <time>2017-10-29T10:41:10Z</time>
      </trkpt>
      <trkpt lat="49.07846" lon="1.11829">
        <ele>177.4</ele>
        <time>2017-10-29T10:41:12Z</time>
      </trkpt>
      <trkpt lat="49.07847" lon="1.11815">
        <ele>177.5</ele>
        <time>2017-10-29T10:41:14Z</time>
      </trkpt>
      <trkpt lat="49.07849" lon="1.11797">
        <ele>177.6</ele>
        <time>2017-10-29T10:41:17Z</time>
      </trkpt>
      <trkpt lat="49.07851" lon="1.11779">
        <ele>177.8</ele>
        <time>2017-10-29T10:41:20Z</time>
      </trkpt>
      <trkpt lat="49.07853" lon="1.11762">
        <ele>178.1</ele>
        <time>2017-10-29T10:41:23Z</time>
      </trkpt>
      <trkpt lat="49.07856" lon="1.11746">
        <ele>178.4</ele>
        <time>2017-10-29T10:41:26Z</time>
      </trkpt>
      <trkpt lat="49.07858" lon="1.11729">
        <ele>179</ele>
        <time>2017-10-29T10:41:29Z</time>
      </trkpt>
      <trkpt lat="49.07861" lon="1.11712">
        <ele>179.5</ele>
        <time>2017-10-29T10:41:32Z</time>
      </trkpt>
      <trkpt lat="49.07863" lon="1.11695">
        <ele>179.9</ele>
        <time>2017-10-29T10:41:35Z</time>
      </trkpt>
      <trkpt lat="49.07866" lon="1.11679">
        <ele>180.3</ele>
        <time>2017-10-29T10:41:38Z</time>
      </trkpt>
      <trkpt lat="49.07868" lon="1.1166">
        <ele>180.8</ele>
        <time>2017-10-29T10:41:41Z</time>
      </trkpt>
      <trkpt lat="49.07867" lon="1.11641">
        <ele>181.2</ele>
        <time>2017-10-29T10:41:44Z</time>
      </trkpt>
      <trkpt lat="49.07864" lon="1.11627">
        <ele>181.6</ele>
        <time>2017-10-29T10:41:46Z</time>
      </trkpt>
      <trkpt lat="49.07859" lon="1.11609">
        <ele>181.9</ele>
        <time>2017-10-29T10:41:49Z</time>
      </trkpt>
      <trkpt lat="49.07853" lon="1.11593">
        <ele>182.2</ele>
        <time>2017-10-29T10:41:52Z</time>
      </trkpt>
      <trkpt lat="49.07848" lon="1.11574">
        <ele>182.5</ele>
        <time>2017-10-29T10:41:55Z</time>
      </trkpt>
      <trkpt lat="49.07843" lon="1.11556">
        <ele>182.8</ele>
        <time>2017-10-29T10:41:58Z</time>
      </trkpt>
      <trkpt lat="49.07837" lon="1.11539">
        <ele>183</ele>
        <time>2017-10-29T10:42:01Z</time>
      </trkpt>
      <trkpt lat="49.07831" lon="1.1152">
        <ele>183.2</ele>
        <time>2017-10-29T10:42:04Z</time>
      </trkpt>
      <trkpt lat="49.07826" lon="1.11501">
        <ele>183.3</ele>
        <time>2017-10-29T10:42:07Z</time>
      </trkpt>
      <trkpt lat="49.07822" lon="1.11489">
        <ele>183.4</ele>
        <time>2017-10-29T10:42:09Z</time>
      </trkpt>
      <trkpt lat="49.0782" lon="1.11476">
        <ele>183.7</ele>
        <time>2017-10-29T10:42:11Z</time>
      </trkpt>
      <trkpt lat="49.07814" lon="1.11457">
        <ele>184</ele>
        <time>2017-10-29T10:42:14Z</time>
      </trkpt>
      <trkpt lat="49.0781" lon="1.11439">
        <ele>184.2</ele>
        <time>2017-10-29T10:42:17Z</time>
      </trkpt>
      <trkpt lat="49.07802" lon="1.11422">
        <ele>184.4</ele>
        <time>2017-10-29T10:42:20Z</time>
      </trkpt>
      <trkpt lat="49.07796" lon="1.11405">
        <ele>184.3</ele>
        <time>2017-10-29T10:42:23Z</time>
      </trkpt>
      <trkpt lat="49.07791" lon="1.11389">
        <ele>183.8</ele>
        <time>2017-10-29T10:42:26Z</time>
      </trkpt>
      <trkpt lat="49.07785" lon="1.11374">
        <ele>184</ele>
        <time>2017-10-29T10:42:29Z</time>
      </trkpt>
      <trkpt lat="49.07779" lon="1.11359">
        <ele>183.9</ele>
        <time>2017-10-29T10:42:32Z</time>
      </trkpt>
      <trkpt lat="49.07775" lon="1.11344">
        <ele>184.1</ele>
        <time>2017-10-29T10:42:35Z</time>
      </trkpt>
      <trkpt lat="49.0777" lon="1.1133">
        <ele>184</ele>
        <time>2017-10-29T10:42:38Z</time>
      </trkpt>
      <trkpt lat="49.07765" lon="1.11314">
        <ele>183.7</ele>
        <time>2017-10-29T10:42:41Z</time>
      </trkpt>
      <trkpt lat="49.0776" lon="1.11296">
        <ele>183.2</ele>
        <time>2017-10-29T10:42:44Z</time>
      </trkpt>
      <trkpt lat="49.07754" lon="1.11279">
        <ele>182.8</ele>
        <time>2017-10-29T10:42:47Z</time>
      </trkpt>
      <trkpt lat="49.0775" lon="1.11265">
        <ele>182.6</ele>
        <time>2017-10-29T10:42:49Z</time>
      </trkpt>
      <trkpt lat="49.07746" lon="1.11251">
        <ele>182.3</ele>
        <time>2017-10-29T10:42:51Z</time>
      </trkpt>
      <trkpt lat="49.07741" lon="1.11236">
        <ele>182</ele>
        <time>2017-10-29T10:42:53Z</time>
      </trkpt>
      <trkpt lat="49.07736" lon="1.11221">
        <ele>181.7</ele>
        <time>2017-10-29T10:42:55Z</time>
      </trkpt>
      <trkpt lat="49.07731" lon="1.11206">
        <ele>181.5</ele>
        <time>2017-10-29T10:42:57Z</time>
      </trkpt>
      <trkpt lat="49.07727" lon="1.11192">
        <ele>181.1</ele>
        <time>2017-10-29T10:42:59Z</time>
      </trkpt>
      <trkpt lat="49.07723" lon="1.11178">
        <ele>180.9</ele>
        <time>2017-10-29T10:43:01Z</time>
      </trkpt>
      <trkpt lat="49.07719" lon="1.11165">
        <ele>180.7</ele>
        <time>2017-10-29T10:43:03Z</time>
      </trkpt>
      <trkpt lat="49.07716" lon="1.11152">
        <ele>180.8</ele>
        <time>2017-10-29T10:43:05Z</time>
      </trkpt>
      <trkpt lat="49.07711" lon="1.11134">
        <ele>181</ele>
        <time>2017-10-29T10:43:08Z</time>
      </trkpt>
      <trkpt lat="49.07705" lon="1.11116">
        <ele>181.3</ele>
        <time>2017-10-29T10:43:11Z</time>
      </trkpt>
      <trkpt lat="49.07701" lon="1.111">
        <ele>181.5</ele>
        <time>2017-10-29T10:43:14Z</time>
      </trkpt>
      <trkpt lat="49.07697" lon="1.11086">
        <ele>181.7</ele>
        <time>2017-10-29T10:43:17Z</time>
      </trkpt>
      <trkpt lat="49.07692" lon="1.11073">
        <ele>181.7</ele>
        <time>2017-10-29T10:43:21Z</time>
      </trkpt>
      <trkpt lat="49.07686" lon="1.11064">
        <ele>182.7</ele>
        <time>2017-10-29T10:46:19Z</time>
      </trkpt>
      <trkpt lat="49.07676" lon="1.11065">
        <ele>182.6</ele>
        <time>2017-10-29T10:46:24Z</time>
      </trkpt>
      <trkpt lat="49.07667" lon="1.11072">
        <ele>182.5</ele>
        <time>2017-10-29T10:46:27Z</time>
      </trkpt>
      <trkpt lat="49.07657" lon="1.11082">
        <ele>182.5</ele>
        <time>2017-10-29T10:46:30Z</time>
      </trkpt>
      <trkpt lat="49.07648" lon="1.1109">
        <ele>182.4</ele>
        <time>2017-10-29T10:46:33Z</time>
      </trkpt>
      <trkpt lat="49.0764" lon="1.11099">
        <ele>182.4</ele>
        <time>2017-10-29T10:46:36Z</time>
      </trkpt>
      <trkpt lat="49.0763" lon="1.11108">
        <ele>182.5</ele>
        <time>2017-10-29T10:46:39Z</time>
      </trkpt>
      <trkpt lat="49.0762" lon="1.11118">
        <ele>182.7</ele>
        <time>2017-10-29T10:46:42Z</time>
      </trkpt>
      <trkpt lat="49.07609" lon="1.11128">
        <ele>183</ele>
        <time>2017-10-29T10:46:45Z</time>
      </trkpt>
      <trkpt lat="49.07598" lon="1.11136">
        <ele>183.2</ele>
        <time>2017-10-29T10:46:48Z</time>
      </trkpt>
      <trkpt lat="49.07588" lon="1.11143">
        <ele>183.5</ele>
        <time>2017-10-29T10:46:51Z</time>
      </trkpt>
      <trkpt lat="49.07577" lon="1.11148">
        <ele>183.9</ele>
        <time>2017-10-29T10:46:54Z</time>
      </trkpt>
      <trkpt lat="49.07566" lon="1.11153">
        <ele>184.1</ele>
        <time>2017-10-29T10:46:57Z</time>
      </trkpt>
      <trkpt lat="49.07554" lon="1.11158">
        <ele>184.5</ele>
        <time>2017-10-29T10:47:00Z</time>
      </trkpt>
      <trkpt lat="49.07542" lon="1.11162">
        <ele>184.7</ele>
        <time>2017-10-29T10:47:03Z</time>
      </trkpt>
      <trkpt lat="49.07531" lon="1.11165">
        <ele>185</ele>
        <time>2017-10-29T10:47:06Z</time>
      </trkpt>
      <trkpt lat="49.0752" lon="1.11168">
        <ele>185.4</ele>
        <time>2017-10-29T10:47:09Z</time>
      </trkpt>
      <trkpt lat="49.07507" lon="1.11171">
        <ele>185.9</ele>
        <time>2017-10-29T10:47:12Z</time>
      </trkpt>
      <trkpt lat="49.07496" lon="1.11174">
        <ele>186.3</ele>
        <time>2017-10-29T10:47:15Z</time>
      </trkpt>
      <trkpt lat="49.07485" lon="1.11177">
        <ele>186.7</ele>
        <time>2017-10-29T10:47:18Z</time>
      </trkpt>
      <trkpt lat="49.07473" lon="1.11179">
        <ele>187</ele>
        <time>2017-10-29T10:47:21Z</time>
      </trkpt>
      <trkpt lat="49.0746" lon="1.11181">
        <ele>187.3</ele>
        <time>2017-10-29T10:47:24Z</time>
      </trkpt>
      <trkpt lat="49.07447" lon="1.11184">
        <ele>187.7</ele>
        <time>2017-10-29T10:47:27Z</time>
      </trkpt>
      <trkpt lat="49.07434" lon="1.11186">
        <ele>187.8</ele>
        <time>2017-10-29T10:47:30Z</time>
      </trkpt>
      <trkpt lat="49.07424" lon="1.11187">
        <ele>187.7</ele>
        <time>2017-10-29T10:47:32Z</time>
      </trkpt>
      <trkpt lat="49.07415" lon="1.11187">
        <ele>187.7</ele>
        <time>2017-10-29T10:47:34Z</time>
      </trkpt>
      <trkpt lat="49.07405" lon="1.11187">
        <ele>187.7</ele>
        <time>2017-10-29T10:47:36Z</time>
      </trkpt>
      <trkpt lat="49.07396" lon="1.11186">
        <ele>187.7</ele>
        <time>2017-10-29T10:47:38Z</time>
      </trkpt>
      <trkpt lat="49.07386" lon="1.11185">
        <ele>187.5</ele>
        <time>2017-10-29T10:47:40Z</time>
      </trkpt>
      <trkpt lat="49.07377" lon="1.11184">
        <ele>187.4</ele>
        <time>2017-10-29T10:47:42Z</time>
      </trkpt>
      <trkpt lat="49.07367" lon="1.11183">
        <ele>187.4</ele>
        <time>2017-10-29T10:47:44Z</time>
      </trkpt>
      <trkpt lat="49.07356" lon="1.11182">
        <ele>187.2</ele>
        <time>2017-10-29T10:47:46Z</time>
      </trkpt>
      <trkpt lat="49.07344" lon="1.1118">
        <ele>186.9</ele>
        <time>2017-10-29T10:47:48Z</time>
      </trkpt>
      <trkpt lat="49.07332" lon="1.11179">
        <ele>186.7</ele>
        <time>2017-10-29T10:47:50Z</time>
      </trkpt>
      <trkpt lat="49.07319" lon="1.11176">
        <ele>186.3</ele>
        <time>2017-10-29T10:47:52Z</time>
      </trkpt>
      <trkpt lat="49.07306" lon="1.11173">
        <ele>185.9</ele>
        <time>2017-10-29T10:47:54Z</time>
      </trkpt>
      <trkpt lat="49.07292" lon="1.11168">
        <ele>185.3</ele>
        <time>2017-10-29T10:47:56Z</time>
      </trkpt>
      <trkpt lat="49.07278" lon="1.11164">
        <ele>184.6</ele>
        <time>2017-10-29T10:47:58Z</time>
      </trkpt>
      <trkpt lat="49.07263" lon="1.11163">
        <ele>184</ele>
        <time>2017-10-29T10:48:00Z</time>
      </trkpt>
      <trkpt lat="49.0725" lon="1.11167">
        <ele>183.3</ele>
        <time>2017-10-29T10:48:02Z</time>
      </trkpt>
      <trkpt lat="49.07237" lon="1.11173">
        <ele>182.9</ele>
        <time>2017-10-29T10:48:04Z</time>
      </trkpt>
      <trkpt lat="49.07224" lon="1.11181">
        <ele>182.6</ele>
        <time>2017-10-29T10:48:06Z</time>
      </trkpt>
      <trkpt lat="49.07212" lon="1.11188">
        <ele>182.3</ele>
        <time>2017-10-29T10:48:08Z</time>
      </trkpt>
      <trkpt lat="49.072" lon="1.11196">
        <ele>182.5</ele>
        <time>2017-10-29T10:48:10Z</time>
      </trkpt>
      <trkpt lat="49.07187" lon="1.11203">
        <ele>182.7</ele>
        <time>2017-10-29T10:48:12Z</time>
      </trkpt>
      <trkpt lat="49.07175" lon="1.11211">
        <ele>182.8</ele>
        <time>2017-10-29T10:48:14Z</time>
      </trkpt>
      <trkpt lat="49.07163" lon="1.11219">
        <ele>183.1</ele>
        <time>2017-10-29T10:48:16Z</time>
      </trkpt>
      <trkpt lat="49.07151" lon="1.11226">
        <ele>183.7</ele>
        <time>2017-10-29T10:48:18Z</time>
      </trkpt>
      <trkpt lat="49.07141" lon="1.11234">
        <ele>184.1</ele>
        <time>2017-10-29T10:48:20Z</time>
      </trkpt>
      <trkpt lat="49.0713" lon="1.11242">
        <ele>184.6</ele>
        <time>2017-10-29T10:48:22Z</time>
      </trkpt>
      <trkpt lat="49.0712" lon="1.11249">
        <ele>185.1</ele>
        <time>2017-10-29T10:48:24Z</time>
      </trkpt>
      <trkpt lat="49.07109" lon="1.11255">
        <ele>185.8</ele>
        <time>2017-10-29T10:48:26Z</time>
      </trkpt>
      <trkpt lat="49.07099" lon="1.11262">
        <ele>186.3</ele>
        <time>2017-10-29T10:48:28Z</time>
      </trkpt>
      <trkpt lat="49.07089" lon="1.11269">
        <ele>186.8</ele>
        <time>2017-10-29T10:48:30Z</time>
      </trkpt>
      <trkpt lat="49.07078" lon="1.11276">
        <ele>187.3</ele>
        <time>2017-10-29T10:48:32Z</time>
      </trkpt>
      <trkpt lat="49.07068" lon="1.11284">
        <ele>187.8</ele>
        <time>2017-10-29T10:48:34Z</time>
      </trkpt>
      <trkpt lat="49.07057" lon="1.11291">
        <ele>188.1</ele>
        <time>2017-10-29T10:48:36Z</time>
      </trkpt>
      <trkpt lat="49.07047" lon="1.11299">
        <ele>188.3</ele>
        <time>2017-10-29T10:48:38Z</time>
      </trkpt>
      <trkpt lat="49.07036" lon="1.11306">
        <ele>188.5</ele>
        <time>2017-10-29T10:48:40Z</time>
      </trkpt>
      <trkpt lat="49.07026" lon="1.11313">
        <ele>188.6</ele>
        <time>2017-10-29T10:48:42Z</time>
      </trkpt>
      <trkpt lat="49.07016" lon="1.11321">
        <ele>188.7</ele>
        <time>2017-10-29T10:48:44Z</time>
      </trkpt>
      <trkpt lat="49.07006" lon="1.11328">
        <ele>188.9</ele>
        <time>2017-10-29T10:48:46Z</time>
      </trkpt>
      <trkpt lat="49.06996" lon="1.11336">
        <ele>189</ele>
        <time>2017-10-29T10:48:48Z</time>
      </trkpt>
      <trkpt lat="49.06986" lon="1.11344">
        <ele>189.2</ele>
        <time>2017-10-29T10:48:50Z</time>
      </trkpt>
      <trkpt lat="49.06975" lon="1.11351">
        <ele>189.4</ele>
        <time>2017-10-29T10:48:52Z</time>
      </trkpt>
      <trkpt lat="49.06965" lon="1.11358">
        <ele>189.5</ele>
        <time>2017-10-29T10:48:54Z</time>
      </trkpt>
      <trkpt lat="49.06955" lon="1.11366">
        <ele>189.5</ele>
        <time>2017-10-29T10:48:56Z</time>
      </trkpt>
      <trkpt lat="49.06944" lon="1.11373">
        <ele>189.5</ele>
        <time>2017-10-29T10:48:58Z</time>
      </trkpt>
      <trkpt lat="49.06934" lon="1.11382">
        <ele>189.3</ele>
        <time>2017-10-29T10:49:00Z</time>
      </trkpt>
      <trkpt lat="49.06923" lon="1.1139">
        <ele>189.2</ele>
        <time>2017-10-29T10:49:02Z</time>
      </trkpt>
      <trkpt lat="49.06913" lon="1.11398">
        <ele>189.5</ele>
        <time>2017-10-29T10:49:04Z</time>
      </trkpt>
      <trkpt lat="49.06903" lon="1.11405">
        <ele>189.7</ele>
        <time>2017-10-29T10:49:06Z</time>
      </trkpt>
      <trkpt lat="49.06893" lon="1.11413">
        <ele>189.7</ele>
        <time>2017-10-29T10:49:08Z</time>
      </trkpt>
      <trkpt lat="49.06882" lon="1.11421">
        <ele>189.7</ele>
        <time>2017-10-29T10:49:10Z</time>
      </trkpt>
      <trkpt lat="49.06872" lon="1.11429">
        <ele>189.4</ele>
        <time>2017-10-29T10:49:12Z</time>
      </trkpt>
      <trkpt lat="49.06861" lon="1.11437">
        <ele>189.1</ele>
        <time>2017-10-29T10:49:14Z</time>
      </trkpt>
      <trkpt lat="49.0685" lon="1.11445">
        <ele>188.9</ele>
        <time>2017-10-29T10:49:16Z</time>
      </trkpt>
      <trkpt lat="49.0684" lon="1.11453">
        <ele>188.7</ele>
        <time>2017-10-29T10:49:18Z</time>
      </trkpt>
      <trkpt lat="49.06831" lon="1.11463">
        <ele>188.6</ele>
        <time>2017-10-29T10:49:20Z</time>
      </trkpt>
      <trkpt lat="49.06824" lon="1.11474">
        <ele>188.5</ele>
        <time>2017-10-29T10:49:22Z</time>
      </trkpt>
      <trkpt lat="49.06817" lon="1.11488">
        <ele>188.6</ele>
        <time>2017-10-29T10:49:24Z</time>
      </trkpt>
      <trkpt lat="49.06811" lon="1.11503">
        <ele>188.5</ele>
        <time>2017-10-29T10:49:26Z</time>
      </trkpt>
      <trkpt lat="49.06805" lon="1.11519">
        <ele>188.3</ele>
        <time>2017-10-29T10:49:28Z</time>
      </trkpt>
      <trkpt lat="49.06799" lon="1.11535">
        <ele>188.2</ele>
        <time>2017-10-29T10:49:30Z</time>
      </trkpt>
      <trkpt lat="49.06793" lon="1.11551">
        <ele>188.1</ele>
        <time>2017-10-29T10:49:32Z</time>
      </trkpt>
      <trkpt lat="49.06786" lon="1.11566">
        <ele>188</ele>
        <time>2017-10-29T10:49:34Z</time>
      </trkpt>
      <trkpt lat="49.06779" lon="1.11582">
        <ele>187.9</ele>
        <time>2017-10-29T10:49:36Z</time>
      </trkpt>
      <trkpt lat="49.06771" lon="1.11597">
        <ele>187.9</ele>
        <time>2017-10-29T10:49:38Z</time>
      </trkpt>
      <trkpt lat="49.06762" lon="1.11613">
        <ele>187.9</ele>
        <time>2017-10-29T10:49:40Z</time>
      </trkpt>
      <trkpt lat="49.06753" lon="1.11627">
        <ele>187.8</ele>
        <time>2017-10-29T10:49:42Z</time>
      </trkpt>
      <trkpt lat="49.06743" lon="1.11642">
        <ele>187.8</ele>
        <time>2017-10-29T10:49:44Z</time>
      </trkpt>
      <trkpt lat="49.06732" lon="1.11655">
        <ele>187.8</ele>
        <time>2017-10-29T10:49:46Z</time>
      </trkpt>
      <trkpt lat="49.06721" lon="1.11668">
        <ele>187.7</ele>
        <time>2017-10-29T10:49:48Z</time>
      </trkpt>
      <trkpt lat="49.0671" lon="1.11681">
        <ele>187.7</ele>
        <time>2017-10-29T10:49:50Z</time>
      </trkpt>
      <trkpt lat="49.06699" lon="1.11694">
        <ele>187.7</ele>
        <time>2017-10-29T10:49:52Z</time>
      </trkpt>
      <trkpt lat="49.06688" lon="1.11707">
        <ele>187.7</ele>
        <time>2017-10-29T10:49:54Z</time>
      </trkpt>
      <trkpt lat="49.06678" lon="1.11721">
        <ele>187.8</ele>
        <time>2017-10-29T10:49:56Z</time>
      </trkpt>
      <trkpt lat="49.06668" lon="1.11736">
        <ele>187.9</ele>
        <time>2017-10-29T10:49:58Z</time>
      </trkpt>
      <trkpt lat="49.06658" lon="1.11751">
        <ele>187.9</ele>
        <time>2017-10-29T10:50:00Z</time>
      </trkpt>
      <trkpt lat="49.06648" lon="1.11767">
        <ele>188.1</ele>
        <time>2017-10-29T10:50:02Z</time>
      </trkpt>
      <trkpt lat="49.06639" lon="1.11781">
        <ele>188.1</ele>
        <time>2017-10-29T10:50:04Z</time>
      </trkpt>
      <trkpt lat="49.0663" lon="1.11795">
        <ele>188.2</ele>
        <time>2017-10-29T10:50:06Z</time>
      </trkpt>
      <trkpt lat="49.06622" lon="1.11809">
        <ele>188.4</ele>
        <time>2017-10-29T10:50:08Z</time>
      </trkpt>
      <trkpt lat="49.06614" lon="1.11822">
        <ele>188.7</ele>
        <time>2017-10-29T10:50:10Z</time>
      </trkpt>
      <trkpt lat="49.06607" lon="1.11834">
        <ele>189</ele>
        <time>2017-10-29T10:50:12Z</time>
      </trkpt>
      <trkpt lat="49.06601" lon="1.11846">
        <ele>189.2</ele>
        <time>2017-10-29T10:50:14Z</time>
      </trkpt>
      <trkpt lat="49.06595" lon="1.11858">
        <ele>189.3</ele>
        <time>2017-10-29T10:50:16Z</time>
      </trkpt>
      <trkpt lat="49.06589" lon="1.11872">
        <ele>189.3</ele>
        <time>2017-10-29T10:50:18Z</time>
      </trkpt>
      <trkpt lat="49.06583" lon="1.11886">
        <ele>189.4</ele>
        <time>2017-10-29T10:50:20Z</time>
      </trkpt>
      <trkpt lat="49.06577" lon="1.11899">
        <ele>189.5</ele>
        <time>2017-10-29T10:50:22Z</time>
      </trkpt>
      <trkpt lat="49.06572" lon="1.11913">
        <ele>189.6</ele>
        <time>2017-10-29T10:50:24Z</time>
      </trkpt>
      <trkpt lat="49.06566" lon="1.11927">
        <ele>189.5</ele>
        <time>2017-10-29T10:50:26Z</time>
      </trkpt>
      <trkpt lat="49.0656" lon="1.11942">
        <ele>189.4</ele>
        <time>2017-10-29T10:50:28Z</time>
      </trkpt>
      <trkpt lat="49.06554" lon="1.11958">
        <ele>189.4</ele>
        <time>2017-10-29T10:50:30Z</time>
      </trkpt>
      <trkpt lat="49.06548" lon="1.11976">
        <ele>189.4</ele>
        <time>2017-10-29T10:50:32Z</time>
      </trkpt>
      <trkpt lat="49.06542" lon="1.11993">
        <ele>189.3</ele>
        <time>2017-10-29T10:50:34Z</time>
      </trkpt>
      <trkpt lat="49.06537" lon="1.12009">
        <ele>189.2</ele>
        <time>2017-10-29T10:50:36Z</time>
      </trkpt>
      <trkpt lat="49.06531" lon="1.12025">
        <ele>189.1</ele>
        <time>2017-10-29T10:50:38Z</time>
      </trkpt>
      <trkpt lat="49.06526" lon="1.12042">
        <ele>189</ele>
        <time>2017-10-29T10:50:40Z</time>
      </trkpt>
      <trkpt lat="49.0652" lon="1.12059">
        <ele>189</ele>
        <time>2017-10-29T10:50:42Z</time>
      </trkpt>
      <trkpt lat="49.06515" lon="1.12076">
        <ele>189</ele>
        <time>2017-10-29T10:50:44Z</time>
      </trkpt>
      <trkpt lat="49.06509" lon="1.12094">
        <ele>189</ele>
        <time>2017-10-29T10:50:46Z</time>
      </trkpt>
      <trkpt lat="49.06504" lon="1.12111">
        <ele>189.1</ele>
        <time>2017-10-29T10:50:48Z</time>
      </trkpt>
      <trkpt lat="49.06498" lon="1.12129">
        <ele>189.1</ele>
        <time>2017-10-29T10:50:50Z</time>
      </trkpt>
      <trkpt lat="49.06491" lon="1.12146">
        <ele>189.2</ele>
        <time>2017-10-29T10:50:52Z</time>
      </trkpt>
      <trkpt lat="49.06482" lon="1.12162">
        <ele>189.3</ele>
        <time>2017-10-29T10:50:54Z</time>
      </trkpt>
      <trkpt lat="49.06472" lon="1.12176">
        <ele>189.2</ele>
        <time>2017-10-29T10:50:56Z</time>
      </trkpt>
      <trkpt lat="49.06461" lon="1.12189">
        <ele>189.2</ele>
        <time>2017-10-29T10:50:58Z</time>
      </trkpt>
      <trkpt lat="49.0645" lon="1.122">
        <ele>189.1</ele>
        <time>2017-10-29T10:51:00Z</time>
      </trkpt>
      <trkpt lat="49.06439" lon="1.12211">
        <ele>189.2</ele>
        <time>2017-10-29T10:51:02Z</time>
      </trkpt>
      <trkpt lat="49.06428" lon="1.12223">
        <ele>189.1</ele>
        <time>2017-10-29T10:51:04Z</time>
      </trkpt>
      <trkpt lat="49.06416" lon="1.12234">
        <ele>189.1</ele>
        <time>2017-10-29T10:51:06Z</time>
      </trkpt>
      <trkpt lat="49.06404" lon="1.12247">
        <ele>189</ele>
        <time>2017-10-29T10:51:08Z</time>
      </trkpt>
      <trkpt lat="49.0639" lon="1.1226">
        <ele>189</ele>
        <time>2017-10-29T10:51:10Z</time>
      </trkpt>
      <trkpt lat="49.06377" lon="1.12274">
        <ele>189</ele>
        <time>2017-10-29T10:51:12Z</time>
      </trkpt>
      <trkpt lat="49.06363" lon="1.12288">
        <ele>188.9</ele>
        <time>2017-10-29T10:51:14Z</time>
      </trkpt>
      <trkpt lat="49.0635" lon="1.12302">
        <ele>188.9</ele>
        <time>2017-10-29T10:51:16Z</time>
      </trkpt>
      <trkpt lat="49.06337" lon="1.12316">
        <ele>189</ele>
        <time>2017-10-29T10:51:18Z</time>
      </trkpt>
      <trkpt lat="49.06324" lon="1.1233">
        <ele>189</ele>
        <time>2017-10-29T10:51:20Z</time>
      </trkpt>
      <trkpt lat="49.06311" lon="1.12344">
        <ele>188.8</ele>
        <time>2017-10-29T10:51:22Z</time>
      </trkpt>
      <trkpt lat="49.06298" lon="1.12358">
        <ele>188.7</ele>
        <time>2017-10-29T10:51:24Z</time>
      </trkpt>
      <trkpt lat="49.06285" lon="1.12373">
        <ele>188.5</ele>
        <time>2017-10-29T10:51:26Z</time>
      </trkpt>
      <trkpt lat="49.06272" lon="1.12387">
        <ele>188.4</ele>
        <time>2017-10-29T10:51:28Z</time>
      </trkpt>
      <trkpt lat="49.0626" lon="1.12401">
        <ele>188.1</ele>
        <time>2017-10-29T10:51:30Z</time>
      </trkpt>
      <trkpt lat="49.06247" lon="1.12415">
        <ele>188.1</ele>
        <time>2017-10-29T10:51:32Z</time>
      </trkpt>
      <trkpt lat="49.06234" lon="1.12429">
        <ele>188.1</ele>
        <time>2017-10-29T10:51:34Z</time>
      </trkpt>
      <trkpt lat="49.06221" lon="1.12443">
        <ele>188</ele>
        <time>2017-10-29T10:51:36Z</time>
      </trkpt>
      <trkpt lat="49.06208" lon="1.12457">
        <ele>187.8</ele>
        <time>2017-10-29T10:51:38Z</time>
      </trkpt>
      <trkpt lat="49.06195" lon="1.12471">
        <ele>187.7</ele>
        <time>2017-10-29T10:51:40Z</time>
      </trkpt>
      <trkpt lat="49.06182" lon="1.12483">
        <ele>187.6</ele>
        <time>2017-10-29T10:51:42Z</time>
      </trkpt>
      <trkpt lat="49.06168" lon="1.12494">
        <ele>187.4</ele>
        <time>2017-10-29T10:51:44Z</time>
      </trkpt>
      <trkpt lat="49.06154" lon="1.12503">
        <ele>187.3</ele>
        <time>2017-10-29T10:51:46Z</time>
      </trkpt>
      <trkpt lat="49.0614" lon="1.12511">
        <ele>187.5</ele>
        <time>2017-10-29T10:51:48Z</time>
      </trkpt>
      <trkpt lat="49.06127" lon="1.12518">
        <ele>187.8</ele>
        <time>2017-10-29T10:51:50Z</time>
      </trkpt>
      <trkpt lat="49.06116" lon="1.12526">
        <ele>187.8</ele>
        <time>2017-10-29T10:51:52Z</time>
      </trkpt>
      <trkpt lat="49.06105" lon="1.12534">
        <ele>187.9</ele>
        <time>2017-10-29T10:51:54Z</time>
      </trkpt>
      <trkpt lat="49.06093" lon="1.12539">
        <ele>187.7</ele>
        <time>2017-10-29T10:51:56Z</time>
      </trkpt>
      <trkpt lat="49.0608" lon="1.12539">
        <ele>187.7</ele>
        <time>2017-10-29T10:51:58Z</time>
      </trkpt>
      <trkpt lat="49.06067" lon="1.1254">
        <ele>187.7</ele>
        <time>2017-10-29T10:52:00Z</time>
      </trkpt>
      <trkpt lat="49.06055" lon="1.12544">
        <ele>187.6</ele>
        <time>2017-10-29T10:52:02Z</time>
      </trkpt>
      <trkpt lat="49.06044" lon="1.12548">
        <ele>187.3</ele>
        <time>2017-10-29T10:52:04Z</time>
      </trkpt>
      <trkpt lat="49.06033" lon="1.12552">
        <ele>187</ele>
        <time>2017-10-29T10:52:06Z</time>
      </trkpt>
      <trkpt lat="49.06024" lon="1.12548">
        <ele>186.6</ele>
        <time>2017-10-29T10:52:08Z</time>
      </trkpt>
      <trkpt lat="49.06018" lon="1.12535">
        <ele>186.4</ele>
        <time>2017-10-29T10:52:10Z</time>
      </trkpt>
      <trkpt lat="49.06017" lon="1.12518">
        <ele>186.3</ele>
        <time>2017-10-29T10:52:12Z</time>
      </trkpt>
      <trkpt lat="49.06016" lon="1.12499">
        <ele>186.5</ele>
        <time>2017-10-29T10:52:14Z</time>
      </trkpt>
      <trkpt lat="49.06014" lon="1.12478">
        <ele>186.6</ele>
        <time>2017-10-29T10:52:16Z</time>
      </trkpt>
      <trkpt lat="49.06013" lon="1.12457">
        <ele>186.7</ele>
        <time>2017-10-29T10:52:18Z</time>
      </trkpt>
      <trkpt lat="49.06011" lon="1.12437">
        <ele>186.8</ele>
        <time>2017-10-29T10:52:20Z</time>
      </trkpt>
      <trkpt lat="49.0601" lon="1.12418">
        <ele>186.9</ele>
        <time>2017-10-29T10:52:22Z</time>
      </trkpt>
      <trkpt lat="49.06009" lon="1.124">
        <ele>187.1</ele>
        <time>2017-10-29T10:52:24Z</time>
      </trkpt>
      <trkpt lat="49.06008" lon="1.12384">
        <ele>187</ele>
        <time>2017-10-29T10:52:26Z</time>
      </trkpt>
      <trkpt lat="49.06007" lon="1.12367">
        <ele>187</ele>
        <time>2017-10-29T10:52:28Z</time>
      </trkpt>
      <trkpt lat="49.06007" lon="1.12351">
        <ele>186.7</ele>
        <time>2017-10-29T10:52:30Z</time>
      </trkpt>
      <trkpt lat="49.06005" lon="1.12335">
        <ele>186.7</ele>
        <time>2017-10-29T10:52:32Z</time>
      </trkpt>
      <trkpt lat="49.06003" lon="1.12318">
        <ele>186.4</ele>
        <time>2017-10-29T10:52:34Z</time>
      </trkpt>
      <trkpt lat="49.06" lon="1.12301">
        <ele>186.3</ele>
        <time>2017-10-29T10:52:36Z</time>
      </trkpt>
      <trkpt lat="49.05996" lon="1.12285">
        <ele>186.5</ele>
        <time>2017-10-29T10:52:38Z</time>
      </trkpt>
      <trkpt lat="49.05992" lon="1.12268">
        <ele>186.5</ele>
        <time>2017-10-29T10:52:40Z</time>
      </trkpt>
      <trkpt lat="49.05988" lon="1.12252">
        <ele>186.5</ele>
        <time>2017-10-29T10:52:42Z</time>
      </trkpt>
      <trkpt lat="49.05984" lon="1.12235">
        <ele>186.7</ele>
        <time>2017-10-29T10:52:44Z</time>
      </trkpt>
      <trkpt lat="49.05979" lon="1.12219">
        <ele>186.8</ele>
        <time>2017-10-29T10:52:46Z</time>
      </trkpt>
      <trkpt lat="49.05975" lon="1.12203">
        <ele>186.8</ele>
        <time>2017-10-29T10:52:48Z</time>
      </trkpt>
      <trkpt lat="49.0597" lon="1.12186">
        <ele>186.9</ele>
        <time>2017-10-29T10:52:50Z</time>
      </trkpt>
      <trkpt lat="49.05965" lon="1.1217">
        <ele>186.8</ele>
        <time>2017-10-29T10:52:52Z</time>
      </trkpt>
      <trkpt lat="49.0596" lon="1.12153">
        <ele>186.7</ele>
        <time>2017-10-29T10:52:54Z</time>
      </trkpt>
      <trkpt lat="49.05954" lon="1.12137">
        <ele>186.5</ele>
        <time>2017-10-29T10:52:56Z</time>
      </trkpt>
      <trkpt lat="49.05947" lon="1.12121">
        <ele>186.3</ele>
        <time>2017-10-29T10:52:58Z</time>
      </trkpt>
      <trkpt lat="49.05939" lon="1.12106">
        <ele>186.1</ele>
        <time>2017-10-29T10:53:00Z</time>
      </trkpt>
      <trkpt lat="49.05931" lon="1.12091">
        <ele>185.8</ele>
        <time>2017-10-29T10:53:02Z</time>
      </trkpt>
      <trkpt lat="49.05923" lon="1.12075">
        <ele>185.8</ele>
        <time>2017-10-29T10:53:04Z</time>
      </trkpt>
      <trkpt lat="49.05915" lon="1.12061">
        <ele>185.7</ele>
        <time>2017-10-29T10:53:06Z</time>
      </trkpt>
      <trkpt lat="49.05907" lon="1.12048">
        <ele>185.6</ele>
        <time>2017-10-29T10:53:08Z</time>
      </trkpt>
      <trkpt lat="49.05896" lon="1.12044">
        <ele>185.6</ele>
        <time>2017-10-29T10:53:10Z</time>
      </trkpt>
      <trkpt lat="49.05886" lon="1.12047">
        <ele>185.5</ele>
        <time>2017-10-29T10:53:12Z</time>
      </trkpt>
      <trkpt lat="49.05876" lon="1.12053">
        <ele>185.5</ele>
        <time>2017-10-29T10:53:14Z</time>
      </trkpt>
      <trkpt lat="49.05866" lon="1.12062">
        <ele>185.5</ele>
        <time>2017-10-29T10:53:16Z</time>
      </trkpt>
      <trkpt lat="49.05855" lon="1.1207">
        <ele>185.4</ele>
        <time>2017-10-29T10:53:18Z</time>
      </trkpt>
      <trkpt lat="49.05844" lon="1.12079">
        <ele>185.2</ele>
        <time>2017-10-29T10:53:20Z</time>
      </trkpt>
      <trkpt lat="49.05833" lon="1.12087">
        <ele>185.1</ele>
        <time>2017-10-29T10:53:22Z</time>
      </trkpt>
      <trkpt lat="49.05821" lon="1.12097">
        <ele>185.1</ele>
        <time>2017-10-29T10:53:24Z</time>
      </trkpt>
      <trkpt lat="49.0581" lon="1.12106">
        <ele>185.2</ele>
        <time>2017-10-29T10:53:26Z</time>
      </trkpt>
      <trkpt lat="49.05798" lon="1.12115">
        <ele>185.3</ele>
        <time>2017-10-29T10:53:28Z</time>
      </trkpt>
      <trkpt lat="49.05787" lon="1.12124">
        <ele>185.3</ele>
        <time>2017-10-29T10:53:30Z</time>
      </trkpt>
      <trkpt lat="49.05775" lon="1.12133">
        <ele>185.4</ele>
        <time>2017-10-29T10:53:32Z</time>
      </trkpt>
      <trkpt lat="49.05764" lon="1.12142">
        <ele>185.5</ele>
        <time>2017-10-29T10:53:34Z</time>
      </trkpt>
      <trkpt lat="49.05753" lon="1.12152">
        <ele>185.5</ele>
        <time>2017-10-29T10:53:36Z</time>
      </trkpt>
      <trkpt lat="49.05741" lon="1.12161">
        <ele>185.5</ele>
        <time>2017-10-29T10:53:38Z</time>
      </trkpt>
      <trkpt lat="49.0573" lon="1.12171">
        <ele>185.6</ele>
        <time>2017-10-29T10:53:40Z</time>
      </trkpt>
      <trkpt lat="49.05718" lon="1.1218">
        <ele>185.7</ele>
        <time>2017-10-29T10:53:42Z</time>
      </trkpt>
      <trkpt lat="49.05707" lon="1.1219">
        <ele>186</ele>
        <time>2017-10-29T10:53:44Z</time>
      </trkpt>
      <trkpt lat="49.05695" lon="1.12199">
        <ele>186.2</ele>
        <time>2017-10-29T10:53:46Z</time>
      </trkpt>
      <trkpt lat="49.05684" lon="1.12208">
        <ele>186.5</ele>
        <time>2017-10-29T10:53:48Z</time>
      </trkpt>
      <trkpt lat="49.05673" lon="1.12217">
        <ele>186.7</ele>
        <time>2017-10-29T10:53:50Z</time>
      </trkpt>
      <trkpt lat="49.05662" lon="1.12226">
        <ele>187</ele>
        <time>2017-10-29T10:53:52Z</time>
      </trkpt>
      <trkpt lat="49.05652" lon="1.12235">
        <ele>187.3</ele>
        <time>2017-10-29T10:53:54Z</time>
      </trkpt>
      <trkpt lat="49.05641" lon="1.12245">
        <ele>187.5</ele>
        <time>2017-10-29T10:53:56Z</time>
      </trkpt>
      <trkpt lat="49.0563" lon="1.12253">
        <ele>187.7</ele>
        <time>2017-10-29T10:53:58Z</time>
      </trkpt>
      <trkpt lat="49.05619" lon="1.1226">
        <ele>187.8</ele>
        <time>2017-10-29T10:54:00Z</time>
      </trkpt>
      <trkpt lat="49.05607" lon="1.12267">
        <ele>187.8</ele>
        <time>2017-10-29T10:54:02Z</time>
      </trkpt>
      <trkpt lat="49.05595" lon="1.12273">
        <ele>188.1</ele>
        <time>2017-10-29T10:54:04Z</time>
      </trkpt>
      <trkpt lat="49.05583" lon="1.1228">
        <ele>188.3</ele>
        <time>2017-10-29T10:54:06Z</time>
      </trkpt>
      <trkpt lat="49.0557" lon="1.12287">
        <ele>188.4</ele>
        <time>2017-10-29T10:54:08Z</time>
      </trkpt>
      <trkpt lat="49.05558" lon="1.12294">
        <ele>188.6</ele>
        <time>2017-10-29T10:54:10Z</time>
      </trkpt>
      <trkpt lat="49.05546" lon="1.123">
        <ele>188.7</ele>
        <time>2017-10-29T10:54:12Z</time>
      </trkpt>
      <trkpt lat="49.05533" lon="1.12307">
        <ele>188.6</ele>
        <time>2017-10-29T10:54:14Z</time>
      </trkpt>
      <trkpt lat="49.0552" lon="1.12315">
        <ele>188.6</ele>
        <time>2017-10-29T10:54:16Z</time>
      </trkpt>
      <trkpt lat="49.05507" lon="1.12322">
        <ele>188.5</ele>
        <time>2017-10-29T10:54:18Z</time>
      </trkpt>
      <trkpt lat="49.05494" lon="1.12329">
        <ele>188.5</ele>
        <time>2017-10-29T10:54:20Z</time>
      </trkpt>
      <trkpt lat="49.05481" lon="1.12336">
        <ele>188.5</ele>
        <time>2017-10-29T10:54:22Z</time>
      </trkpt>
      <trkpt lat="49.05468" lon="1.12343">
        <ele>188.2</ele>
        <time>2017-10-29T10:54:24Z</time>
      </trkpt>
      <trkpt lat="49.05455" lon="1.1235">
        <ele>188</ele>
        <time>2017-10-29T10:54:26Z</time>
      </trkpt>
      <trkpt lat="49.05442" lon="1.12357">
        <ele>187.9</ele>
        <time>2017-10-29T10:54:28Z</time>
      </trkpt>
      <trkpt lat="49.05429" lon="1.12364">
        <ele>187.8</ele>
        <time>2017-10-29T10:54:30Z</time>
      </trkpt>
      <trkpt lat="49.05416" lon="1.12371">
        <ele>187.7</ele>
        <time>2017-10-29T10:54:32Z</time>
      </trkpt>
      <trkpt lat="49.05403" lon="1.12378">
        <ele>187.5</ele>
        <time>2017-10-29T10:54:34Z</time>
      </trkpt>
      <trkpt lat="49.0539" lon="1.12385">
        <ele>187.2</ele>
        <time>2017-10-29T10:54:36Z</time>
      </trkpt>
      <trkpt lat="49.05377" lon="1.12392">
        <ele>186.9</ele>
        <time>2017-10-29T10:54:38Z</time>
      </trkpt>
      <trkpt lat="49.05364" lon="1.12399">
        <ele>186.8</ele>
        <time>2017-10-29T10:54:40Z</time>
      </trkpt>
      <trkpt lat="49.05351" lon="1.12405">
        <ele>186.5</ele>
        <time>2017-10-29T10:54:42Z</time>
      </trkpt>
      <trkpt lat="49.05339" lon="1.12411">
        <ele>186.5</ele>
        <time>2017-10-29T10:54:44Z</time>
      </trkpt>
      <trkpt lat="49.05326" lon="1.12418">
        <ele>186.4</ele>
        <time>2017-10-29T10:54:46Z</time>
      </trkpt>
      <trkpt lat="49.05314" lon="1.12424">
        <ele>186.3</ele>
        <time>2017-10-29T10:54:48Z</time>
      </trkpt>
      <trkpt lat="49.05303" lon="1.12431">
        <ele>186.1</ele>
        <time>2017-10-29T10:54:50Z</time>
      </trkpt>
      <trkpt lat="49.05291" lon="1.12439">
        <ele>185.9</ele>
        <time>2017-10-29T10:54:52Z</time>
      </trkpt>
      <trkpt lat="49.05281" lon="1.12451">
        <ele>185.9</ele>
        <time>2017-10-29T10:54:54Z</time>
      </trkpt>
      <trkpt lat="49.05272" lon="1.12464">
        <ele>185.8</ele>
        <time>2017-10-29T10:54:56Z</time>
      </trkpt>
      <trkpt lat="49.05263" lon="1.12479">
        <ele>185.7</ele>
        <time>2017-10-29T10:54:58Z</time>
      </trkpt>
      <trkpt lat="49.05253" lon="1.12491">
        <ele>185.7</ele>
        <time>2017-10-29T10:55:00Z</time>
      </trkpt>
      <trkpt lat="49.05242" lon="1.125">
        <ele>185.7</ele>
        <time>2017-10-29T10:55:02Z</time>
      </trkpt>
      <trkpt lat="49.0523" lon="1.12504">
        <ele>185.7</ele>
        <time>2017-10-29T10:55:04Z</time>
      </trkpt>
      <trkpt lat="49.05217" lon="1.12508">
        <ele>185.7</ele>
        <time>2017-10-29T10:55:06Z</time>
      </trkpt>
      <trkpt lat="49.05205" lon="1.1251">
        <ele>185.8</ele>
        <time>2017-10-29T10:55:08Z</time>
      </trkpt>
      <trkpt lat="49.05192" lon="1.12512">
        <ele>185.8</ele>
        <time>2017-10-29T10:55:10Z</time>
      </trkpt>
      <trkpt lat="49.05179" lon="1.12515">
        <ele>185.8</ele>
        <time>2017-10-29T10:55:12Z</time>
      </trkpt>
      <trkpt lat="49.05166" lon="1.12517">
        <ele>185.8</ele>
        <time>2017-10-29T10:55:14Z</time>
      </trkpt>
      <trkpt lat="49.05153" lon="1.1252">
        <ele>185.6</ele>
        <time>2017-10-29T10:55:16Z</time>
      </trkpt>
      <trkpt lat="49.05141" lon="1.12524">
        <ele>185.5</ele>
        <time>2017-10-29T10:55:18Z</time>
      </trkpt>
      <trkpt lat="49.05128" lon="1.12527">
        <ele>185.4</ele>
        <time>2017-10-29T10:55:20Z</time>
      </trkpt>
      <trkpt lat="49.05116" lon="1.12531">
        <ele>185.3</ele>
        <time>2017-10-29T10:55:22Z</time>
      </trkpt>
      <trkpt lat="49.05104" lon="1.12535">
        <ele>185.2</ele>
        <time>2017-10-29T10:55:24Z</time>
      </trkpt>
      <trkpt lat="49.05091" lon="1.12541">
        <ele>185</ele>
        <time>2017-10-29T10:55:26Z</time>
      </trkpt>
      <trkpt lat="49.0508" lon="1.12547">
        <ele>184.8</ele>
        <time>2017-10-29T10:55:28Z</time>
      </trkpt>
      <trkpt lat="49.05068" lon="1.12555">
        <ele>184.6</ele>
        <time>2017-10-29T10:55:30Z</time>
      </trkpt>
      <trkpt lat="49.05057" lon="1.12565">
        <ele>184.6</ele>
        <time>2017-10-29T10:55:32Z</time>
      </trkpt>
      <trkpt lat="49.05047" lon="1.12575">
        <ele>184.5</ele>
        <time>2017-10-29T10:55:34Z</time>
      </trkpt>
      <trkpt lat="49.05036" lon="1.12586">
        <ele>184.4</ele>
        <time>2017-10-29T10:55:36Z</time>
      </trkpt>
      <trkpt lat="49.05026" lon="1.12597">
        <ele>184.4</ele>
        <time>2017-10-29T10:55:38Z</time>
      </trkpt>
      <trkpt lat="49.05016" lon="1.12608">
        <ele>184.5</ele>
        <time>2017-10-29T10:55:40Z</time>
      </trkpt>
      <trkpt lat="49.05006" lon="1.1262">
        <ele>184.5</ele>
        <time>2017-10-29T10:55:42Z</time>
      </trkpt>
      <trkpt lat="49.04995" lon="1.12631">
        <ele>184.5</ele>
        <time>2017-10-29T10:55:44Z</time>
      </trkpt>
      <trkpt lat="49.04985" lon="1.12642">
        <ele>184.3</ele>
        <time>2017-10-29T10:55:46Z</time>
      </trkpt>
      <trkpt lat="49.04975" lon="1.12654">
        <ele>184.3</ele>
        <time>2017-10-29T10:55:48Z</time>
      </trkpt>
      <trkpt lat="49.04964" lon="1.12666">
        <ele>184.2</ele>
        <time>2017-10-29T10:55:50Z</time>
      </trkpt>
      <trkpt lat="49.04953" lon="1.12679">
        <ele>184.1</ele>
        <time>2017-10-29T10:55:52Z</time>
      </trkpt>
      <trkpt lat="49.04941" lon="1.12691">
        <ele>183.8</ele>
        <time>2017-10-29T10:55:54Z</time>
      </trkpt>
      <trkpt lat="49.0493" lon="1.12704">
        <ele>183.7</ele>
        <time>2017-10-29T10:55:56Z</time>
      </trkpt>
      <trkpt lat="49.04918" lon="1.12716">
        <ele>183.6</ele>
        <time>2017-10-29T10:55:58Z</time>
      </trkpt>
      <trkpt lat="49.04907" lon="1.12728">
        <ele>183.3</ele>
        <time>2017-10-29T10:56:00Z</time>
      </trkpt>
      <trkpt lat="49.04895" lon="1.12739">
        <ele>183</ele>
        <time>2017-10-29T10:56:02Z</time>
      </trkpt>
      <trkpt lat="49.04883" lon="1.12749">
        <ele>182.7</ele>
        <time>2017-10-29T10:56:04Z</time>
      </trkpt>
      <trkpt lat="49.04871" lon="1.12759">
        <ele>182.9</ele>
        <time>2017-10-29T10:56:06Z</time>
      </trkpt>
      <trkpt lat="49.0486" lon="1.1277">
        <ele>182.8</ele>
        <time>2017-10-29T10:56:08Z</time>
      </trkpt>
      <trkpt lat="49.04849" lon="1.1278">
        <ele>182.9</ele>
        <time>2017-10-29T10:56:10Z</time>
      </trkpt>
      <trkpt lat="49.04839" lon="1.12791">
        <ele>183.1</ele>
        <time>2017-10-29T10:56:12Z</time>
      </trkpt>
      <trkpt lat="49.04828" lon="1.12801">
        <ele>183.3</ele>
        <time>2017-10-29T10:56:14Z</time>
      </trkpt>
      <trkpt lat="49.04817" lon="1.12812">
        <ele>183.5</ele>
        <time>2017-10-29T10:56:16Z</time>
      </trkpt>
      <trkpt lat="49.04806" lon="1.1282">
        <ele>183.7</ele>
        <time>2017-10-29T10:56:18Z</time>
      </trkpt>
      <trkpt lat="49.04794" lon="1.12826">
        <ele>184</ele>
        <time>2017-10-29T10:56:20Z</time>
      </trkpt>
      <trkpt lat="49.04781" lon="1.1283">
        <ele>184.3</ele>
        <time>2017-10-29T10:56:22Z</time>
      </trkpt>
      <trkpt lat="49.04768" lon="1.12831">
        <ele>184.4</ele>
        <time>2017-10-29T10:56:24Z</time>
      </trkpt>
      <trkpt lat="49.04754" lon="1.12831">
        <ele>184.3</ele>
        <time>2017-10-29T10:56:26Z</time>
      </trkpt>
      <trkpt lat="49.0474" lon="1.1283">
        <ele>183.9</ele>
        <time>2017-10-29T10:56:28Z</time>
      </trkpt>
      <trkpt lat="49.04726" lon="1.12827">
        <ele>183.5</ele>
        <time>2017-10-29T10:56:30Z</time>
      </trkpt>
      <trkpt lat="49.0471" lon="1.12825">
        <ele>183.2</ele>
        <time>2017-10-29T10:56:32Z</time>
      </trkpt>
      <trkpt lat="49.04696" lon="1.12821">
        <ele>182.8</ele>
        <time>2017-10-29T10:56:34Z</time>
      </trkpt>
      <trkpt lat="49.04682" lon="1.12817">
        <ele>182.6</ele>
        <time>2017-10-29T10:56:36Z</time>
      </trkpt>
      <trkpt lat="49.04669" lon="1.12813">
        <ele>182.3</ele>
        <time>2017-10-29T10:56:38Z</time>
      </trkpt>
      <trkpt lat="49.04655" lon="1.12809">
        <ele>182</ele>
        <time>2017-10-29T10:56:40Z</time>
      </trkpt>
      <trkpt lat="49.04641" lon="1.12806">
        <ele>181.7</ele>
        <time>2017-10-29T10:56:42Z</time>
      </trkpt>
      <trkpt lat="49.04626" lon="1.12803">
        <ele>181.4</ele>
        <time>2017-10-29T10:56:44Z</time>
      </trkpt>
      <trkpt lat="49.04611" lon="1.128">
        <ele>181.3</ele>
        <time>2017-10-29T10:56:46Z</time>
      </trkpt>
      <trkpt lat="49.04596" lon="1.12798">
        <ele>181.2</ele>
        <time>2017-10-29T10:56:48Z</time>
      </trkpt>
      <trkpt lat="49.04581" lon="1.12797">
        <ele>181</ele>
        <time>2017-10-29T10:56:50Z</time>
      </trkpt>
      <trkpt lat="49.04567" lon="1.12798">
        <ele>180.8</ele>
        <time>2017-10-29T10:56:52Z</time>
      </trkpt>
      <trkpt lat="49.04552" lon="1.12801">
        <ele>180.6</ele>
        <time>2017-10-29T10:56:54Z</time>
      </trkpt>
      <trkpt lat="49.04538" lon="1.12806">
        <ele>180.5</ele>
        <time>2017-10-29T10:56:56Z</time>
      </trkpt>
      <trkpt lat="49.04524" lon="1.12813">
        <ele>180.4</ele>
        <time>2017-10-29T10:56:58Z</time>
      </trkpt>
      <trkpt lat="49.0451" lon="1.12821">
        <ele>180.4</ele>
        <time>2017-10-29T10:57:00Z</time>
      </trkpt>
      <trkpt lat="49.04496" lon="1.1283">
        <ele>180.6</ele>
        <time>2017-10-29T10:57:02Z</time>
      </trkpt>
      <trkpt lat="49.04483" lon="1.12841">
        <ele>180.9</ele>
        <time>2017-10-29T10:57:04Z</time>
      </trkpt>
      <trkpt lat="49.04469" lon="1.12852">
        <ele>181.1</ele>
        <time>2017-10-29T10:57:06Z</time>
      </trkpt>
      <trkpt lat="49.04455" lon="1.12862">
        <ele>181.4</ele>
        <time>2017-10-29T10:57:08Z</time>
      </trkpt>
      <trkpt lat="49.0444" lon="1.1287">
        <ele>181.8</ele>
        <time>2017-10-29T10:57:10Z</time>
      </trkpt>
      <trkpt lat="49.04425" lon="1.12877">
        <ele>182.5</ele>
        <time>2017-10-29T10:57:12Z</time>
      </trkpt>
      <trkpt lat="49.0441" lon="1.12883">
        <ele>183.1</ele>
        <time>2017-10-29T10:57:14Z</time>
      </trkpt>
      <trkpt lat="49.04394" lon="1.12886">
        <ele>183.7</ele>
        <time>2017-10-29T10:57:16Z</time>
      </trkpt>
      <trkpt lat="49.04379" lon="1.12888">
        <ele>184.3</ele>
        <time>2017-10-29T10:57:18Z</time>
      </trkpt>
      <trkpt lat="49.04365" lon="1.12889">
        <ele>184.7</ele>
        <time>2017-10-29T10:57:20Z</time>
      </trkpt>
      <trkpt lat="49.0435" lon="1.12889">
        <ele>185.2</ele>
        <time>2017-10-29T10:57:22Z</time>
      </trkpt>
      <trkpt lat="49.04336" lon="1.12889">
        <ele>185.4</ele>
        <time>2017-10-29T10:57:24Z</time>
      </trkpt>
      <trkpt lat="49.04322" lon="1.12891">
        <ele>185.6</ele>
        <time>2017-10-29T10:57:26Z</time>
      </trkpt>
      <trkpt lat="49.04307" lon="1.12894">
        <ele>185.7</ele>
        <time>2017-10-29T10:57:28Z</time>
      </trkpt>
      <trkpt lat="49.04293" lon="1.12897">
        <ele>185.6</ele>
        <time>2017-10-29T10:57:30Z</time>
      </trkpt>
      <trkpt lat="49.0428" lon="1.129">
        <ele>185.6</ele>
        <time>2017-10-29T10:57:32Z</time>
      </trkpt>
      <trkpt lat="49.04266" lon="1.12903">
        <ele>185.4</ele>
        <time>2017-10-29T10:57:34Z</time>
      </trkpt>
      <trkpt lat="49.04252" lon="1.12907">
        <ele>185.3</ele>
        <time>2017-10-29T10:57:36Z</time>
      </trkpt>
      <trkpt lat="49.04238" lon="1.1291">
        <ele>185.1</ele>
        <time>2017-10-29T10:57:38Z</time>
      </trkpt>
      <trkpt lat="49.04223" lon="1.12913">
        <ele>185</ele>
        <time>2017-10-29T10:57:40Z</time>
      </trkpt>
      <trkpt lat="49.04208" lon="1.12916">
        <ele>184.7</ele>
        <time>2017-10-29T10:57:42Z</time>
      </trkpt>
      <trkpt lat="49.04193" lon="1.12919">
        <ele>184.6</ele>
        <time>2017-10-29T10:57:44Z</time>
      </trkpt>
      <trkpt lat="49.04178" lon="1.12922">
        <ele>184.5</ele>
        <time>2017-10-29T10:57:46Z</time>
      </trkpt>
      <trkpt lat="49.04163" lon="1.12924">
        <ele>184.4</ele>
        <time>2017-10-29T10:57:48Z</time>
      </trkpt>
      <trkpt lat="49.04147" lon="1.12924">
        <ele>184.4</ele>
        <time>2017-10-29T10:57:50Z</time>
      </trkpt>
      <trkpt lat="49.04132" lon="1.12924">
        <ele>184.4</ele>
        <time>2017-10-29T10:57:52Z</time>
      </trkpt>
      <trkpt lat="49.04116" lon="1.12923">
        <ele>184.1</ele>
        <time>2017-10-29T10:57:54Z</time>
      </trkpt>
      <trkpt lat="49.04101" lon="1.12922">
        <ele>184.1</ele>
        <time>2017-10-29T10:57:56Z</time>
      </trkpt>
      <trkpt lat="49.04086" lon="1.1292">
        <ele>184.2</ele>
        <time>2017-10-29T10:57:58Z</time>
      </trkpt>
      <trkpt lat="49.04071" lon="1.12919">
        <ele>184.2</ele>
        <time>2017-10-29T10:58:00Z</time>
      </trkpt>
      <trkpt lat="49.04055" lon="1.12917">
        <ele>184.3</ele>
        <time>2017-10-29T10:58:02Z</time>
      </trkpt>
      <trkpt lat="49.04041" lon="1.12916">
        <ele>184.1</ele>
        <time>2017-10-29T10:58:04Z</time>
      </trkpt>
      <trkpt lat="49.04026" lon="1.12916">
        <ele>183.9</ele>
        <time>2017-10-29T10:58:06Z</time>
      </trkpt>
      <trkpt lat="49.04013" lon="1.12916">
        <ele>183.8</ele>
        <time>2017-10-29T10:58:08Z</time>
      </trkpt>
      <trkpt lat="49.04001" lon="1.12912">
        <ele>183.6</ele>
        <time>2017-10-29T10:58:10Z</time>
      </trkpt>
      <trkpt lat="49.03991" lon="1.12903">
        <ele>183.3</ele>
        <time>2017-10-29T10:58:12Z</time>
      </trkpt>
      <trkpt lat="49.0398" lon="1.12896">
        <ele>183.1</ele>
        <time>2017-10-29T10:58:14Z</time>
      </trkpt>
      <trkpt lat="49.0397" lon="1.12903">
        <ele>182.7</ele>
        <time>2017-10-29T10:58:16Z</time>
      </trkpt>
      <trkpt lat="49.03963" lon="1.12917">
        <ele>182.3</ele>
        <time>2017-10-29T10:58:18Z</time>
      </trkpt>
      <trkpt lat="49.03955" lon="1.12929">
        <ele>181.8</ele>
        <time>2017-10-29T10:58:20Z</time>
      </trkpt>
      <trkpt lat="49.03946" lon="1.12941">
        <ele>181.5</ele>
        <time>2017-10-29T10:58:22Z</time>
      </trkpt>
      <trkpt lat="49.03938" lon="1.12955">
        <ele>181.2</ele>
        <time>2017-10-29T10:58:24Z</time>
      </trkpt>
      <trkpt lat="49.03931" lon="1.12969">
        <ele>181</ele>
        <time>2017-10-29T10:58:26Z</time>
      </trkpt>
      <trkpt lat="49.03923" lon="1.12984">
        <ele>180.8</ele>
        <time>2017-10-29T10:58:28Z</time>
      </trkpt>
      <trkpt lat="49.03916" lon="1.12999">
        <ele>180.6</ele>
        <time>2017-10-29T10:58:30Z</time>
      </trkpt>
      <trkpt lat="49.03908" lon="1.13013">
        <ele>180.3</ele>
        <time>2017-10-29T10:58:32Z</time>
      </trkpt>
      <trkpt lat="49.039" lon="1.13028">
        <ele>180.1</ele>
        <time>2017-10-29T10:58:34Z</time>
      </trkpt>
      <trkpt lat="49.03892" lon="1.13044">
        <ele>179.9</ele>
        <time>2017-10-29T10:58:36Z</time>
      </trkpt>
      <trkpt lat="49.03884" lon="1.1306">
        <ele>179.7</ele>
        <time>2017-10-29T10:58:38Z</time>
      </trkpt>
      <trkpt lat="49.03875" lon="1.13076">
        <ele>179.5</ele>
        <time>2017-10-29T10:58:40Z</time>
      </trkpt>
      <trkpt lat="49.03867" lon="1.13091">
        <ele>179.3</ele>
        <time>2017-10-29T10:58:42Z</time>
      </trkpt>
      <trkpt lat="49.03857" lon="1.13105">
        <ele>179.1</ele>
        <time>2017-10-29T10:58:44Z</time>
      </trkpt>
      <trkpt lat="49.03846" lon="1.13119">
        <ele>179</ele>
        <time>2017-10-29T10:58:46Z</time>
      </trkpt>
      <trkpt lat="49.03835" lon="1.1313">
        <ele>178.9</ele>
        <time>2017-10-29T10:58:48Z</time>
      </trkpt>
      <trkpt lat="49.03823" lon="1.13139">
        <ele>178.9</ele>
        <time>2017-10-29T10:58:50Z</time>
      </trkpt>
      <trkpt lat="49.03812" lon="1.13146">
        <ele>178.9</ele>
        <time>2017-10-29T10:58:52Z</time>
      </trkpt>
      <trkpt lat="49.03801" lon="1.13153">
        <ele>178.8</ele>
        <time>2017-10-29T10:58:54Z</time>
      </trkpt>
      <trkpt lat="49.03789" lon="1.1316">
        <ele>178.7</ele>
        <time>2017-10-29T10:58:56Z</time>
      </trkpt>
      <trkpt lat="49.03778" lon="1.13168">
        <ele>178.5</ele>
        <time>2017-10-29T10:58:58Z</time>
      </trkpt>
      <trkpt lat="49.03766" lon="1.13177">
        <ele>178.4</ele>
        <time>2017-10-29T10:59:00Z</time>
      </trkpt>
      <trkpt lat="49.03754" lon="1.13184">
        <ele>178.3</ele>
        <time>2017-10-29T10:59:02Z</time>
      </trkpt>
      <trkpt lat="49.03742" lon="1.13192">
        <ele>178.2</ele>
        <time>2017-10-29T10:59:04Z</time>
      </trkpt>
      <trkpt lat="49.03731" lon="1.13198">
        <ele>178.1</ele>
        <time>2017-10-29T10:59:06Z</time>
      </trkpt>
      <trkpt lat="49.0372" lon="1.13205">
        <ele>178</ele>
        <time>2017-10-29T10:59:08Z</time>
      </trkpt>
      <trkpt lat="49.03709" lon="1.13211">
        <ele>177.9</ele>
        <time>2017-10-29T10:59:10Z</time>
      </trkpt>
      <trkpt lat="49.03698" lon="1.13217">
        <ele>177.7</ele>
        <time>2017-10-29T10:59:12Z</time>
      </trkpt>
      <trkpt lat="49.03688" lon="1.13222">
        <ele>177.6</ele>
        <time>2017-10-29T10:59:14Z</time>
      </trkpt>
      <trkpt lat="49.03679" lon="1.13226">
        <ele>177.5</ele>
        <time>2017-10-29T10:59:16Z</time>
      </trkpt>
      <trkpt lat="49.0367" lon="1.1323">
        <ele>177.4</ele>
        <time>2017-10-29T10:59:18Z</time>
      </trkpt>
      <trkpt lat="49.03661" lon="1.13234">
        <ele>177.5</ele>
        <time>2017-10-29T10:59:20Z</time>
      </trkpt>
      <trkpt lat="49.03652" lon="1.13239">
        <ele>177.4</ele>
        <time>2017-10-29T10:59:22Z</time>
      </trkpt>
      <trkpt lat="49.03642" lon="1.13244">
        <ele>177.1</ele>
        <time>2017-10-29T10:59:24Z</time>
      </trkpt>
      <trkpt lat="49.03632" lon="1.13249">
        <ele>176.9</ele>
        <time>2017-10-29T10:59:26Z</time>
      </trkpt>
      <trkpt lat="49.03621" lon="1.13253">
        <ele>176.7</ele>
        <time>2017-10-29T10:59:28Z</time>
      </trkpt>
      <trkpt lat="49.03611" lon="1.13258">
        <ele>176.4</ele>
        <time>2017-10-29T10:59:30Z</time>
      </trkpt>
      <trkpt lat="49.036" lon="1.13263">
        <ele>176.3</ele>
        <time>2017-10-29T10:59:32Z</time>
      </trkpt>
      <trkpt lat="49.03589" lon="1.13268">
        <ele>176.3</ele>
        <time>2017-10-29T10:59:34Z</time>
      </trkpt>
      <trkpt lat="49.03578" lon="1.13274">
        <ele>176.2</ele>
        <time>2017-10-29T10:59:36Z</time>
      </trkpt>
      <trkpt lat="49.03567" lon="1.13279">
        <ele>176.4</ele>
        <time>2017-10-29T10:59:38Z</time>
      </trkpt>
      <trkpt lat="49.03556" lon="1.13284">
        <ele>176.4</ele>
        <time>2017-10-29T10:59:40Z</time>
      </trkpt>
      <trkpt lat="49.03545" lon="1.13289">
        <ele>176.3</ele>
        <time>2017-10-29T10:59:42Z</time>
      </trkpt>
      <trkpt lat="49.03534" lon="1.13294">
        <ele>176.3</ele>
        <time>2017-10-29T10:59:44Z</time>
      </trkpt>
      <trkpt lat="49.03523" lon="1.133">
        <ele>176.3</ele>
        <time>2017-10-29T10:59:46Z</time>
      </trkpt>
      <trkpt lat="49.03513" lon="1.13306">
        <ele>176.5</ele>
        <time>2017-10-29T10:59:48Z</time>
      </trkpt>
      <trkpt lat="49.03503" lon="1.13311">
        <ele>176.6</ele>
        <time>2017-10-29T10:59:50Z</time>
      </trkpt>
      <trkpt lat="49.03494" lon="1.13317">
        <ele>176.8</ele>
        <time>2017-10-29T10:59:52Z</time>
      </trkpt>
      <trkpt lat="49.03484" lon="1.13324">
        <ele>176.8</ele>
        <time>2017-10-29T10:59:54Z</time>
      </trkpt>
      <trkpt lat="49.03475" lon="1.13328">
        <ele>176.9</ele>
        <time>2017-10-29T10:59:56Z</time>
      </trkpt>
      <trkpt lat="49.03465" lon="1.13342">
        <ele>177</ele>
        <time>2017-10-29T10:59:59Z</time>
      </trkpt>
      <trkpt lat="49.03459" lon="1.13354">
        <ele>177.2</ele>
        <time>2017-10-29T11:00:02Z</time>
      </trkpt>
      <trkpt lat="49.03447" lon="1.13351">
        <ele>177.1</ele>
        <time>2017-10-29T11:00:06Z</time>
      </trkpt>
      <trkpt lat="49.0344" lon="1.1334">
        <ele>177.3</ele>
        <time>2017-10-29T11:00:12Z</time>
      </trkpt>
      <trkpt lat="49.03431" lon="1.13336">
        <ele>178</ele>
        <time>2017-10-29T11:00:39Z</time>
      </trkpt>
      <trkpt lat="49.03423" lon="1.13326">
        <ele>178.2</ele>
        <time>2017-10-29T11:00:42Z</time>
      </trkpt>
      <trkpt lat="49.03411" lon="1.13317">
        <ele>178.1</ele>
        <time>2017-10-29T11:00:45Z</time>
      </trkpt>
      <trkpt lat="49.03402" lon="1.13314">
        <ele>178.3</ele>
        <time>2017-10-29T11:00:47Z</time>
      </trkpt>
      <trkpt lat="49.03392" lon="1.13316">
        <ele>178.5</ele>
        <time>2017-10-29T11:00:49Z</time>
      </trkpt>
      <trkpt lat="49.03383" lon="1.13319">
        <ele>178.7</ele>
        <time>2017-10-29T11:00:51Z</time>
      </trkpt>
      <trkpt lat="49.03372" lon="1.13324">
        <ele>178.8</ele>
        <time>2017-10-29T11:00:54Z</time>
      </trkpt>
      <trkpt lat="49.03363" lon="1.13329">
        <ele>178.4</ele>
        <time>2017-10-29T11:01:06Z</time>
      </trkpt>
      <trkpt lat="49.03354" lon="1.1333">
        <ele>178.4</ele>
        <time>2017-10-29T11:01:09Z</time>
      </trkpt>
      <trkpt lat="49.03343" lon="1.13333">
        <ele>178.4</ele>
        <time>2017-10-29T11:01:12Z</time>
      </trkpt>
      <trkpt lat="49.0333" lon="1.13335">
        <ele>178.4</ele>
        <time>2017-10-29T11:01:15Z</time>
      </trkpt>
      <trkpt lat="49.03321" lon="1.13333">
        <ele>178.3</ele>
        <time>2017-10-29T11:01:17Z</time>
      </trkpt>
      <trkpt lat="49.03312" lon="1.13328">
        <ele>178.2</ele>
        <time>2017-10-29T11:01:19Z</time>
      </trkpt>
      <trkpt lat="49.03307" lon="1.13312">
        <ele>178.1</ele>
        <time>2017-10-29T11:01:22Z</time>
      </trkpt>
      <trkpt lat="49.03304" lon="1.13293">
        <ele>178</ele>
        <time>2017-10-29T11:01:25Z</time>
      </trkpt>
      <trkpt lat="49.033" lon="1.13279">
        <ele>178.3</ele>
        <time>2017-10-29T11:01:27Z</time>
      </trkpt>
      <trkpt lat="49.03298" lon="1.13266">
        <ele>178.3</ele>
        <time>2017-10-29T11:01:29Z</time>
      </trkpt>
      <trkpt lat="49.03294" lon="1.13252">
        <ele>178.2</ele>
        <time>2017-10-29T11:01:31Z</time>
      </trkpt>
      <trkpt lat="49.03291" lon="1.13239">
        <ele>178.3</ele>
        <time>2017-10-29T11:01:33Z</time>
      </trkpt>
      <trkpt lat="49.03284" lon="1.13224">
        <ele>178.5</ele>
        <time>2017-10-29T11:01:36Z</time>
      </trkpt>
      <trkpt lat="49.03273" lon="1.13227">
        <ele>178.3</ele>
        <time>2017-10-29T11:01:39Z</time>
      </trkpt>
      <trkpt lat="49.03264" lon="1.13234">
        <ele>178.3</ele>
        <time>2017-10-29T11:01:41Z</time>
      </trkpt>
      <trkpt lat="49.03256" lon="1.13242">
        <ele>178.3</ele>
        <time>2017-10-29T11:01:43Z</time>
      </trkpt>
      <trkpt lat="49.0325" lon="1.13254">
        <ele>178.3</ele>
        <time>2017-10-29T11:01:45Z</time>
      </trkpt>
      <trkpt lat="49.03245" lon="1.13267">
        <ele>178</ele>
        <time>2017-10-29T11:01:47Z</time>
      </trkpt>
      <trkpt lat="49.03241" lon="1.13282">
        <ele>177.6</ele>
        <time>2017-10-29T11:01:49Z</time>
      </trkpt>
      <trkpt lat="49.03237" lon="1.13296">
        <ele>177.5</ele>
        <time>2017-10-29T11:01:51Z</time>
      </trkpt>
      <trkpt lat="49.03231" lon="1.13313">
        <ele>177.1</ele>
        <time>2017-10-29T11:01:54Z</time>
      </trkpt>
      <trkpt lat="49.03221" lon="1.13314">
        <ele>176.5</ele>
        <time>2017-10-29T11:01:58Z</time>
      </trkpt>
      <trkpt lat="49.03216" lon="1.13299">
        <ele>176.4</ele>
        <time>2017-10-29T11:02:01Z</time>
      </trkpt>
      <trkpt lat="49.03212" lon="1.1328">
        <ele>176.2</ele>
        <time>2017-10-29T11:02:04Z</time>
      </trkpt>
      <trkpt lat="49.03206" lon="1.13268">
        <ele>175.9</ele>
        <time>2017-10-29T11:02:07Z</time>
      </trkpt>
      <trkpt lat="49.03194" lon="1.13275">
        <ele>175.7</ele>
        <time>2017-10-29T11:02:10Z</time>
      </trkpt>
      <trkpt lat="49.03187" lon="1.13286">
        <ele>175.6</ele>
        <time>2017-10-29T11:02:12Z</time>
      </trkpt>
      <trkpt lat="49.0318" lon="1.13296">
        <ele>175.5</ele>
        <time>2017-10-29T11:02:14Z</time>
      </trkpt>
      <trkpt lat="49.03173" lon="1.13307">
        <ele>175.3</ele>
        <time>2017-10-29T11:02:16Z</time>
      </trkpt>
      <trkpt lat="49.03165" lon="1.13318">
        <ele>175.2</ele>
        <time>2017-10-29T11:02:18Z</time>
      </trkpt>
      <trkpt lat="49.03157" lon="1.13328">
        <ele>175.3</ele>
        <time>2017-10-29T11:02:20Z</time>
      </trkpt>
      <trkpt lat="49.0315" lon="1.1334">
        <ele>175.4</ele>
        <time>2017-10-29T11:02:22Z</time>
      </trkpt>
      <trkpt lat="49.03142" lon="1.13352">
        <ele>175.4</ele>
        <time>2017-10-29T11:02:24Z</time>
      </trkpt>
      <trkpt lat="49.03135" lon="1.13364">
        <ele>175.5</ele>
        <time>2017-10-29T11:02:26Z</time>
      </trkpt>
      <trkpt lat="49.03128" lon="1.13377">
        <ele>175.6</ele>
        <time>2017-10-29T11:02:28Z</time>
      </trkpt>
      <trkpt lat="49.03121" lon="1.13391">
        <ele>175.6</ele>
        <time>2017-10-29T11:02:30Z</time>
      </trkpt>
      <trkpt lat="49.03115" lon="1.13404">
        <ele>175.7</ele>
        <time>2017-10-29T11:02:32Z</time>
      </trkpt>
      <trkpt lat="49.03108" lon="1.13418">
        <ele>175.7</ele>
        <time>2017-10-29T11:02:34Z</time>
      </trkpt>
      <trkpt lat="49.03102" lon="1.13431">
        <ele>175.7</ele>
        <time>2017-10-29T11:02:36Z</time>
      </trkpt>
      <trkpt lat="49.03096" lon="1.13444">
        <ele>175.7</ele>
        <time>2017-10-29T11:02:38Z</time>
      </trkpt>
      <trkpt lat="49.03089" lon="1.13458">
        <ele>175.9</ele>
        <time>2017-10-29T11:02:40Z</time>
      </trkpt>
      <trkpt lat="49.03082" lon="1.13472">
        <ele>176</ele>
        <time>2017-10-29T11:02:42Z</time>
      </trkpt>
      <trkpt lat="49.03076" lon="1.13485">
        <ele>176.1</ele>
        <time>2017-10-29T11:02:44Z</time>
      </trkpt>
      <trkpt lat="49.03069" lon="1.13499">
        <ele>176.2</ele>
        <time>2017-10-29T11:02:46Z</time>
      </trkpt>
      <trkpt lat="49.03062" lon="1.13513">
        <ele>176.3</ele>
        <time>2017-10-29T11:02:48Z</time>
      </trkpt>
      <trkpt lat="49.03055" lon="1.13526">
        <ele>176.5</ele>
        <time>2017-10-29T11:02:50Z</time>
      </trkpt>
      <trkpt lat="49.03046" lon="1.13536">
        <ele>176.5</ele>
        <time>2017-10-29T11:02:52Z</time>
      </trkpt>
      <trkpt lat="49.03035" lon="1.13538">
        <ele>176.6</ele>
        <time>2017-10-29T11:02:54Z</time>
      </trkpt>
      <trkpt lat="49.03027" lon="1.13533">
        <ele>176.8</ele>
        <time>2017-10-29T11:02:56Z</time>
      </trkpt>
      <trkpt lat="49.03017" lon="1.13529">
        <ele>177</ele>
        <time>2017-10-29T11:02:58Z</time>
      </trkpt>
      <trkpt lat="49.03007" lon="1.13526">
        <ele>177.2</ele>
        <time>2017-10-29T11:03:00Z</time>
      </trkpt>
      <trkpt lat="49.02996" lon="1.13526">
        <ele>177.2</ele>
        <time>2017-10-29T11:03:02Z</time>
      </trkpt>
      <trkpt lat="49.02984" lon="1.13527">
        <ele>177.2</ele>
        <time>2017-10-29T11:03:04Z</time>
      </trkpt>
      <trkpt lat="49.02972" lon="1.13532">
        <ele>177.2</ele>
        <time>2017-10-29T11:03:06Z</time>
      </trkpt>
      <trkpt lat="49.0296" lon="1.13536">
        <ele>177</ele>
        <time>2017-10-29T11:03:08Z</time>
      </trkpt>
      <trkpt lat="49.02948" lon="1.1354">
        <ele>176.9</ele>
        <time>2017-10-29T11:03:10Z</time>
      </trkpt>
      <trkpt lat="49.02935" lon="1.13544">
        <ele>176.8</ele>
        <time>2017-10-29T11:03:12Z</time>
      </trkpt>
      <trkpt lat="49.02922" lon="1.13553">
        <ele>176.7</ele>
        <time>2017-10-29T11:03:14Z</time>
      </trkpt>
      <trkpt lat="49.02912" lon="1.13567">
        <ele>176.5</ele>
        <time>2017-10-29T11:03:16Z</time>
      </trkpt>
      <trkpt lat="49.029" lon="1.13585">
        <ele>176</ele>
        <time>2017-10-29T11:03:18Z</time>
      </trkpt>
      <trkpt lat="49.02888" lon="1.13603">
        <ele>175.5</ele>
        <time>2017-10-29T11:03:20Z</time>
      </trkpt>
      <trkpt lat="49.02877" lon="1.13621">
        <ele>175</ele>
        <time>2017-10-29T11:03:22Z</time>
      </trkpt>
      <trkpt lat="49.02865" lon="1.1364">
        <ele>174.3</ele>
        <time>2017-10-29T11:03:24Z</time>
      </trkpt>
      <trkpt lat="49.02853" lon="1.1366">
        <ele>173.5</ele>
        <time>2017-10-29T11:03:26Z</time>
      </trkpt>
      <trkpt lat="49.02842" lon="1.13681">
        <ele>172.7</ele>
        <time>2017-10-29T11:03:28Z</time>
      </trkpt>
      <trkpt lat="49.02831" lon="1.13701">
        <ele>171.8</ele>
        <time>2017-10-29T11:03:30Z</time>
      </trkpt>
      <trkpt lat="49.02823" lon="1.1372">
        <ele>170.5</ele>
        <time>2017-10-29T11:03:32Z</time>
      </trkpt>
      <trkpt lat="49.02817" lon="1.13743">
        <ele>169.3</ele>
        <time>2017-10-29T11:03:34Z</time>
      </trkpt>
      <trkpt lat="49.02817" lon="1.1377">
        <ele>168</ele>
        <time>2017-10-29T11:03:36Z</time>
      </trkpt>
      <trkpt lat="49.02819" lon="1.13785">
        <ele>167.4</ele>
        <time>2017-10-29T11:03:37Z</time>
      </trkpt>
      <trkpt lat="49.02822" lon="1.13799">
        <ele>166.5</ele>
        <time>2017-10-29T11:03:38Z</time>
      </trkpt>
      <trkpt lat="49.02824" lon="1.13814">
        <ele>165.6</ele>
        <time>2017-10-29T11:03:39Z</time>
      </trkpt>
      <trkpt lat="49.02826" lon="1.1383">
        <ele>165.1</ele>
        <time>2017-10-29T11:03:40Z</time>
      </trkpt>
      <trkpt lat="49.02829" lon="1.13846">
        <ele>164.2</ele>
        <time>2017-10-29T11:03:41Z</time>
      </trkpt>
      <trkpt lat="49.02832" lon="1.13863">
        <ele>163.3</ele>
        <time>2017-10-29T11:03:42Z</time>
      </trkpt>
      <trkpt lat="49.02834" lon="1.1388">
        <ele>162.4</ele>
        <time>2017-10-29T11:03:43Z</time>
      </trkpt>
      <trkpt lat="49.02838" lon="1.13898">
        <ele>161.2</ele>
        <time>2017-10-29T11:03:44Z</time>
      </trkpt>
      <trkpt lat="49.02841" lon="1.13916">
        <ele>160</ele>
        <time>2017-10-29T11:03:45Z</time>
      </trkpt>
      <trkpt lat="49.02844" lon="1.13934">
        <ele>158.8</ele>
        <time>2017-10-29T11:03:46Z</time>
      </trkpt>
      <trkpt lat="49.02849" lon="1.13952">
        <ele>157.5</ele>
        <time>2017-10-29T11:03:47Z</time>
      </trkpt>
      <trkpt lat="49.02854" lon="1.1397">
        <ele>156.3</ele>
        <time>2017-10-29T11:03:48Z</time>
      </trkpt>
      <trkpt lat="49.02859" lon="1.13989">
        <ele>154.9</ele>
        <time>2017-10-29T11:03:49Z</time>
      </trkpt>
      <trkpt lat="49.02865" lon="1.14007">
        <ele>153.6</ele>
        <time>2017-10-29T11:03:50Z</time>
      </trkpt>
      <trkpt lat="49.02871" lon="1.14024">
        <ele>152.2</ele>
        <time>2017-10-29T11:03:51Z</time>
      </trkpt>
      <trkpt lat="49.02876" lon="1.14041">
        <ele>150.9</ele>
        <time>2017-10-29T11:03:52Z</time>
      </trkpt>
      <trkpt lat="49.02882" lon="1.14059">
        <ele>149.5</ele>
        <time>2017-10-29T11:03:53Z</time>
      </trkpt>
      <trkpt lat="49.02887" lon="1.14077">
        <ele>148.1</ele>
        <time>2017-10-29T11:03:54Z</time>
      </trkpt>
      <trkpt lat="49.02892" lon="1.14096">
        <ele>146.7</ele>
        <time>2017-10-29T11:03:55Z</time>
      </trkpt>
      <trkpt lat="49.02896" lon="1.14115">
        <ele>145.3</ele>
        <time>2017-10-29T11:03:56Z</time>
      </trkpt>
      <trkpt lat="49.02901" lon="1.14133">
        <ele>143.8</ele>
        <time>2017-10-29T11:03:57Z</time>
      </trkpt>
      <trkpt lat="49.02905" lon="1.14151">
        <ele>142.4</ele>
        <time>2017-10-29T11:03:58Z</time>
      </trkpt>
      <trkpt lat="49.02909" lon="1.14168">
        <ele>140.8</ele>
        <time>2017-10-29T11:03:59Z</time>
      </trkpt>
      <trkpt lat="49.02912" lon="1.14185">
        <ele>139.1</ele>
        <time>2017-10-29T11:04:00Z</time>
      </trkpt>
      <trkpt lat="49.02916" lon="1.14202">
        <ele>137.7</ele>
        <time>2017-10-29T11:04:01Z</time>
      </trkpt>
      <trkpt lat="49.02919" lon="1.14218">
        <ele>136.1</ele>
        <time>2017-10-29T11:04:02Z</time>
      </trkpt>
      <trkpt lat="49.02922" lon="1.14232">
        <ele>134.5</ele>
        <time>2017-10-29T11:04:03Z</time>
      </trkpt>
      <trkpt lat="49.02925" lon="1.14246">
        <ele>133</ele>
        <time>2017-10-29T11:04:04Z</time>
      </trkpt>
      <trkpt lat="49.02927" lon="1.14266">
        <ele>130.2</ele>
        <time>2017-10-29T11:04:06Z</time>
      </trkpt>
      <trkpt lat="49.02922" lon="1.14282">
        <ele>127.3</ele>
        <time>2017-10-29T11:04:08Z</time>
      </trkpt>
      <trkpt lat="49.02908" lon="1.1429">
        <ele>124.9</ele>
        <time>2017-10-29T11:04:10Z</time>
      </trkpt>
      <trkpt lat="49.02892" lon="1.14291">
        <ele>122.9</ele>
        <time>2017-10-29T11:04:12Z</time>
      </trkpt>
      <trkpt lat="49.02877" lon="1.14295">
        <ele>121</ele>
        <time>2017-10-29T11:04:14Z</time>
      </trkpt>
      <trkpt lat="49.02863" lon="1.14303">
        <ele>119.6</ele>
        <time>2017-10-29T11:04:16Z</time>
      </trkpt>
      <trkpt lat="49.02849" lon="1.14313">
        <ele>118.1</ele>
        <time>2017-10-29T11:04:18Z</time>
      </trkpt>
      <trkpt lat="49.02837" lon="1.14324">
        <ele>117</ele>
        <time>2017-10-29T11:04:20Z</time>
      </trkpt>
      <trkpt lat="49.02826" lon="1.14335">
        <ele>116</ele>
        <time>2017-10-29T11:04:22Z</time>
      </trkpt>
      <trkpt lat="49.02816" lon="1.14345">
        <ele>115.2</ele>
        <time>2017-10-29T11:04:24Z</time>
      </trkpt>
      <trkpt lat="49.02807" lon="1.14355">
        <ele>114.5</ele>
        <time>2017-10-29T11:04:26Z</time>
      </trkpt>
      <trkpt lat="49.02798" lon="1.14351">
        <ele>113.7</ele>
        <time>2017-10-29T11:04:29Z</time>
      </trkpt>
      <trkpt lat="49.02792" lon="1.14335">
        <ele>113</ele>
        <time>2017-10-29T11:04:32Z</time>
      </trkpt>
      <trkpt lat="49.02783" lon="1.14321">
        <ele>112.7</ele>
        <time>2017-10-29T11:04:35Z</time>
      </trkpt>
      <trkpt lat="49.02778" lon="1.14303">
        <ele>112.4</ele>
        <time>2017-10-29T11:04:38Z</time>
      </trkpt>
      <trkpt lat="49.02774" lon="1.14289">
        <ele>112.4</ele>
        <time>2017-10-29T11:04:40Z</time>
      </trkpt>
      <trkpt lat="49.02771" lon="1.14276">
        <ele>112.3</ele>
        <time>2017-10-29T11:04:42Z</time>
      </trkpt>
      <trkpt lat="49.02764" lon="1.1426">
        <ele>112.3</ele>
        <time>2017-10-29T11:04:45Z</time>
      </trkpt>
      <trkpt lat="49.02752" lon="1.14257">
        <ele>112.3</ele>
        <time>2017-10-29T11:04:48Z</time>
      </trkpt>
      <trkpt lat="49.0274" lon="1.14263">
        <ele>112.3</ele>
        <time>2017-10-29T11:04:51Z</time>
      </trkpt>
      <trkpt lat="49.02731" lon="1.14261">
        <ele>112.2</ele>
        <time>2017-10-29T11:04:54Z</time>
      </trkpt>
      <trkpt lat="49.02723" lon="1.14245">
        <ele>112</ele>
        <time>2017-10-29T11:04:57Z</time>
      </trkpt>
      <trkpt lat="49.02716" lon="1.14226">
        <ele>112.4</ele>
        <time>2017-10-29T11:05:00Z</time>
      </trkpt>
      <trkpt lat="49.02712" lon="1.14211">
        <ele>112.6</ele>
        <time>2017-10-29T11:05:02Z</time>
      </trkpt>
      <trkpt lat="49.02708" lon="1.14196">
        <ele>112.5</ele>
        <time>2017-10-29T11:05:04Z</time>
      </trkpt>
      <trkpt lat="49.02704" lon="1.14182">
        <ele>112.4</ele>
        <time>2017-10-29T11:05:06Z</time>
      </trkpt>
      <trkpt lat="49.02701" lon="1.14169">
        <ele>112.4</ele>
        <time>2017-10-29T11:05:08Z</time>
      </trkpt>
      <trkpt lat="49.02696" lon="1.1415">
        <ele>112.4</ele>
        <time>2017-10-29T11:05:11Z</time>
      </trkpt>
      <trkpt lat="49.02692" lon="1.14136">
        <ele>112.4</ele>
        <time>2017-10-29T11:05:14Z</time>
      </trkpt>
      <trkpt lat="49.02681" lon="1.14134">
        <ele>112.4</ele>
        <time>2017-10-29T11:05:17Z</time>
      </trkpt>
      <trkpt lat="49.02674" lon="1.14142">
        <ele>112.5</ele>
        <time>2017-10-29T11:05:19Z</time>
      </trkpt>
      <trkpt lat="49.02667" lon="1.14152">
        <ele>112.6</ele>
        <time>2017-10-29T11:05:21Z</time>
      </trkpt>
      <trkpt lat="49.02661" lon="1.14165">
        <ele>112.5</ele>
        <time>2017-10-29T11:05:23Z</time>
      </trkpt>
      <trkpt lat="49.02656" lon="1.14178">
        <ele>112.8</ele>
        <time>2017-10-29T11:05:25Z</time>
      </trkpt>
      <trkpt lat="49.02651" lon="1.14193">
        <ele>112.7</ele>
        <time>2017-10-29T11:05:27Z</time>
      </trkpt>
      <trkpt lat="49.02645" lon="1.14208">
        <ele>112.7</ele>
        <time>2017-10-29T11:05:29Z</time>
      </trkpt>
      <trkpt lat="49.02638" lon="1.14222">
        <ele>112.8</ele>
        <time>2017-10-29T11:05:31Z</time>
      </trkpt>
      <trkpt lat="49.02631" lon="1.14234">
        <ele>112.7</ele>
        <time>2017-10-29T11:05:33Z</time>
      </trkpt>
      <trkpt lat="49.02623" lon="1.14246">
        <ele>112.8</ele>
        <time>2017-10-29T11:05:35Z</time>
      </trkpt>
      <trkpt lat="49.02614" lon="1.14257">
        <ele>113.1</ele>
        <time>2017-10-29T11:05:37Z</time>
      </trkpt>
      <trkpt lat="49.02605" lon="1.14267">
        <ele>113.2</ele>
        <time>2017-10-29T11:05:39Z</time>
      </trkpt>
      <trkpt lat="49.02596" lon="1.14276">
        <ele>113.3</ele>
        <time>2017-10-29T11:05:41Z</time>
      </trkpt>
      <trkpt lat="49.02586" lon="1.14284">
        <ele>113.3</ele>
        <time>2017-10-29T11:05:43Z</time>
      </trkpt>
      <trkpt lat="49.02576" lon="1.14291">
        <ele>113.6</ele>
        <time>2017-10-29T11:05:45Z</time>
      </trkpt>
      <trkpt lat="49.02566" lon="1.14297">
        <ele>113.9</ele>
        <time>2017-10-29T11:05:47Z</time>
      </trkpt>
      <trkpt lat="49.02556" lon="1.14302">
        <ele>114.2</ele>
        <time>2017-10-29T11:05:49Z</time>
      </trkpt>
      <trkpt lat="49.02547" lon="1.1431">
        <ele>114.3</ele>
        <time>2017-10-29T11:05:51Z</time>
      </trkpt>
      <trkpt lat="49.02537" lon="1.14314">
        <ele>114.4</ele>
        <time>2017-10-29T11:05:53Z</time>
      </trkpt>
      <trkpt lat="49.02526" lon="1.14319">
        <ele>114.4</ele>
        <time>2017-10-29T11:05:55Z</time>
      </trkpt>
      <trkpt lat="49.02516" lon="1.14323">
        <ele>114.3</ele>
        <time>2017-10-29T11:05:57Z</time>
      </trkpt>
      <trkpt lat="49.02505" lon="1.14327">
        <ele>114.3</ele>
        <time>2017-10-29T11:05:59Z</time>
      </trkpt>
      <trkpt lat="49.02494" lon="1.1433">
        <ele>114.4</ele>
        <time>2017-10-29T11:06:01Z</time>
      </trkpt>
      <trkpt lat="49.02484" lon="1.14333">
        <ele>114.2</ele>
        <time>2017-10-29T11:06:03Z</time>
      </trkpt>
      <trkpt lat="49.02473" lon="1.14334">
        <ele>114.1</ele>
        <time>2017-10-29T11:06:05Z</time>
      </trkpt>
      <trkpt lat="49.02463" lon="1.14337">
        <ele>114.2</ele>
        <time>2017-10-29T11:06:07Z</time>
      </trkpt>
      <trkpt lat="49.02452" lon="1.14337">
        <ele>114.1</ele>
        <time>2017-10-29T11:06:09Z</time>
      </trkpt>
      <trkpt lat="49.0244" lon="1.14339">
        <ele>114</ele>
        <time>2017-10-29T11:06:11Z</time>
      </trkpt>
      <trkpt lat="49.0243" lon="1.14347">
        <ele>113.9</ele>
        <time>2017-10-29T11:06:13Z</time>
      </trkpt>
      <trkpt lat="49.02421" lon="1.14356">
        <ele>113.9</ele>
        <time>2017-10-29T11:06:15Z</time>
      </trkpt>
      <trkpt lat="49.02411" lon="1.14365">
        <ele>113.9</ele>
        <time>2017-10-29T11:06:17Z</time>
      </trkpt>
      <trkpt lat="49.02402" lon="1.14372">
        <ele>113.7</ele>
        <time>2017-10-29T11:06:19Z</time>
      </trkpt>
      <trkpt lat="49.0239" lon="1.1437">
        <ele>113.7</ele>
        <time>2017-10-29T11:06:22Z</time>
      </trkpt>
      <trkpt lat="49.02384" lon="1.14359">
        <ele>113.7</ele>
        <time>2017-10-29T11:06:24Z</time>
      </trkpt>
      <trkpt lat="49.02378" lon="1.14348">
        <ele>113.8</ele>
        <time>2017-10-29T11:06:26Z</time>
      </trkpt>
      <trkpt lat="49.02372" lon="1.14336">
        <ele>113.8</ele>
        <time>2017-10-29T11:06:28Z</time>
      </trkpt>
      <trkpt lat="49.02366" lon="1.14324">
        <ele>114</ele>
        <time>2017-10-29T11:06:30Z</time>
      </trkpt>
      <trkpt lat="49.0236" lon="1.14312">
        <ele>114.2</ele>
        <time>2017-10-29T11:06:32Z</time>
      </trkpt>
      <trkpt lat="49.02356" lon="1.14299">
        <ele>114.3</ele>
        <time>2017-10-29T11:06:34Z</time>
      </trkpt>
      <trkpt lat="49.02352" lon="1.14284">
        <ele>114.4</ele>
        <time>2017-10-29T11:06:36Z</time>
      </trkpt>
      <trkpt lat="49.02348" lon="1.1427">
        <ele>114.4</ele>
        <time>2017-10-29T11:06:38Z</time>
      </trkpt>
      <trkpt lat="49.02344" lon="1.14257">
        <ele>114.3</ele>
        <time>2017-10-29T11:06:40Z</time>
      </trkpt>
      <trkpt lat="49.0234" lon="1.14242">
        <ele>114.3</ele>
        <time>2017-10-29T11:06:42Z</time>
      </trkpt>
      <trkpt lat="49.02336" lon="1.14228">
        <ele>114.2</ele>
        <time>2017-10-29T11:06:44Z</time>
      </trkpt>
      <trkpt lat="49.02332" lon="1.14215">
        <ele>114.3</ele>
        <time>2017-10-29T11:06:46Z</time>
      </trkpt>
      <trkpt lat="49.02328" lon="1.142">
        <ele>114.3</ele>
        <time>2017-10-29T11:06:48Z</time>
      </trkpt>
      <trkpt lat="49.02326" lon="1.14184">
        <ele>114.4</ele>
        <time>2017-10-29T11:06:50Z</time>
      </trkpt>
      <trkpt lat="49.02323" lon="1.1417">
        <ele>114.5</ele>
        <time>2017-10-29T11:06:52Z</time>
      </trkpt>
      <trkpt lat="49.02321" lon="1.14154">
        <ele>114.5</ele>
        <time>2017-10-29T11:06:54Z</time>
      </trkpt>
      <trkpt lat="49.02318" lon="1.14139">
        <ele>114.5</ele>
        <time>2017-10-29T11:06:56Z</time>
      </trkpt>
      <trkpt lat="49.02315" lon="1.14122">
        <ele>114.6</ele>
        <time>2017-10-29T11:06:58Z</time>
      </trkpt>
      <trkpt lat="49.02312" lon="1.14107">
        <ele>114.7</ele>
        <time>2017-10-29T11:07:00Z</time>
      </trkpt>
      <trkpt lat="49.0231" lon="1.14091">
        <ele>115</ele>
        <time>2017-10-29T11:07:02Z</time>
      </trkpt>
      <trkpt lat="49.02308" lon="1.14077">
        <ele>115.2</ele>
        <time>2017-10-29T11:07:04Z</time>
      </trkpt>
      <trkpt lat="49.02301" lon="1.14067">
        <ele>115.3</ele>
        <time>2017-10-29T11:07:06Z</time>
      </trkpt>
      <trkpt lat="49.02291" lon="1.14065">
        <ele>115.1</ele>
        <time>2017-10-29T11:07:09Z</time>
      </trkpt>
      <trkpt lat="49.02281" lon="1.14064">
        <ele>114.9</ele>
        <time>2017-10-29T11:07:12Z</time>
      </trkpt>
      <trkpt lat="49.02273" lon="1.14059">
        <ele>114.9</ele>
        <time>2017-10-29T11:07:15Z</time>
      </trkpt>
      <trkpt lat="49.02263" lon="1.14065">
        <ele>114.8</ele>
        <time>2017-10-29T11:07:18Z</time>
      </trkpt>
      <trkpt lat="49.02254" lon="1.14071">
        <ele>114.9</ele>
        <time>2017-10-29T11:07:21Z</time>
      </trkpt>
      <trkpt lat="49.02245" lon="1.14074">
        <ele>114.9</ele>
        <time>2017-10-29T11:07:24Z</time>
      </trkpt>
    </trkseg>
  </trk>
</gpx>